<?xml version="1.0" encoding="UTF-8" standalone="no" ?>
<gpx xmlns="http://www.topografix.com/GPX/1/1" xmlns:xsi="http://www.w3.org/2001/XMLSchema-instance" xsi:schemaLocation="http://www.topografix.com/GPX/1/1 http://www.topografix.com/GPX/1/1/gpx.xsd" version="1.1" creator="VisuGPX - https://www.visugpx.com">
  <metadata>
    <name>Cyclo - Léoncel par le col de Tourniol</name>
    <desc><![CDATA[Mistral de ouf et grosse chaleur mais parcours génial ;)]]></desc>
  </metadata>
  <trk>
    <name><![CDATA[Cyclo - Léoncel par le col de Tourniol_1]]></name>
    <trkseg>
      <trkpt lat="44.90045" lon="5.0196">
        <ele>214.52233886719</ele>
        <time>2016-06-25T11:35:45.000Z</time>
      </trkpt>
      <trkpt lat="44.90038" lon="5.01959">
        <ele>214.515625</ele>
        <time>2016-06-25T11:35:51.000Z</time>
      </trkpt>
      <trkpt lat="44.90025" lon="5.01956">
        <ele>214.49975585938</ele>
        <time>2016-06-25T11:35:54.000Z</time>
      </trkpt>
      <trkpt lat="44.90008" lon="5.01949">
        <ele>214.47305297852</ele>
        <time>2016-06-25T11:35:57.000Z</time>
      </trkpt>
      <trkpt lat="44.89995" lon="5.01937">
        <ele>214.42822265625</ele>
        <time>2016-06-25T11:36:00.000Z</time>
      </trkpt>
      <trkpt lat="44.89986" lon="5.01922">
        <ele>214.33715820312</ele>
        <time>2016-06-25T11:36:03.000Z</time>
      </trkpt>
      <trkpt lat="44.89991" lon="5.01901">
        <ele>214.19412231445</ele>
        <time>2016-06-25T11:36:06.000Z</time>
      </trkpt>
      <trkpt lat="44.89997" lon="5.01881">
        <ele>214.01187133789</ele>
        <time>2016-06-25T11:36:09.000Z</time>
      </trkpt>
      <trkpt lat="44.89999" lon="5.01861">
        <ele>213.79829406738</ele>
        <time>2016-06-25T11:36:12.000Z</time>
      </trkpt>
      <trkpt lat="44.90003" lon="5.01847">
        <ele>213.58755493164</ele>
        <time>2016-06-25T11:36:14.000Z</time>
      </trkpt>
      <trkpt lat="44.90003" lon="5.01832">
        <ele>213.37026977539</ele>
        <time>2016-06-25T11:36:17.000Z</time>
      </trkpt>
      <trkpt lat="44.90017" lon="5.01811">
        <ele>213.11318969727</ele>
        <time>2016-06-25T11:36:20.000Z</time>
      </trkpt>
      <trkpt lat="44.90028" lon="5.01804">
        <ele>212.90316772461</ele>
        <time>2016-06-25T11:36:22.000Z</time>
      </trkpt>
      <trkpt lat="44.90038" lon="5.01805">
        <ele>212.78530883789</ele>
        <time>2016-06-25T11:36:24.000Z</time>
      </trkpt>
      <trkpt lat="44.90049" lon="5.01817">
        <ele>212.79165649414</ele>
        <time>2016-06-25T11:36:27.000Z</time>
      </trkpt>
      <trkpt lat="44.90065" lon="5.01823">
        <ele>212.91723632812</ele>
        <time>2016-06-25T11:36:30.000Z</time>
      </trkpt>
      <trkpt lat="44.90075" lon="5.0183">
        <ele>213.18547058105</ele>
        <time>2016-06-25T11:36:32.000Z</time>
      </trkpt>
      <trkpt lat="44.90085" lon="5.01835">
        <ele>213.48420715332</ele>
        <time>2016-06-25T11:36:34.000Z</time>
      </trkpt>
      <trkpt lat="44.90103" lon="5.01839">
        <ele>213.74044799805</ele>
        <time>2016-06-25T11:36:37.000Z</time>
      </trkpt>
      <trkpt lat="44.90115" lon="5.01845">
        <ele>213.90620422363</ele>
        <time>2016-06-25T11:36:40.000Z</time>
      </trkpt>
      <trkpt lat="44.90134" lon="5.01859">
        <ele>214.02160644531</ele>
        <time>2016-06-25T11:36:43.000Z</time>
      </trkpt>
      <trkpt lat="44.9015" lon="5.01867">
        <ele>214.11660766602</ele>
        <time>2016-06-25T11:36:46.000Z</time>
      </trkpt>
      <trkpt lat="44.90163" lon="5.01865">
        <ele>214.18879699707</ele>
        <time>2016-06-25T11:36:48.000Z</time>
      </trkpt>
      <trkpt lat="44.9017" lon="5.01871">
        <ele>214.27944946289</ele>
        <time>2016-06-25T11:36:50.000Z</time>
      </trkpt>
      <trkpt lat="44.90188" lon="5.01878">
        <ele>214.40010070801</ele>
        <time>2016-06-25T11:36:53.000Z</time>
      </trkpt>
      <trkpt lat="44.902" lon="5.01884">
        <ele>214.51638793945</ele>
        <time>2016-06-25T11:36:56.000Z</time>
      </trkpt>
      <trkpt lat="44.9021" lon="5.01888">
        <ele>214.61804199219</ele>
        <time>2016-06-25T11:36:58.000Z</time>
      </trkpt>
      <trkpt lat="44.90225" lon="5.01893">
        <ele>214.7292175293</ele>
        <time>2016-06-25T11:37:01.000Z</time>
      </trkpt>
      <trkpt lat="44.90244" lon="5.01894">
        <ele>214.83081054688</ele>
        <time>2016-06-25T11:37:04.000Z</time>
      </trkpt>
      <trkpt lat="44.90258" lon="5.01901">
        <ele>214.91386413574</ele>
        <time>2016-06-25T11:37:07.000Z</time>
      </trkpt>
      <trkpt lat="44.90267" lon="5.01907">
        <ele>214.99703979492</ele>
        <time>2016-06-25T11:37:09.000Z</time>
      </trkpt>
      <trkpt lat="44.90277" lon="5.01911">
        <ele>215.08984375</ele>
        <time>2016-06-25T11:37:11.000Z</time>
      </trkpt>
      <trkpt lat="44.90292" lon="5.01915">
        <ele>215.20455932617</ele>
        <time>2016-06-25T11:37:14.000Z</time>
      </trkpt>
      <trkpt lat="44.90307" lon="5.01926">
        <ele>215.3462677002</ele>
        <time>2016-06-25T11:37:17.000Z</time>
      </trkpt>
      <trkpt lat="44.90323" lon="5.01931">
        <ele>215.50686645508</ele>
        <time>2016-06-25T11:37:20.000Z</time>
      </trkpt>
      <trkpt lat="44.90335" lon="5.01937">
        <ele>215.67121887207</ele>
        <time>2016-06-25T11:37:23.000Z</time>
      </trkpt>
      <trkpt lat="44.90345" lon="5.0194">
        <ele>215.82002258301</ele>
        <time>2016-06-25T11:37:25.000Z</time>
      </trkpt>
      <trkpt lat="44.90356" lon="5.01944">
        <ele>215.93965148926</ele>
        <time>2016-06-25T11:37:27.000Z</time>
      </trkpt>
      <trkpt lat="44.9037" lon="5.01955">
        <ele>216.04357910156</ele>
        <time>2016-06-25T11:37:30.000Z</time>
      </trkpt>
      <trkpt lat="44.90385" lon="5.01961">
        <ele>216.13491821289</ele>
        <time>2016-06-25T11:37:33.000Z</time>
      </trkpt>
      <trkpt lat="44.90397" lon="5.01964">
        <ele>216.22021484375</ele>
        <time>2016-06-25T11:37:35.000Z</time>
      </trkpt>
      <trkpt lat="44.90413" lon="5.01968">
        <ele>216.32917785645</ele>
        <time>2016-06-25T11:37:38.000Z</time>
      </trkpt>
      <trkpt lat="44.90427" lon="5.01975">
        <ele>216.47045898438</ele>
        <time>2016-06-25T11:37:41.000Z</time>
      </trkpt>
      <trkpt lat="44.90444" lon="5.01981">
        <ele>216.63505554199</ele>
        <time>2016-06-25T11:37:44.000Z</time>
      </trkpt>
      <trkpt lat="44.90461" lon="5.01988">
        <ele>216.82931518555</ele>
        <time>2016-06-25T11:37:47.000Z</time>
      </trkpt>
      <trkpt lat="44.90477" lon="5.0199">
        <ele>217.04690551758</ele>
        <time>2016-06-25T11:37:50.000Z</time>
      </trkpt>
      <trkpt lat="44.90495" lon="5.01992">
        <ele>217.27958679199</ele>
        <time>2016-06-25T11:37:53.000Z</time>
      </trkpt>
      <trkpt lat="44.90505" lon="5.01992">
        <ele>217.48526000977</ele>
        <time>2016-06-25T11:37:55.000Z</time>
      </trkpt>
      <trkpt lat="44.90517" lon="5.01993">
        <ele>217.64852905273</ele>
        <time>2016-06-25T11:37:57.000Z</time>
      </trkpt>
      <trkpt lat="44.90536" lon="5.01995">
        <ele>217.76753234863</ele>
        <time>2016-06-25T11:38:00.000Z</time>
      </trkpt>
      <trkpt lat="44.90549" lon="5.01993">
        <ele>217.83969116211</ele>
        <time>2016-06-25T11:38:02.000Z</time>
      </trkpt>
      <trkpt lat="44.90564" lon="5.01994">
        <ele>217.87069702148</ele>
        <time>2016-06-25T11:38:05.000Z</time>
      </trkpt>
      <trkpt lat="44.90579" lon="5.01994">
        <ele>217.89102172852</ele>
        <time>2016-06-25T11:38:08.000Z</time>
      </trkpt>
      <trkpt lat="44.90596" lon="5.01996">
        <ele>217.88040161133</ele>
        <time>2016-06-25T11:38:11.000Z</time>
      </trkpt>
      <trkpt lat="44.90614" lon="5.01991">
        <ele>217.80683898926</ele>
        <time>2016-06-25T11:38:14.000Z</time>
      </trkpt>
      <trkpt lat="44.90631" lon="5.0199">
        <ele>217.69155883789</ele>
        <time>2016-06-25T11:38:17.000Z</time>
      </trkpt>
      <trkpt lat="44.90642" lon="5.01989">
        <ele>217.54306030273</ele>
        <time>2016-06-25T11:38:19.000Z</time>
      </trkpt>
      <trkpt lat="44.90661" lon="5.01992">
        <ele>217.35168457031</ele>
        <time>2016-06-25T11:38:22.000Z</time>
      </trkpt>
      <trkpt lat="44.90682" lon="5.01994">
        <ele>217.21626281738</ele>
        <time>2016-06-25T11:38:25.000Z</time>
      </trkpt>
      <trkpt lat="44.90693" lon="5.01993">
        <ele>217.1555480957</ele>
        <time>2016-06-25T11:38:27.000Z</time>
      </trkpt>
      <trkpt lat="44.90705" lon="5.01991">
        <ele>217.16647338867</ele>
        <time>2016-06-25T11:38:29.000Z</time>
      </trkpt>
      <trkpt lat="44.90723" lon="5.01991">
        <ele>217.24711608887</ele>
        <time>2016-06-25T11:38:32.000Z</time>
      </trkpt>
      <trkpt lat="44.90734" lon="5.01991">
        <ele>217.39501953125</ele>
        <time>2016-06-25T11:38:34.000Z</time>
      </trkpt>
      <trkpt lat="44.90746" lon="5.01992">
        <ele>217.54418945312</ele>
        <time>2016-06-25T11:38:36.000Z</time>
      </trkpt>
      <trkpt lat="44.90765" lon="5.01992">
        <ele>217.67854309082</ele>
        <time>2016-06-25T11:38:39.000Z</time>
      </trkpt>
      <trkpt lat="44.90778" lon="5.01991">
        <ele>217.78616333008</ele>
        <time>2016-06-25T11:38:41.000Z</time>
      </trkpt>
      <trkpt lat="44.90791" lon="5.01992">
        <ele>217.85336303711</ele>
        <time>2016-06-25T11:38:43.000Z</time>
      </trkpt>
      <trkpt lat="44.9081" lon="5.0199">
        <ele>217.88883972168</ele>
        <time>2016-06-25T11:38:46.000Z</time>
      </trkpt>
      <trkpt lat="44.90823" lon="5.01989">
        <ele>217.88903808594</ele>
        <time>2016-06-25T11:38:48.000Z</time>
      </trkpt>
      <trkpt lat="44.90839" lon="5.0199">
        <ele>217.89584350586</ele>
        <time>2016-06-25T11:38:51.000Z</time>
      </trkpt>
      <trkpt lat="44.90851" lon="5.01989">
        <ele>217.92068481445</ele>
        <time>2016-06-25T11:38:53.000Z</time>
      </trkpt>
      <trkpt lat="44.90868" lon="5.01988">
        <ele>217.97131347656</ele>
        <time>2016-06-25T11:38:56.000Z</time>
      </trkpt>
      <trkpt lat="44.9088" lon="5.01987">
        <ele>218.04130554199</ele>
        <time>2016-06-25T11:38:58.000Z</time>
      </trkpt>
      <trkpt lat="44.90892" lon="5.01985">
        <ele>218.1247253418</ele>
        <time>2016-06-25T11:39:00.000Z</time>
      </trkpt>
      <trkpt lat="44.90911" lon="5.01983">
        <ele>218.20478820801</ele>
        <time>2016-06-25T11:39:03.000Z</time>
      </trkpt>
      <trkpt lat="44.9093" lon="5.01981">
        <ele>218.1918182373</ele>
        <time>2016-06-25T11:39:06.000Z</time>
      </trkpt>
      <trkpt lat="44.9095" lon="5.01984">
        <ele>218.05537414551</ele>
        <time>2016-06-25T11:39:09.000Z</time>
      </trkpt>
      <trkpt lat="44.90968" lon="5.01985">
        <ele>217.79956054688</ele>
        <time>2016-06-25T11:39:12.000Z</time>
      </trkpt>
      <trkpt lat="44.90981" lon="5.01985">
        <ele>217.45320129395</ele>
        <time>2016-06-25T11:39:14.000Z</time>
      </trkpt>
      <trkpt lat="44.91003" lon="5.0198">
        <ele>216.98452758789</ele>
        <time>2016-06-25T11:39:17.000Z</time>
      </trkpt>
      <trkpt lat="44.91023" lon="5.01982">
        <ele>216.58125305176</ele>
        <time>2016-06-25T11:39:20.000Z</time>
      </trkpt>
      <trkpt lat="44.91039" lon="5.01986">
        <ele>216.27136230469</ele>
        <time>2016-06-25T11:39:23.000Z</time>
      </trkpt>
      <trkpt lat="44.91057" lon="5.01987">
        <ele>216.0588684082</ele>
        <time>2016-06-25T11:39:26.000Z</time>
      </trkpt>
      <trkpt lat="44.9107" lon="5.01987">
        <ele>215.92324829102</ele>
        <time>2016-06-25T11:39:28.000Z</time>
      </trkpt>
      <trkpt lat="44.91089" lon="5.01987">
        <ele>215.89428710938</ele>
        <time>2016-06-25T11:39:31.000Z</time>
      </trkpt>
      <trkpt lat="44.9111" lon="5.01988">
        <ele>215.87666320801</ele>
        <time>2016-06-25T11:39:34.000Z</time>
      </trkpt>
      <trkpt lat="44.91123" lon="5.01988">
        <ele>215.86344909668</ele>
        <time>2016-06-25T11:39:36.000Z</time>
      </trkpt>
      <trkpt lat="44.91143" lon="5.01989">
        <ele>215.85762023926</ele>
        <time>2016-06-25T11:39:39.000Z</time>
      </trkpt>
      <trkpt lat="44.91156" lon="5.01988">
        <ele>215.85388183594</ele>
        <time>2016-06-25T11:39:41.000Z</time>
      </trkpt>
      <trkpt lat="44.91178" lon="5.01986">
        <ele>215.81799316406</ele>
        <time>2016-06-25T11:39:44.000Z</time>
      </trkpt>
      <trkpt lat="44.9119" lon="5.01988">
        <ele>215.75473022461</ele>
        <time>2016-06-25T11:39:46.000Z</time>
      </trkpt>
      <trkpt lat="44.91209" lon="5.01986">
        <ele>215.62997436523</ele>
        <time>2016-06-25T11:39:49.000Z</time>
      </trkpt>
      <trkpt lat="44.91228" lon="5.0199">
        <ele>215.46765136719</ele>
        <time>2016-06-25T11:39:52.000Z</time>
      </trkpt>
      <trkpt lat="44.91248" lon="5.0199">
        <ele>215.25556945801</ele>
        <time>2016-06-25T11:39:55.000Z</time>
      </trkpt>
      <trkpt lat="44.91267" lon="5.02002">
        <ele>215.16760253906</ele>
        <time>2016-06-25T11:39:58.000Z</time>
      </trkpt>
      <trkpt lat="44.91278" lon="5.02013">
        <ele>215.14733886719</ele>
        <time>2016-06-25T11:40:00.000Z</time>
      </trkpt>
      <trkpt lat="44.91292" lon="5.02023">
        <ele>215.22993469238</ele>
        <time>2016-06-25T11:40:03.000Z</time>
      </trkpt>
      <trkpt lat="44.91303" lon="5.02022">
        <ele>215.36601257324</ele>
        <time>2016-06-25T11:40:05.000Z</time>
      </trkpt>
      <trkpt lat="44.91314" lon="5.02017">
        <ele>215.57150268555</ele>
        <time>2016-06-25T11:40:07.000Z</time>
      </trkpt>
      <trkpt lat="44.91327" lon="5.02023">
        <ele>215.71488952637</ele>
        <time>2016-06-25T11:40:10.000Z</time>
      </trkpt>
      <trkpt lat="44.9133" lon="5.02037">
        <ele>215.82339477539</ele>
        <time>2016-06-25T11:40:13.000Z</time>
      </trkpt>
      <trkpt lat="44.9133" lon="5.02048">
        <ele>215.89115905762</ele>
        <time>2016-06-25T11:40:15.000Z</time>
      </trkpt>
      <trkpt lat="44.91329" lon="5.02059">
        <ele>215.94161987305</ele>
        <time>2016-06-25T11:40:17.000Z</time>
      </trkpt>
      <trkpt lat="44.91329" lon="5.02074">
        <ele>215.97692871094</ele>
        <time>2016-06-25T11:40:20.000Z</time>
      </trkpt>
      <trkpt lat="44.91329" lon="5.0209">
        <ele>215.98893737793</ele>
        <time>2016-06-25T11:40:23.000Z</time>
      </trkpt>
      <trkpt lat="44.9133" lon="5.02106">
        <ele>215.99601745605</ele>
        <time>2016-06-25T11:40:26.000Z</time>
      </trkpt>
      <trkpt lat="44.91328" lon="5.02123">
        <ele>216.0051574707</ele>
        <time>2016-06-25T11:40:29.000Z</time>
      </trkpt>
      <trkpt lat="44.91326" lon="5.02139">
        <ele>216.01953125</ele>
        <time>2016-06-25T11:40:32.000Z</time>
      </trkpt>
      <trkpt lat="44.91325" lon="5.02147">
        <ele>216.03610229492</ele>
        <time>2016-06-25T11:40:34.000Z</time>
      </trkpt>
      <trkpt lat="44.91331" lon="5.02134">
        <ele>216.0393371582</ele>
        <time>2016-06-25T11:40:37.000Z</time>
      </trkpt>
      <trkpt lat="44.9133" lon="5.02095">
        <ele>216.03804016113</ele>
        <time>2016-06-25T11:40:41.000Z</time>
      </trkpt>
      <trkpt lat="44.91335" lon="5.02081">
        <ele>216.03500366211</ele>
        <time>2016-06-25T11:40:43.000Z</time>
      </trkpt>
      <trkpt lat="44.91336" lon="5.02064">
        <ele>216.02713012695</ele>
        <time>2016-06-25T11:40:45.000Z</time>
      </trkpt>
      <trkpt lat="44.91341" lon="5.0204">
        <ele>216.0111541748</ele>
        <time>2016-06-25T11:40:48.000Z</time>
      </trkpt>
      <trkpt lat="44.91345" lon="5.02025">
        <ele>215.99569702148</ele>
        <time>2016-06-25T11:40:50.000Z</time>
      </trkpt>
      <trkpt lat="44.91361" lon="5.02008">
        <ele>215.94087219238</ele>
        <time>2016-06-25T11:40:53.000Z</time>
      </trkpt>
      <trkpt lat="44.91372" lon="5.02">
        <ele>215.84577941895</ele>
        <time>2016-06-25T11:40:55.000Z</time>
      </trkpt>
      <trkpt lat="44.91383" lon="5.01997">
        <ele>215.71899414062</ele>
        <time>2016-06-25T11:40:57.000Z</time>
      </trkpt>
      <trkpt lat="44.91403" lon="5.01995">
        <ele>215.55032348633</ele>
        <time>2016-06-25T11:41:00.000Z</time>
      </trkpt>
      <trkpt lat="44.91417" lon="5.01994">
        <ele>215.36225891113</ele>
        <time>2016-06-25T11:41:02.000Z</time>
      </trkpt>
      <trkpt lat="44.91438" lon="5.01994">
        <ele>215.26126098633</ele>
        <time>2016-06-25T11:41:05.000Z</time>
      </trkpt>
      <trkpt lat="44.91461" lon="5.01993">
        <ele>215.24044799805</ele>
        <time>2016-06-25T11:41:08.000Z</time>
      </trkpt>
      <trkpt lat="44.91476" lon="5.01992">
        <ele>215.27973937988</ele>
        <time>2016-06-25T11:41:10.000Z</time>
      </trkpt>
      <trkpt lat="44.91499" lon="5.01993">
        <ele>215.41207885742</ele>
        <time>2016-06-25T11:41:13.000Z</time>
      </trkpt>
      <trkpt lat="44.91522" lon="5.01991">
        <ele>215.47392272949</ele>
        <time>2016-06-25T11:41:16.000Z</time>
      </trkpt>
      <trkpt lat="44.91537" lon="5.01992">
        <ele>215.43144226074</ele>
        <time>2016-06-25T11:41:18.000Z</time>
      </trkpt>
      <trkpt lat="44.91558" lon="5.01993">
        <ele>215.25747680664</ele>
        <time>2016-06-25T11:41:21.000Z</time>
      </trkpt>
      <trkpt lat="44.91571" lon="5.01994">
        <ele>214.99589538574</ele>
        <time>2016-06-25T11:41:23.000Z</time>
      </trkpt>
      <trkpt lat="44.9159" lon="5.01995">
        <ele>214.66345214844</ele>
        <time>2016-06-25T11:41:26.000Z</time>
      </trkpt>
      <trkpt lat="44.9161" lon="5.01993">
        <ele>214.52047729492</ele>
        <time>2016-06-25T11:41:29.000Z</time>
      </trkpt>
      <trkpt lat="44.91624" lon="5.01992">
        <ele>214.49446105957</ele>
        <time>2016-06-25T11:41:31.000Z</time>
      </trkpt>
      <trkpt lat="44.91644" lon="5.01993">
        <ele>214.64993286133</ele>
        <time>2016-06-25T11:41:34.000Z</time>
      </trkpt>
      <trkpt lat="44.91662" lon="5.01994">
        <ele>214.9460144043</ele>
        <time>2016-06-25T11:41:37.000Z</time>
      </trkpt>
      <trkpt lat="44.9168" lon="5.01992">
        <ele>215.21113586426</ele>
        <time>2016-06-25T11:41:40.000Z</time>
      </trkpt>
      <trkpt lat="44.91692" lon="5.01993">
        <ele>215.33895874023</ele>
        <time>2016-06-25T11:41:42.000Z</time>
      </trkpt>
      <trkpt lat="44.91703" lon="5.01994">
        <ele>215.35903930664</ele>
        <time>2016-06-25T11:41:44.000Z</time>
      </trkpt>
      <trkpt lat="44.91715" lon="5.01994">
        <ele>215.22985839844</ele>
        <time>2016-06-25T11:41:46.000Z</time>
      </trkpt>
      <trkpt lat="44.91735" lon="5.01996">
        <ele>214.93310546875</ele>
        <time>2016-06-25T11:41:49.000Z</time>
      </trkpt>
      <trkpt lat="44.91753" lon="5.01997">
        <ele>214.609375</ele>
        <time>2016-06-25T11:41:52.000Z</time>
      </trkpt>
      <trkpt lat="44.91772" lon="5.01999">
        <ele>214.248046875</ele>
        <time>2016-06-25T11:41:55.000Z</time>
      </trkpt>
      <trkpt lat="44.91787" lon="5.01999">
        <ele>213.87275695801</ele>
        <time>2016-06-25T11:41:57.000Z</time>
      </trkpt>
      <trkpt lat="44.91806" lon="5.02">
        <ele>213.46626281738</ele>
        <time>2016-06-25T11:42:00.000Z</time>
      </trkpt>
      <trkpt lat="44.91819" lon="5.02">
        <ele>213.08418273926</ele>
        <time>2016-06-25T11:42:02.000Z</time>
      </trkpt>
      <trkpt lat="44.91838" lon="5.02001">
        <ele>212.72920227051</ele>
        <time>2016-06-25T11:42:05.000Z</time>
      </trkpt>
      <trkpt lat="44.91852" lon="5.02001">
        <ele>212.49398803711</ele>
        <time>2016-06-25T11:42:07.000Z</time>
      </trkpt>
      <trkpt lat="44.91865" lon="5.02">
        <ele>212.35000610352</ele>
        <time>2016-06-25T11:42:09.000Z</time>
      </trkpt>
      <trkpt lat="44.9188" lon="5.02002">
        <ele>212.33438110352</ele>
        <time>2016-06-25T11:42:11.000Z</time>
      </trkpt>
      <trkpt lat="44.91895" lon="5.02002">
        <ele>212.4172668457</ele>
        <time>2016-06-25T11:42:13.000Z</time>
      </trkpt>
      <trkpt lat="44.91911" lon="5.02002">
        <ele>212.59053039551</ele>
        <time>2016-06-25T11:42:15.000Z</time>
      </trkpt>
      <trkpt lat="44.91932" lon="5.02002">
        <ele>212.70698547363</ele>
        <time>2016-06-25T11:42:18.000Z</time>
      </trkpt>
      <trkpt lat="44.91947" lon="5.02003">
        <ele>212.7660369873</ele>
        <time>2016-06-25T11:42:20.000Z</time>
      </trkpt>
      <trkpt lat="44.91968" lon="5.02003">
        <ele>212.7378692627</ele>
        <time>2016-06-25T11:42:23.000Z</time>
      </trkpt>
      <trkpt lat="44.91983" lon="5.02002">
        <ele>212.63070678711</ele>
        <time>2016-06-25T11:42:25.000Z</time>
      </trkpt>
      <trkpt lat="44.92004" lon="5.02003">
        <ele>212.44445800781</ele>
        <time>2016-06-25T11:42:28.000Z</time>
      </trkpt>
      <trkpt lat="44.92018" lon="5.02003">
        <ele>212.2477722168</ele>
        <time>2016-06-25T11:42:30.000Z</time>
      </trkpt>
      <trkpt lat="44.92031" lon="5.02004">
        <ele>212.05041503906</ele>
        <time>2016-06-25T11:42:32.000Z</time>
      </trkpt>
      <trkpt lat="44.92053" lon="5.02004">
        <ele>211.84664916992</ele>
        <time>2016-06-25T11:42:35.000Z</time>
      </trkpt>
      <trkpt lat="44.92075" lon="5.02006">
        <ele>211.63540649414</ele>
        <time>2016-06-25T11:42:38.000Z</time>
      </trkpt>
      <trkpt lat="44.92089" lon="5.02006">
        <ele>211.43246459961</ele>
        <time>2016-06-25T11:42:40.000Z</time>
      </trkpt>
      <trkpt lat="44.92112" lon="5.02007">
        <ele>211.21713256836</ele>
        <time>2016-06-25T11:42:43.000Z</time>
      </trkpt>
      <trkpt lat="44.92133" lon="5.02011">
        <ele>211.00178527832</ele>
        <time>2016-06-25T11:42:46.000Z</time>
      </trkpt>
      <trkpt lat="44.92154" lon="5.02017">
        <ele>210.82080078125</ele>
        <time>2016-06-25T11:42:49.000Z</time>
      </trkpt>
      <trkpt lat="44.92167" lon="5.02018">
        <ele>210.67147827148</ele>
        <time>2016-06-25T11:42:51.000Z</time>
      </trkpt>
      <trkpt lat="44.92188" lon="5.0202">
        <ele>210.55537414551</ele>
        <time>2016-06-25T11:42:54.000Z</time>
      </trkpt>
      <trkpt lat="44.922" lon="5.02023">
        <ele>210.48803710938</ele>
        <time>2016-06-25T11:42:56.000Z</time>
      </trkpt>
      <trkpt lat="44.92213" lon="5.02024">
        <ele>210.44882202148</ele>
        <time>2016-06-25T11:42:58.000Z</time>
      </trkpt>
      <trkpt lat="44.92233" lon="5.02027">
        <ele>210.42300415039</ele>
        <time>2016-06-25T11:43:01.000Z</time>
      </trkpt>
      <trkpt lat="44.92246" lon="5.0203">
        <ele>210.41088867188</ele>
        <time>2016-06-25T11:43:03.000Z</time>
      </trkpt>
      <trkpt lat="44.92259" lon="5.02032">
        <ele>210.3818359375</ele>
        <time>2016-06-25T11:43:05.000Z</time>
      </trkpt>
      <trkpt lat="44.92279" lon="5.02034">
        <ele>210.30661010742</ele>
        <time>2016-06-25T11:43:08.000Z</time>
      </trkpt>
      <trkpt lat="44.92299" lon="5.02037">
        <ele>210.19229125977</ele>
        <time>2016-06-25T11:43:11.000Z</time>
      </trkpt>
      <trkpt lat="44.92317" lon="5.02043">
        <ele>210.05583190918</ele>
        <time>2016-06-25T11:43:14.000Z</time>
      </trkpt>
      <trkpt lat="44.92327" lon="5.02048">
        <ele>209.91052246094</ele>
        <time>2016-06-25T11:43:16.000Z</time>
      </trkpt>
      <trkpt lat="44.92347" lon="5.02054">
        <ele>209.78317260742</ele>
        <time>2016-06-25T11:43:19.000Z</time>
      </trkpt>
      <trkpt lat="44.9236" lon="5.02056">
        <ele>209.70405578613</ele>
        <time>2016-06-25T11:43:21.000Z</time>
      </trkpt>
      <trkpt lat="44.92378" lon="5.02066">
        <ele>209.69328308105</ele>
        <time>2016-06-25T11:43:24.000Z</time>
      </trkpt>
      <trkpt lat="44.92397" lon="5.02072">
        <ele>209.72512817383</ele>
        <time>2016-06-25T11:43:27.000Z</time>
      </trkpt>
      <trkpt lat="44.92415" lon="5.0208">
        <ele>209.78698730469</ele>
        <time>2016-06-25T11:43:30.000Z</time>
      </trkpt>
      <trkpt lat="44.92427" lon="5.02082">
        <ele>209.80586242676</ele>
        <time>2016-06-25T11:43:32.000Z</time>
      </trkpt>
      <trkpt lat="44.9244" lon="5.02087">
        <ele>209.76571655273</ele>
        <time>2016-06-25T11:43:34.000Z</time>
      </trkpt>
      <trkpt lat="44.92457" lon="5.02091">
        <ele>209.62951660156</ele>
        <time>2016-06-25T11:43:37.000Z</time>
      </trkpt>
      <trkpt lat="44.9247" lon="5.02093">
        <ele>209.42092895508</ele>
        <time>2016-06-25T11:43:39.000Z</time>
      </trkpt>
      <trkpt lat="44.92489" lon="5.02101">
        <ele>209.12553405762</ele>
        <time>2016-06-25T11:43:42.000Z</time>
      </trkpt>
      <trkpt lat="44.92501" lon="5.02107">
        <ele>208.83280944824</ele>
        <time>2016-06-25T11:43:44.000Z</time>
      </trkpt>
      <trkpt lat="44.9252" lon="5.02114">
        <ele>208.59509277344</ele>
        <time>2016-06-25T11:43:47.000Z</time>
      </trkpt>
      <trkpt lat="44.92532" lon="5.02119">
        <ele>208.42526245117</ele>
        <time>2016-06-25T11:43:49.000Z</time>
      </trkpt>
      <trkpt lat="44.92549" lon="5.02128">
        <ele>208.30424499512</ele>
        <time>2016-06-25T11:43:52.000Z</time>
      </trkpt>
      <trkpt lat="44.92566" lon="5.02138">
        <ele>208.2347869873</ele>
        <time>2016-06-25T11:43:55.000Z</time>
      </trkpt>
      <trkpt lat="44.92584" lon="5.02147">
        <ele>208.17965698242</ele>
        <time>2016-06-25T11:43:58.000Z</time>
      </trkpt>
      <trkpt lat="44.92602" lon="5.02154">
        <ele>208.11721801758</ele>
        <time>2016-06-25T11:44:01.000Z</time>
      </trkpt>
      <trkpt lat="44.92613" lon="5.02161">
        <ele>208.05924987793</ele>
        <time>2016-06-25T11:44:03.000Z</time>
      </trkpt>
      <trkpt lat="44.9263" lon="5.02171">
        <ele>208.02738952637</ele>
        <time>2016-06-25T11:44:06.000Z</time>
      </trkpt>
      <trkpt lat="44.92641" lon="5.02175">
        <ele>208.01933288574</ele>
        <time>2016-06-25T11:44:08.000Z</time>
      </trkpt>
      <trkpt lat="44.92652" lon="5.02181">
        <ele>208.03816223145</ele>
        <time>2016-06-25T11:44:10.000Z</time>
      </trkpt>
      <trkpt lat="44.92669" lon="5.02185">
        <ele>208.04597473145</ele>
        <time>2016-06-25T11:44:13.000Z</time>
      </trkpt>
      <trkpt lat="44.92681" lon="5.02192">
        <ele>208.06094360352</ele>
        <time>2016-06-25T11:44:15.000Z</time>
      </trkpt>
      <trkpt lat="44.92692" lon="5.02197">
        <ele>208.07063293457</ele>
        <time>2016-06-25T11:44:17.000Z</time>
      </trkpt>
      <trkpt lat="44.92709" lon="5.02207">
        <ele>208.10127258301</ele>
        <time>2016-06-25T11:44:20.000Z</time>
      </trkpt>
      <trkpt lat="44.92727" lon="5.02214">
        <ele>208.16508483887</ele>
        <time>2016-06-25T11:44:23.000Z</time>
      </trkpt>
      <trkpt lat="44.92743" lon="5.02221">
        <ele>208.28327941895</ele>
        <time>2016-06-25T11:44:26.000Z</time>
      </trkpt>
      <trkpt lat="44.92759" lon="5.02229">
        <ele>208.40014648438</ele>
        <time>2016-06-25T11:44:29.000Z</time>
      </trkpt>
      <trkpt lat="44.92775" lon="5.02239">
        <ele>208.49136352539</ele>
        <time>2016-06-25T11:44:32.000Z</time>
      </trkpt>
      <trkpt lat="44.92785" lon="5.02246">
        <ele>208.54887390137</ele>
        <time>2016-06-25T11:44:34.000Z</time>
      </trkpt>
      <trkpt lat="44.92802" lon="5.02254">
        <ele>208.56025695801</ele>
        <time>2016-06-25T11:44:37.000Z</time>
      </trkpt>
      <trkpt lat="44.92813" lon="5.0226">
        <ele>208.53630065918</ele>
        <time>2016-06-25T11:44:39.000Z</time>
      </trkpt>
      <trkpt lat="44.92825" lon="5.02267">
        <ele>208.50813293457</ele>
        <time>2016-06-25T11:44:41.000Z</time>
      </trkpt>
      <trkpt lat="44.92838" lon="5.02272">
        <ele>208.49557495117</ele>
        <time>2016-06-25T11:44:43.000Z</time>
      </trkpt>
      <trkpt lat="44.92856" lon="5.02277">
        <ele>208.50155639648</ele>
        <time>2016-06-25T11:44:46.000Z</time>
      </trkpt>
      <trkpt lat="44.92873" lon="5.02285">
        <ele>208.53515625</ele>
        <time>2016-06-25T11:44:49.000Z</time>
      </trkpt>
      <trkpt lat="44.92885" lon="5.02289">
        <ele>208.56857299805</ele>
        <time>2016-06-25T11:44:51.000Z</time>
      </trkpt>
      <trkpt lat="44.92895" lon="5.02298">
        <ele>208.61528015137</ele>
        <time>2016-06-25T11:44:53.000Z</time>
      </trkpt>
      <trkpt lat="44.92908" lon="5.02319">
        <ele>208.69790649414</ele>
        <time>2016-06-25T11:44:56.000Z</time>
      </trkpt>
      <trkpt lat="44.92926" lon="5.02317">
        <ele>208.73779296875</ele>
        <time>2016-06-25T11:44:59.000Z</time>
      </trkpt>
      <trkpt lat="44.92936" lon="5.02315">
        <ele>208.74406433105</ele>
        <time>2016-06-25T11:45:02.000Z</time>
      </trkpt>
      <trkpt lat="44.92974" lon="5.02328">
        <ele>208.78674316406</ele>
        <time>2016-06-25T11:45:07.000Z</time>
      </trkpt>
      <trkpt lat="44.92986" lon="5.02332">
        <ele>208.83210754395</ele>
        <time>2016-06-25T11:45:09.000Z</time>
      </trkpt>
      <trkpt lat="44.93003" lon="5.0234">
        <ele>208.86601257324</ele>
        <time>2016-06-25T11:45:12.000Z</time>
      </trkpt>
      <trkpt lat="44.93016" lon="5.02344">
        <ele>208.8874206543</ele>
        <time>2016-06-25T11:45:14.000Z</time>
      </trkpt>
      <trkpt lat="44.93034" lon="5.02355">
        <ele>208.89892578125</ele>
        <time>2016-06-25T11:45:17.000Z</time>
      </trkpt>
      <trkpt lat="44.93052" lon="5.02361">
        <ele>208.81167602539</ele>
        <time>2016-06-25T11:45:20.000Z</time>
      </trkpt>
      <trkpt lat="44.93064" lon="5.02368">
        <ele>208.67895507812</ele>
        <time>2016-06-25T11:45:22.000Z</time>
      </trkpt>
      <trkpt lat="44.93083" lon="5.02378">
        <ele>208.4755859375</ele>
        <time>2016-06-25T11:45:25.000Z</time>
      </trkpt>
      <trkpt lat="44.93097" lon="5.02387">
        <ele>208.32559204102</ele>
        <time>2016-06-25T11:45:27.000Z</time>
      </trkpt>
      <trkpt lat="44.93116" lon="5.02398">
        <ele>208.21220397949</ele>
        <time>2016-06-25T11:45:30.000Z</time>
      </trkpt>
      <trkpt lat="44.93127" lon="5.02403">
        <ele>208.15718078613</ele>
        <time>2016-06-25T11:45:32.000Z</time>
      </trkpt>
      <trkpt lat="44.93145" lon="5.02414">
        <ele>208.13681030273</ele>
        <time>2016-06-25T11:45:35.000Z</time>
      </trkpt>
      <trkpt lat="44.93163" lon="5.02424">
        <ele>208.11470031738</ele>
        <time>2016-06-25T11:45:38.000Z</time>
      </trkpt>
      <trkpt lat="44.93176" lon="5.0243">
        <ele>208.06176757812</ele>
        <time>2016-06-25T11:45:40.000Z</time>
      </trkpt>
      <trkpt lat="44.93193" lon="5.02439">
        <ele>207.99301147461</ele>
        <time>2016-06-25T11:45:43.000Z</time>
      </trkpt>
      <trkpt lat="44.93211" lon="5.02448">
        <ele>207.92953491211</ele>
        <time>2016-06-25T11:45:46.000Z</time>
      </trkpt>
      <trkpt lat="44.93233" lon="5.02457">
        <ele>207.87158203125</ele>
        <time>2016-06-25T11:45:49.000Z</time>
      </trkpt>
      <trkpt lat="44.93252" lon="5.02469">
        <ele>207.8715057373</ele>
        <time>2016-06-25T11:45:52.000Z</time>
      </trkpt>
      <trkpt lat="44.9327" lon="5.02477">
        <ele>207.82543945312</ele>
        <time>2016-06-25T11:45:55.000Z</time>
      </trkpt>
      <trkpt lat="44.93289" lon="5.02483">
        <ele>207.72883605957</ele>
        <time>2016-06-25T11:45:58.000Z</time>
      </trkpt>
      <trkpt lat="44.93301" lon="5.02487">
        <ele>207.60298156738</ele>
        <time>2016-06-25T11:46:00.000Z</time>
      </trkpt>
      <trkpt lat="44.93318" lon="5.02495">
        <ele>207.43911743164</ele>
        <time>2016-06-25T11:46:03.000Z</time>
      </trkpt>
      <trkpt lat="44.93331" lon="5.02498">
        <ele>207.24453735352</ele>
        <time>2016-06-25T11:46:05.000Z</time>
      </trkpt>
      <trkpt lat="44.93344" lon="5.02503">
        <ele>207.06387329102</ele>
        <time>2016-06-25T11:46:07.000Z</time>
      </trkpt>
      <trkpt lat="44.93357" lon="5.02509">
        <ele>206.87301635742</ele>
        <time>2016-06-25T11:46:09.000Z</time>
      </trkpt>
      <trkpt lat="44.93378" lon="5.02518">
        <ele>206.62326049805</ele>
        <time>2016-06-25T11:46:12.000Z</time>
      </trkpt>
      <trkpt lat="44.93391" lon="5.02523">
        <ele>206.35144042969</ele>
        <time>2016-06-25T11:46:14.000Z</time>
      </trkpt>
      <trkpt lat="44.9341" lon="5.02534">
        <ele>206.05618286133</ele>
        <time>2016-06-25T11:46:17.000Z</time>
      </trkpt>
      <trkpt lat="44.93421" lon="5.0254">
        <ele>205.79780578613</ele>
        <time>2016-06-25T11:46:19.000Z</time>
      </trkpt>
      <trkpt lat="44.93433" lon="5.02547">
        <ele>205.5986328125</ele>
        <time>2016-06-25T11:46:21.000Z</time>
      </trkpt>
      <trkpt lat="44.93447" lon="5.02556">
        <ele>205.49658203125</ele>
        <time>2016-06-25T11:46:23.000Z</time>
      </trkpt>
      <trkpt lat="44.93467" lon="5.02563">
        <ele>205.44711303711</ele>
        <time>2016-06-25T11:46:26.000Z</time>
      </trkpt>
      <trkpt lat="44.93478" lon="5.02574">
        <ele>205.48815917969</ele>
        <time>2016-06-25T11:46:28.000Z</time>
      </trkpt>
      <trkpt lat="44.93495" lon="5.02587">
        <ele>205.611328125</ele>
        <time>2016-06-25T11:46:31.000Z</time>
      </trkpt>
      <trkpt lat="44.93506" lon="5.02595">
        <ele>205.73466491699</ele>
        <time>2016-06-25T11:46:33.000Z</time>
      </trkpt>
      <trkpt lat="44.93519" lon="5.0261">
        <ele>205.81967163086</ele>
        <time>2016-06-25T11:46:36.000Z</time>
      </trkpt>
      <trkpt lat="44.93512" lon="5.02621">
        <ele>205.95491027832</ele>
        <time>2016-06-25T11:46:38.000Z</time>
      </trkpt>
      <trkpt lat="44.93516" lon="5.02637">
        <ele>206.06376647949</ele>
        <time>2016-06-25T11:46:41.000Z</time>
      </trkpt>
      <trkpt lat="44.9352" lon="5.0263">
        <ele>206.07116699219</ele>
        <time>2016-06-25T11:46:44.000Z</time>
      </trkpt>
      <trkpt lat="44.93521" lon="5.02623">
        <ele>206.06420898438</ele>
        <time>2016-06-25T11:46:46.000Z</time>
      </trkpt>
      <trkpt lat="44.93534" lon="5.02618">
        <ele>206.01391601562</ele>
        <time>2016-06-25T11:46:49.000Z</time>
      </trkpt>
      <trkpt lat="44.93545" lon="5.02617">
        <ele>205.84606933594</ele>
        <time>2016-06-25T11:46:52.000Z</time>
      </trkpt>
      <trkpt lat="44.93555" lon="5.02614">
        <ele>205.60302734375</ele>
        <time>2016-06-25T11:46:54.000Z</time>
      </trkpt>
      <trkpt lat="44.93563" lon="5.02618">
        <ele>205.36694335938</ele>
        <time>2016-06-25T11:46:56.000Z</time>
      </trkpt>
      <trkpt lat="44.93576" lon="5.02623">
        <ele>205.10522460938</ele>
        <time>2016-06-25T11:46:59.000Z</time>
      </trkpt>
      <trkpt lat="44.93592" lon="5.02629">
        <ele>204.91313171387</ele>
        <time>2016-06-25T11:47:02.000Z</time>
      </trkpt>
      <trkpt lat="44.93602" lon="5.02633">
        <ele>204.81527709961</ele>
        <time>2016-06-25T11:47:04.000Z</time>
      </trkpt>
      <trkpt lat="44.93613" lon="5.02637">
        <ele>204.80630493164</ele>
        <time>2016-06-25T11:47:06.000Z</time>
      </trkpt>
      <trkpt lat="44.93629" lon="5.02637">
        <ele>204.86274719238</ele>
        <time>2016-06-25T11:47:09.000Z</time>
      </trkpt>
      <trkpt lat="44.93647" lon="5.02646">
        <ele>205.0361328125</ele>
        <time>2016-06-25T11:47:12.000Z</time>
      </trkpt>
      <trkpt lat="44.93657" lon="5.02655">
        <ele>205.25598144531</ele>
        <time>2016-06-25T11:47:14.000Z</time>
      </trkpt>
      <trkpt lat="44.93668" lon="5.0266">
        <ele>205.47744750977</ele>
        <time>2016-06-25T11:47:16.000Z</time>
      </trkpt>
      <trkpt lat="44.93687" lon="5.02669">
        <ele>205.72616577148</ele>
        <time>2016-06-25T11:47:19.000Z</time>
      </trkpt>
      <trkpt lat="44.93705" lon="5.02677">
        <ele>205.98188781738</ele>
        <time>2016-06-25T11:47:22.000Z</time>
      </trkpt>
      <trkpt lat="44.93725" lon="5.02683">
        <ele>206.21797180176</ele>
        <time>2016-06-25T11:47:25.000Z</time>
      </trkpt>
      <trkpt lat="44.93737" lon="5.0269">
        <ele>206.43632507324</ele>
        <time>2016-06-25T11:47:27.000Z</time>
      </trkpt>
      <trkpt lat="44.93748" lon="5.02716">
        <ele>206.6455078125</ele>
        <time>2016-06-25T11:47:30.000Z</time>
      </trkpt>
      <trkpt lat="44.9375" lon="5.02731">
        <ele>206.7958984375</ele>
        <time>2016-06-25T11:47:32.000Z</time>
      </trkpt>
      <trkpt lat="44.9375" lon="5.02762">
        <ele>207.01982116699</ele>
        <time>2016-06-25T11:47:35.000Z</time>
      </trkpt>
      <trkpt lat="44.93752" lon="5.02781">
        <ele>207.38090515137</ele>
        <time>2016-06-25T11:47:37.000Z</time>
      </trkpt>
      <trkpt lat="44.9375" lon="5.02799">
        <ele>207.88088989258</ele>
        <time>2016-06-25T11:47:39.000Z</time>
      </trkpt>
      <trkpt lat="44.93747" lon="5.02822">
        <ele>208.54556274414</ele>
        <time>2016-06-25T11:47:42.000Z</time>
      </trkpt>
      <trkpt lat="44.93749" lon="5.02839">
        <ele>209.36128234863</ele>
        <time>2016-06-25T11:47:44.000Z</time>
      </trkpt>
      <trkpt lat="44.93755" lon="5.02867">
        <ele>210.24069213867</ele>
        <time>2016-06-25T11:47:47.000Z</time>
      </trkpt>
      <trkpt lat="44.93753" lon="5.0288">
        <ele>210.9885559082</ele>
        <time>2016-06-25T11:47:49.000Z</time>
      </trkpt>
      <trkpt lat="44.93752" lon="5.02906">
        <ele>211.69047546387</ele>
        <time>2016-06-25T11:47:52.000Z</time>
      </trkpt>
      <trkpt lat="44.93754" lon="5.02923">
        <ele>212.26831054688</ele>
        <time>2016-06-25T11:47:54.000Z</time>
      </trkpt>
      <trkpt lat="44.93756" lon="5.02935">
        <ele>212.70239257812</ele>
        <time>2016-06-25T11:47:56.000Z</time>
      </trkpt>
      <trkpt lat="44.93761" lon="5.02949">
        <ele>212.99433898926</ele>
        <time>2016-06-25T11:47:59.000Z</time>
      </trkpt>
      <trkpt lat="44.93766" lon="5.02966">
        <ele>213.24951171875</ele>
        <time>2016-06-25T11:48:02.000Z</time>
      </trkpt>
      <trkpt lat="44.93773" lon="5.0298">
        <ele>213.41244506836</ele>
        <time>2016-06-25T11:48:05.000Z</time>
      </trkpt>
      <trkpt lat="44.93777" lon="5.03002">
        <ele>213.49502563477</ele>
        <time>2016-06-25T11:48:08.000Z</time>
      </trkpt>
      <trkpt lat="44.93779" lon="5.03016">
        <ele>213.49560546875</ele>
        <time>2016-06-25T11:48:10.000Z</time>
      </trkpt>
      <trkpt lat="44.93779" lon="5.03039">
        <ele>213.32881164551</ele>
        <time>2016-06-25T11:48:13.000Z</time>
      </trkpt>
      <trkpt lat="44.93774" lon="5.03055">
        <ele>213.03720092773</ele>
        <time>2016-06-25T11:48:15.000Z</time>
      </trkpt>
      <trkpt lat="44.93774" lon="5.03077">
        <ele>212.59574890137</ele>
        <time>2016-06-25T11:48:18.000Z</time>
      </trkpt>
      <trkpt lat="44.93765" lon="5.03106">
        <ele>212.11166381836</ele>
        <time>2016-06-25T11:48:21.000Z</time>
      </trkpt>
      <trkpt lat="44.93754" lon="5.03122">
        <ele>211.67204284668</ele>
        <time>2016-06-25T11:48:23.000Z</time>
      </trkpt>
      <trkpt lat="44.93747" lon="5.03139">
        <ele>211.3561706543</ele>
        <time>2016-06-25T11:48:25.000Z</time>
      </trkpt>
      <trkpt lat="44.93744" lon="5.0316">
        <ele>211.15766906738</ele>
        <time>2016-06-25T11:48:28.000Z</time>
      </trkpt>
      <trkpt lat="44.93739" lon="5.03176">
        <ele>211.13400268555</ele>
        <time>2016-06-25T11:48:30.000Z</time>
      </trkpt>
      <trkpt lat="44.93732" lon="5.0319">
        <ele>211.24214172363</ele>
        <time>2016-06-25T11:48:32.000Z</time>
      </trkpt>
      <trkpt lat="44.93727" lon="5.03207">
        <ele>211.45297241211</ele>
        <time>2016-06-25T11:48:34.000Z</time>
      </trkpt>
      <trkpt lat="44.93729" lon="5.03229">
        <ele>211.7593536377</ele>
        <time>2016-06-25T11:48:37.000Z</time>
      </trkpt>
      <trkpt lat="44.93721" lon="5.03242">
        <ele>212.11422729492</ele>
        <time>2016-06-25T11:48:39.000Z</time>
      </trkpt>
      <trkpt lat="44.9371" lon="5.0326">
        <ele>212.49296569824</ele>
        <time>2016-06-25T11:48:42.000Z</time>
      </trkpt>
      <trkpt lat="44.93706" lon="5.03276">
        <ele>212.87406921387</ele>
        <time>2016-06-25T11:48:44.000Z</time>
      </trkpt>
      <trkpt lat="44.93698" lon="5.03299">
        <ele>213.28793334961</ele>
        <time>2016-06-25T11:48:47.000Z</time>
      </trkpt>
      <trkpt lat="44.93691" lon="5.03313">
        <ele>213.68112182617</ele>
        <time>2016-06-25T11:48:49.000Z</time>
      </trkpt>
      <trkpt lat="44.93686" lon="5.03337">
        <ele>214.12539672852</ele>
        <time>2016-06-25T11:48:52.000Z</time>
      </trkpt>
      <trkpt lat="44.93678" lon="5.0336">
        <ele>214.56843566895</ele>
        <time>2016-06-25T11:48:55.000Z</time>
      </trkpt>
      <trkpt lat="44.93673" lon="5.03376">
        <ele>214.97026062012</ele>
        <time>2016-06-25T11:48:57.000Z</time>
      </trkpt>
      <trkpt lat="44.93666" lon="5.03399">
        <ele>215.2936706543</ele>
        <time>2016-06-25T11:49:00.000Z</time>
      </trkpt>
      <trkpt lat="44.93661" lon="5.03413">
        <ele>215.5810546875</ele>
        <time>2016-06-25T11:49:02.000Z</time>
      </trkpt>
      <trkpt lat="44.93654" lon="5.03425">
        <ele>215.8030090332</ele>
        <time>2016-06-25T11:49:04.000Z</time>
      </trkpt>
      <trkpt lat="44.9365" lon="5.03449">
        <ele>216.03630065918</ele>
        <time>2016-06-25T11:49:07.000Z</time>
      </trkpt>
      <trkpt lat="44.93644" lon="5.0347">
        <ele>216.29507446289</ele>
        <time>2016-06-25T11:49:10.000Z</time>
      </trkpt>
      <trkpt lat="44.93642" lon="5.03487">
        <ele>216.57870483398</ele>
        <time>2016-06-25T11:49:12.000Z</time>
      </trkpt>
      <trkpt lat="44.93637" lon="5.03513">
        <ele>216.85636901855</ele>
        <time>2016-06-25T11:49:15.000Z</time>
      </trkpt>
      <trkpt lat="44.93628" lon="5.03539">
        <ele>217.08000183105</ele>
        <time>2016-06-25T11:49:18.000Z</time>
      </trkpt>
      <trkpt lat="44.93629" lon="5.03556">
        <ele>217.23559570312</ele>
        <time>2016-06-25T11:49:20.000Z</time>
      </trkpt>
      <trkpt lat="44.93625" lon="5.03572">
        <ele>217.33480834961</ele>
        <time>2016-06-25T11:49:22.000Z</time>
      </trkpt>
      <trkpt lat="44.93621" lon="5.03596">
        <ele>217.43057250977</ele>
        <time>2016-06-25T11:49:25.000Z</time>
      </trkpt>
      <trkpt lat="44.93623" lon="5.03618">
        <ele>217.58471679688</ele>
        <time>2016-06-25T11:49:28.000Z</time>
      </trkpt>
      <trkpt lat="44.93619" lon="5.03645">
        <ele>217.84233093262</ele>
        <time>2016-06-25T11:49:31.000Z</time>
      </trkpt>
      <trkpt lat="44.9362" lon="5.0367">
        <ele>218.17468261719</ele>
        <time>2016-06-25T11:49:34.000Z</time>
      </trkpt>
      <trkpt lat="44.93614" lon="5.03685">
        <ele>218.5492401123</ele>
        <time>2016-06-25T11:49:36.000Z</time>
      </trkpt>
      <trkpt lat="44.93615" lon="5.03701">
        <ele>218.9263458252</ele>
        <time>2016-06-25T11:49:38.000Z</time>
      </trkpt>
      <trkpt lat="44.93609" lon="5.03727">
        <ele>219.29089355469</ele>
        <time>2016-06-25T11:49:41.000Z</time>
      </trkpt>
      <trkpt lat="44.93603" lon="5.03741">
        <ele>219.59292602539</ele>
        <time>2016-06-25T11:49:43.000Z</time>
      </trkpt>
      <trkpt lat="44.93603" lon="5.03766">
        <ele>219.89668273926</ele>
        <time>2016-06-25T11:49:46.000Z</time>
      </trkpt>
      <trkpt lat="44.93607" lon="5.03779">
        <ele>220.21366882324</ele>
        <time>2016-06-25T11:49:48.000Z</time>
      </trkpt>
      <trkpt lat="44.93601" lon="5.03791">
        <ele>220.51802062988</ele>
        <time>2016-06-25T11:49:50.000Z</time>
      </trkpt>
      <trkpt lat="44.93596" lon="5.03815">
        <ele>220.84696960449</ele>
        <time>2016-06-25T11:49:53.000Z</time>
      </trkpt>
      <trkpt lat="44.93596" lon="5.03824">
        <ele>221.18830871582</ele>
        <time>2016-06-25T11:49:55.000Z</time>
      </trkpt>
      <trkpt lat="44.93592" lon="5.03849">
        <ele>221.51159667969</ele>
        <time>2016-06-25T11:49:58.000Z</time>
      </trkpt>
      <trkpt lat="44.93581" lon="5.03871">
        <ele>221.82650756836</ele>
        <time>2016-06-25T11:50:01.000Z</time>
      </trkpt>
      <trkpt lat="44.93564" lon="5.03885">
        <ele>222.16191101074</ele>
        <time>2016-06-25T11:50:04.000Z</time>
      </trkpt>
      <trkpt lat="44.93563" lon="5.03902">
        <ele>222.44853210449</ele>
        <time>2016-06-25T11:50:06.000Z</time>
      </trkpt>
      <trkpt lat="44.93559" lon="5.03919">
        <ele>222.75761413574</ele>
        <time>2016-06-25T11:50:08.000Z</time>
      </trkpt>
      <trkpt lat="44.93552" lon="5.03937">
        <ele>223.05586242676</ele>
        <time>2016-06-25T11:50:11.000Z</time>
      </trkpt>
      <trkpt lat="44.93554" lon="5.03966">
        <ele>223.38858032227</ele>
        <time>2016-06-25T11:50:14.000Z</time>
      </trkpt>
      <trkpt lat="44.93554" lon="5.03977">
        <ele>223.69233703613</ele>
        <time>2016-06-25T11:50:16.000Z</time>
      </trkpt>
      <trkpt lat="44.93552" lon="5.04004">
        <ele>224.02029418945</ele>
        <time>2016-06-25T11:50:19.000Z</time>
      </trkpt>
      <trkpt lat="44.93551" lon="5.04019">
        <ele>224.30825805664</ele>
        <time>2016-06-25T11:50:21.000Z</time>
      </trkpt>
      <trkpt lat="44.93547" lon="5.0403">
        <ele>224.54739379883</ele>
        <time>2016-06-25T11:50:23.000Z</time>
      </trkpt>
      <trkpt lat="44.93535" lon="5.0405">
        <ele>224.74565124512</ele>
        <time>2016-06-25T11:50:26.000Z</time>
      </trkpt>
      <trkpt lat="44.93525" lon="5.04059">
        <ele>224.94448852539</ele>
        <time>2016-06-25T11:50:28.000Z</time>
      </trkpt>
      <trkpt lat="44.93521" lon="5.04073">
        <ele>225.12377929688</ele>
        <time>2016-06-25T11:50:30.000Z</time>
      </trkpt>
      <trkpt lat="44.93527" lon="5.04097">
        <ele>225.33378601074</ele>
        <time>2016-06-25T11:50:33.000Z</time>
      </trkpt>
      <trkpt lat="44.93527" lon="5.04112">
        <ele>225.5615234375</ele>
        <time>2016-06-25T11:50:35.000Z</time>
      </trkpt>
      <trkpt lat="44.93524" lon="5.04134">
        <ele>225.80453491211</ele>
        <time>2016-06-25T11:50:38.000Z</time>
      </trkpt>
      <trkpt lat="44.93522" lon="5.04155">
        <ele>226.06640625</ele>
        <time>2016-06-25T11:50:41.000Z</time>
      </trkpt>
      <trkpt lat="44.93521" lon="5.04171">
        <ele>226.31555175781</ele>
        <time>2016-06-25T11:50:43.000Z</time>
      </trkpt>
      <trkpt lat="44.93519" lon="5.04194">
        <ele>226.56689453125</ele>
        <time>2016-06-25T11:50:46.000Z</time>
      </trkpt>
      <trkpt lat="44.93515" lon="5.04206">
        <ele>226.82165527344</ele>
        <time>2016-06-25T11:50:48.000Z</time>
      </trkpt>
      <trkpt lat="44.93513" lon="5.04219">
        <ele>227.05114746094</ele>
        <time>2016-06-25T11:50:50.000Z</time>
      </trkpt>
      <trkpt lat="44.93512" lon="5.04244">
        <ele>227.28869628906</ele>
        <time>2016-06-25T11:50:53.000Z</time>
      </trkpt>
      <trkpt lat="44.93504" lon="5.04266">
        <ele>227.59321594238</ele>
        <time>2016-06-25T11:50:56.000Z</time>
      </trkpt>
      <trkpt lat="44.93502" lon="5.0428">
        <ele>227.91313171387</ele>
        <time>2016-06-25T11:50:58.000Z</time>
      </trkpt>
      <trkpt lat="44.93501" lon="5.04304">
        <ele>228.30888366699</ele>
        <time>2016-06-25T11:51:01.000Z</time>
      </trkpt>
      <trkpt lat="44.935" lon="5.0432">
        <ele>228.751953125</ele>
        <time>2016-06-25T11:51:03.000Z</time>
      </trkpt>
      <trkpt lat="44.93496" lon="5.0434">
        <ele>229.23733520508</ele>
        <time>2016-06-25T11:51:06.000Z</time>
      </trkpt>
      <trkpt lat="44.93495" lon="5.04357">
        <ele>229.69287109375</ele>
        <time>2016-06-25T11:51:08.000Z</time>
      </trkpt>
      <trkpt lat="44.93492" lon="5.04379">
        <ele>230.18466186523</ele>
        <time>2016-06-25T11:51:11.000Z</time>
      </trkpt>
      <trkpt lat="44.93493" lon="5.04396">
        <ele>230.63371276855</ele>
        <time>2016-06-25T11:51:13.000Z</time>
      </trkpt>
      <trkpt lat="44.93486" lon="5.04413">
        <ele>231.0774230957</ele>
        <time>2016-06-25T11:51:15.000Z</time>
      </trkpt>
      <trkpt lat="44.93481" lon="5.04432">
        <ele>231.4440612793</ele>
        <time>2016-06-25T11:51:18.000Z</time>
      </trkpt>
      <trkpt lat="44.93476" lon="5.04458">
        <ele>231.75210571289</ele>
        <time>2016-06-25T11:51:21.000Z</time>
      </trkpt>
      <trkpt lat="44.93473" lon="5.04477">
        <ele>231.9697265625</ele>
        <time>2016-06-25T11:51:24.000Z</time>
      </trkpt>
      <trkpt lat="44.93471" lon="5.04491">
        <ele>232.12796020508</ele>
        <time>2016-06-25T11:51:26.000Z</time>
      </trkpt>
      <trkpt lat="44.93467" lon="5.04513">
        <ele>232.18913269043</ele>
        <time>2016-06-25T11:51:29.000Z</time>
      </trkpt>
      <trkpt lat="44.93464" lon="5.04532">
        <ele>232.18193054199</ele>
        <time>2016-06-25T11:51:32.000Z</time>
      </trkpt>
      <trkpt lat="44.93462" lon="5.04552">
        <ele>232.11120605469</ele>
        <time>2016-06-25T11:51:35.000Z</time>
      </trkpt>
      <trkpt lat="44.93454" lon="5.04576">
        <ele>232.01139831543</ele>
        <time>2016-06-25T11:51:38.000Z</time>
      </trkpt>
      <trkpt lat="44.93447" lon="5.04595">
        <ele>231.95500183105</ele>
        <time>2016-06-25T11:51:40.000Z</time>
      </trkpt>
      <trkpt lat="44.93437" lon="5.04616">
        <ele>232.04231262207</ele>
        <time>2016-06-25T11:51:43.000Z</time>
      </trkpt>
      <trkpt lat="44.93436" lon="5.04633">
        <ele>232.22041320801</ele>
        <time>2016-06-25T11:51:45.000Z</time>
      </trkpt>
      <trkpt lat="44.93428" lon="5.04655">
        <ele>232.55293273926</ele>
        <time>2016-06-25T11:51:48.000Z</time>
      </trkpt>
      <trkpt lat="44.93427" lon="5.04674">
        <ele>232.98429870605</ele>
        <time>2016-06-25T11:51:51.000Z</time>
      </trkpt>
      <trkpt lat="44.93423" lon="5.04687">
        <ele>233.48202514648</ele>
        <time>2016-06-25T11:51:53.000Z</time>
      </trkpt>
      <trkpt lat="44.93419" lon="5.0471">
        <ele>234.04965209961</ele>
        <time>2016-06-25T11:51:56.000Z</time>
      </trkpt>
      <trkpt lat="44.93415" lon="5.04722">
        <ele>234.67790222168</ele>
        <time>2016-06-25T11:51:58.000Z</time>
      </trkpt>
      <trkpt lat="44.93413" lon="5.04743">
        <ele>235.34603881836</ele>
        <time>2016-06-25T11:52:01.000Z</time>
      </trkpt>
      <trkpt lat="44.9341" lon="5.04766">
        <ele>235.97993469238</ele>
        <time>2016-06-25T11:52:04.000Z</time>
      </trkpt>
      <trkpt lat="44.9341" lon="5.04786">
        <ele>236.4853515625</ele>
        <time>2016-06-25T11:52:07.000Z</time>
      </trkpt>
      <trkpt lat="44.93404" lon="5.04805">
        <ele>236.79760742188</ele>
        <time>2016-06-25T11:52:10.000Z</time>
      </trkpt>
      <trkpt lat="44.93407" lon="5.04826">
        <ele>236.99214172363</ele>
        <time>2016-06-25T11:52:13.000Z</time>
      </trkpt>
      <trkpt lat="44.93411" lon="5.0485">
        <ele>237.07629394531</ele>
        <time>2016-06-25T11:52:16.000Z</time>
      </trkpt>
      <trkpt lat="44.93417" lon="5.04863">
        <ele>237.13082885742</ele>
        <time>2016-06-25T11:52:18.000Z</time>
      </trkpt>
      <trkpt lat="44.93428" lon="5.0488">
        <ele>237.17724609375</ele>
        <time>2016-06-25T11:52:21.000Z</time>
      </trkpt>
      <trkpt lat="44.93439" lon="5.04898">
        <ele>237.21447753906</ele>
        <time>2016-06-25T11:52:24.000Z</time>
      </trkpt>
      <trkpt lat="44.93447" lon="5.04909">
        <ele>237.24642944336</ele>
        <time>2016-06-25T11:52:26.000Z</time>
      </trkpt>
      <trkpt lat="44.93459" lon="5.04922">
        <ele>237.21064758301</ele>
        <time>2016-06-25T11:52:29.000Z</time>
      </trkpt>
      <trkpt lat="44.93467" lon="5.04931">
        <ele>237.14326477051</ele>
        <time>2016-06-25T11:52:31.000Z</time>
      </trkpt>
      <trkpt lat="44.93479" lon="5.04949">
        <ele>237.10627746582</ele>
        <time>2016-06-25T11:52:34.000Z</time>
      </trkpt>
      <trkpt lat="44.93486" lon="5.04955">
        <ele>237.08154296875</ele>
        <time>2016-06-25T11:52:36.000Z</time>
      </trkpt>
      <trkpt lat="44.93492" lon="5.04965">
        <ele>237.09443664551</ele>
        <time>2016-06-25T11:52:38.000Z</time>
      </trkpt>
      <trkpt lat="44.93504" lon="5.0498">
        <ele>237.1884765625</ele>
        <time>2016-06-25T11:52:41.000Z</time>
      </trkpt>
      <trkpt lat="44.93512" lon="5.04985">
        <ele>237.30717468262</ele>
        <time>2016-06-25T11:52:43.000Z</time>
      </trkpt>
      <trkpt lat="44.93523" lon="5.04998">
        <ele>237.47543334961</ele>
        <time>2016-06-25T11:52:46.000Z</time>
      </trkpt>
      <trkpt lat="44.93531" lon="5.0501">
        <ele>237.70370483398</ele>
        <time>2016-06-25T11:52:48.000Z</time>
      </trkpt>
      <trkpt lat="44.93542" lon="5.05025">
        <ele>238.01162719727</ele>
        <time>2016-06-25T11:52:51.000Z</time>
      </trkpt>
      <trkpt lat="44.93551" lon="5.05039">
        <ele>238.37699890137</ele>
        <time>2016-06-25T11:52:53.000Z</time>
      </trkpt>
      <trkpt lat="44.93559" lon="5.05046">
        <ele>238.8046875</ele>
        <time>2016-06-25T11:52:55.000Z</time>
      </trkpt>
      <trkpt lat="44.9357" lon="5.05061">
        <ele>239.33602905273</ele>
        <time>2016-06-25T11:52:58.000Z</time>
      </trkpt>
      <trkpt lat="44.93576" lon="5.05071">
        <ele>239.92375183105</ele>
        <time>2016-06-25T11:53:00.000Z</time>
      </trkpt>
      <trkpt lat="44.93587" lon="5.05084">
        <ele>240.61860656738</ele>
        <time>2016-06-25T11:53:03.000Z</time>
      </trkpt>
      <trkpt lat="44.93593" lon="5.05097">
        <ele>241.40270996094</ele>
        <time>2016-06-25T11:53:05.000Z</time>
      </trkpt>
      <trkpt lat="44.93604" lon="5.05106">
        <ele>242.30639648438</ele>
        <time>2016-06-25T11:53:08.000Z</time>
      </trkpt>
      <trkpt lat="44.93612" lon="5.05115">
        <ele>243.19198608398</ele>
        <time>2016-06-25T11:53:10.000Z</time>
      </trkpt>
      <trkpt lat="44.93621" lon="5.05125">
        <ele>244.12239074707</ele>
        <time>2016-06-25T11:53:13.000Z</time>
      </trkpt>
      <trkpt lat="44.93629" lon="5.05135">
        <ele>244.99862670898</ele>
        <time>2016-06-25T11:53:16.000Z</time>
      </trkpt>
      <trkpt lat="44.93636" lon="5.05142">
        <ele>245.78170776367</ele>
        <time>2016-06-25T11:53:18.000Z</time>
      </trkpt>
      <trkpt lat="44.93645" lon="5.05155">
        <ele>246.52290344238</ele>
        <time>2016-06-25T11:53:21.000Z</time>
      </trkpt>
      <trkpt lat="44.93657" lon="5.05169">
        <ele>247.29145812988</ele>
        <time>2016-06-25T11:53:24.000Z</time>
      </trkpt>
      <trkpt lat="44.93667" lon="5.05185">
        <ele>248.05136108398</ele>
        <time>2016-06-25T11:53:27.000Z</time>
      </trkpt>
      <trkpt lat="44.93673" lon="5.05193">
        <ele>248.70829772949</ele>
        <time>2016-06-25T11:53:29.000Z</time>
      </trkpt>
      <trkpt lat="44.93678" lon="5.05203">
        <ele>249.32234191895</ele>
        <time>2016-06-25T11:53:31.000Z</time>
      </trkpt>
      <trkpt lat="44.93689" lon="5.05212">
        <ele>249.83041381836</ele>
        <time>2016-06-25T11:53:33.000Z</time>
      </trkpt>
      <trkpt lat="44.937" lon="5.05221">
        <ele>250.19999694824</ele>
        <time>2016-06-25T11:53:36.000Z</time>
      </trkpt>
      <trkpt lat="44.93714" lon="5.05229">
        <ele>250.43753051758</ele>
        <time>2016-06-25T11:53:39.000Z</time>
      </trkpt>
      <trkpt lat="44.93726" lon="5.0524">
        <ele>250.6598815918</ele>
        <time>2016-06-25T11:53:42.000Z</time>
      </trkpt>
      <trkpt lat="44.93737" lon="5.05249">
        <ele>250.8413848877</ele>
        <time>2016-06-25T11:53:45.000Z</time>
      </trkpt>
      <trkpt lat="44.93745" lon="5.05254">
        <ele>250.98400878906</ele>
        <time>2016-06-25T11:53:47.000Z</time>
      </trkpt>
      <trkpt lat="44.93758" lon="5.0527">
        <ele>251.16101074219</ele>
        <time>2016-06-25T11:53:50.000Z</time>
      </trkpt>
      <trkpt lat="44.93769" lon="5.05278">
        <ele>251.33493041992</ele>
        <time>2016-06-25T11:53:53.000Z</time>
      </trkpt>
      <trkpt lat="44.93782" lon="5.05292">
        <ele>251.51733398438</ele>
        <time>2016-06-25T11:53:56.000Z</time>
      </trkpt>
      <trkpt lat="44.93794" lon="5.05309">
        <ele>251.73066711426</ele>
        <time>2016-06-25T11:53:59.000Z</time>
      </trkpt>
      <trkpt lat="44.93802" lon="5.05321">
        <ele>251.9684753418</ele>
        <time>2016-06-25T11:54:01.000Z</time>
      </trkpt>
      <trkpt lat="44.93815" lon="5.0534">
        <ele>252.15170288086</ele>
        <time>2016-06-25T11:54:04.000Z</time>
      </trkpt>
      <trkpt lat="44.93828" lon="5.05351">
        <ele>252.27709960938</ele>
        <time>2016-06-25T11:54:07.000Z</time>
      </trkpt>
      <trkpt lat="44.93841" lon="5.05364">
        <ele>252.40676879883</ele>
        <time>2016-06-25T11:54:10.000Z</time>
      </trkpt>
      <trkpt lat="44.93855" lon="5.05381">
        <ele>252.65165710449</ele>
        <time>2016-06-25T11:54:13.000Z</time>
      </trkpt>
      <trkpt lat="44.93864" lon="5.05394">
        <ele>253.00149536133</ele>
        <time>2016-06-25T11:54:15.000Z</time>
      </trkpt>
      <trkpt lat="44.93876" lon="5.0541">
        <ele>253.55825805664</ele>
        <time>2016-06-25T11:54:18.000Z</time>
      </trkpt>
      <trkpt lat="44.93884" lon="5.05419">
        <ele>254.30068969727</ele>
        <time>2016-06-25T11:54:20.000Z</time>
      </trkpt>
      <trkpt lat="44.93893" lon="5.05432">
        <ele>255.15017700195</ele>
        <time>2016-06-25T11:54:23.000Z</time>
      </trkpt>
      <trkpt lat="44.93899" lon="5.05443">
        <ele>255.93159484863</ele>
        <time>2016-06-25T11:54:25.000Z</time>
      </trkpt>
      <trkpt lat="44.93905" lon="5.05464">
        <ele>256.6926574707</ele>
        <time>2016-06-25T11:54:28.000Z</time>
      </trkpt>
      <trkpt lat="44.93908" lon="5.05475">
        <ele>257.27972412109</ele>
        <time>2016-06-25T11:54:30.000Z</time>
      </trkpt>
      <trkpt lat="44.93911" lon="5.05498">
        <ele>257.80801391602</ele>
        <time>2016-06-25T11:54:33.000Z</time>
      </trkpt>
      <trkpt lat="44.9391" lon="5.0551">
        <ele>258.18463134766</ele>
        <time>2016-06-25T11:54:36.000Z</time>
      </trkpt>
      <trkpt lat="44.93916" lon="5.05551">
        <ele>258.51504516602</ele>
        <time>2016-06-25T11:54:40.000Z</time>
      </trkpt>
      <trkpt lat="44.93919" lon="5.05564">
        <ele>258.71200561523</ele>
        <time>2016-06-25T11:54:42.000Z</time>
      </trkpt>
      <trkpt lat="44.93923" lon="5.05587">
        <ele>258.82836914062</ele>
        <time>2016-06-25T11:54:45.000Z</time>
      </trkpt>
      <trkpt lat="44.93929" lon="5.05611">
        <ele>258.87603759766</ele>
        <time>2016-06-25T11:54:48.000Z</time>
      </trkpt>
      <trkpt lat="44.93936" lon="5.05632">
        <ele>258.93786621094</ele>
        <time>2016-06-25T11:54:51.000Z</time>
      </trkpt>
      <trkpt lat="44.93942" lon="5.05645">
        <ele>258.94967651367</ele>
        <time>2016-06-25T11:54:53.000Z</time>
      </trkpt>
      <trkpt lat="44.9395" lon="5.05665">
        <ele>258.99627685547</ele>
        <time>2016-06-25T11:54:56.000Z</time>
      </trkpt>
      <trkpt lat="44.9396" lon="5.05684">
        <ele>259.04840087891</ele>
        <time>2016-06-25T11:54:59.000Z</time>
      </trkpt>
      <trkpt lat="44.9397" lon="5.05703">
        <ele>259.06137084961</ele>
        <time>2016-06-25T11:55:02.000Z</time>
      </trkpt>
      <trkpt lat="44.93984" lon="5.05723">
        <ele>259.04339599609</ele>
        <time>2016-06-25T11:55:05.000Z</time>
      </trkpt>
      <trkpt lat="44.93992" lon="5.05735">
        <ele>259.01928710938</ele>
        <time>2016-06-25T11:55:07.000Z</time>
      </trkpt>
      <trkpt lat="44.94003" lon="5.05755">
        <ele>259.02563476562</ele>
        <time>2016-06-25T11:55:10.000Z</time>
      </trkpt>
      <trkpt lat="44.94011" lon="5.05762">
        <ele>259.12518310547</ele>
        <time>2016-06-25T11:55:12.000Z</time>
      </trkpt>
      <trkpt lat="44.94019" lon="5.0577">
        <ele>259.31829833984</ele>
        <time>2016-06-25T11:55:14.000Z</time>
      </trkpt>
      <trkpt lat="44.94032" lon="5.05785">
        <ele>259.65679931641</ele>
        <time>2016-06-25T11:55:17.000Z</time>
      </trkpt>
      <trkpt lat="44.9404" lon="5.05802">
        <ele>260.14306640625</ele>
        <time>2016-06-25T11:55:19.000Z</time>
      </trkpt>
      <trkpt lat="44.94052" lon="5.05819">
        <ele>260.72595214844</ele>
        <time>2016-06-25T11:55:22.000Z</time>
      </trkpt>
      <trkpt lat="44.9406" lon="5.05831">
        <ele>261.34338378906</ele>
        <time>2016-06-25T11:55:24.000Z</time>
      </trkpt>
      <trkpt lat="44.94069" lon="5.05838">
        <ele>261.92166137695</ele>
        <time>2016-06-25T11:55:26.000Z</time>
      </trkpt>
      <trkpt lat="44.94083" lon="5.05854">
        <ele>262.3955078125</ele>
        <time>2016-06-25T11:55:29.000Z</time>
      </trkpt>
      <trkpt lat="44.94092" lon="5.05865">
        <ele>262.67987060547</ele>
        <time>2016-06-25T11:55:31.000Z</time>
      </trkpt>
      <trkpt lat="44.94104" lon="5.05877">
        <ele>262.75872802734</ele>
        <time>2016-06-25T11:55:33.000Z</time>
      </trkpt>
      <trkpt lat="44.94114" lon="5.05888">
        <ele>262.68008422852</ele>
        <time>2016-06-25T11:55:35.000Z</time>
      </trkpt>
      <trkpt lat="44.94127" lon="5.05905">
        <ele>262.5009765625</ele>
        <time>2016-06-25T11:55:38.000Z</time>
      </trkpt>
      <trkpt lat="44.94137" lon="5.05922">
        <ele>262.23654174805</ele>
        <time>2016-06-25T11:55:40.000Z</time>
      </trkpt>
      <trkpt lat="44.94152" lon="5.05934">
        <ele>261.91311645508</ele>
        <time>2016-06-25T11:55:43.000Z</time>
      </trkpt>
      <trkpt lat="44.94164" lon="5.0594">
        <ele>261.56951904297</ele>
        <time>2016-06-25T11:55:45.000Z</time>
      </trkpt>
      <trkpt lat="44.94173" lon="5.05947">
        <ele>261.20367431641</ele>
        <time>2016-06-25T11:55:47.000Z</time>
      </trkpt>
      <trkpt lat="44.94188" lon="5.05961">
        <ele>260.77954101562</ele>
        <time>2016-06-25T11:55:50.000Z</time>
      </trkpt>
      <trkpt lat="44.94205" lon="5.0597">
        <ele>260.30047607422</ele>
        <time>2016-06-25T11:55:53.000Z</time>
      </trkpt>
      <trkpt lat="44.94221" lon="5.05986">
        <ele>259.81460571289</ele>
        <time>2016-06-25T11:55:56.000Z</time>
      </trkpt>
      <trkpt lat="44.94236" lon="5.06008">
        <ele>259.34286499023</ele>
        <time>2016-06-25T11:55:59.000Z</time>
      </trkpt>
      <trkpt lat="44.94244" lon="5.06033">
        <ele>258.96221923828</ele>
        <time>2016-06-25T11:56:02.000Z</time>
      </trkpt>
      <trkpt lat="44.94249" lon="5.06051">
        <ele>258.72399902344</ele>
        <time>2016-06-25T11:56:04.000Z</time>
      </trkpt>
      <trkpt lat="44.94251" lon="5.06076">
        <ele>258.64544677734</ele>
        <time>2016-06-25T11:56:07.000Z</time>
      </trkpt>
      <trkpt lat="44.94253" lon="5.06104">
        <ele>258.73135375977</ele>
        <time>2016-06-25T11:56:10.000Z</time>
      </trkpt>
      <trkpt lat="44.94253" lon="5.06126">
        <ele>258.92840576172</ele>
        <time>2016-06-25T11:56:13.000Z</time>
      </trkpt>
      <trkpt lat="44.94254" lon="5.06154">
        <ele>259.16400146484</ele>
        <time>2016-06-25T11:56:16.000Z</time>
      </trkpt>
      <trkpt lat="44.94258" lon="5.06177">
        <ele>259.40020751953</ele>
        <time>2016-06-25T11:56:19.000Z</time>
      </trkpt>
      <trkpt lat="44.94259" lon="5.06197">
        <ele>259.61856079102</ele>
        <time>2016-06-25T11:56:21.000Z</time>
      </trkpt>
      <trkpt lat="44.94258" lon="5.06214">
        <ele>259.82821655273</ele>
        <time>2016-06-25T11:56:23.000Z</time>
      </trkpt>
      <trkpt lat="44.94256" lon="5.06244">
        <ele>260.07168579102</ele>
        <time>2016-06-25T11:56:26.000Z</time>
      </trkpt>
      <trkpt lat="44.9425" lon="5.06273">
        <ele>260.21606445312</ele>
        <time>2016-06-25T11:56:29.000Z</time>
      </trkpt>
      <trkpt lat="44.94257" lon="5.06292">
        <ele>260.18807983398</ele>
        <time>2016-06-25T11:56:31.000Z</time>
      </trkpt>
      <trkpt lat="44.94267" lon="5.06323">
        <ele>259.8815612793</ele>
        <time>2016-06-25T11:56:34.000Z</time>
      </trkpt>
      <trkpt lat="44.94276" lon="5.06355">
        <ele>259.27523803711</ele>
        <time>2016-06-25T11:56:37.000Z</time>
      </trkpt>
      <trkpt lat="44.94277" lon="5.06376">
        <ele>258.4553527832</ele>
        <time>2016-06-25T11:56:39.000Z</time>
      </trkpt>
      <trkpt lat="44.94287" lon="5.06393">
        <ele>257.40887451172</ele>
        <time>2016-06-25T11:56:41.000Z</time>
      </trkpt>
      <trkpt lat="44.94298" lon="5.06423">
        <ele>256.12237548828</ele>
        <time>2016-06-25T11:56:44.000Z</time>
      </trkpt>
      <trkpt lat="44.94299" lon="5.06468">
        <ele>254.88851928711</ele>
        <time>2016-06-25T11:56:47.000Z</time>
      </trkpt>
      <trkpt lat="44.94303" lon="5.06493">
        <ele>253.6828918457</ele>
        <time>2016-06-25T11:56:49.000Z</time>
      </trkpt>
      <trkpt lat="44.9431" lon="5.06518">
        <ele>252.34452819824</ele>
        <time>2016-06-25T11:56:51.000Z</time>
      </trkpt>
      <trkpt lat="44.94321" lon="5.06555">
        <ele>250.94772338867</ele>
        <time>2016-06-25T11:56:54.000Z</time>
      </trkpt>
      <trkpt lat="44.94324" lon="5.0659">
        <ele>249.86332702637</ele>
        <time>2016-06-25T11:56:57.000Z</time>
      </trkpt>
      <trkpt lat="44.94327" lon="5.06616">
        <ele>248.95181274414</ele>
        <time>2016-06-25T11:56:59.000Z</time>
      </trkpt>
      <trkpt lat="44.94339" lon="5.06656">
        <ele>248.29348754883</ele>
        <time>2016-06-25T11:57:02.000Z</time>
      </trkpt>
      <trkpt lat="44.94354" lon="5.06681">
        <ele>247.92373657227</ele>
        <time>2016-06-25T11:57:05.000Z</time>
      </trkpt>
      <trkpt lat="44.9437" lon="5.06701">
        <ele>247.88162231445</ele>
        <time>2016-06-25T11:57:08.000Z</time>
      </trkpt>
      <trkpt lat="44.94377" lon="5.06716">
        <ele>247.91716003418</ele>
        <time>2016-06-25T11:57:10.000Z</time>
      </trkpt>
      <trkpt lat="44.94387" lon="5.06738">
        <ele>247.97334289551</ele>
        <time>2016-06-25T11:57:13.000Z</time>
      </trkpt>
      <trkpt lat="44.94395" lon="5.06753">
        <ele>248.00366210938</ele>
        <time>2016-06-25T11:57:15.000Z</time>
      </trkpt>
      <trkpt lat="44.94393" lon="5.06779">
        <ele>248.04345703125</ele>
        <time>2016-06-25T11:57:18.000Z</time>
      </trkpt>
      <trkpt lat="44.9439" lon="5.06801">
        <ele>248.12283325195</ele>
        <time>2016-06-25T11:57:20.000Z</time>
      </trkpt>
      <trkpt lat="44.94385" lon="5.0681">
        <ele>248.23344421387</ele>
        <time>2016-06-25T11:57:22.000Z</time>
      </trkpt>
      <trkpt lat="44.94367" lon="5.06827">
        <ele>248.45401000977</ele>
        <time>2016-06-25T11:57:25.000Z</time>
      </trkpt>
      <trkpt lat="44.94349" lon="5.06844">
        <ele>248.78633117676</ele>
        <time>2016-06-25T11:57:28.000Z</time>
      </trkpt>
      <trkpt lat="44.9433" lon="5.06858">
        <ele>249.14303588867</ele>
        <time>2016-06-25T11:57:31.000Z</time>
      </trkpt>
      <trkpt lat="44.94324" lon="5.06874">
        <ele>249.46322631836</ele>
        <time>2016-06-25T11:57:33.000Z</time>
      </trkpt>
      <trkpt lat="44.94301" lon="5.06895">
        <ele>249.78955078125</ele>
        <time>2016-06-25T11:57:36.000Z</time>
      </trkpt>
      <trkpt lat="44.94295" lon="5.06909">
        <ele>250.04386901855</ele>
        <time>2016-06-25T11:57:38.000Z</time>
      </trkpt>
      <trkpt lat="44.94287" lon="5.06926">
        <ele>250.24047851562</ele>
        <time>2016-06-25T11:57:41.000Z</time>
      </trkpt>
      <trkpt lat="44.94286" lon="5.06945">
        <ele>250.42594909668</ele>
        <time>2016-06-25T11:57:44.000Z</time>
      </trkpt>
      <trkpt lat="44.94281" lon="5.06953">
        <ele>250.64094543457</ele>
        <time>2016-06-25T11:57:46.000Z</time>
      </trkpt>
      <trkpt lat="44.94263" lon="5.06972">
        <ele>250.90744018555</ele>
        <time>2016-06-25T11:57:49.000Z</time>
      </trkpt>
      <trkpt lat="44.9425" lon="5.0699">
        <ele>251.20930480957</ele>
        <time>2016-06-25T11:57:52.000Z</time>
      </trkpt>
      <trkpt lat="44.94236" lon="5.07002">
        <ele>251.48471069336</ele>
        <time>2016-06-25T11:57:54.000Z</time>
      </trkpt>
      <trkpt lat="44.9422" lon="5.0702">
        <ele>251.81640625</ele>
        <time>2016-06-25T11:57:57.000Z</time>
      </trkpt>
      <trkpt lat="44.94217" lon="5.07035">
        <ele>252.20539855957</ele>
        <time>2016-06-25T11:57:59.000Z</time>
      </trkpt>
      <trkpt lat="44.9421" lon="5.07056">
        <ele>252.63623046875</ele>
        <time>2016-06-25T11:58:02.000Z</time>
      </trkpt>
      <trkpt lat="44.94207" lon="5.0707">
        <ele>253.08345031738</ele>
        <time>2016-06-25T11:58:04.000Z</time>
      </trkpt>
      <trkpt lat="44.94202" lon="5.07094">
        <ele>253.62991333008</ele>
        <time>2016-06-25T11:58:07.000Z</time>
      </trkpt>
      <trkpt lat="44.94198" lon="5.07108">
        <ele>254.13638305664</ele>
        <time>2016-06-25T11:58:09.000Z</time>
      </trkpt>
      <trkpt lat="44.94192" lon="5.07121">
        <ele>254.62370300293</ele>
        <time>2016-06-25T11:58:11.000Z</time>
      </trkpt>
      <trkpt lat="44.94184" lon="5.07137">
        <ele>255.07815551758</ele>
        <time>2016-06-25T11:58:14.000Z</time>
      </trkpt>
      <trkpt lat="44.94177" lon="5.07159">
        <ele>255.56855773926</ele>
        <time>2016-06-25T11:58:17.000Z</time>
      </trkpt>
      <trkpt lat="44.94173" lon="5.07172">
        <ele>255.99642944336</ele>
        <time>2016-06-25T11:58:19.000Z</time>
      </trkpt>
      <trkpt lat="44.94158" lon="5.07193">
        <ele>256.40878295898</ele>
        <time>2016-06-25T11:58:22.000Z</time>
      </trkpt>
      <trkpt lat="44.94151" lon="5.07208">
        <ele>256.77822875977</ele>
        <time>2016-06-25T11:58:24.000Z</time>
      </trkpt>
      <trkpt lat="44.94152" lon="5.07221">
        <ele>257.095703125</ele>
        <time>2016-06-25T11:58:26.000Z</time>
      </trkpt>
      <trkpt lat="44.94149" lon="5.07245">
        <ele>257.36346435547</ele>
        <time>2016-06-25T11:58:29.000Z</time>
      </trkpt>
      <trkpt lat="44.9414" lon="5.07264">
        <ele>257.61392211914</ele>
        <time>2016-06-25T11:58:32.000Z</time>
      </trkpt>
      <trkpt lat="44.94127" lon="5.07287">
        <ele>257.86962890625</ele>
        <time>2016-06-25T11:58:35.000Z</time>
      </trkpt>
      <trkpt lat="44.94127" lon="5.07299">
        <ele>258.12640380859</ele>
        <time>2016-06-25T11:58:37.000Z</time>
      </trkpt>
      <trkpt lat="44.94117" lon="5.07317">
        <ele>258.38128662109</ele>
        <time>2016-06-25T11:58:40.000Z</time>
      </trkpt>
      <trkpt lat="44.94109" lon="5.0734">
        <ele>258.61053466797</ele>
        <time>2016-06-25T11:58:43.000Z</time>
      </trkpt>
      <trkpt lat="44.94106" lon="5.07359">
        <ele>258.822265625</ele>
        <time>2016-06-25T11:58:46.000Z</time>
      </trkpt>
      <trkpt lat="44.94102" lon="5.07379">
        <ele>259.01959228516</ele>
        <time>2016-06-25T11:58:49.000Z</time>
      </trkpt>
      <trkpt lat="44.94097" lon="5.07389">
        <ele>259.21557617188</ele>
        <time>2016-06-25T11:58:51.000Z</time>
      </trkpt>
      <trkpt lat="44.94089" lon="5.07409">
        <ele>259.42559814453</ele>
        <time>2016-06-25T11:58:54.000Z</time>
      </trkpt>
      <trkpt lat="44.94084" lon="5.07424">
        <ele>259.6481628418</ele>
        <time>2016-06-25T11:58:56.000Z</time>
      </trkpt>
      <trkpt lat="44.9408" lon="5.07438">
        <ele>259.90585327148</ele>
        <time>2016-06-25T11:58:58.000Z</time>
      </trkpt>
      <trkpt lat="44.94074" lon="5.07457">
        <ele>260.20379638672</ele>
        <time>2016-06-25T11:59:01.000Z</time>
      </trkpt>
      <trkpt lat="44.9407" lon="5.0747">
        <ele>260.52392578125</ele>
        <time>2016-06-25T11:59:03.000Z</time>
      </trkpt>
      <trkpt lat="44.94066" lon="5.07482">
        <ele>260.83245849609</ele>
        <time>2016-06-25T11:59:05.000Z</time>
      </trkpt>
      <trkpt lat="44.94055" lon="5.07501">
        <ele>261.13531494141</ele>
        <time>2016-06-25T11:59:08.000Z</time>
      </trkpt>
      <trkpt lat="44.9405" lon="5.07516">
        <ele>261.43017578125</ele>
        <time>2016-06-25T11:59:10.000Z</time>
      </trkpt>
      <trkpt lat="44.94041" lon="5.07538">
        <ele>261.72955322266</ele>
        <time>2016-06-25T11:59:13.000Z</time>
      </trkpt>
      <trkpt lat="44.94032" lon="5.07553">
        <ele>262.02996826172</ele>
        <time>2016-06-25T11:59:15.000Z</time>
      </trkpt>
      <trkpt lat="44.94033" lon="5.07566">
        <ele>262.34887695312</ele>
        <time>2016-06-25T11:59:17.000Z</time>
      </trkpt>
      <trkpt lat="44.94035" lon="5.07589">
        <ele>262.71533203125</ele>
        <time>2016-06-25T11:59:20.000Z</time>
      </trkpt>
      <trkpt lat="44.94037" lon="5.07609">
        <ele>263.09552001953</ele>
        <time>2016-06-25T11:59:23.000Z</time>
      </trkpt>
      <trkpt lat="44.94043" lon="5.07632">
        <ele>263.49206542969</ele>
        <time>2016-06-25T11:59:26.000Z</time>
      </trkpt>
      <trkpt lat="44.94046" lon="5.07654">
        <ele>263.93487548828</ele>
        <time>2016-06-25T11:59:29.000Z</time>
      </trkpt>
      <trkpt lat="44.94049" lon="5.0767">
        <ele>264.37908935547</ele>
        <time>2016-06-25T11:59:31.000Z</time>
      </trkpt>
      <trkpt lat="44.94053" lon="5.07686">
        <ele>264.77328491211</ele>
        <time>2016-06-25T11:59:33.000Z</time>
      </trkpt>
      <trkpt lat="44.94057" lon="5.07706">
        <ele>265.16815185547</ele>
        <time>2016-06-25T11:59:36.000Z</time>
      </trkpt>
      <trkpt lat="44.9406" lon="5.0772">
        <ele>265.50598144531</ele>
        <time>2016-06-25T11:59:38.000Z</time>
      </trkpt>
      <trkpt lat="44.94061" lon="5.07735">
        <ele>265.78894042969</ele>
        <time>2016-06-25T11:59:40.000Z</time>
      </trkpt>
      <trkpt lat="44.94066" lon="5.07756">
        <ele>266.07836914062</ele>
        <time>2016-06-25T11:59:43.000Z</time>
      </trkpt>
      <trkpt lat="44.94072" lon="5.07775">
        <ele>266.38696289062</ele>
        <time>2016-06-25T11:59:46.000Z</time>
      </trkpt>
      <trkpt lat="44.94077" lon="5.07793">
        <ele>266.685546875</ele>
        <time>2016-06-25T11:59:49.000Z</time>
      </trkpt>
      <trkpt lat="44.94077" lon="5.07809">
        <ele>266.98083496094</ele>
        <time>2016-06-25T11:59:51.000Z</time>
      </trkpt>
      <trkpt lat="44.94082" lon="5.07829">
        <ele>267.30432128906</ele>
        <time>2016-06-25T11:59:54.000Z</time>
      </trkpt>
      <trkpt lat="44.94086" lon="5.07841">
        <ele>267.60931396484</ele>
        <time>2016-06-25T11:59:56.000Z</time>
      </trkpt>
      <trkpt lat="44.9409" lon="5.07853">
        <ele>267.89688110352</ele>
        <time>2016-06-25T11:59:58.000Z</time>
      </trkpt>
      <trkpt lat="44.94093" lon="5.07863">
        <ele>268.16806030273</ele>
        <time>2016-06-25T12:00:00.000Z</time>
      </trkpt>
      <trkpt lat="44.94096" lon="5.07886">
        <ele>268.50689697266</ele>
        <time>2016-06-25T12:00:03.000Z</time>
      </trkpt>
      <trkpt lat="44.94101" lon="5.07907">
        <ele>268.87890625</ele>
        <time>2016-06-25T12:00:06.000Z</time>
      </trkpt>
      <trkpt lat="44.94108" lon="5.07927">
        <ele>269.30029296875</ele>
        <time>2016-06-25T12:00:09.000Z</time>
      </trkpt>
      <trkpt lat="44.9411" lon="5.07942">
        <ele>269.74810791016</ele>
        <time>2016-06-25T12:00:11.000Z</time>
      </trkpt>
      <trkpt lat="44.94117" lon="5.07965">
        <ele>270.283203125</ele>
        <time>2016-06-25T12:00:14.000Z</time>
      </trkpt>
      <trkpt lat="44.94123" lon="5.07985">
        <ele>270.83905029297</ele>
        <time>2016-06-25T12:00:17.000Z</time>
      </trkpt>
      <trkpt lat="44.94129" lon="5.08005">
        <ele>271.39340209961</ele>
        <time>2016-06-25T12:00:20.000Z</time>
      </trkpt>
      <trkpt lat="44.9413" lon="5.08019">
        <ele>271.84790039062</ele>
        <time>2016-06-25T12:00:22.000Z</time>
      </trkpt>
      <trkpt lat="44.94133" lon="5.08032">
        <ele>272.22445678711</ele>
        <time>2016-06-25T12:00:24.000Z</time>
      </trkpt>
      <trkpt lat="44.94136" lon="5.08052">
        <ele>272.47515869141</ele>
        <time>2016-06-25T12:00:27.000Z</time>
      </trkpt>
      <trkpt lat="44.94139" lon="5.08065">
        <ele>272.6025390625</ele>
        <time>2016-06-25T12:00:29.000Z</time>
      </trkpt>
      <trkpt lat="44.94139" lon="5.08086">
        <ele>272.64501953125</ele>
        <time>2016-06-25T12:00:32.000Z</time>
      </trkpt>
      <trkpt lat="44.94138" lon="5.08108">
        <ele>272.79928588867</ele>
        <time>2016-06-25T12:00:35.000Z</time>
      </trkpt>
      <trkpt lat="44.94132" lon="5.08129">
        <ele>273.0615234375</ele>
        <time>2016-06-25T12:00:38.000Z</time>
      </trkpt>
      <trkpt lat="44.94127" lon="5.08151">
        <ele>273.44036865234</ele>
        <time>2016-06-25T12:00:41.000Z</time>
      </trkpt>
      <trkpt lat="44.94119" lon="5.08172">
        <ele>273.92449951172</ele>
        <time>2016-06-25T12:00:44.000Z</time>
      </trkpt>
      <trkpt lat="44.94112" lon="5.08193">
        <ele>274.47610473633</ele>
        <time>2016-06-25T12:00:47.000Z</time>
      </trkpt>
      <trkpt lat="44.94107" lon="5.08214">
        <ele>275.00439453125</ele>
        <time>2016-06-25T12:00:50.000Z</time>
      </trkpt>
      <trkpt lat="44.94103" lon="5.08236">
        <ele>275.51733398438</ele>
        <time>2016-06-25T12:00:53.000Z</time>
      </trkpt>
      <trkpt lat="44.94097" lon="5.08258">
        <ele>276.01641845703</ele>
        <time>2016-06-25T12:00:56.000Z</time>
      </trkpt>
      <trkpt lat="44.94093" lon="5.08279">
        <ele>276.51440429688</ele>
        <time>2016-06-25T12:00:59.000Z</time>
      </trkpt>
      <trkpt lat="44.94087" lon="5.08299">
        <ele>277.03802490234</ele>
        <time>2016-06-25T12:01:02.000Z</time>
      </trkpt>
      <trkpt lat="44.94082" lon="5.08314">
        <ele>277.53994750977</ele>
        <time>2016-06-25T12:01:04.000Z</time>
      </trkpt>
      <trkpt lat="44.94073" lon="5.08337">
        <ele>277.97235107422</ele>
        <time>2016-06-25T12:01:07.000Z</time>
      </trkpt>
      <trkpt lat="44.9407" lon="5.08351">
        <ele>278.28582763672</ele>
        <time>2016-06-25T12:01:09.000Z</time>
      </trkpt>
      <trkpt lat="44.94057" lon="5.08371">
        <ele>278.43563842773</ele>
        <time>2016-06-25T12:01:12.000Z</time>
      </trkpt>
      <trkpt lat="44.94041" lon="5.08391">
        <ele>278.44326782227</ele>
        <time>2016-06-25T12:01:15.000Z</time>
      </trkpt>
      <trkpt lat="44.94041" lon="5.0841">
        <ele>278.42858886719</ele>
        <time>2016-06-25T12:01:17.000Z</time>
      </trkpt>
      <trkpt lat="44.94035" lon="5.08421">
        <ele>278.39151000977</ele>
        <time>2016-06-25T12:01:19.000Z</time>
      </trkpt>
      <trkpt lat="44.9403" lon="5.08436">
        <ele>278.3623046875</ele>
        <time>2016-06-25T12:01:22.000Z</time>
      </trkpt>
      <trkpt lat="44.94027" lon="5.08447">
        <ele>278.38562011719</ele>
        <time>2016-06-25T12:01:24.000Z</time>
      </trkpt>
      <trkpt lat="44.94025" lon="5.08465">
        <ele>278.4479675293</ele>
        <time>2016-06-25T12:01:27.000Z</time>
      </trkpt>
      <trkpt lat="44.94029" lon="5.08478">
        <ele>278.48461914062</ele>
        <time>2016-06-25T12:01:29.000Z</time>
      </trkpt>
      <trkpt lat="44.94034" lon="5.08487">
        <ele>278.54675292969</ele>
        <time>2016-06-25T12:01:31.000Z</time>
      </trkpt>
      <trkpt lat="44.94041" lon="5.08506">
        <ele>278.681640625</ele>
        <time>2016-06-25T12:01:34.000Z</time>
      </trkpt>
      <trkpt lat="44.94049" lon="5.08521">
        <ele>278.92401123047</ele>
        <time>2016-06-25T12:01:37.000Z</time>
      </trkpt>
      <trkpt lat="44.94053" lon="5.08528">
        <ele>279.21685791016</ele>
        <time>2016-06-25T12:01:39.000Z</time>
      </trkpt>
      <trkpt lat="44.94059" lon="5.08548">
        <ele>279.61386108398</ele>
        <time>2016-06-25T12:01:42.000Z</time>
      </trkpt>
      <trkpt lat="44.94065" lon="5.0856">
        <ele>280.0634765625</ele>
        <time>2016-06-25T12:01:44.000Z</time>
      </trkpt>
      <trkpt lat="44.94069" lon="5.08572">
        <ele>280.51904296875</ele>
        <time>2016-06-25T12:01:46.000Z</time>
      </trkpt>
      <trkpt lat="44.94077" lon="5.08592">
        <ele>280.99951171875</ele>
        <time>2016-06-25T12:01:49.000Z</time>
      </trkpt>
      <trkpt lat="44.94083" lon="5.08606">
        <ele>281.51879882812</ele>
        <time>2016-06-25T12:01:51.000Z</time>
      </trkpt>
      <trkpt lat="44.94087" lon="5.08615">
        <ele>281.97732543945</ele>
        <time>2016-06-25T12:01:53.000Z</time>
      </trkpt>
      <trkpt lat="44.94094" lon="5.08631">
        <ele>282.45123291016</ele>
        <time>2016-06-25T12:01:56.000Z</time>
      </trkpt>
      <trkpt lat="44.94098" lon="5.08649">
        <ele>282.93695068359</ele>
        <time>2016-06-25T12:01:59.000Z</time>
      </trkpt>
      <trkpt lat="44.94101" lon="5.08662">
        <ele>283.35000610352</ele>
        <time>2016-06-25T12:02:01.000Z</time>
      </trkpt>
      <trkpt lat="44.94106" lon="5.08676">
        <ele>283.70050048828</ele>
        <time>2016-06-25T12:02:04.000Z</time>
      </trkpt>
      <trkpt lat="44.94108" lon="5.08687">
        <ele>283.99942016602</ele>
        <time>2016-06-25T12:02:06.000Z</time>
      </trkpt>
      <trkpt lat="44.94113" lon="5.08705">
        <ele>284.22906494141</ele>
        <time>2016-06-25T12:02:09.000Z</time>
      </trkpt>
      <trkpt lat="44.94116" lon="5.0872">
        <ele>284.39239501953</ele>
        <time>2016-06-25T12:02:12.000Z</time>
      </trkpt>
      <trkpt lat="44.94119" lon="5.08742">
        <ele>284.53118896484</ele>
        <time>2016-06-25T12:02:15.000Z</time>
      </trkpt>
      <trkpt lat="44.9412" lon="5.0876">
        <ele>284.72134399414</ele>
        <time>2016-06-25T12:02:18.000Z</time>
      </trkpt>
      <trkpt lat="44.9412" lon="5.08778">
        <ele>285.03405761719</ele>
        <time>2016-06-25T12:02:21.000Z</time>
      </trkpt>
      <trkpt lat="44.94119" lon="5.08792">
        <ele>285.42352294922</ele>
        <time>2016-06-25T12:02:23.000Z</time>
      </trkpt>
      <trkpt lat="44.9412" lon="5.08811">
        <ele>285.92987060547</ele>
        <time>2016-06-25T12:02:26.000Z</time>
      </trkpt>
      <trkpt lat="44.94123" lon="5.08832">
        <ele>286.55508422852</ele>
        <time>2016-06-25T12:02:29.000Z</time>
      </trkpt>
      <trkpt lat="44.94127" lon="5.08851">
        <ele>287.16949462891</ele>
        <time>2016-06-25T12:02:32.000Z</time>
      </trkpt>
      <trkpt lat="44.94131" lon="5.08864">
        <ele>287.69821166992</ele>
        <time>2016-06-25T12:02:34.000Z</time>
      </trkpt>
      <trkpt lat="44.94136" lon="5.08876">
        <ele>288.17251586914</ele>
        <time>2016-06-25T12:02:36.000Z</time>
      </trkpt>
      <trkpt lat="44.94142" lon="5.08895">
        <ele>288.58764648438</ele>
        <time>2016-06-25T12:02:39.000Z</time>
      </trkpt>
      <trkpt lat="44.94146" lon="5.08907">
        <ele>288.90786743164</ele>
        <time>2016-06-25T12:02:41.000Z</time>
      </trkpt>
      <trkpt lat="44.94153" lon="5.08926">
        <ele>289.25122070312</ele>
        <time>2016-06-25T12:02:44.000Z</time>
      </trkpt>
      <trkpt lat="44.94157" lon="5.08944">
        <ele>289.63522338867</ele>
        <time>2016-06-25T12:02:47.000Z</time>
      </trkpt>
      <trkpt lat="44.94161" lon="5.08956">
        <ele>290.03619384766</ele>
        <time>2016-06-25T12:02:49.000Z</time>
      </trkpt>
      <trkpt lat="44.94168" lon="5.08975">
        <ele>290.46508789062</ele>
        <time>2016-06-25T12:02:52.000Z</time>
      </trkpt>
      <trkpt lat="44.94176" lon="5.08993">
        <ele>290.92501831055</ele>
        <time>2016-06-25T12:02:55.000Z</time>
      </trkpt>
      <trkpt lat="44.94182" lon="5.09006">
        <ele>291.345703125</ele>
        <time>2016-06-25T12:02:57.000Z</time>
      </trkpt>
      <trkpt lat="44.94189" lon="5.09023">
        <ele>291.75482177734</ele>
        <time>2016-06-25T12:03:00.000Z</time>
      </trkpt>
      <trkpt lat="44.94196" lon="5.09036">
        <ele>292.15850830078</ele>
        <time>2016-06-25T12:03:03.000Z</time>
      </trkpt>
      <trkpt lat="44.942" lon="5.09045">
        <ele>292.49224853516</ele>
        <time>2016-06-25T12:03:05.000Z</time>
      </trkpt>
      <trkpt lat="44.94205" lon="5.09053">
        <ele>292.775390625</ele>
        <time>2016-06-25T12:03:07.000Z</time>
      </trkpt>
      <trkpt lat="44.9421" lon="5.09058">
        <ele>293.02514648438</ele>
        <time>2016-06-25T12:03:09.000Z</time>
      </trkpt>
      <trkpt lat="44.94217" lon="5.09067">
        <ele>293.24047851562</ele>
        <time>2016-06-25T12:03:12.000Z</time>
      </trkpt>
      <trkpt lat="44.9422" lon="5.09074">
        <ele>293.42456054688</ele>
        <time>2016-06-25T12:03:14.000Z</time>
      </trkpt>
      <trkpt lat="44.94222" lon="5.0908">
        <ele>293.59252929688</ele>
        <time>2016-06-25T12:03:16.000Z</time>
      </trkpt>
      <trkpt lat="44.94224" lon="5.09084">
        <ele>293.74090576172</ele>
        <time>2016-06-25T12:03:18.000Z</time>
      </trkpt>
      <trkpt lat="44.94227" lon="5.09084">
        <ele>293.86584472656</ele>
        <time>2016-06-25T12:03:21.000Z</time>
      </trkpt>
      <trkpt lat="44.94223" lon="5.09076">
        <ele>293.90759277344</ele>
        <time>2016-06-25T12:03:24.000Z</time>
      </trkpt>
      <trkpt lat="44.94216" lon="5.0907">
        <ele>293.88708496094</ele>
        <time>2016-06-25T12:03:26.000Z</time>
      </trkpt>
      <trkpt lat="44.94207" lon="5.09068">
        <ele>293.83407592773</ele>
        <time>2016-06-25T12:03:29.000Z</time>
      </trkpt>
      <trkpt lat="44.94204" lon="5.0907">
        <ele>293.76849365234</ele>
        <time>2016-06-25T12:03:31.000Z</time>
      </trkpt>
      <trkpt lat="44.9421" lon="5.0907">
        <ele>293.70092773438</ele>
        <time>2016-06-25T12:03:34.000Z</time>
      </trkpt>
      <trkpt lat="44.94217" lon="5.09078">
        <ele>293.70874023438</ele>
        <time>2016-06-25T12:03:36.000Z</time>
      </trkpt>
      <trkpt lat="44.94224" lon="5.09094">
        <ele>293.80645751953</ele>
        <time>2016-06-25T12:03:39.000Z</time>
      </trkpt>
      <trkpt lat="44.94231" lon="5.09111">
        <ele>293.96029663086</ele>
        <time>2016-06-25T12:03:42.000Z</time>
      </trkpt>
      <trkpt lat="44.94239" lon="5.09128">
        <ele>294.14376831055</ele>
        <time>2016-06-25T12:03:45.000Z</time>
      </trkpt>
      <trkpt lat="44.94242" lon="5.09147">
        <ele>294.37490844727</ele>
        <time>2016-06-25T12:03:48.000Z</time>
      </trkpt>
      <trkpt lat="44.94246" lon="5.0916">
        <ele>294.59243774414</ele>
        <time>2016-06-25T12:03:50.000Z</time>
      </trkpt>
      <trkpt lat="44.94249" lon="5.09175">
        <ele>294.78167724609</ele>
        <time>2016-06-25T12:03:52.000Z</time>
      </trkpt>
      <trkpt lat="44.94252" lon="5.0919">
        <ele>294.96343994141</ele>
        <time>2016-06-25T12:03:55.000Z</time>
      </trkpt>
      <trkpt lat="44.94253" lon="5.09207">
        <ele>295.15325927734</ele>
        <time>2016-06-25T12:03:57.000Z</time>
      </trkpt>
      <trkpt lat="44.94257" lon="5.09228">
        <ele>295.36480712891</ele>
        <time>2016-06-25T12:04:00.000Z</time>
      </trkpt>
      <trkpt lat="44.94257" lon="5.09241">
        <ele>295.58599853516</ele>
        <time>2016-06-25T12:04:02.000Z</time>
      </trkpt>
      <trkpt lat="44.94261" lon="5.09258">
        <ele>295.85009765625</ele>
        <time>2016-06-25T12:04:05.000Z</time>
      </trkpt>
      <trkpt lat="44.94268" lon="5.0928">
        <ele>296.19757080078</ele>
        <time>2016-06-25T12:04:08.000Z</time>
      </trkpt>
      <trkpt lat="44.9427" lon="5.09292">
        <ele>296.56390380859</ele>
        <time>2016-06-25T12:04:10.000Z</time>
      </trkpt>
      <trkpt lat="44.94273" lon="5.09307">
        <ele>296.92938232422</ele>
        <time>2016-06-25T12:04:12.000Z</time>
      </trkpt>
      <trkpt lat="44.94273" lon="5.0932">
        <ele>297.31756591797</ele>
        <time>2016-06-25T12:04:14.000Z</time>
      </trkpt>
      <trkpt lat="44.94274" lon="5.09339">
        <ele>297.71893310547</ele>
        <time>2016-06-25T12:04:17.000Z</time>
      </trkpt>
      <trkpt lat="44.94278" lon="5.09361">
        <ele>298.12899780273</ele>
        <time>2016-06-25T12:04:20.000Z</time>
      </trkpt>
      <trkpt lat="44.94284" lon="5.09379">
        <ele>298.57537841797</ele>
        <time>2016-06-25T12:04:23.000Z</time>
      </trkpt>
      <trkpt lat="44.94289" lon="5.09391">
        <ele>299.00958251953</ele>
        <time>2016-06-25T12:04:25.000Z</time>
      </trkpt>
      <trkpt lat="44.94296" lon="5.09402">
        <ele>299.43212890625</ele>
        <time>2016-06-25T12:04:27.000Z</time>
      </trkpt>
      <trkpt lat="44.94302" lon="5.09421">
        <ele>299.84750366211</ele>
        <time>2016-06-25T12:04:30.000Z</time>
      </trkpt>
      <trkpt lat="44.94312" lon="5.09434">
        <ele>300.19833374023</ele>
        <time>2016-06-25T12:04:33.000Z</time>
      </trkpt>
      <trkpt lat="44.94323" lon="5.09453">
        <ele>300.5632019043</ele>
        <time>2016-06-25T12:04:36.000Z</time>
      </trkpt>
      <trkpt lat="44.94329" lon="5.09458">
        <ele>300.89459228516</ele>
        <time>2016-06-25T12:04:38.000Z</time>
      </trkpt>
      <trkpt lat="44.94339" lon="5.09477">
        <ele>301.32659912109</ele>
        <time>2016-06-25T12:04:41.000Z</time>
      </trkpt>
      <trkpt lat="44.9435" lon="5.09491">
        <ele>301.79949951172</ele>
        <time>2016-06-25T12:04:44.000Z</time>
      </trkpt>
      <trkpt lat="44.9436" lon="5.09507">
        <ele>302.32635498047</ele>
        <time>2016-06-25T12:04:47.000Z</time>
      </trkpt>
      <trkpt lat="44.9437" lon="5.0952">
        <ele>302.82293701172</ele>
        <time>2016-06-25T12:04:50.000Z</time>
      </trkpt>
      <trkpt lat="44.94374" lon="5.09531">
        <ele>303.36358642578</ele>
        <time>2016-06-25T12:04:52.000Z</time>
      </trkpt>
      <trkpt lat="44.94385" lon="5.09548">
        <ele>303.86154174805</ele>
        <time>2016-06-25T12:04:55.000Z</time>
      </trkpt>
      <trkpt lat="44.94392" lon="5.09554">
        <ele>304.2841796875</ele>
        <time>2016-06-25T12:04:57.000Z</time>
      </trkpt>
      <trkpt lat="44.944" lon="5.09565">
        <ele>304.65600585938</ele>
        <time>2016-06-25T12:05:00.000Z</time>
      </trkpt>
      <trkpt lat="44.94407" lon="5.09576">
        <ele>305.01025390625</ele>
        <time>2016-06-25T12:05:02.000Z</time>
      </trkpt>
      <trkpt lat="44.94412" lon="5.09586">
        <ele>305.36315917969</ele>
        <time>2016-06-25T12:05:04.000Z</time>
      </trkpt>
      <trkpt lat="44.94421" lon="5.096">
        <ele>305.70584106445</ele>
        <time>2016-06-25T12:05:07.000Z</time>
      </trkpt>
      <trkpt lat="44.94426" lon="5.09611">
        <ele>306.06854248047</ele>
        <time>2016-06-25T12:05:09.000Z</time>
      </trkpt>
      <trkpt lat="44.94432" lon="5.09621">
        <ele>306.41705322266</ele>
        <time>2016-06-25T12:05:11.000Z</time>
      </trkpt>
      <trkpt lat="44.9444" lon="5.09641">
        <ele>306.79034423828</ele>
        <time>2016-06-25T12:05:14.000Z</time>
      </trkpt>
      <trkpt lat="44.94444" lon="5.09663">
        <ele>307.17608642578</ele>
        <time>2016-06-25T12:05:17.000Z</time>
      </trkpt>
      <trkpt lat="44.94448" lon="5.09676">
        <ele>307.50994873047</ele>
        <time>2016-06-25T12:05:19.000Z</time>
      </trkpt>
      <trkpt lat="44.9445" lon="5.09693">
        <ele>307.83709716797</ele>
        <time>2016-06-25T12:05:21.000Z</time>
      </trkpt>
      <trkpt lat="44.94448" lon="5.09715">
        <ele>308.17630004883</ele>
        <time>2016-06-25T12:05:24.000Z</time>
      </trkpt>
      <trkpt lat="44.9445" lon="5.09729">
        <ele>308.47454833984</ele>
        <time>2016-06-25T12:05:26.000Z</time>
      </trkpt>
      <trkpt lat="44.94453" lon="5.09751">
        <ele>308.77764892578</ele>
        <time>2016-06-25T12:05:29.000Z</time>
      </trkpt>
      <trkpt lat="44.94461" lon="5.0978">
        <ele>309.19818115234</ele>
        <time>2016-06-25T12:05:32.000Z</time>
      </trkpt>
      <trkpt lat="44.94458" lon="5.09806">
        <ele>309.67694091797</ele>
        <time>2016-06-25T12:05:35.000Z</time>
      </trkpt>
      <trkpt lat="44.94456" lon="5.09824">
        <ele>310.166015625</ele>
        <time>2016-06-25T12:05:38.000Z</time>
      </trkpt>
      <trkpt lat="44.94456" lon="5.09831">
        <ele>310.64208984375</ele>
        <time>2016-06-25T12:05:40.000Z</time>
      </trkpt>
      <trkpt lat="44.94466" lon="5.09851">
        <ele>311.18133544922</ele>
        <time>2016-06-25T12:05:43.000Z</time>
      </trkpt>
      <trkpt lat="44.94473" lon="5.0987">
        <ele>311.70013427734</ele>
        <time>2016-06-25T12:05:46.000Z</time>
      </trkpt>
      <trkpt lat="44.94485" lon="5.09878">
        <ele>312.19866943359</ele>
        <time>2016-06-25T12:05:49.000Z</time>
      </trkpt>
      <trkpt lat="44.94495" lon="5.0988">
        <ele>312.67303466797</ele>
        <time>2016-06-25T12:05:51.000Z</time>
      </trkpt>
      <trkpt lat="44.94506" lon="5.09882">
        <ele>313.12054443359</ele>
        <time>2016-06-25T12:05:53.000Z</time>
      </trkpt>
      <trkpt lat="44.9452" lon="5.09886">
        <ele>313.42468261719</ele>
        <time>2016-06-25T12:05:56.000Z</time>
      </trkpt>
      <trkpt lat="44.94526" lon="5.09889">
        <ele>313.59439086914</ele>
        <time>2016-06-25T12:05:58.000Z</time>
      </trkpt>
      <trkpt lat="44.94542" lon="5.09898">
        <ele>313.69326782227</ele>
        <time>2016-06-25T12:06:01.000Z</time>
      </trkpt>
      <trkpt lat="44.9455" lon="5.09905">
        <ele>313.76635742188</ele>
        <time>2016-06-25T12:06:03.000Z</time>
      </trkpt>
      <trkpt lat="44.94563" lon="5.09913">
        <ele>313.85437011719</ele>
        <time>2016-06-25T12:06:06.000Z</time>
      </trkpt>
      <trkpt lat="44.94577" lon="5.09921">
        <ele>313.95599365234</ele>
        <time>2016-06-25T12:06:09.000Z</time>
      </trkpt>
      <trkpt lat="44.94589" lon="5.09925">
        <ele>314.06091308594</ele>
        <time>2016-06-25T12:06:12.000Z</time>
      </trkpt>
      <trkpt lat="44.94604" lon="5.09944">
        <ele>314.24258422852</ele>
        <time>2016-06-25T12:06:15.000Z</time>
      </trkpt>
      <trkpt lat="44.9461" lon="5.09953">
        <ele>314.44931030273</ele>
        <time>2016-06-25T12:06:17.000Z</time>
      </trkpt>
      <trkpt lat="44.9462" lon="5.09979">
        <ele>314.79550170898</ele>
        <time>2016-06-25T12:06:20.000Z</time>
      </trkpt>
      <trkpt lat="44.94624" lon="5.09987">
        <ele>315.17828369141</ele>
        <time>2016-06-25T12:06:22.000Z</time>
      </trkpt>
      <trkpt lat="44.94624" lon="5.10012">
        <ele>315.61758422852</ele>
        <time>2016-06-25T12:06:25.000Z</time>
      </trkpt>
      <trkpt lat="44.94622" lon="5.10022">
        <ele>315.93890380859</ele>
        <time>2016-06-25T12:06:27.000Z</time>
      </trkpt>
      <trkpt lat="44.94625" lon="5.1004">
        <ele>316.18869018555</ele>
        <time>2016-06-25T12:06:30.000Z</time>
      </trkpt>
      <trkpt lat="44.94625" lon="5.10053">
        <ele>316.25811767578</ele>
        <time>2016-06-25T12:06:32.000Z</time>
      </trkpt>
      <trkpt lat="44.94635" lon="5.10073">
        <ele>316.2546081543</ele>
        <time>2016-06-25T12:06:35.000Z</time>
      </trkpt>
      <trkpt lat="44.94636" lon="5.10084">
        <ele>316.17333984375</ele>
        <time>2016-06-25T12:06:37.000Z</time>
      </trkpt>
      <trkpt lat="44.94637" lon="5.10103">
        <ele>316.1682434082</ele>
        <time>2016-06-25T12:06:40.000Z</time>
      </trkpt>
      <trkpt lat="44.94637" lon="5.10111">
        <ele>316.20712280273</ele>
        <time>2016-06-25T12:06:42.000Z</time>
      </trkpt>
      <trkpt lat="44.94634" lon="5.10126">
        <ele>316.31268310547</ele>
        <time>2016-06-25T12:06:44.000Z</time>
      </trkpt>
      <trkpt lat="44.94627" lon="5.10152">
        <ele>316.53872680664</ele>
        <time>2016-06-25T12:06:47.000Z</time>
      </trkpt>
      <trkpt lat="44.9463" lon="5.1017">
        <ele>316.84332275391</ele>
        <time>2016-06-25T12:06:50.000Z</time>
      </trkpt>
      <trkpt lat="44.94635" lon="5.10182">
        <ele>317.15228271484</ele>
        <time>2016-06-25T12:06:52.000Z</time>
      </trkpt>
      <trkpt lat="44.94635" lon="5.10204">
        <ele>317.57272338867</ele>
        <time>2016-06-25T12:06:55.000Z</time>
      </trkpt>
      <trkpt lat="44.94648" lon="5.10226">
        <ele>318.0700378418</ele>
        <time>2016-06-25T12:06:58.000Z</time>
      </trkpt>
      <trkpt lat="44.94657" lon="5.10249">
        <ele>318.62457275391</ele>
        <time>2016-06-25T12:07:01.000Z</time>
      </trkpt>
      <trkpt lat="44.9466" lon="5.10268">
        <ele>319.24114990234</ele>
        <time>2016-06-25T12:07:04.000Z</time>
      </trkpt>
      <trkpt lat="44.94642" lon="5.10287">
        <ele>319.90948486328</ele>
        <time>2016-06-25T12:07:07.000Z</time>
      </trkpt>
      <trkpt lat="44.94646" lon="5.10299">
        <ele>320.51959228516</ele>
        <time>2016-06-25T12:07:09.000Z</time>
      </trkpt>
      <trkpt lat="44.94658" lon="5.10309">
        <ele>321.09140014648</ele>
        <time>2016-06-25T12:07:12.000Z</time>
      </trkpt>
      <trkpt lat="44.94664" lon="5.10318">
        <ele>321.58239746094</ele>
        <time>2016-06-25T12:07:14.000Z</time>
      </trkpt>
      <trkpt lat="44.9467" lon="5.10335">
        <ele>322.06182861328</ele>
        <time>2016-06-25T12:07:17.000Z</time>
      </trkpt>
      <trkpt lat="44.94674" lon="5.10345">
        <ele>322.46350097656</ele>
        <time>2016-06-25T12:07:19.000Z</time>
      </trkpt>
      <trkpt lat="44.9468" lon="5.1036">
        <ele>322.84991455078</ele>
        <time>2016-06-25T12:07:22.000Z</time>
      </trkpt>
      <trkpt lat="44.94684" lon="5.1037">
        <ele>323.18862915039</ele>
        <time>2016-06-25T12:07:24.000Z</time>
      </trkpt>
      <trkpt lat="44.94691" lon="5.10383">
        <ele>323.51910400391</ele>
        <time>2016-06-25T12:07:27.000Z</time>
      </trkpt>
      <trkpt lat="44.94696" lon="5.10396">
        <ele>323.80053710938</ele>
        <time>2016-06-25T12:07:30.000Z</time>
      </trkpt>
      <trkpt lat="44.94699" lon="5.10405">
        <ele>324.09161376953</ele>
        <time>2016-06-25T12:07:32.000Z</time>
      </trkpt>
      <trkpt lat="44.94703" lon="5.10415">
        <ele>324.37197875977</ele>
        <time>2016-06-25T12:07:34.000Z</time>
      </trkpt>
      <trkpt lat="44.9471" lon="5.10434">
        <ele>324.70590209961</ele>
        <time>2016-06-25T12:07:37.000Z</time>
      </trkpt>
      <trkpt lat="44.94714" lon="5.10448">
        <ele>325.03973388672</ele>
        <time>2016-06-25T12:07:39.000Z</time>
      </trkpt>
      <trkpt lat="44.9472" lon="5.10462">
        <ele>325.37359619141</ele>
        <time>2016-06-25T12:07:42.000Z</time>
      </trkpt>
      <trkpt lat="44.94723" lon="5.1047">
        <ele>325.69757080078</ele>
        <time>2016-06-25T12:07:44.000Z</time>
      </trkpt>
      <trkpt lat="44.94727" lon="5.10485">
        <ele>326.0361328125</ele>
        <time>2016-06-25T12:07:46.000Z</time>
      </trkpt>
      <trkpt lat="44.9473" lon="5.10495">
        <ele>326.328125</ele>
        <time>2016-06-25T12:07:48.000Z</time>
      </trkpt>
      <trkpt lat="44.94732" lon="5.10502">
        <ele>326.58569335938</ele>
        <time>2016-06-25T12:07:50.000Z</time>
      </trkpt>
      <trkpt lat="44.94738" lon="5.10518">
        <ele>326.85375976562</ele>
        <time>2016-06-25T12:07:53.000Z</time>
      </trkpt>
      <trkpt lat="44.94743" lon="5.1053">
        <ele>327.140625</ele>
        <time>2016-06-25T12:07:56.000Z</time>
      </trkpt>
      <trkpt lat="44.94748" lon="5.10548">
        <ele>327.44506835938</ele>
        <time>2016-06-25T12:07:59.000Z</time>
      </trkpt>
      <trkpt lat="44.94751" lon="5.10565">
        <ele>327.7854309082</ele>
        <time>2016-06-25T12:08:02.000Z</time>
      </trkpt>
      <trkpt lat="44.94753" lon="5.10576">
        <ele>328.15756225586</ele>
        <time>2016-06-25T12:08:04.000Z</time>
      </trkpt>
      <trkpt lat="44.94756" lon="5.10586">
        <ele>328.51577758789</ele>
        <time>2016-06-25T12:08:06.000Z</time>
      </trkpt>
      <trkpt lat="44.94761" lon="5.10603">
        <ele>328.9631652832</ele>
        <time>2016-06-25T12:08:09.000Z</time>
      </trkpt>
      <trkpt lat="44.94764" lon="5.10618">
        <ele>329.43508911133</ele>
        <time>2016-06-25T12:08:12.000Z</time>
      </trkpt>
      <trkpt lat="44.94774" lon="5.10639">
        <ele>329.99432373047</ele>
        <time>2016-06-25T12:08:15.000Z</time>
      </trkpt>
      <trkpt lat="44.94768" lon="5.10653">
        <ele>330.56201171875</ele>
        <time>2016-06-25T12:08:17.000Z</time>
      </trkpt>
      <trkpt lat="44.94763" lon="5.10672">
        <ele>331.17135620117</ele>
        <time>2016-06-25T12:08:20.000Z</time>
      </trkpt>
      <trkpt lat="44.94766" lon="5.10686">
        <ele>331.70263671875</ele>
        <time>2016-06-25T12:08:23.000Z</time>
      </trkpt>
      <trkpt lat="44.9477" lon="5.10697">
        <ele>332.17492675781</ele>
        <time>2016-06-25T12:08:25.000Z</time>
      </trkpt>
      <trkpt lat="44.94775" lon="5.10702">
        <ele>332.50473022461</ele>
        <time>2016-06-25T12:08:27.000Z</time>
      </trkpt>
      <trkpt lat="44.94778" lon="5.10728">
        <ele>332.86627197266</ele>
        <time>2016-06-25T12:08:30.000Z</time>
      </trkpt>
      <trkpt lat="44.9478" lon="5.10742">
        <ele>333.18319702148</ele>
        <time>2016-06-25T12:08:32.000Z</time>
      </trkpt>
      <trkpt lat="44.9478" lon="5.10756">
        <ele>333.48901367188</ele>
        <time>2016-06-25T12:08:34.000Z</time>
      </trkpt>
      <trkpt lat="44.94778" lon="5.10768">
        <ele>333.79800415039</ele>
        <time>2016-06-25T12:08:36.000Z</time>
      </trkpt>
      <trkpt lat="44.94774" lon="5.10787">
        <ele>334.17242431641</ele>
        <time>2016-06-25T12:08:39.000Z</time>
      </trkpt>
      <trkpt lat="44.94771" lon="5.10802">
        <ele>334.51153564453</ele>
        <time>2016-06-25T12:08:42.000Z</time>
      </trkpt>
      <trkpt lat="44.9477" lon="5.10823">
        <ele>334.89013671875</ele>
        <time>2016-06-25T12:08:45.000Z</time>
      </trkpt>
      <trkpt lat="44.94773" lon="5.10835">
        <ele>335.26556396484</ele>
        <time>2016-06-25T12:08:47.000Z</time>
      </trkpt>
      <trkpt lat="44.94775" lon="5.10857">
        <ele>335.65582275391</ele>
        <time>2016-06-25T12:08:50.000Z</time>
      </trkpt>
      <trkpt lat="44.94773" lon="5.10873">
        <ele>335.99835205078</ele>
        <time>2016-06-25T12:08:53.000Z</time>
      </trkpt>
      <trkpt lat="44.94773" lon="5.10894">
        <ele>336.33486938477</ele>
        <time>2016-06-25T12:08:56.000Z</time>
      </trkpt>
      <trkpt lat="44.94773" lon="5.10908">
        <ele>336.61224365234</ele>
        <time>2016-06-25T12:08:58.000Z</time>
      </trkpt>
      <trkpt lat="44.94774" lon="5.10926">
        <ele>336.91079711914</ele>
        <time>2016-06-25T12:09:01.000Z</time>
      </trkpt>
      <trkpt lat="44.94776" lon="5.10938">
        <ele>337.19979858398</ele>
        <time>2016-06-25T12:09:03.000Z</time>
      </trkpt>
      <trkpt lat="44.94776" lon="5.10953">
        <ele>337.51361083984</ele>
        <time>2016-06-25T12:09:05.000Z</time>
      </trkpt>
      <trkpt lat="44.94772" lon="5.10967">
        <ele>337.82196044922</ele>
        <time>2016-06-25T12:09:07.000Z</time>
      </trkpt>
      <trkpt lat="44.94773" lon="5.10987">
        <ele>338.18676757812</ele>
        <time>2016-06-25T12:09:10.000Z</time>
      </trkpt>
      <trkpt lat="44.94772" lon="5.11007">
        <ele>338.5544128418</ele>
        <time>2016-06-25T12:09:13.000Z</time>
      </trkpt>
      <trkpt lat="44.94773" lon="5.11017">
        <ele>338.88677978516</ele>
        <time>2016-06-25T12:09:15.000Z</time>
      </trkpt>
      <trkpt lat="44.94775" lon="5.11036">
        <ele>339.19549560547</ele>
        <time>2016-06-25T12:09:18.000Z</time>
      </trkpt>
      <trkpt lat="44.94772" lon="5.11057">
        <ele>339.49099731445</ele>
        <time>2016-06-25T12:09:21.000Z</time>
      </trkpt>
      <trkpt lat="44.94767" lon="5.11078">
        <ele>339.72729492188</ele>
        <time>2016-06-25T12:09:24.000Z</time>
      </trkpt>
      <trkpt lat="44.94771" lon="5.11098">
        <ele>339.95153808594</ele>
        <time>2016-06-25T12:09:27.000Z</time>
      </trkpt>
      <trkpt lat="44.94774" lon="5.1111">
        <ele>340.19729614258</ele>
        <time>2016-06-25T12:09:29.000Z</time>
      </trkpt>
      <trkpt lat="44.94777" lon="5.11128">
        <ele>340.4582824707</ele>
        <time>2016-06-25T12:09:32.000Z</time>
      </trkpt>
      <trkpt lat="44.94777" lon="5.11141">
        <ele>340.71566772461</ele>
        <time>2016-06-25T12:09:34.000Z</time>
      </trkpt>
      <trkpt lat="44.9478" lon="5.11157">
        <ele>341.00088500977</ele>
        <time>2016-06-25T12:09:36.000Z</time>
      </trkpt>
      <trkpt lat="44.94784" lon="5.11172">
        <ele>341.30346679688</ele>
        <time>2016-06-25T12:09:38.000Z</time>
      </trkpt>
      <trkpt lat="44.94788" lon="5.11193">
        <ele>341.70190429688</ele>
        <time>2016-06-25T12:09:41.000Z</time>
      </trkpt>
      <trkpt lat="44.9479" lon="5.11207">
        <ele>342.12832641602</ele>
        <time>2016-06-25T12:09:43.000Z</time>
      </trkpt>
      <trkpt lat="44.94791" lon="5.1122">
        <ele>342.59814453125</ele>
        <time>2016-06-25T12:09:46.000Z</time>
      </trkpt>
      <trkpt lat="44.94794" lon="5.11232">
        <ele>343.0830078125</ele>
        <time>2016-06-25T12:09:49.000Z</time>
      </trkpt>
      <trkpt lat="44.94802" lon="5.11251">
        <ele>343.61993408203</ele>
        <time>2016-06-25T12:09:52.000Z</time>
      </trkpt>
      <trkpt lat="44.94804" lon="5.11261">
        <ele>344.06243896484</ele>
        <time>2016-06-25T12:09:54.000Z</time>
      </trkpt>
      <trkpt lat="44.9481" lon="5.11277">
        <ele>344.50311279297</ele>
        <time>2016-06-25T12:09:57.000Z</time>
      </trkpt>
      <trkpt lat="44.94815" lon="5.11291">
        <ele>344.94003295898</ele>
        <time>2016-06-25T12:10:00.000Z</time>
      </trkpt>
      <trkpt lat="44.94816" lon="5.113">
        <ele>345.34204101562</ele>
        <time>2016-06-25T12:10:02.000Z</time>
      </trkpt>
      <trkpt lat="44.94822" lon="5.11312">
        <ele>345.67700195312</ele>
        <time>2016-06-25T12:10:05.000Z</time>
      </trkpt>
      <trkpt lat="44.94832" lon="5.1133">
        <ele>346.07641601562</ele>
        <time>2016-06-25T12:10:08.000Z</time>
      </trkpt>
      <trkpt lat="44.94837" lon="5.11338">
        <ele>346.4365234375</ele>
        <time>2016-06-25T12:10:11.000Z</time>
      </trkpt>
      <trkpt lat="44.94847" lon="5.11354">
        <ele>346.81616210938</ele>
        <time>2016-06-25T12:10:14.000Z</time>
      </trkpt>
      <trkpt lat="44.94858" lon="5.11368">
        <ele>347.2412109375</ele>
        <time>2016-06-25T12:10:17.000Z</time>
      </trkpt>
      <trkpt lat="44.94864" lon="5.11378">
        <ele>347.65893554688</ele>
        <time>2016-06-25T12:10:19.000Z</time>
      </trkpt>
      <trkpt lat="44.94873" lon="5.11394">
        <ele>348.0625</ele>
        <time>2016-06-25T12:10:22.000Z</time>
      </trkpt>
      <trkpt lat="44.94879" lon="5.11404">
        <ele>348.47607421875</ele>
        <time>2016-06-25T12:10:24.000Z</time>
      </trkpt>
      <trkpt lat="44.94887" lon="5.11416">
        <ele>348.8671875</ele>
        <time>2016-06-25T12:10:27.000Z</time>
      </trkpt>
      <trkpt lat="44.94896" lon="5.11428">
        <ele>349.2756652832</ele>
        <time>2016-06-25T12:10:30.000Z</time>
      </trkpt>
      <trkpt lat="44.94904" lon="5.11442">
        <ele>349.74578857422</ele>
        <time>2016-06-25T12:10:33.000Z</time>
      </trkpt>
      <trkpt lat="44.94913" lon="5.11457">
        <ele>350.24578857422</ele>
        <time>2016-06-25T12:10:36.000Z</time>
      </trkpt>
      <trkpt lat="44.94921" lon="5.11468">
        <ele>350.79248046875</ele>
        <time>2016-06-25T12:10:39.000Z</time>
      </trkpt>
      <trkpt lat="44.94926" lon="5.11476">
        <ele>351.33380126953</ele>
        <time>2016-06-25T12:10:41.000Z</time>
      </trkpt>
      <trkpt lat="44.94934" lon="5.11485">
        <ele>351.86135864258</ele>
        <time>2016-06-25T12:10:44.000Z</time>
      </trkpt>
      <trkpt lat="44.9494" lon="5.11494">
        <ele>352.32968139648</ele>
        <time>2016-06-25T12:10:46.000Z</time>
      </trkpt>
      <trkpt lat="44.94949" lon="5.11505">
        <ele>352.74743652344</ele>
        <time>2016-06-25T12:10:49.000Z</time>
      </trkpt>
      <trkpt lat="44.94954" lon="5.11513">
        <ele>353.10632324219</ele>
        <time>2016-06-25T12:10:51.000Z</time>
      </trkpt>
      <trkpt lat="44.94963" lon="5.11524">
        <ele>353.46786499023</ele>
        <time>2016-06-25T12:10:54.000Z</time>
      </trkpt>
      <trkpt lat="44.94971" lon="5.11536">
        <ele>353.81097412109</ele>
        <time>2016-06-25T12:10:57.000Z</time>
      </trkpt>
      <trkpt lat="44.94982" lon="5.11559">
        <ele>354.22631835938</ele>
        <time>2016-06-25T12:11:00.000Z</time>
      </trkpt>
      <trkpt lat="44.94989" lon="5.11581">
        <ele>354.68383789062</ele>
        <time>2016-06-25T12:11:03.000Z</time>
      </trkpt>
      <trkpt lat="44.94991" lon="5.11588">
        <ele>355.14486694336</ele>
        <time>2016-06-25T12:11:05.000Z</time>
      </trkpt>
      <trkpt lat="44.94997" lon="5.11605">
        <ele>355.66717529297</ele>
        <time>2016-06-25T12:11:08.000Z</time>
      </trkpt>
      <trkpt lat="44.95005" lon="5.11619">
        <ele>356.22817993164</ele>
        <time>2016-06-25T12:11:10.000Z</time>
      </trkpt>
      <trkpt lat="44.95009" lon="5.11634">
        <ele>356.76983642578</ele>
        <time>2016-06-25T12:11:13.000Z</time>
      </trkpt>
      <trkpt lat="44.9501" lon="5.11644">
        <ele>357.2590637207</ele>
        <time>2016-06-25T12:11:15.000Z</time>
      </trkpt>
      <trkpt lat="44.95014" lon="5.11653">
        <ele>357.77471923828</ele>
        <time>2016-06-25T12:11:17.000Z</time>
      </trkpt>
      <trkpt lat="44.95024" lon="5.11674">
        <ele>358.31860351562</ele>
        <time>2016-06-25T12:11:20.000Z</time>
      </trkpt>
      <trkpt lat="44.95024" lon="5.1169">
        <ele>358.82260131836</ele>
        <time>2016-06-25T12:11:23.000Z</time>
      </trkpt>
      <trkpt lat="44.95031" lon="5.11711">
        <ele>359.33032226562</ele>
        <time>2016-06-25T12:11:26.000Z</time>
      </trkpt>
      <trkpt lat="44.95037" lon="5.11727">
        <ele>359.86065673828</ele>
        <time>2016-06-25T12:11:29.000Z</time>
      </trkpt>
      <trkpt lat="44.95042" lon="5.11743">
        <ele>360.39672851562</ele>
        <time>2016-06-25T12:11:32.000Z</time>
      </trkpt>
      <trkpt lat="44.95045" lon="5.11756">
        <ele>360.82562255859</ele>
        <time>2016-06-25T12:11:34.000Z</time>
      </trkpt>
      <trkpt lat="44.9505" lon="5.11771">
        <ele>361.22799682617</ele>
        <time>2016-06-25T12:11:37.000Z</time>
      </trkpt>
      <trkpt lat="44.95053" lon="5.11783">
        <ele>361.5451965332</ele>
        <time>2016-06-25T12:11:39.000Z</time>
      </trkpt>
      <trkpt lat="44.95056" lon="5.11797">
        <ele>361.81195068359</ele>
        <time>2016-06-25T12:11:42.000Z</time>
      </trkpt>
      <trkpt lat="44.95061" lon="5.11815">
        <ele>362.05102539062</ele>
        <time>2016-06-25T12:11:45.000Z</time>
      </trkpt>
      <trkpt lat="44.95065" lon="5.11831">
        <ele>362.28002929688</ele>
        <time>2016-06-25T12:11:48.000Z</time>
      </trkpt>
      <trkpt lat="44.95068" lon="5.11842">
        <ele>362.51824951172</ele>
        <time>2016-06-25T12:11:50.000Z</time>
      </trkpt>
      <trkpt lat="44.95073" lon="5.11863">
        <ele>362.83731079102</ele>
        <time>2016-06-25T12:11:53.000Z</time>
      </trkpt>
      <trkpt lat="44.95075" lon="5.11878">
        <ele>363.19635009766</ele>
        <time>2016-06-25T12:11:55.000Z</time>
      </trkpt>
      <trkpt lat="44.95078" lon="5.11887">
        <ele>363.54510498047</ele>
        <time>2016-06-25T12:11:57.000Z</time>
      </trkpt>
      <trkpt lat="44.95086" lon="5.11909">
        <ele>363.96020507812</ele>
        <time>2016-06-25T12:12:00.000Z</time>
      </trkpt>
      <trkpt lat="44.95094" lon="5.11929">
        <ele>364.45971679688</ele>
        <time>2016-06-25T12:12:03.000Z</time>
      </trkpt>
      <trkpt lat="44.95101" lon="5.1194">
        <ele>364.92306518555</ele>
        <time>2016-06-25T12:12:06.000Z</time>
      </trkpt>
      <trkpt lat="44.95105" lon="5.11949">
        <ele>365.35888671875</ele>
        <time>2016-06-25T12:12:08.000Z</time>
      </trkpt>
      <trkpt lat="44.95113" lon="5.11956">
        <ele>365.79541015625</ele>
        <time>2016-06-25T12:12:10.000Z</time>
      </trkpt>
      <trkpt lat="44.95122" lon="5.11972">
        <ele>366.19793701172</ele>
        <time>2016-06-25T12:12:13.000Z</time>
      </trkpt>
      <trkpt lat="44.95129" lon="5.11986">
        <ele>366.51821899414</ele>
        <time>2016-06-25T12:12:15.000Z</time>
      </trkpt>
      <trkpt lat="44.95137" lon="5.12002">
        <ele>366.81521606445</ele>
        <time>2016-06-25T12:12:18.000Z</time>
      </trkpt>
      <trkpt lat="44.95142" lon="5.12011">
        <ele>367.10620117188</ele>
        <time>2016-06-25T12:12:20.000Z</time>
      </trkpt>
      <trkpt lat="44.95148" lon="5.12024">
        <ele>367.41851806641</ele>
        <time>2016-06-25T12:12:22.000Z</time>
      </trkpt>
      <trkpt lat="44.95158" lon="5.12038">
        <ele>367.73468017578</ele>
        <time>2016-06-25T12:12:25.000Z</time>
      </trkpt>
      <trkpt lat="44.95163" lon="5.12048">
        <ele>368.05523681641</ele>
        <time>2016-06-25T12:12:27.000Z</time>
      </trkpt>
      <trkpt lat="44.95171" lon="5.12065">
        <ele>368.42962646484</ele>
        <time>2016-06-25T12:12:30.000Z</time>
      </trkpt>
      <trkpt lat="44.95179" lon="5.12076">
        <ele>368.81695556641</ele>
        <time>2016-06-25T12:12:33.000Z</time>
      </trkpt>
      <trkpt lat="44.95185" lon="5.12085">
        <ele>369.17764282227</ele>
        <time>2016-06-25T12:12:35.000Z</time>
      </trkpt>
      <trkpt lat="44.95193" lon="5.121">
        <ele>369.50775146484</ele>
        <time>2016-06-25T12:12:38.000Z</time>
      </trkpt>
      <trkpt lat="44.95198" lon="5.12114">
        <ele>369.82870483398</ele>
        <time>2016-06-25T12:12:40.000Z</time>
      </trkpt>
      <trkpt lat="44.95205" lon="5.12126">
        <ele>370.08401489258</ele>
        <time>2016-06-25T12:12:42.000Z</time>
      </trkpt>
      <trkpt lat="44.95211" lon="5.12136">
        <ele>370.30786132812</ele>
        <time>2016-06-25T12:12:45.000Z</time>
      </trkpt>
      <trkpt lat="44.95216" lon="5.12144">
        <ele>370.51635742188</ele>
        <time>2016-06-25T12:12:47.000Z</time>
      </trkpt>
      <trkpt lat="44.95224" lon="5.12159">
        <ele>370.72631835938</ele>
        <time>2016-06-25T12:12:50.000Z</time>
      </trkpt>
      <trkpt lat="44.9523" lon="5.12168">
        <ele>370.91558837891</ele>
        <time>2016-06-25T12:12:52.000Z</time>
      </trkpt>
      <trkpt lat="44.95238" lon="5.12178">
        <ele>371.12670898438</ele>
        <time>2016-06-25T12:12:55.000Z</time>
      </trkpt>
      <trkpt lat="44.95245" lon="5.12186">
        <ele>371.37652587891</ele>
        <time>2016-06-25T12:12:58.000Z</time>
      </trkpt>
      <trkpt lat="44.95253" lon="5.12201">
        <ele>371.71539306641</ele>
        <time>2016-06-25T12:13:01.000Z</time>
      </trkpt>
      <trkpt lat="44.95258" lon="5.12213">
        <ele>372.07150268555</ele>
        <time>2016-06-25T12:13:03.000Z</time>
      </trkpt>
      <trkpt lat="44.95265" lon="5.12229">
        <ele>372.48101806641</ele>
        <time>2016-06-25T12:13:06.000Z</time>
      </trkpt>
      <trkpt lat="44.95272" lon="5.12244">
        <ele>372.89111328125</ele>
        <time>2016-06-25T12:13:08.000Z</time>
      </trkpt>
      <trkpt lat="44.95279" lon="5.1226">
        <ele>373.29449462891</ele>
        <time>2016-06-25T12:13:11.000Z</time>
      </trkpt>
      <trkpt lat="44.95285" lon="5.12273">
        <ele>373.61169433594</ele>
        <time>2016-06-25T12:13:14.000Z</time>
      </trkpt>
      <trkpt lat="44.9529" lon="5.12284">
        <ele>373.88781738281</ele>
        <time>2016-06-25T12:13:17.000Z</time>
      </trkpt>
      <trkpt lat="44.95292" lon="5.12292">
        <ele>374.12615966797</ele>
        <time>2016-06-25T12:13:19.000Z</time>
      </trkpt>
      <trkpt lat="44.95294" lon="5.12306">
        <ele>374.3662109375</ele>
        <time>2016-06-25T12:13:22.000Z</time>
      </trkpt>
      <trkpt lat="44.95297" lon="5.1232">
        <ele>374.61926269531</ele>
        <time>2016-06-25T12:13:24.000Z</time>
      </trkpt>
      <trkpt lat="44.95298" lon="5.1233">
        <ele>374.91162109375</ele>
        <time>2016-06-25T12:13:26.000Z</time>
      </trkpt>
      <trkpt lat="44.953" lon="5.12349">
        <ele>375.26641845703</ele>
        <time>2016-06-25T12:13:29.000Z</time>
      </trkpt>
      <trkpt lat="44.95301" lon="5.12364">
        <ele>375.63702392578</ele>
        <time>2016-06-25T12:13:31.000Z</time>
      </trkpt>
      <trkpt lat="44.95303" lon="5.1238">
        <ele>376.01824951172</ele>
        <time>2016-06-25T12:13:34.000Z</time>
      </trkpt>
      <trkpt lat="44.95303" lon="5.12404">
        <ele>376.46127319336</ele>
        <time>2016-06-25T12:13:37.000Z</time>
      </trkpt>
      <trkpt lat="44.95305" lon="5.12418">
        <ele>376.89398193359</ele>
        <time>2016-06-25T12:13:39.000Z</time>
      </trkpt>
      <trkpt lat="44.9531" lon="5.12439">
        <ele>377.388671875</ele>
        <time>2016-06-25T12:13:42.000Z</time>
      </trkpt>
      <trkpt lat="44.95309" lon="5.12454">
        <ele>377.97113037109</ele>
        <time>2016-06-25T12:13:44.000Z</time>
      </trkpt>
      <trkpt lat="44.9531" lon="5.12474">
        <ele>378.66390991211</ele>
        <time>2016-06-25T12:13:47.000Z</time>
      </trkpt>
      <trkpt lat="44.95313" lon="5.12488">
        <ele>379.33843994141</ele>
        <time>2016-06-25T12:13:49.000Z</time>
      </trkpt>
      <trkpt lat="44.95315" lon="5.12509">
        <ele>380.13079833984</ele>
        <time>2016-06-25T12:13:52.000Z</time>
      </trkpt>
      <trkpt lat="44.95321" lon="5.12521">
        <ele>380.83096313477</ele>
        <time>2016-06-25T12:13:54.000Z</time>
      </trkpt>
      <trkpt lat="44.95327" lon="5.12535">
        <ele>381.44653320312</ele>
        <time>2016-06-25T12:13:56.000Z</time>
      </trkpt>
      <trkpt lat="44.95336" lon="5.12552">
        <ele>381.94888305664</ele>
        <time>2016-06-25T12:13:59.000Z</time>
      </trkpt>
      <trkpt lat="44.95346" lon="5.12562">
        <ele>382.33950805664</ele>
        <time>2016-06-25T12:14:01.000Z</time>
      </trkpt>
      <trkpt lat="44.95361" lon="5.12577">
        <ele>382.55120849609</ele>
        <time>2016-06-25T12:14:04.000Z</time>
      </trkpt>
      <trkpt lat="44.9537" lon="5.1258">
        <ele>382.65103149414</ele>
        <time>2016-06-25T12:14:07.000Z</time>
      </trkpt>
      <trkpt lat="44.95385" lon="5.12583">
        <ele>382.60144042969</ele>
        <time>2016-06-25T12:14:10.000Z</time>
      </trkpt>
      <trkpt lat="44.95394" lon="5.12587">
        <ele>382.42196655273</ele>
        <time>2016-06-25T12:14:12.000Z</time>
      </trkpt>
      <trkpt lat="44.95406" lon="5.12589">
        <ele>382.15606689453</ele>
        <time>2016-06-25T12:14:15.000Z</time>
      </trkpt>
      <trkpt lat="44.95417" lon="5.12591">
        <ele>381.82284545898</ele>
        <time>2016-06-25T12:14:18.000Z</time>
      </trkpt>
      <trkpt lat="44.95425" lon="5.12596">
        <ele>381.65368652344</ele>
        <time>2016-06-25T12:14:20.000Z</time>
      </trkpt>
      <trkpt lat="44.95438" lon="5.12597">
        <ele>381.73196411133</ele>
        <time>2016-06-25T12:14:23.000Z</time>
      </trkpt>
      <trkpt lat="44.95453" lon="5.12597">
        <ele>382.05877685547</ele>
        <time>2016-06-25T12:14:26.000Z</time>
      </trkpt>
      <trkpt lat="44.95462" lon="5.12605">
        <ele>382.61770629883</ele>
        <time>2016-06-25T12:14:29.000Z</time>
      </trkpt>
      <trkpt lat="44.95471" lon="5.12609">
        <ele>383.38702392578</ele>
        <time>2016-06-25T12:14:31.000Z</time>
      </trkpt>
      <trkpt lat="44.95485" lon="5.12613">
        <ele>384.25942993164</ele>
        <time>2016-06-25T12:14:34.000Z</time>
      </trkpt>
      <trkpt lat="44.95501" lon="5.12626">
        <ele>385.26617431641</ele>
        <time>2016-06-25T12:14:37.000Z</time>
      </trkpt>
      <trkpt lat="44.95512" lon="5.12642">
        <ele>386.25665283203</ele>
        <time>2016-06-25T12:14:40.000Z</time>
      </trkpt>
      <trkpt lat="44.95522" lon="5.12646">
        <ele>387.17388916016</ele>
        <time>2016-06-25T12:14:42.000Z</time>
      </trkpt>
      <trkpt lat="44.95535" lon="5.12655">
        <ele>388.07965087891</ele>
        <time>2016-06-25T12:14:45.000Z</time>
      </trkpt>
      <trkpt lat="44.95545" lon="5.12669">
        <ele>388.89892578125</ele>
        <time>2016-06-25T12:14:48.000Z</time>
      </trkpt>
      <trkpt lat="44.95555" lon="5.12679">
        <ele>389.52954101562</ele>
        <time>2016-06-25T12:14:51.000Z</time>
      </trkpt>
      <trkpt lat="44.95563" lon="5.12695">
        <ele>390.12713623047</ele>
        <time>2016-06-25T12:14:54.000Z</time>
      </trkpt>
      <trkpt lat="44.95575" lon="5.12715">
        <ele>390.8528137207</ele>
        <time>2016-06-25T12:14:57.000Z</time>
      </trkpt>
      <trkpt lat="44.95586" lon="5.12727">
        <ele>391.58114624023</ele>
        <time>2016-06-25T12:15:00.000Z</time>
      </trkpt>
      <trkpt lat="44.95595" lon="5.12734">
        <ele>392.21087646484</ele>
        <time>2016-06-25T12:15:03.000Z</time>
      </trkpt>
      <trkpt lat="44.95601" lon="5.12736">
        <ele>392.72650146484</ele>
        <time>2016-06-25T12:15:05.000Z</time>
      </trkpt>
      <trkpt lat="44.95605" lon="5.12745">
        <ele>393.15191650391</ele>
        <time>2016-06-25T12:15:07.000Z</time>
      </trkpt>
      <trkpt lat="44.95612" lon="5.12752">
        <ele>393.40841674805</ele>
        <time>2016-06-25T12:15:09.000Z</time>
      </trkpt>
      <trkpt lat="44.95615" lon="5.12757">
        <ele>393.55999755859</ele>
        <time>2016-06-25T12:15:11.000Z</time>
      </trkpt>
      <trkpt lat="44.95624" lon="5.12767">
        <ele>393.74725341797</ele>
        <time>2016-06-25T12:15:14.000Z</time>
      </trkpt>
      <trkpt lat="44.95627" lon="5.12776">
        <ele>394.00860595703</ele>
        <time>2016-06-25T12:15:16.000Z</time>
      </trkpt>
      <trkpt lat="44.95629" lon="5.12788">
        <ele>394.30999755859</ele>
        <time>2016-06-25T12:15:18.000Z</time>
      </trkpt>
      <trkpt lat="44.95631" lon="5.128">
        <ele>394.66854858398</ele>
        <time>2016-06-25T12:15:20.000Z</time>
      </trkpt>
      <trkpt lat="44.95635" lon="5.12817">
        <ele>395.15014648438</ele>
        <time>2016-06-25T12:15:23.000Z</time>
      </trkpt>
      <trkpt lat="44.95637" lon="5.1283">
        <ele>395.67080688477</ele>
        <time>2016-06-25T12:15:25.000Z</time>
      </trkpt>
      <trkpt lat="44.95642" lon="5.12852">
        <ele>396.24008178711</ele>
        <time>2016-06-25T12:15:28.000Z</time>
      </trkpt>
      <trkpt lat="44.95642" lon="5.12869">
        <ele>396.79632568359</ele>
        <time>2016-06-25T12:15:31.000Z</time>
      </trkpt>
      <trkpt lat="44.95643" lon="5.12888">
        <ele>397.34893798828</ele>
        <time>2016-06-25T12:15:34.000Z</time>
      </trkpt>
      <trkpt lat="44.95642" lon="5.12897">
        <ele>397.79605102539</ele>
        <time>2016-06-25T12:15:36.000Z</time>
      </trkpt>
      <trkpt lat="44.95641" lon="5.12914">
        <ele>398.21728515625</ele>
        <time>2016-06-25T12:15:39.000Z</time>
      </trkpt>
      <trkpt lat="44.9564" lon="5.12925">
        <ele>398.59820556641</ele>
        <time>2016-06-25T12:15:41.000Z</time>
      </trkpt>
      <trkpt lat="44.95638" lon="5.12936">
        <ele>398.98425292969</ele>
        <time>2016-06-25T12:15:43.000Z</time>
      </trkpt>
      <trkpt lat="44.95636" lon="5.12946">
        <ele>399.35833740234</ele>
        <time>2016-06-25T12:15:45.000Z</time>
      </trkpt>
      <trkpt lat="44.95637" lon="5.12961">
        <ele>399.80596923828</ele>
        <time>2016-06-25T12:15:48.000Z</time>
      </trkpt>
      <trkpt lat="44.95638" lon="5.12976">
        <ele>400.29586791992</ele>
        <time>2016-06-25T12:15:51.000Z</time>
      </trkpt>
      <trkpt lat="44.95638" lon="5.12993">
        <ele>400.84292602539</ele>
        <time>2016-06-25T12:15:54.000Z</time>
      </trkpt>
      <trkpt lat="44.95637" lon="5.1301">
        <ele>401.42147827148</ele>
        <time>2016-06-25T12:15:57.000Z</time>
      </trkpt>
      <trkpt lat="44.95637" lon="5.13021">
        <ele>401.99011230469</ele>
        <time>2016-06-25T12:15:59.000Z</time>
      </trkpt>
      <trkpt lat="44.95636" lon="5.13032">
        <ele>402.51257324219</ele>
        <time>2016-06-25T12:16:01.000Z</time>
      </trkpt>
      <trkpt lat="44.95635" lon="5.13049">
        <ele>403.01654052734</ele>
        <time>2016-06-25T12:16:04.000Z</time>
      </trkpt>
      <trkpt lat="44.95634" lon="5.1306">
        <ele>403.45690917969</ele>
        <time>2016-06-25T12:16:06.000Z</time>
      </trkpt>
      <trkpt lat="44.95635" lon="5.13077">
        <ele>403.88250732422</ele>
        <time>2016-06-25T12:16:09.000Z</time>
      </trkpt>
      <trkpt lat="44.95637" lon="5.13094">
        <ele>404.31072998047</ele>
        <time>2016-06-25T12:16:12.000Z</time>
      </trkpt>
      <trkpt lat="44.95637" lon="5.13105">
        <ele>404.70568847656</ele>
        <time>2016-06-25T12:16:14.000Z</time>
      </trkpt>
      <trkpt lat="44.95638" lon="5.13117">
        <ele>405.03103637695</ele>
        <time>2016-06-25T12:16:16.000Z</time>
      </trkpt>
      <trkpt lat="44.95637" lon="5.13134">
        <ele>405.34060668945</ele>
        <time>2016-06-25T12:16:19.000Z</time>
      </trkpt>
      <trkpt lat="44.95634" lon="5.13153">
        <ele>405.61126708984</ele>
        <time>2016-06-25T12:16:22.000Z</time>
      </trkpt>
      <trkpt lat="44.95632" lon="5.13166">
        <ele>405.85726928711</ele>
        <time>2016-06-25T12:16:24.000Z</time>
      </trkpt>
      <trkpt lat="44.95632" lon="5.13184">
        <ele>406.103515625</ele>
        <time>2016-06-25T12:16:27.000Z</time>
      </trkpt>
      <trkpt lat="44.95631" lon="5.13201">
        <ele>406.35174560547</ele>
        <time>2016-06-25T12:16:30.000Z</time>
      </trkpt>
      <trkpt lat="44.95631" lon="5.13218">
        <ele>406.57293701172</ele>
        <time>2016-06-25T12:16:33.000Z</time>
      </trkpt>
      <trkpt lat="44.95635" lon="5.13228">
        <ele>406.72933959961</ele>
        <time>2016-06-25T12:16:35.000Z</time>
      </trkpt>
      <trkpt lat="44.95625" lon="5.13249">
        <ele>406.94866943359</ele>
        <time>2016-06-25T12:16:38.000Z</time>
      </trkpt>
      <trkpt lat="44.95625" lon="5.13267">
        <ele>407.19305419922</ele>
        <time>2016-06-25T12:16:41.000Z</time>
      </trkpt>
      <trkpt lat="44.9563" lon="5.13279">
        <ele>407.40625</ele>
        <time>2016-06-25T12:16:43.000Z</time>
      </trkpt>
      <trkpt lat="44.95632" lon="5.13296">
        <ele>407.642578125</ele>
        <time>2016-06-25T12:16:46.000Z</time>
      </trkpt>
      <trkpt lat="44.95633" lon="5.13308">
        <ele>407.91754150391</ele>
        <time>2016-06-25T12:16:48.000Z</time>
      </trkpt>
      <trkpt lat="44.95628" lon="5.13328">
        <ele>408.18783569336</ele>
        <time>2016-06-25T12:16:51.000Z</time>
      </trkpt>
      <trkpt lat="44.9563" lon="5.13344">
        <ele>408.42227172852</ele>
        <time>2016-06-25T12:16:53.000Z</time>
      </trkpt>
      <trkpt lat="44.9563" lon="5.1336">
        <ele>408.67932128906</ele>
        <time>2016-06-25T12:16:56.000Z</time>
      </trkpt>
      <trkpt lat="44.95631" lon="5.13372">
        <ele>408.90521240234</ele>
        <time>2016-06-25T12:16:58.000Z</time>
      </trkpt>
      <trkpt lat="44.95628" lon="5.13393">
        <ele>409.12445068359</ele>
        <time>2016-06-25T12:17:01.000Z</time>
      </trkpt>
      <trkpt lat="44.95626" lon="5.13405">
        <ele>409.24652099609</ele>
        <time>2016-06-25T12:17:03.000Z</time>
      </trkpt>
      <trkpt lat="44.95627" lon="5.13424">
        <ele>409.39141845703</ele>
        <time>2016-06-25T12:17:06.000Z</time>
      </trkpt>
      <trkpt lat="44.95626" lon="5.13442">
        <ele>409.56689453125</ele>
        <time>2016-06-25T12:17:09.000Z</time>
      </trkpt>
      <trkpt lat="44.9563" lon="5.1346">
        <ele>409.83172607422</ele>
        <time>2016-06-25T12:17:12.000Z</time>
      </trkpt>
      <trkpt lat="44.95629" lon="5.13481">
        <ele>410.13232421875</ele>
        <time>2016-06-25T12:17:15.000Z</time>
      </trkpt>
      <trkpt lat="44.95632" lon="5.13499">
        <ele>410.54302978516</ele>
        <time>2016-06-25T12:17:18.000Z</time>
      </trkpt>
      <trkpt lat="44.95633" lon="5.13517">
        <ele>410.98431396484</ele>
        <time>2016-06-25T12:17:21.000Z</time>
      </trkpt>
      <trkpt lat="44.95635" lon="5.13531">
        <ele>411.44281005859</ele>
        <time>2016-06-25T12:17:23.000Z</time>
      </trkpt>
      <trkpt lat="44.95636" lon="5.13549">
        <ele>411.88507080078</ele>
        <time>2016-06-25T12:17:26.000Z</time>
      </trkpt>
      <trkpt lat="44.95636" lon="5.13569">
        <ele>412.32308959961</ele>
        <time>2016-06-25T12:17:29.000Z</time>
      </trkpt>
      <trkpt lat="44.95636" lon="5.13581">
        <ele>412.69857788086</ele>
        <time>2016-06-25T12:17:31.000Z</time>
      </trkpt>
      <trkpt lat="44.95636" lon="5.13596">
        <ele>413.03411865234</ele>
        <time>2016-06-25T12:17:33.000Z</time>
      </trkpt>
      <trkpt lat="44.9564" lon="5.13612">
        <ele>413.41064453125</ele>
        <time>2016-06-25T12:17:36.000Z</time>
      </trkpt>
      <trkpt lat="44.95644" lon="5.13625">
        <ele>413.79705810547</ele>
        <time>2016-06-25T12:17:38.000Z</time>
      </trkpt>
      <trkpt lat="44.95641" lon="5.13646">
        <ele>414.14575195312</ele>
        <time>2016-06-25T12:17:41.000Z</time>
      </trkpt>
      <trkpt lat="44.95642" lon="5.13656">
        <ele>414.48153686523</ele>
        <time>2016-06-25T12:17:43.000Z</time>
      </trkpt>
      <trkpt lat="44.95642" lon="5.13674">
        <ele>414.87167358398</ele>
        <time>2016-06-25T12:17:46.000Z</time>
      </trkpt>
      <trkpt lat="44.95645" lon="5.13693">
        <ele>415.34487915039</ele>
        <time>2016-06-25T12:17:49.000Z</time>
      </trkpt>
      <trkpt lat="44.95646" lon="5.13706">
        <ele>415.82843017578</ele>
        <time>2016-06-25T12:17:51.000Z</time>
      </trkpt>
      <trkpt lat="44.95646" lon="5.13725">
        <ele>416.44418334961</ele>
        <time>2016-06-25T12:17:54.000Z</time>
      </trkpt>
      <trkpt lat="44.95647" lon="5.13742">
        <ele>417.17535400391</ele>
        <time>2016-06-25T12:17:57.000Z</time>
      </trkpt>
      <trkpt lat="44.9565" lon="5.13759">
        <ele>417.98037719727</ele>
        <time>2016-06-25T12:18:00.000Z</time>
      </trkpt>
      <trkpt lat="44.95652" lon="5.13777">
        <ele>418.73876953125</ele>
        <time>2016-06-25T12:18:03.000Z</time>
      </trkpt>
      <trkpt lat="44.95653" lon="5.13788">
        <ele>419.48251342773</ele>
        <time>2016-06-25T12:18:05.000Z</time>
      </trkpt>
      <trkpt lat="44.95655" lon="5.13806">
        <ele>420.22030639648</ele>
        <time>2016-06-25T12:18:08.000Z</time>
      </trkpt>
      <trkpt lat="44.95655" lon="5.13822">
        <ele>420.927734375</ele>
        <time>2016-06-25T12:18:10.000Z</time>
      </trkpt>
      <trkpt lat="44.95653" lon="5.13836">
        <ele>421.56649780273</ele>
        <time>2016-06-25T12:18:13.000Z</time>
      </trkpt>
      <trkpt lat="44.95654" lon="5.13851">
        <ele>422.16119384766</ele>
        <time>2016-06-25T12:18:16.000Z</time>
      </trkpt>
      <trkpt lat="44.95653" lon="5.13862">
        <ele>422.73281860352</ele>
        <time>2016-06-25T12:18:18.000Z</time>
      </trkpt>
      <trkpt lat="44.95653" lon="5.13877">
        <ele>423.25790405273</ele>
        <time>2016-06-25T12:18:21.000Z</time>
      </trkpt>
      <trkpt lat="44.95651" lon="5.13889">
        <ele>423.73291015625</ele>
        <time>2016-06-25T12:18:23.000Z</time>
      </trkpt>
      <trkpt lat="44.95649" lon="5.13902">
        <ele>424.18603515625</ele>
        <time>2016-06-25T12:18:25.000Z</time>
      </trkpt>
      <trkpt lat="44.95644" lon="5.13918">
        <ele>424.61840820312</ele>
        <time>2016-06-25T12:18:28.000Z</time>
      </trkpt>
      <trkpt lat="44.95641" lon="5.13936">
        <ele>425.01336669922</ele>
        <time>2016-06-25T12:18:31.000Z</time>
      </trkpt>
      <trkpt lat="44.95641" lon="5.13948">
        <ele>425.33944702148</ele>
        <time>2016-06-25T12:18:33.000Z</time>
      </trkpt>
      <trkpt lat="44.95648" lon="5.1397">
        <ele>425.68057250977</ele>
        <time>2016-06-25T12:18:36.000Z</time>
      </trkpt>
      <trkpt lat="44.95648" lon="5.13983">
        <ele>425.98281860352</ele>
        <time>2016-06-25T12:18:38.000Z</time>
      </trkpt>
      <trkpt lat="44.95646" lon="5.14">
        <ele>426.24005126953</ele>
        <time>2016-06-25T12:18:41.000Z</time>
      </trkpt>
      <trkpt lat="44.95639" lon="5.14017">
        <ele>426.51913452148</ele>
        <time>2016-06-25T12:18:44.000Z</time>
      </trkpt>
      <trkpt lat="44.95637" lon="5.14026">
        <ele>426.80184936523</ele>
        <time>2016-06-25T12:18:46.000Z</time>
      </trkpt>
      <trkpt lat="44.95631" lon="5.14044">
        <ele>427.09237670898</ele>
        <time>2016-06-25T12:18:49.000Z</time>
      </trkpt>
      <trkpt lat="44.95625" lon="5.14058">
        <ele>427.43399047852</ele>
        <time>2016-06-25T12:18:51.000Z</time>
      </trkpt>
      <trkpt lat="44.95621" lon="5.14075">
        <ele>427.84442138672</ele>
        <time>2016-06-25T12:18:54.000Z</time>
      </trkpt>
      <trkpt lat="44.95618" lon="5.14092">
        <ele>428.30682373047</ele>
        <time>2016-06-25T12:18:57.000Z</time>
      </trkpt>
      <trkpt lat="44.95617" lon="5.14103">
        <ele>428.787109375</ele>
        <time>2016-06-25T12:18:59.000Z</time>
      </trkpt>
      <trkpt lat="44.95613" lon="5.14127">
        <ele>429.32781982422</ele>
        <time>2016-06-25T12:19:02.000Z</time>
      </trkpt>
      <trkpt lat="44.95607" lon="5.14144">
        <ele>429.91925048828</ele>
        <time>2016-06-25T12:19:05.000Z</time>
      </trkpt>
      <trkpt lat="44.95595" lon="5.14157">
        <ele>430.58139038086</ele>
        <time>2016-06-25T12:19:08.000Z</time>
      </trkpt>
      <trkpt lat="44.95588" lon="5.14171">
        <ele>431.29254150391</ele>
        <time>2016-06-25T12:19:11.000Z</time>
      </trkpt>
      <trkpt lat="44.95582" lon="5.14179">
        <ele>432.03826904297</ele>
        <time>2016-06-25T12:19:13.000Z</time>
      </trkpt>
      <trkpt lat="44.95574" lon="5.14192">
        <ele>432.70370483398</ele>
        <time>2016-06-25T12:19:16.000Z</time>
      </trkpt>
      <trkpt lat="44.95567" lon="5.14211">
        <ele>433.38751220703</ele>
        <time>2016-06-25T12:19:19.000Z</time>
      </trkpt>
      <trkpt lat="44.95567" lon="5.14225">
        <ele>434.01669311523</ele>
        <time>2016-06-25T12:19:22.000Z</time>
      </trkpt>
      <trkpt lat="44.95557" lon="5.14224">
        <ele>434.48321533203</ele>
        <time>2016-06-25T12:19:25.000Z</time>
      </trkpt>
      <trkpt lat="44.95545" lon="5.14229">
        <ele>434.94403076172</ele>
        <time>2016-06-25T12:19:28.000Z</time>
      </trkpt>
      <trkpt lat="44.95534" lon="5.14235">
        <ele>435.42803955078</ele>
        <time>2016-06-25T12:19:31.000Z</time>
      </trkpt>
      <trkpt lat="44.95524" lon="5.1424">
        <ele>435.85479736328</ele>
        <time>2016-06-25T12:19:33.000Z</time>
      </trkpt>
      <trkpt lat="44.95509" lon="5.14251">
        <ele>436.40756225586</ele>
        <time>2016-06-25T12:19:36.000Z</time>
      </trkpt>
      <trkpt lat="44.95501" lon="5.14259">
        <ele>437.27392578125</ele>
        <time>2016-06-25T12:19:38.000Z</time>
      </trkpt>
      <trkpt lat="44.95488" lon="5.14263">
        <ele>437.93563842773</ele>
        <time>2016-06-25T12:19:41.000Z</time>
      </trkpt>
      <trkpt lat="44.95478" lon="5.14267">
        <ele>438.49374389648</ele>
        <time>2016-06-25T12:19:43.000Z</time>
      </trkpt>
      <trkpt lat="44.95465" lon="5.14277">
        <ele>439.07241821289</ele>
        <time>2016-06-25T12:19:46.000Z</time>
      </trkpt>
      <trkpt lat="44.95454" lon="5.14287">
        <ele>439.60464477539</ele>
        <time>2016-06-25T12:19:49.000Z</time>
      </trkpt>
      <trkpt lat="44.95449" lon="5.14297">
        <ele>440.14901733398</ele>
        <time>2016-06-25T12:19:51.000Z</time>
      </trkpt>
      <trkpt lat="44.95444" lon="5.14308">
        <ele>441.19451904297</ele>
        <time>2016-06-25T12:19:53.000Z</time>
      </trkpt>
      <trkpt lat="44.95438" lon="5.1432">
        <ele>442.67388916016</ele>
        <time>2016-06-25T12:19:56.000Z</time>
      </trkpt>
      <trkpt lat="44.95424" lon="5.14326">
        <ele>444.11343383789</ele>
        <time>2016-06-25T12:19:59.000Z</time>
      </trkpt>
      <trkpt lat="44.95411" lon="5.1433">
        <ele>445.28497314453</ele>
        <time>2016-06-25T12:20:01.000Z</time>
      </trkpt>
      <trkpt lat="44.95395" lon="5.14337">
        <ele>446.17739868164</ele>
        <time>2016-06-25T12:20:04.000Z</time>
      </trkpt>
      <trkpt lat="44.95391" lon="5.14344">
        <ele>447.33285522461</ele>
        <time>2016-06-25T12:20:06.000Z</time>
      </trkpt>
      <trkpt lat="44.95385" lon="5.14355">
        <ele>449.03701782227</ele>
        <time>2016-06-25T12:20:09.000Z</time>
      </trkpt>
      <trkpt lat="44.9538" lon="5.14365">
        <ele>451.48406982422</ele>
        <time>2016-06-25T12:20:11.000Z</time>
      </trkpt>
      <trkpt lat="44.95322" lon="5.14396">
        <ele>454.98828125</ele>
        <time>2016-06-25T12:20:17.000Z</time>
      </trkpt>
      <trkpt lat="44.95253" lon="5.14403">
        <ele>455.96932983398</ele>
        <time>2016-06-25T12:20:21.000Z</time>
      </trkpt>
      <trkpt lat="44.95226" lon="5.14407">
        <ele>456.49795532227</ele>
        <time>2016-06-25T12:20:24.000Z</time>
      </trkpt>
      <trkpt lat="44.95198" lon="5.14419">
        <ele>455.90853881836</ele>
        <time>2016-06-25T12:20:27.000Z</time>
      </trkpt>
      <trkpt lat="44.9518" lon="5.1444">
        <ele>454.11163330078</ele>
        <time>2016-06-25T12:20:30.000Z</time>
      </trkpt>
      <trkpt lat="44.95171" lon="5.14463">
        <ele>450.56411743164</ele>
        <time>2016-06-25T12:20:33.000Z</time>
      </trkpt>
      <trkpt lat="44.95158" lon="5.14476">
        <ele>448.91912841797</ele>
        <time>2016-06-25T12:20:35.000Z</time>
      </trkpt>
      <trkpt lat="44.95149" lon="5.14494">
        <ele>446.49673461914</ele>
        <time>2016-06-25T12:20:38.000Z</time>
      </trkpt>
      <trkpt lat="44.95141" lon="5.14517">
        <ele>444.07293701172</ele>
        <time>2016-06-25T12:20:41.000Z</time>
      </trkpt>
      <trkpt lat="44.95131" lon="5.14533">
        <ele>442.05288696289</ele>
        <time>2016-06-25T12:20:43.000Z</time>
      </trkpt>
      <trkpt lat="44.95124" lon="5.14544">
        <ele>440.78842163086</ele>
        <time>2016-06-25T12:20:45.000Z</time>
      </trkpt>
      <trkpt lat="44.95113" lon="5.14559">
        <ele>440.07723999023</ele>
        <time>2016-06-25T12:20:48.000Z</time>
      </trkpt>
      <trkpt lat="44.95103" lon="5.14567">
        <ele>439.89910888672</ele>
        <time>2016-06-25T12:20:51.000Z</time>
      </trkpt>
      <trkpt lat="44.95097" lon="5.14574">
        <ele>439.82012939453</ele>
        <time>2016-06-25T12:20:54.000Z</time>
      </trkpt>
      <trkpt lat="44.95093" lon="5.14584">
        <ele>439.74530029297</ele>
        <time>2016-06-25T12:20:57.000Z</time>
      </trkpt>
      <trkpt lat="44.95088" lon="5.14587">
        <ele>439.76162719727</ele>
        <time>2016-06-25T12:20:59.000Z</time>
      </trkpt>
      <trkpt lat="44.95082" lon="5.14592">
        <ele>439.9833984375</ele>
        <time>2016-06-25T12:21:02.000Z</time>
      </trkpt>
      <trkpt lat="44.95074" lon="5.14595">
        <ele>440.4453125</ele>
        <time>2016-06-25T12:21:04.000Z</time>
      </trkpt>
      <trkpt lat="44.95066" lon="5.14598">
        <ele>441.14349365234</ele>
        <time>2016-06-25T12:21:06.000Z</time>
      </trkpt>
      <trkpt lat="44.95058" lon="5.14603">
        <ele>442.09991455078</ele>
        <time>2016-06-25T12:21:09.000Z</time>
      </trkpt>
      <trkpt lat="44.95049" lon="5.1461">
        <ele>443.3173828125</ele>
        <time>2016-06-25T12:21:12.000Z</time>
      </trkpt>
      <trkpt lat="44.9504" lon="5.14613">
        <ele>444.53350830078</ele>
        <time>2016-06-25T12:21:15.000Z</time>
      </trkpt>
      <trkpt lat="44.95034" lon="5.14614">
        <ele>445.6201171875</ele>
        <time>2016-06-25T12:21:17.000Z</time>
      </trkpt>
      <trkpt lat="44.95023" lon="5.14619">
        <ele>446.80004882812</ele>
        <time>2016-06-25T12:21:20.000Z</time>
      </trkpt>
      <trkpt lat="44.9501" lon="5.14627">
        <ele>448.05914306641</ele>
        <time>2016-06-25T12:21:23.000Z</time>
      </trkpt>
      <trkpt lat="44.95003" lon="5.14631">
        <ele>449.11712646484</ele>
        <time>2016-06-25T12:21:25.000Z</time>
      </trkpt>
      <trkpt lat="44.94995" lon="5.14634">
        <ele>450.09643554688</ele>
        <time>2016-06-25T12:21:27.000Z</time>
      </trkpt>
      <trkpt lat="44.94987" lon="5.14639">
        <ele>451.15496826172</ele>
        <time>2016-06-25T12:21:30.000Z</time>
      </trkpt>
      <trkpt lat="44.94983" lon="5.14645">
        <ele>452.09210205078</ele>
        <time>2016-06-25T12:21:32.000Z</time>
      </trkpt>
      <trkpt lat="44.94979" lon="5.14656">
        <ele>452.94296264648</ele>
        <time>2016-06-25T12:21:35.000Z</time>
      </trkpt>
      <trkpt lat="44.94974" lon="5.14663">
        <ele>453.77767944336</ele>
        <time>2016-06-25T12:21:37.000Z</time>
      </trkpt>
      <trkpt lat="44.9497" lon="5.14668">
        <ele>454.61126708984</ele>
        <time>2016-06-25T12:21:39.000Z</time>
      </trkpt>
      <trkpt lat="44.94965" lon="5.14674">
        <ele>455.49404907227</ele>
        <time>2016-06-25T12:21:41.000Z</time>
      </trkpt>
      <trkpt lat="44.94963" lon="5.14685">
        <ele>456.69818115234</ele>
        <time>2016-06-25T12:21:44.000Z</time>
      </trkpt>
      <trkpt lat="44.94965" lon="5.14696">
        <ele>458.14535522461</ele>
        <time>2016-06-25T12:21:46.000Z</time>
      </trkpt>
      <trkpt lat="44.94967" lon="5.1471">
        <ele>460.16674804688</ele>
        <time>2016-06-25T12:21:49.000Z</time>
      </trkpt>
      <trkpt lat="44.94965" lon="5.14719">
        <ele>462.4482421875</ele>
        <time>2016-06-25T12:21:51.000Z</time>
      </trkpt>
      <trkpt lat="44.94919" lon="5.14728">
        <ele>463.53524780273</ele>
        <time>2016-06-25T12:21:56.000Z</time>
      </trkpt>
      <trkpt lat="44.94905" lon="5.14733">
        <ele>464.15692138672</ele>
        <time>2016-06-25T12:21:59.000Z</time>
      </trkpt>
      <trkpt lat="44.94894" lon="5.14735">
        <ele>464.22909545898</ele>
        <time>2016-06-25T12:22:01.000Z</time>
      </trkpt>
      <trkpt lat="44.94883" lon="5.14738">
        <ele>463.55731201172</ele>
        <time>2016-06-25T12:22:03.000Z</time>
      </trkpt>
      <trkpt lat="44.94869" lon="5.14743">
        <ele>462.57333374023</ele>
        <time>2016-06-25T12:22:06.000Z</time>
      </trkpt>
      <trkpt lat="44.94857" lon="5.1475">
        <ele>462.6904296875</ele>
        <time>2016-06-25T12:22:09.000Z</time>
      </trkpt>
      <trkpt lat="44.94847" lon="5.14755">
        <ele>463.09823608398</ele>
        <time>2016-06-25T12:22:11.000Z</time>
      </trkpt>
      <trkpt lat="44.94835" lon="5.14766">
        <ele>464.29046630859</ele>
        <time>2016-06-25T12:22:14.000Z</time>
      </trkpt>
      <trkpt lat="44.94827" lon="5.14774">
        <ele>466.04678344727</ele>
        <time>2016-06-25T12:22:16.000Z</time>
      </trkpt>
      <trkpt lat="44.94815" lon="5.14787">
        <ele>468.57086181641</ele>
        <time>2016-06-25T12:22:19.000Z</time>
      </trkpt>
      <trkpt lat="44.94802" lon="5.14797">
        <ele>471.57537841797</ele>
        <time>2016-06-25T12:22:22.000Z</time>
      </trkpt>
      <trkpt lat="44.94797" lon="5.14804">
        <ele>474.66415405273</ele>
        <time>2016-06-25T12:22:24.000Z</time>
      </trkpt>
      <trkpt lat="44.94794" lon="5.14812">
        <ele>477.50424194336</ele>
        <time>2016-06-25T12:22:27.000Z</time>
      </trkpt>
      <trkpt lat="44.94794" lon="5.14816">
        <ele>480.12631225586</ele>
        <time>2016-06-25T12:22:29.000Z</time>
      </trkpt>
      <trkpt lat="44.94788" lon="5.14821">
        <ele>482.08633422852</ele>
        <time>2016-06-25T12:22:31.000Z</time>
      </trkpt>
      <trkpt lat="44.94748" lon="5.14825">
        <ele>482.86441040039</ele>
        <time>2016-06-25T12:22:36.000Z</time>
      </trkpt>
      <trkpt lat="44.94743" lon="5.14829">
        <ele>483.37799072266</ele>
        <time>2016-06-25T12:22:38.000Z</time>
      </trkpt>
      <trkpt lat="44.94732" lon="5.14837">
        <ele>483.62240600586</ele>
        <time>2016-06-25T12:22:41.000Z</time>
      </trkpt>
      <trkpt lat="44.94727" lon="5.14838">
        <ele>483.43914794922</ele>
        <time>2016-06-25T12:22:43.000Z</time>
      </trkpt>
      <trkpt lat="44.94704" lon="5.14839">
        <ele>482.44537353516</ele>
        <time>2016-06-25T12:22:47.000Z</time>
      </trkpt>
      <trkpt lat="44.94692" lon="5.14839">
        <ele>481.68814086914</ele>
        <time>2016-06-25T12:22:50.000Z</time>
      </trkpt>
      <trkpt lat="44.94682" lon="5.1484">
        <ele>480.54702758789</ele>
        <time>2016-06-25T12:22:53.000Z</time>
      </trkpt>
      <trkpt lat="44.94675" lon="5.14843">
        <ele>479.14007568359</ele>
        <time>2016-06-25T12:22:55.000Z</time>
      </trkpt>
      <trkpt lat="44.94667" lon="5.14848">
        <ele>477.95391845703</ele>
        <time>2016-06-25T12:22:58.000Z</time>
      </trkpt>
      <trkpt lat="44.94663" lon="5.14852">
        <ele>477.61392211914</ele>
        <time>2016-06-25T12:23:00.000Z</time>
      </trkpt>
      <trkpt lat="44.94658" lon="5.14858">
        <ele>477.93872070312</ele>
        <time>2016-06-25T12:23:03.000Z</time>
      </trkpt>
      <trkpt lat="44.94653" lon="5.14868">
        <ele>479.09375</ele>
        <time>2016-06-25T12:23:06.000Z</time>
      </trkpt>
      <trkpt lat="44.94652" lon="5.14874">
        <ele>480.63485717773</ele>
        <time>2016-06-25T12:23:08.000Z</time>
      </trkpt>
      <trkpt lat="44.9465" lon="5.14883">
        <ele>482.58612060547</ele>
        <time>2016-06-25T12:23:11.000Z</time>
      </trkpt>
      <trkpt lat="44.94649" lon="5.14887">
        <ele>484.61474609375</ele>
        <time>2016-06-25T12:23:13.000Z</time>
      </trkpt>
      <trkpt lat="44.94644" lon="5.14895">
        <ele>486.66610717773</ele>
        <time>2016-06-25T12:23:16.000Z</time>
      </trkpt>
      <trkpt lat="44.9464" lon="5.14902">
        <ele>488.33779907227</ele>
        <time>2016-06-25T12:23:18.000Z</time>
      </trkpt>
      <trkpt lat="44.94633" lon="5.14913">
        <ele>489.97451782227</ele>
        <time>2016-06-25T12:23:21.000Z</time>
      </trkpt>
      <trkpt lat="44.94629" lon="5.1492">
        <ele>491.21575927734</ele>
        <time>2016-06-25T12:23:23.000Z</time>
      </trkpt>
      <trkpt lat="44.94626" lon="5.14929">
        <ele>492.52374267578</ele>
        <time>2016-06-25T12:23:26.000Z</time>
      </trkpt>
      <trkpt lat="44.94621" lon="5.1494">
        <ele>493.78997802734</ele>
        <time>2016-06-25T12:23:29.000Z</time>
      </trkpt>
      <trkpt lat="44.94614" lon="5.14947">
        <ele>494.83221435547</ele>
        <time>2016-06-25T12:23:31.000Z</time>
      </trkpt>
      <trkpt lat="44.94609" lon="5.14954">
        <ele>495.57095336914</ele>
        <time>2016-06-25T12:23:33.000Z</time>
      </trkpt>
      <trkpt lat="44.94603" lon="5.14966">
        <ele>496.41339111328</ele>
        <time>2016-06-25T12:23:36.000Z</time>
      </trkpt>
      <trkpt lat="44.94591" lon="5.14978">
        <ele>496.70440673828</ele>
        <time>2016-06-25T12:23:39.000Z</time>
      </trkpt>
      <trkpt lat="44.9456" lon="5.14986">
        <ele>495.47283935547</ele>
        <time>2016-06-25T12:23:43.000Z</time>
      </trkpt>
      <trkpt lat="44.94559" lon="5.14995">
        <ele>494.54815673828</ele>
        <time>2016-06-25T12:23:45.000Z</time>
      </trkpt>
      <trkpt lat="44.94556" lon="5.15003">
        <ele>493.77481079102</ele>
        <time>2016-06-25T12:23:47.000Z</time>
      </trkpt>
      <trkpt lat="44.94553" lon="5.15016">
        <ele>492.97695922852</ele>
        <time>2016-06-25T12:23:50.000Z</time>
      </trkpt>
      <trkpt lat="44.94552" lon="5.15026">
        <ele>492.63916015625</ele>
        <time>2016-06-25T12:23:52.000Z</time>
      </trkpt>
      <trkpt lat="44.94551" lon="5.15036">
        <ele>493.77230834961</ele>
        <time>2016-06-25T12:23:54.000Z</time>
      </trkpt>
      <trkpt lat="44.94549" lon="5.1505">
        <ele>494.91278076172</ele>
        <time>2016-06-25T12:23:57.000Z</time>
      </trkpt>
      <trkpt lat="44.94545" lon="5.15057">
        <ele>495.83731079102</ele>
        <time>2016-06-25T12:23:59.000Z</time>
      </trkpt>
      <trkpt lat="44.9454" lon="5.1507">
        <ele>496.63931274414</ele>
        <time>2016-06-25T12:24:02.000Z</time>
      </trkpt>
      <trkpt lat="44.94538" lon="5.15083">
        <ele>497.46817016602</ele>
        <time>2016-06-25T12:24:05.000Z</time>
      </trkpt>
      <trkpt lat="44.9453" lon="5.15096">
        <ele>497.91098022461</ele>
        <time>2016-06-25T12:24:08.000Z</time>
      </trkpt>
      <trkpt lat="44.94523" lon="5.15105">
        <ele>497.83285522461</ele>
        <time>2016-06-25T12:24:10.000Z</time>
      </trkpt>
      <trkpt lat="44.94496" lon="5.1512">
        <ele>496.68026733398</ele>
        <time>2016-06-25T12:24:14.000Z</time>
      </trkpt>
      <trkpt lat="44.94491" lon="5.15134">
        <ele>495.64306640625</ele>
        <time>2016-06-25T12:24:17.000Z</time>
      </trkpt>
      <trkpt lat="44.9449" lon="5.15144">
        <ele>494.51058959961</ele>
        <time>2016-06-25T12:24:19.000Z</time>
      </trkpt>
      <trkpt lat="44.94489" lon="5.15154">
        <ele>493.71224975586</ele>
        <time>2016-06-25T12:24:21.000Z</time>
      </trkpt>
      <trkpt lat="44.94487" lon="5.15171">
        <ele>493.40341186523</ele>
        <time>2016-06-25T12:24:24.000Z</time>
      </trkpt>
      <trkpt lat="44.94484" lon="5.1518">
        <ele>494.27890014648</ele>
        <time>2016-06-25T12:24:26.000Z</time>
      </trkpt>
      <trkpt lat="44.94481" lon="5.15194">
        <ele>495.08905029297</ele>
        <time>2016-06-25T12:24:29.000Z</time>
      </trkpt>
      <trkpt lat="44.94479" lon="5.15209">
        <ele>495.89312744141</ele>
        <time>2016-06-25T12:24:32.000Z</time>
      </trkpt>
      <trkpt lat="44.94477" lon="5.15224">
        <ele>496.67846679688</ele>
        <time>2016-06-25T12:24:35.000Z</time>
      </trkpt>
      <trkpt lat="44.94474" lon="5.15233">
        <ele>497.26553344727</ele>
        <time>2016-06-25T12:24:37.000Z</time>
      </trkpt>
      <trkpt lat="44.94472" lon="5.15246">
        <ele>497.89569091797</ele>
        <time>2016-06-25T12:24:40.000Z</time>
      </trkpt>
      <trkpt lat="44.94471" lon="5.15251">
        <ele>498.43328857422</ele>
        <time>2016-06-25T12:24:42.000Z</time>
      </trkpt>
      <trkpt lat="44.94466" lon="5.15269">
        <ele>498.91806030273</ele>
        <time>2016-06-25T12:24:45.000Z</time>
      </trkpt>
      <trkpt lat="44.94463" lon="5.15283">
        <ele>499.34210205078</ele>
        <time>2016-06-25T12:24:48.000Z</time>
      </trkpt>
      <trkpt lat="44.9446" lon="5.15297">
        <ele>499.79183959961</ele>
        <time>2016-06-25T12:24:51.000Z</time>
      </trkpt>
      <trkpt lat="44.94458" lon="5.15307">
        <ele>500.19882202148</ele>
        <time>2016-06-25T12:24:53.000Z</time>
      </trkpt>
      <trkpt lat="44.94456" lon="5.15322">
        <ele>500.70513916016</ele>
        <time>2016-06-25T12:24:56.000Z</time>
      </trkpt>
      <trkpt lat="44.94453" lon="5.15336">
        <ele>501.19467163086</ele>
        <time>2016-06-25T12:24:59.000Z</time>
      </trkpt>
      <trkpt lat="44.9445" lon="5.1535">
        <ele>501.68978881836</ele>
        <time>2016-06-25T12:25:02.000Z</time>
      </trkpt>
      <trkpt lat="44.9445" lon="5.1536">
        <ele>502.24005126953</ele>
        <time>2016-06-25T12:25:04.000Z</time>
      </trkpt>
      <trkpt lat="44.9445" lon="5.15374">
        <ele>502.9560546875</ele>
        <time>2016-06-25T12:25:07.000Z</time>
      </trkpt>
      <trkpt lat="44.94448" lon="5.15384">
        <ele>503.64999389648</ele>
        <time>2016-06-25T12:25:09.000Z</time>
      </trkpt>
      <trkpt lat="44.94447" lon="5.15393">
        <ele>504.29263305664</ele>
        <time>2016-06-25T12:25:11.000Z</time>
      </trkpt>
      <trkpt lat="44.9444" lon="5.15407">
        <ele>504.7158203125</ele>
        <time>2016-06-25T12:25:14.000Z</time>
      </trkpt>
      <trkpt lat="44.94431" lon="5.15415">
        <ele>504.58071899414</ele>
        <time>2016-06-25T12:25:17.000Z</time>
      </trkpt>
      <trkpt lat="44.94428" lon="5.15421">
        <ele>504.12811279297</ele>
        <time>2016-06-25T12:25:19.000Z</time>
      </trkpt>
      <trkpt lat="44.94429" lon="5.15433">
        <ele>503.73199462891</ele>
        <time>2016-06-25T12:25:21.000Z</time>
      </trkpt>
      <trkpt lat="44.94426" lon="5.15448">
        <ele>503.31143188477</ele>
        <time>2016-06-25T12:25:24.000Z</time>
      </trkpt>
      <trkpt lat="44.94424" lon="5.15463">
        <ele>503.04760742188</ele>
        <time>2016-06-25T12:25:27.000Z</time>
      </trkpt>
      <trkpt lat="44.94422" lon="5.15474">
        <ele>503.15301513672</ele>
        <time>2016-06-25T12:25:29.000Z</time>
      </trkpt>
      <trkpt lat="44.94417" lon="5.15482">
        <ele>503.15045166016</ele>
        <time>2016-06-25T12:25:31.000Z</time>
      </trkpt>
      <trkpt lat="44.94412" lon="5.15494">
        <ele>503.07061767578</ele>
        <time>2016-06-25T12:25:34.000Z</time>
      </trkpt>
      <trkpt lat="44.9441" lon="5.15502">
        <ele>503.05267333984</ele>
        <time>2016-06-25T12:25:36.000Z</time>
      </trkpt>
      <trkpt lat="44.94408" lon="5.15515">
        <ele>503.22280883789</ele>
        <time>2016-06-25T12:25:39.000Z</time>
      </trkpt>
      <trkpt lat="44.9441" lon="5.15526">
        <ele>503.63037109375</ele>
        <time>2016-06-25T12:25:41.000Z</time>
      </trkpt>
      <trkpt lat="44.9441" lon="5.15539">
        <ele>504.45663452148</ele>
        <time>2016-06-25T12:25:44.000Z</time>
      </trkpt>
      <trkpt lat="44.9441" lon="5.15554">
        <ele>505.44644165039</ele>
        <time>2016-06-25T12:25:47.000Z</time>
      </trkpt>
      <trkpt lat="44.94407" lon="5.15566">
        <ele>506.5224609375</ele>
        <time>2016-06-25T12:25:50.000Z</time>
      </trkpt>
      <trkpt lat="44.94401" lon="5.15578">
        <ele>507.45175170898</ele>
        <time>2016-06-25T12:25:53.000Z</time>
      </trkpt>
      <trkpt lat="44.94397" lon="5.15586">
        <ele>508.28631591797</ele>
        <time>2016-06-25T12:25:55.000Z</time>
      </trkpt>
      <trkpt lat="44.94393" lon="5.15595">
        <ele>509.0986328125</ele>
        <time>2016-06-25T12:25:57.000Z</time>
      </trkpt>
      <trkpt lat="44.9439" lon="5.15606">
        <ele>509.8974609375</ele>
        <time>2016-06-25T12:25:59.000Z</time>
      </trkpt>
      <trkpt lat="44.94389" lon="5.15615">
        <ele>510.74755859375</ele>
        <time>2016-06-25T12:26:01.000Z</time>
      </trkpt>
      <trkpt lat="44.94387" lon="5.15624">
        <ele>511.71328735352</ele>
        <time>2016-06-25T12:26:03.000Z</time>
      </trkpt>
      <trkpt lat="44.94382" lon="5.15635">
        <ele>512.71057128906</ele>
        <time>2016-06-25T12:26:06.000Z</time>
      </trkpt>
      <trkpt lat="44.9438" lon="5.15642">
        <ele>513.65380859375</ele>
        <time>2016-06-25T12:26:08.000Z</time>
      </trkpt>
      <trkpt lat="44.94381" lon="5.15656">
        <ele>514.77160644531</ele>
        <time>2016-06-25T12:26:11.000Z</time>
      </trkpt>
      <trkpt lat="44.9438" lon="5.15663">
        <ele>515.80902099609</ele>
        <time>2016-06-25T12:26:13.000Z</time>
      </trkpt>
      <trkpt lat="44.9438" lon="5.15671">
        <ele>516.88946533203</ele>
        <time>2016-06-25T12:26:15.000Z</time>
      </trkpt>
      <trkpt lat="44.94378" lon="5.15685">
        <ele>518.11901855469</ele>
        <time>2016-06-25T12:26:18.000Z</time>
      </trkpt>
      <trkpt lat="44.94373" lon="5.15692">
        <ele>519.23278808594</ele>
        <time>2016-06-25T12:26:20.000Z</time>
      </trkpt>
      <trkpt lat="44.94366" lon="5.15704">
        <ele>519.88659667969</ele>
        <time>2016-06-25T12:26:23.000Z</time>
      </trkpt>
      <trkpt lat="44.94361" lon="5.15711">
        <ele>520.29943847656</ele>
        <time>2016-06-25T12:26:25.000Z</time>
      </trkpt>
      <trkpt lat="44.94358" lon="5.15718">
        <ele>520.48425292969</ele>
        <time>2016-06-25T12:26:27.000Z</time>
      </trkpt>
      <trkpt lat="44.94354" lon="5.15729">
        <ele>520.41925048828</ele>
        <time>2016-06-25T12:26:30.000Z</time>
      </trkpt>
      <trkpt lat="44.94356" lon="5.15737">
        <ele>520.60266113281</ele>
        <time>2016-06-25T12:26:32.000Z</time>
      </trkpt>
      <trkpt lat="44.94358" lon="5.15749">
        <ele>521.25390625</ele>
        <time>2016-06-25T12:26:35.000Z</time>
      </trkpt>
      <trkpt lat="44.9436" lon="5.15758">
        <ele>522.35314941406</ele>
        <time>2016-06-25T12:26:37.000Z</time>
      </trkpt>
      <trkpt lat="44.94358" lon="5.15773">
        <ele>523.73864746094</ele>
        <time>2016-06-25T12:26:40.000Z</time>
      </trkpt>
      <trkpt lat="44.94356" lon="5.15781">
        <ele>525.22106933594</ele>
        <time>2016-06-25T12:26:42.000Z</time>
      </trkpt>
      <trkpt lat="44.94355" lon="5.1579">
        <ele>526.64068603516</ele>
        <time>2016-06-25T12:26:44.000Z</time>
      </trkpt>
      <trkpt lat="44.94355" lon="5.15803">
        <ele>527.94891357422</ele>
        <time>2016-06-25T12:26:47.000Z</time>
      </trkpt>
      <trkpt lat="44.94353" lon="5.15812">
        <ele>529.06188964844</ele>
        <time>2016-06-25T12:26:49.000Z</time>
      </trkpt>
      <trkpt lat="44.94352" lon="5.15822">
        <ele>530.06726074219</ele>
        <time>2016-06-25T12:26:51.000Z</time>
      </trkpt>
      <trkpt lat="44.9435" lon="5.15837">
        <ele>531.30505371094</ele>
        <time>2016-06-25T12:26:54.000Z</time>
      </trkpt>
      <trkpt lat="44.94345" lon="5.15851">
        <ele>532.42218017578</ele>
        <time>2016-06-25T12:26:57.000Z</time>
      </trkpt>
      <trkpt lat="44.94342" lon="5.15859">
        <ele>533.30114746094</ele>
        <time>2016-06-25T12:26:59.000Z</time>
      </trkpt>
      <trkpt lat="44.94339" lon="5.15867">
        <ele>534.04992675781</ele>
        <time>2016-06-25T12:27:01.000Z</time>
      </trkpt>
      <trkpt lat="44.94335" lon="5.1588">
        <ele>534.71716308594</ele>
        <time>2016-06-25T12:27:04.000Z</time>
      </trkpt>
      <trkpt lat="44.9433" lon="5.15892">
        <ele>535.21697998047</ele>
        <time>2016-06-25T12:27:07.000Z</time>
      </trkpt>
      <trkpt lat="44.94327" lon="5.15901">
        <ele>535.80163574219</ele>
        <time>2016-06-25T12:27:09.000Z</time>
      </trkpt>
      <trkpt lat="44.94324" lon="5.15914">
        <ele>536.56402587891</ele>
        <time>2016-06-25T12:27:12.000Z</time>
      </trkpt>
      <trkpt lat="44.94321" lon="5.15921">
        <ele>537.39880371094</ele>
        <time>2016-06-25T12:27:14.000Z</time>
      </trkpt>
      <trkpt lat="44.94315" lon="5.15933">
        <ele>538.28601074219</ele>
        <time>2016-06-25T12:27:17.000Z</time>
      </trkpt>
      <trkpt lat="44.94315" lon="5.15946">
        <ele>539.41088867188</ele>
        <time>2016-06-25T12:27:20.000Z</time>
      </trkpt>
      <trkpt lat="44.94316" lon="5.15965">
        <ele>541.04473876953</ele>
        <time>2016-06-25T12:27:23.000Z</time>
      </trkpt>
      <trkpt lat="44.94313" lon="5.15977">
        <ele>542.69708251953</ele>
        <time>2016-06-25T12:27:26.000Z</time>
      </trkpt>
      <trkpt lat="44.9431" lon="5.15985">
        <ele>544.35955810547</ele>
        <time>2016-06-25T12:27:28.000Z</time>
      </trkpt>
      <trkpt lat="44.94306" lon="5.15998">
        <ele>546.06262207031</ele>
        <time>2016-06-25T12:27:31.000Z</time>
      </trkpt>
      <trkpt lat="44.94301" lon="5.1601">
        <ele>547.46142578125</ele>
        <time>2016-06-25T12:27:34.000Z</time>
      </trkpt>
      <trkpt lat="44.943" lon="5.16022">
        <ele>548.46734619141</ele>
        <time>2016-06-25T12:27:37.000Z</time>
      </trkpt>
      <trkpt lat="44.94298" lon="5.16036">
        <ele>549.404296875</ele>
        <time>2016-06-25T12:27:40.000Z</time>
      </trkpt>
      <trkpt lat="44.94295" lon="5.16045">
        <ele>550.26794433594</ele>
        <time>2016-06-25T12:27:42.000Z</time>
      </trkpt>
      <trkpt lat="44.94291" lon="5.16054">
        <ele>550.90393066406</ele>
        <time>2016-06-25T12:27:44.000Z</time>
      </trkpt>
      <trkpt lat="44.9429" lon="5.1607">
        <ele>551.75671386719</ele>
        <time>2016-06-25T12:27:47.000Z</time>
      </trkpt>
      <trkpt lat="44.9429" lon="5.1608">
        <ele>552.55950927734</ele>
        <time>2016-06-25T12:27:49.000Z</time>
      </trkpt>
      <trkpt lat="44.9429" lon="5.16095">
        <ele>553.37756347656</ele>
        <time>2016-06-25T12:27:52.000Z</time>
      </trkpt>
      <trkpt lat="44.94287" lon="5.16107">
        <ele>554.05902099609</ele>
        <time>2016-06-25T12:27:55.000Z</time>
      </trkpt>
      <trkpt lat="44.94284" lon="5.1612">
        <ele>554.70642089844</ele>
        <time>2016-06-25T12:27:58.000Z</time>
      </trkpt>
      <trkpt lat="44.94281" lon="5.16129">
        <ele>554.85766601562</ele>
        <time>2016-06-25T12:28:00.000Z</time>
      </trkpt>
      <trkpt lat="44.94276" lon="5.16143">
        <ele>554.57757568359</ele>
        <time>2016-06-25T12:28:03.000Z</time>
      </trkpt>
      <trkpt lat="44.94274" lon="5.1615">
        <ele>553.94458007812</ele>
        <time>2016-06-25T12:28:05.000Z</time>
      </trkpt>
      <trkpt lat="44.94272" lon="5.16156">
        <ele>553.29888916016</ele>
        <time>2016-06-25T12:28:07.000Z</time>
      </trkpt>
      <trkpt lat="44.94269" lon="5.16163">
        <ele>552.49383544922</ele>
        <time>2016-06-25T12:28:09.000Z</time>
      </trkpt>
      <trkpt lat="44.94266" lon="5.16171">
        <ele>551.6513671875</ele>
        <time>2016-06-25T12:28:11.000Z</time>
      </trkpt>
      <trkpt lat="44.94261" lon="5.16183">
        <ele>550.64434814453</ele>
        <time>2016-06-25T12:28:14.000Z</time>
      </trkpt>
      <trkpt lat="44.94258" lon="5.16192">
        <ele>549.54553222656</ele>
        <time>2016-06-25T12:28:16.000Z</time>
      </trkpt>
      <trkpt lat="44.94249" lon="5.16204">
        <ele>547.95544433594</ele>
        <time>2016-06-25T12:28:19.000Z</time>
      </trkpt>
      <trkpt lat="44.94243" lon="5.16216">
        <ele>546.94567871094</ele>
        <time>2016-06-25T12:28:22.000Z</time>
      </trkpt>
      <trkpt lat="44.94239" lon="5.16223">
        <ele>546.33660888672</ele>
        <time>2016-06-25T12:28:24.000Z</time>
      </trkpt>
      <trkpt lat="44.94233" lon="5.16232">
        <ele>546.35754394531</ele>
        <time>2016-06-25T12:28:27.000Z</time>
      </trkpt>
      <trkpt lat="44.94225" lon="5.16236">
        <ele>546.88055419922</ele>
        <time>2016-06-25T12:28:30.000Z</time>
      </trkpt>
      <trkpt lat="44.94213" lon="5.16232">
        <ele>548.408203125</ele>
        <time>2016-06-25T12:28:33.000Z</time>
      </trkpt>
      <trkpt lat="44.94195" lon="5.1622">
        <ele>550.35717773438</ele>
        <time>2016-06-25T12:28:36.000Z</time>
      </trkpt>
      <trkpt lat="44.94183" lon="5.16196">
        <ele>552.93798828125</ele>
        <time>2016-06-25T12:28:39.000Z</time>
      </trkpt>
      <trkpt lat="44.94178" lon="5.16176">
        <ele>555.83349609375</ele>
        <time>2016-06-25T12:28:42.000Z</time>
      </trkpt>
      <trkpt lat="44.94173" lon="5.16156">
        <ele>558.83984375</ele>
        <time>2016-06-25T12:28:45.000Z</time>
      </trkpt>
      <trkpt lat="44.9417" lon="5.16144">
        <ele>561.50518798828</ele>
        <time>2016-06-25T12:28:47.000Z</time>
      </trkpt>
      <trkpt lat="44.94168" lon="5.16129">
        <ele>563.34197998047</ele>
        <time>2016-06-25T12:28:50.000Z</time>
      </trkpt>
      <trkpt lat="44.94169" lon="5.16119">
        <ele>564.19055175781</ele>
        <time>2016-06-25T12:28:53.000Z</time>
      </trkpt>
      <trkpt lat="44.94164" lon="5.16111">
        <ele>564.73681640625</ele>
        <time>2016-06-25T12:28:55.000Z</time>
      </trkpt>
      <trkpt lat="44.94162" lon="5.16099">
        <ele>564.99963378906</ele>
        <time>2016-06-25T12:28:58.000Z</time>
      </trkpt>
      <trkpt lat="44.9416" lon="5.16094">
        <ele>565.25720214844</ele>
        <time>2016-06-25T12:29:00.000Z</time>
      </trkpt>
      <trkpt lat="44.9416" lon="5.16088">
        <ele>565.50848388672</ele>
        <time>2016-06-25T12:29:03.000Z</time>
      </trkpt>
      <trkpt lat="44.94166" lon="5.16075">
        <ele>565.33123779297</ele>
        <time>2016-06-25T12:29:06.000Z</time>
      </trkpt>
      <trkpt lat="44.94167" lon="5.16057">
        <ele>564.75604248047</ele>
        <time>2016-06-25T12:29:09.000Z</time>
      </trkpt>
      <trkpt lat="44.94167" lon="5.16048">
        <ele>564.02954101562</ele>
        <time>2016-06-25T12:29:11.000Z</time>
      </trkpt>
      <trkpt lat="44.94173" lon="5.16039">
        <ele>562.88568115234</ele>
        <time>2016-06-25T12:29:14.000Z</time>
      </trkpt>
      <trkpt lat="44.94172" lon="5.16027">
        <ele>561.7900390625</ele>
        <time>2016-06-25T12:29:17.000Z</time>
      </trkpt>
      <trkpt lat="44.94167" lon="5.16015">
        <ele>561.61029052734</ele>
        <time>2016-06-25T12:29:20.000Z</time>
      </trkpt>
      <trkpt lat="44.94162" lon="5.16008">
        <ele>561.88830566406</ele>
        <time>2016-06-25T12:29:22.000Z</time>
      </trkpt>
      <trkpt lat="44.94153" lon="5.15999">
        <ele>562.84661865234</ele>
        <time>2016-06-25T12:29:24.000Z</time>
      </trkpt>
      <trkpt lat="44.94145" lon="5.1599">
        <ele>564.69451904297</ele>
        <time>2016-06-25T12:29:26.000Z</time>
      </trkpt>
      <trkpt lat="44.94138" lon="5.15981">
        <ele>567.01330566406</ele>
        <time>2016-06-25T12:29:29.000Z</time>
      </trkpt>
      <trkpt lat="44.94136" lon="5.15977">
        <ele>569.08782958984</ele>
        <time>2016-06-25T12:29:31.000Z</time>
      </trkpt>
      <trkpt lat="44.94136" lon="5.15972">
        <ele>570.84002685547</ele>
        <time>2016-06-25T12:29:33.000Z</time>
      </trkpt>
      <trkpt lat="44.94133" lon="5.15964">
        <ele>572.09112548828</ele>
        <time>2016-06-25T12:29:36.000Z</time>
      </trkpt>
      <trkpt lat="44.94129" lon="5.15952">
        <ele>573.07122802734</ele>
        <time>2016-06-25T12:29:39.000Z</time>
      </trkpt>
      <trkpt lat="44.9413" lon="5.15942">
        <ele>573.41320800781</ele>
        <time>2016-06-25T12:29:42.000Z</time>
      </trkpt>
      <trkpt lat="44.94129" lon="5.15929">
        <ele>573.66802978516</ele>
        <time>2016-06-25T12:29:45.000Z</time>
      </trkpt>
      <trkpt lat="44.94132" lon="5.15913">
        <ele>573.58801269531</ele>
        <time>2016-06-25T12:29:48.000Z</time>
      </trkpt>
      <trkpt lat="44.94136" lon="5.15897">
        <ele>572.97540283203</ele>
        <time>2016-06-25T12:29:51.000Z</time>
      </trkpt>
      <trkpt lat="44.94137" lon="5.15887">
        <ele>571.98229980469</ele>
        <time>2016-06-25T12:29:53.000Z</time>
      </trkpt>
      <trkpt lat="44.94135" lon="5.15877">
        <ele>571.20666503906</ele>
        <time>2016-06-25T12:29:55.000Z</time>
      </trkpt>
      <trkpt lat="44.94135" lon="5.15861">
        <ele>570.3408203125</ele>
        <time>2016-06-25T12:29:58.000Z</time>
      </trkpt>
      <trkpt lat="44.94136" lon="5.1585">
        <ele>569.62640380859</ele>
        <time>2016-06-25T12:30:00.000Z</time>
      </trkpt>
      <trkpt lat="44.94139" lon="5.15834">
        <ele>569.00695800781</ele>
        <time>2016-06-25T12:30:03.000Z</time>
      </trkpt>
      <trkpt lat="44.94141" lon="5.15824">
        <ele>568.22766113281</ele>
        <time>2016-06-25T12:30:05.000Z</time>
      </trkpt>
      <trkpt lat="44.94141" lon="5.15813">
        <ele>567.23162841797</ele>
        <time>2016-06-25T12:30:07.000Z</time>
      </trkpt>
      <trkpt lat="44.94141" lon="5.15804">
        <ele>566.21380615234</ele>
        <time>2016-06-25T12:30:09.000Z</time>
      </trkpt>
      <trkpt lat="44.94139" lon="5.15797">
        <ele>565.34155273438</ele>
        <time>2016-06-25T12:30:11.000Z</time>
      </trkpt>
      <trkpt lat="44.94134" lon="5.15788">
        <ele>564.90209960938</ele>
        <time>2016-06-25T12:30:14.000Z</time>
      </trkpt>
      <trkpt lat="44.9413" lon="5.15782">
        <ele>564.82214355469</ele>
        <time>2016-06-25T12:30:16.000Z</time>
      </trkpt>
      <trkpt lat="44.94124" lon="5.15773">
        <ele>565.11688232422</ele>
        <time>2016-06-25T12:30:19.000Z</time>
      </trkpt>
      <trkpt lat="44.94118" lon="5.15768">
        <ele>565.69647216797</ele>
        <time>2016-06-25T12:30:21.000Z</time>
      </trkpt>
      <trkpt lat="44.94112" lon="5.1576">
        <ele>566.52062988281</ele>
        <time>2016-06-25T12:30:24.000Z</time>
      </trkpt>
      <trkpt lat="44.94107" lon="5.15755">
        <ele>567.37170410156</ele>
        <time>2016-06-25T12:30:26.000Z</time>
      </trkpt>
      <trkpt lat="44.94099" lon="5.15746">
        <ele>568.39172363281</ele>
        <time>2016-06-25T12:30:29.000Z</time>
      </trkpt>
      <trkpt lat="44.94091" lon="5.15739">
        <ele>569.5087890625</ele>
        <time>2016-06-25T12:30:32.000Z</time>
      </trkpt>
      <trkpt lat="44.94086" lon="5.15735">
        <ele>570.58624267578</ele>
        <time>2016-06-25T12:30:34.000Z</time>
      </trkpt>
      <trkpt lat="44.94081" lon="5.15731">
        <ele>571.59265136719</ele>
        <time>2016-06-25T12:30:36.000Z</time>
      </trkpt>
      <trkpt lat="44.94074" lon="5.15723">
        <ele>572.75714111328</ele>
        <time>2016-06-25T12:30:39.000Z</time>
      </trkpt>
      <trkpt lat="44.94069" lon="5.1572">
        <ele>573.88946533203</ele>
        <time>2016-06-25T12:30:41.000Z</time>
      </trkpt>
      <trkpt lat="44.94061" lon="5.15713">
        <ele>574.98602294922</ele>
        <time>2016-06-25T12:30:44.000Z</time>
      </trkpt>
      <trkpt lat="44.94057" lon="5.15708">
        <ele>576.06091308594</ele>
        <time>2016-06-25T12:30:46.000Z</time>
      </trkpt>
      <trkpt lat="44.94046" lon="5.15701">
        <ele>577.35546875</ele>
        <time>2016-06-25T12:30:49.000Z</time>
      </trkpt>
      <trkpt lat="44.94036" lon="5.15697">
        <ele>578.767578125</ele>
        <time>2016-06-25T12:30:52.000Z</time>
      </trkpt>
      <trkpt lat="44.9403" lon="5.1569">
        <ele>579.95910644531</ele>
        <time>2016-06-25T12:30:55.000Z</time>
      </trkpt>
      <trkpt lat="44.94024" lon="5.15679">
        <ele>580.74792480469</ele>
        <time>2016-06-25T12:30:57.000Z</time>
      </trkpt>
      <trkpt lat="44.94016" lon="5.15666">
        <ele>581.21252441406</ele>
        <time>2016-06-25T12:31:00.000Z</time>
      </trkpt>
      <trkpt lat="44.94008" lon="5.15663">
        <ele>581.50054931641</ele>
        <time>2016-06-25T12:31:02.000Z</time>
      </trkpt>
      <trkpt lat="44.93998" lon="5.15662">
        <ele>581.80651855469</ele>
        <time>2016-06-25T12:31:05.000Z</time>
      </trkpt>
      <trkpt lat="44.9399" lon="5.15662">
        <ele>582.48669433594</ele>
        <time>2016-06-25T12:31:08.000Z</time>
      </trkpt>
      <trkpt lat="44.93968" lon="5.15654">
        <ele>584.03338623047</ele>
        <time>2016-06-25T12:31:12.000Z</time>
      </trkpt>
      <trkpt lat="44.93963" lon="5.15643">
        <ele>585.46057128906</ele>
        <time>2016-06-25T12:31:15.000Z</time>
      </trkpt>
      <trkpt lat="44.93958" lon="5.15632">
        <ele>586.25109863281</ele>
        <time>2016-06-25T12:31:18.000Z</time>
      </trkpt>
      <trkpt lat="44.93953" lon="5.15625">
        <ele>586.44885253906</ele>
        <time>2016-06-25T12:31:20.000Z</time>
      </trkpt>
      <trkpt lat="44.93946" lon="5.15619">
        <ele>586.13708496094</ele>
        <time>2016-06-25T12:31:22.000Z</time>
      </trkpt>
      <trkpt lat="44.93936" lon="5.15609">
        <ele>584.83966064453</ele>
        <time>2016-06-25T12:31:25.000Z</time>
      </trkpt>
      <trkpt lat="44.93927" lon="5.156">
        <ele>583.59674072266</ele>
        <time>2016-06-25T12:31:28.000Z</time>
      </trkpt>
      <trkpt lat="44.93922" lon="5.15593">
        <ele>582.45916748047</ele>
        <time>2016-06-25T12:31:30.000Z</time>
      </trkpt>
      <trkpt lat="44.93916" lon="5.15593">
        <ele>581.58294677734</ele>
        <time>2016-06-25T12:31:32.000Z</time>
      </trkpt>
      <trkpt lat="44.93909" lon="5.15598">
        <ele>581.40179443359</ele>
        <time>2016-06-25T12:31:34.000Z</time>
      </trkpt>
      <trkpt lat="44.93908" lon="5.15613">
        <ele>582.53625488281</ele>
        <time>2016-06-25T12:31:37.000Z</time>
      </trkpt>
      <trkpt lat="44.93919" lon="5.15625">
        <ele>584.44610595703</ele>
        <time>2016-06-25T12:31:40.000Z</time>
      </trkpt>
      <trkpt lat="44.93935" lon="5.15627">
        <ele>586.23693847656</ele>
        <time>2016-06-25T12:31:43.000Z</time>
      </trkpt>
      <trkpt lat="44.93945" lon="5.15629">
        <ele>587.67645263672</ele>
        <time>2016-06-25T12:31:45.000Z</time>
      </trkpt>
      <trkpt lat="44.93956" lon="5.15637">
        <ele>588.52172851562</ele>
        <time>2016-06-25T12:31:48.000Z</time>
      </trkpt>
      <trkpt lat="44.93964" lon="5.15643">
        <ele>588.29754638672</ele>
        <time>2016-06-25T12:31:50.000Z</time>
      </trkpt>
      <trkpt lat="44.93972" lon="5.15647">
        <ele>587.41052246094</ele>
        <time>2016-06-25T12:31:52.000Z</time>
      </trkpt>
      <trkpt lat="44.9398" lon="5.15655">
        <ele>587.02233886719</ele>
        <time>2016-06-25T12:31:55.000Z</time>
      </trkpt>
      <trkpt lat="44.93984" lon="5.15662">
        <ele>586.95721435547</ele>
        <time>2016-06-25T12:31:57.000Z</time>
      </trkpt>
      <trkpt lat="44.93987" lon="5.15669">
        <ele>587.09973144531</ele>
        <time>2016-06-25T12:31:59.000Z</time>
      </trkpt>
      <trkpt lat="44.9399" lon="5.15677">
        <ele>587.58020019531</ele>
        <time>2016-06-25T12:32:01.000Z</time>
      </trkpt>
      <trkpt lat="44.93997" lon="5.15691">
        <ele>588.48120117188</ele>
        <time>2016-06-25T12:32:04.000Z</time>
      </trkpt>
      <trkpt lat="44.94001" lon="5.15695">
        <ele>589.30718994141</ele>
        <time>2016-06-25T12:32:06.000Z</time>
      </trkpt>
      <trkpt lat="44.94009" lon="5.15701">
        <ele>589.93597412109</ele>
        <time>2016-06-25T12:32:09.000Z</time>
      </trkpt>
      <trkpt lat="44.94012" lon="5.15708">
        <ele>590.52026367188</ele>
        <time>2016-06-25T12:32:11.000Z</time>
      </trkpt>
      <trkpt lat="44.94015" lon="5.15716">
        <ele>590.96630859375</ele>
        <time>2016-06-25T12:32:13.000Z</time>
      </trkpt>
      <trkpt lat="44.94017" lon="5.15723">
        <ele>591.33825683594</ele>
        <time>2016-06-25T12:32:15.000Z</time>
      </trkpt>
      <trkpt lat="44.94022" lon="5.15735">
        <ele>591.96655273438</ele>
        <time>2016-06-25T12:32:18.000Z</time>
      </trkpt>
      <trkpt lat="44.94025" lon="5.15744">
        <ele>592.82977294922</ele>
        <time>2016-06-25T12:32:20.000Z</time>
      </trkpt>
      <trkpt lat="44.94031" lon="5.15758">
        <ele>593.70855712891</ele>
        <time>2016-06-25T12:32:23.000Z</time>
      </trkpt>
      <trkpt lat="44.94033" lon="5.15767">
        <ele>594.54449462891</ele>
        <time>2016-06-25T12:32:25.000Z</time>
      </trkpt>
      <trkpt lat="44.94036" lon="5.15775">
        <ele>595.28527832031</ele>
        <time>2016-06-25T12:32:27.000Z</time>
      </trkpt>
      <trkpt lat="44.94038" lon="5.15789">
        <ele>596.13928222656</ele>
        <time>2016-06-25T12:32:30.000Z</time>
      </trkpt>
      <trkpt lat="44.94042" lon="5.15797">
        <ele>596.75372314453</ele>
        <time>2016-06-25T12:32:32.000Z</time>
      </trkpt>
      <trkpt lat="44.94047" lon="5.15811">
        <ele>597.25360107422</ele>
        <time>2016-06-25T12:32:35.000Z</time>
      </trkpt>
      <trkpt lat="44.94048" lon="5.15826">
        <ele>597.9716796875</ele>
        <time>2016-06-25T12:32:38.000Z</time>
      </trkpt>
      <trkpt lat="44.94049" lon="5.15836">
        <ele>598.78308105469</ele>
        <time>2016-06-25T12:32:40.000Z</time>
      </trkpt>
      <trkpt lat="44.9405" lon="5.15851">
        <ele>599.29309082031</ele>
        <time>2016-06-25T12:32:43.000Z</time>
      </trkpt>
      <trkpt lat="44.94051" lon="5.1586">
        <ele>599.91778564453</ele>
        <time>2016-06-25T12:32:45.000Z</time>
      </trkpt>
      <trkpt lat="44.94048" lon="5.15872">
        <ele>600.84381103516</ele>
        <time>2016-06-25T12:32:48.000Z</time>
      </trkpt>
      <trkpt lat="44.94047" lon="5.15881">
        <ele>601.59143066406</ele>
        <time>2016-06-25T12:32:50.000Z</time>
      </trkpt>
      <trkpt lat="44.94048" lon="5.15888">
        <ele>602.17852783203</ele>
        <time>2016-06-25T12:32:52.000Z</time>
      </trkpt>
      <trkpt lat="44.94045" lon="5.15895">
        <ele>602.97180175781</ele>
        <time>2016-06-25T12:32:54.000Z</time>
      </trkpt>
      <trkpt lat="44.94033" lon="5.15862">
        <ele>604.548828125</ele>
        <time>2016-06-25T12:32:58.000Z</time>
      </trkpt>
      <trkpt lat="44.94027" lon="5.15853">
        <ele>606.31378173828</ele>
        <time>2016-06-25T12:33:00.000Z</time>
      </trkpt>
      <trkpt lat="44.94024" lon="5.15845">
        <ele>608.24127197266</ele>
        <time>2016-06-25T12:33:02.000Z</time>
      </trkpt>
      <trkpt lat="44.94015" lon="5.15833">
        <ele>610.85632324219</ele>
        <time>2016-06-25T12:33:05.000Z</time>
      </trkpt>
      <trkpt lat="44.94009" lon="5.15822">
        <ele>613.36633300781</ele>
        <time>2016-06-25T12:33:08.000Z</time>
      </trkpt>
      <trkpt lat="44.94006" lon="5.15814">
        <ele>614.98791503906</ele>
        <time>2016-06-25T12:33:11.000Z</time>
      </trkpt>
      <trkpt lat="44.94003" lon="5.15802">
        <ele>615.84338378906</ele>
        <time>2016-06-25T12:33:14.000Z</time>
      </trkpt>
      <trkpt lat="44.93996" lon="5.15793">
        <ele>616.58813476562</ele>
        <time>2016-06-25T12:33:17.000Z</time>
      </trkpt>
      <trkpt lat="44.93989" lon="5.15783">
        <ele>616.78857421875</ele>
        <time>2016-06-25T12:33:20.000Z</time>
      </trkpt>
      <trkpt lat="44.93983" lon="5.15774">
        <ele>616.92590332031</ele>
        <time>2016-06-25T12:33:23.000Z</time>
      </trkpt>
      <trkpt lat="44.93977" lon="5.15759">
        <ele>616.97576904297</ele>
        <time>2016-06-25T12:33:26.000Z</time>
      </trkpt>
      <trkpt lat="44.93972" lon="5.15752">
        <ele>617.27020263672</ele>
        <time>2016-06-25T12:33:29.000Z</time>
      </trkpt>
      <trkpt lat="44.93968" lon="5.15747">
        <ele>617.47491455078</ele>
        <time>2016-06-25T12:33:32.000Z</time>
      </trkpt>
      <trkpt lat="44.93966" lon="5.15738">
        <ele>617.08557128906</ele>
        <time>2016-06-25T12:33:34.000Z</time>
      </trkpt>
      <trkpt lat="44.93967" lon="5.15726">
        <ele>615.78588867188</ele>
        <time>2016-06-25T12:33:36.000Z</time>
      </trkpt>
      <trkpt lat="44.93964" lon="5.15721">
        <ele>614.5625</ele>
        <time>2016-06-25T12:33:38.000Z</time>
      </trkpt>
      <trkpt lat="44.93959" lon="5.1572">
        <ele>613.60314941406</ele>
        <time>2016-06-25T12:33:40.000Z</time>
      </trkpt>
      <trkpt lat="44.93953" lon="5.15722">
        <ele>613.10614013672</ele>
        <time>2016-06-25T12:33:43.000Z</time>
      </trkpt>
      <trkpt lat="44.93946" lon="5.15723">
        <ele>613.61560058594</ele>
        <time>2016-06-25T12:33:46.000Z</time>
      </trkpt>
      <trkpt lat="44.9394" lon="5.15717">
        <ele>614.96936035156</ele>
        <time>2016-06-25T12:33:48.000Z</time>
      </trkpt>
      <trkpt lat="44.93933" lon="5.15709">
        <ele>616.31188964844</ele>
        <time>2016-06-25T12:33:50.000Z</time>
      </trkpt>
      <trkpt lat="44.93929" lon="5.15703">
        <ele>617.15686035156</ele>
        <time>2016-06-25T12:33:52.000Z</time>
      </trkpt>
      <trkpt lat="44.9392" lon="5.157">
        <ele>617.82629394531</ele>
        <time>2016-06-25T12:33:55.000Z</time>
      </trkpt>
      <trkpt lat="44.93913" lon="5.15701">
        <ele>618.27209472656</ele>
        <time>2016-06-25T12:33:58.000Z</time>
      </trkpt>
      <trkpt lat="44.93909" lon="5.15702">
        <ele>618.82928466797</ele>
        <time>2016-06-25T12:34:00.000Z</time>
      </trkpt>
      <trkpt lat="44.93905" lon="5.15704">
        <ele>619.72863769531</ele>
        <time>2016-06-25T12:34:03.000Z</time>
      </trkpt>
      <trkpt lat="44.93903" lon="5.15705">
        <ele>621.0546875</ele>
        <time>2016-06-25T12:34:05.000Z</time>
      </trkpt>
      <trkpt lat="44.939" lon="5.15708">
        <ele>622.18640136719</ele>
        <time>2016-06-25T12:34:07.000Z</time>
      </trkpt>
      <trkpt lat="44.93894" lon="5.15707">
        <ele>622.98571777344</ele>
        <time>2016-06-25T12:34:10.000Z</time>
      </trkpt>
      <trkpt lat="44.93888" lon="5.15705">
        <ele>623.603515625</ele>
        <time>2016-06-25T12:34:13.000Z</time>
      </trkpt>
      <trkpt lat="44.93882" lon="5.15703">
        <ele>624.02893066406</ele>
        <time>2016-06-25T12:34:16.000Z</time>
      </trkpt>
      <trkpt lat="44.93873" lon="5.15705">
        <ele>624.54577636719</ele>
        <time>2016-06-25T12:34:18.000Z</time>
      </trkpt>
      <trkpt lat="44.93864" lon="5.15708">
        <ele>625.23132324219</ele>
        <time>2016-06-25T12:34:20.000Z</time>
      </trkpt>
      <trkpt lat="44.93852" lon="5.15712">
        <ele>626.39288330078</ele>
        <time>2016-06-25T12:34:23.000Z</time>
      </trkpt>
      <trkpt lat="44.93842" lon="5.15715">
        <ele>627.95129394531</ele>
        <time>2016-06-25T12:34:26.000Z</time>
      </trkpt>
      <trkpt lat="44.93838" lon="5.15717">
        <ele>629.71307373047</ele>
        <time>2016-06-25T12:34:28.000Z</time>
      </trkpt>
      <trkpt lat="44.93829" lon="5.1572">
        <ele>631.49658203125</ele>
        <time>2016-06-25T12:34:31.000Z</time>
      </trkpt>
      <trkpt lat="44.93824" lon="5.15721">
        <ele>632.88555908203</ele>
        <time>2016-06-25T12:34:33.000Z</time>
      </trkpt>
      <trkpt lat="44.93817" lon="5.1572">
        <ele>633.70300292969</ele>
        <time>2016-06-25T12:34:36.000Z</time>
      </trkpt>
      <trkpt lat="44.93809" lon="5.15722">
        <ele>634.19921875</ele>
        <time>2016-06-25T12:34:39.000Z</time>
      </trkpt>
      <trkpt lat="44.93801" lon="5.15722">
        <ele>634.42462158203</ele>
        <time>2016-06-25T12:34:42.000Z</time>
      </trkpt>
      <trkpt lat="44.93794" lon="5.15721">
        <ele>634.2880859375</ele>
        <time>2016-06-25T12:34:44.000Z</time>
      </trkpt>
      <trkpt lat="44.93784" lon="5.15724">
        <ele>634.23999023438</ele>
        <time>2016-06-25T12:34:47.000Z</time>
      </trkpt>
      <trkpt lat="44.93773" lon="5.15727">
        <ele>634.36938476562</ele>
        <time>2016-06-25T12:34:50.000Z</time>
      </trkpt>
      <trkpt lat="44.93764" lon="5.15729">
        <ele>634.49694824219</ele>
        <time>2016-06-25T12:34:53.000Z</time>
      </trkpt>
      <trkpt lat="44.93756" lon="5.15727">
        <ele>634.55114746094</ele>
        <time>2016-06-25T12:34:56.000Z</time>
      </trkpt>
      <trkpt lat="44.9375" lon="5.15727">
        <ele>634.60614013672</ele>
        <time>2016-06-25T12:34:58.000Z</time>
      </trkpt>
      <trkpt lat="44.93743" lon="5.15727">
        <ele>634.43078613281</ele>
        <time>2016-06-25T12:35:01.000Z</time>
      </trkpt>
      <trkpt lat="44.93738" lon="5.15733">
        <ele>634.34191894531</ele>
        <time>2016-06-25T12:35:04.000Z</time>
      </trkpt>
      <trkpt lat="44.93737" lon="5.15737">
        <ele>634.40197753906</ele>
        <time>2016-06-25T12:35:06.000Z</time>
      </trkpt>
      <trkpt lat="44.93737" lon="5.15741">
        <ele>634.77197265625</ele>
        <time>2016-06-25T12:35:08.000Z</time>
      </trkpt>
      <trkpt lat="44.93734" lon="5.15747">
        <ele>635.46466064453</ele>
        <time>2016-06-25T12:35:11.000Z</time>
      </trkpt>
      <trkpt lat="44.93731" lon="5.15754">
        <ele>636.59216308594</ele>
        <time>2016-06-25T12:35:14.000Z</time>
      </trkpt>
      <trkpt lat="44.93724" lon="5.15761">
        <ele>637.76379394531</ele>
        <time>2016-06-25T12:35:17.000Z</time>
      </trkpt>
      <trkpt lat="44.93721" lon="5.15768">
        <ele>638.99768066406</ele>
        <time>2016-06-25T12:35:19.000Z</time>
      </trkpt>
      <trkpt lat="44.9372" lon="5.15777">
        <ele>640.50451660156</ele>
        <time>2016-06-25T12:35:22.000Z</time>
      </trkpt>
      <trkpt lat="44.93719" lon="5.15781">
        <ele>641.93768310547</ele>
        <time>2016-06-25T12:35:24.000Z</time>
      </trkpt>
      <trkpt lat="44.93723" lon="5.15791">
        <ele>643.58898925781</ele>
        <time>2016-06-25T12:35:27.000Z</time>
      </trkpt>
      <trkpt lat="44.93737" lon="5.15789">
        <ele>645.21209716797</ele>
        <time>2016-06-25T12:35:30.000Z</time>
      </trkpt>
      <trkpt lat="44.93744" lon="5.15773">
        <ele>645.94549560547</ele>
        <time>2016-06-25T12:35:33.000Z</time>
      </trkpt>
      <trkpt lat="44.93749" lon="5.15758">
        <ele>645.55712890625</ele>
        <time>2016-06-25T12:35:36.000Z</time>
      </trkpt>
      <trkpt lat="44.93753" lon="5.1575">
        <ele>644.61633300781</ele>
        <time>2016-06-25T12:35:38.000Z</time>
      </trkpt>
      <trkpt lat="44.9376" lon="5.1574">
        <ele>642.72253417969</ele>
        <time>2016-06-25T12:35:41.000Z</time>
      </trkpt>
      <trkpt lat="44.93769" lon="5.15734">
        <ele>640.35424804688</ele>
        <time>2016-06-25T12:35:44.000Z</time>
      </trkpt>
      <trkpt lat="44.93777" lon="5.15733">
        <ele>638.67242431641</ele>
        <time>2016-06-25T12:35:47.000Z</time>
      </trkpt>
      <trkpt lat="44.93785" lon="5.15735">
        <ele>637.81060791016</ele>
        <time>2016-06-25T12:35:50.000Z</time>
      </trkpt>
      <trkpt lat="44.9379" lon="5.15735">
        <ele>637.38220214844</ele>
        <time>2016-06-25T12:35:52.000Z</time>
      </trkpt>
      <trkpt lat="44.93798" lon="5.15736">
        <ele>637.50335693359</ele>
        <time>2016-06-25T12:35:55.000Z</time>
      </trkpt>
      <trkpt lat="44.93803" lon="5.15737">
        <ele>637.98400878906</ele>
        <time>2016-06-25T12:35:57.000Z</time>
      </trkpt>
      <trkpt lat="44.93812" lon="5.15738">
        <ele>638.56884765625</ele>
        <time>2016-06-25T12:36:00.000Z</time>
      </trkpt>
      <trkpt lat="44.9382" lon="5.15737">
        <ele>639.03430175781</ele>
        <time>2016-06-25T12:36:03.000Z</time>
      </trkpt>
      <trkpt lat="44.93825" lon="5.15738">
        <ele>639.56469726562</ele>
        <time>2016-06-25T12:36:06.000Z</time>
      </trkpt>
      <trkpt lat="44.93832" lon="5.15739">
        <ele>640.07891845703</ele>
        <time>2016-06-25T12:36:09.000Z</time>
      </trkpt>
      <trkpt lat="44.93835" lon="5.15738">
        <ele>640.42181396484</ele>
        <time>2016-06-25T12:36:11.000Z</time>
      </trkpt>
      <trkpt lat="44.93837" lon="5.15736">
        <ele>640.42565917969</ele>
        <time>2016-06-25T12:36:13.000Z</time>
      </trkpt>
      <trkpt lat="44.93844" lon="5.15735">
        <ele>640.20861816406</ele>
        <time>2016-06-25T12:36:16.000Z</time>
      </trkpt>
      <trkpt lat="44.9385" lon="5.15736">
        <ele>639.89715576172</ele>
        <time>2016-06-25T12:36:18.000Z</time>
      </trkpt>
      <trkpt lat="44.93857" lon="5.15739">
        <ele>639.59210205078</ele>
        <time>2016-06-25T12:36:21.000Z</time>
      </trkpt>
      <trkpt lat="44.93862" lon="5.15742">
        <ele>639.48828125</ele>
        <time>2016-06-25T12:36:23.000Z</time>
      </trkpt>
      <trkpt lat="44.93869" lon="5.15745">
        <ele>639.74328613281</ele>
        <time>2016-06-25T12:36:26.000Z</time>
      </trkpt>
      <trkpt lat="44.93877" lon="5.15746">
        <ele>640.17333984375</ele>
        <time>2016-06-25T12:36:29.000Z</time>
      </trkpt>
      <trkpt lat="44.93882" lon="5.15749">
        <ele>640.71405029297</ele>
        <time>2016-06-25T12:36:31.000Z</time>
      </trkpt>
      <trkpt lat="44.93889" lon="5.15754">
        <ele>641.39093017578</ele>
        <time>2016-06-25T12:36:33.000Z</time>
      </trkpt>
      <trkpt lat="44.93897" lon="5.15758">
        <ele>642.15234375</ele>
        <time>2016-06-25T12:36:35.000Z</time>
      </trkpt>
      <trkpt lat="44.93911" lon="5.15773">
        <ele>643.54650878906</ele>
        <time>2016-06-25T12:36:38.000Z</time>
      </trkpt>
      <trkpt lat="44.93918" lon="5.15785">
        <ele>645.58996582031</ele>
        <time>2016-06-25T12:36:40.000Z</time>
      </trkpt>
      <trkpt lat="44.93924" lon="5.15792">
        <ele>647.36779785156</ele>
        <time>2016-06-25T12:36:42.000Z</time>
      </trkpt>
      <trkpt lat="44.93932" lon="5.15798">
        <ele>648.54370117188</ele>
        <time>2016-06-25T12:36:45.000Z</time>
      </trkpt>
      <trkpt lat="44.93941" lon="5.15807">
        <ele>649.14971923828</ele>
        <time>2016-06-25T12:36:48.000Z</time>
      </trkpt>
      <trkpt lat="44.93947" lon="5.15816">
        <ele>648.90478515625</ele>
        <time>2016-06-25T12:36:51.000Z</time>
      </trkpt>
      <trkpt lat="44.93951" lon="5.15827">
        <ele>648.23211669922</ele>
        <time>2016-06-25T12:36:54.000Z</time>
      </trkpt>
      <trkpt lat="44.93953" lon="5.15835">
        <ele>647.93963623047</ele>
        <time>2016-06-25T12:36:56.000Z</time>
      </trkpt>
      <trkpt lat="44.93952" lon="5.15846">
        <ele>648.21221923828</ele>
        <time>2016-06-25T12:36:59.000Z</time>
      </trkpt>
      <trkpt lat="44.9395" lon="5.15852">
        <ele>649.24145507812</ele>
        <time>2016-06-25T12:37:01.000Z</time>
      </trkpt>
      <trkpt lat="44.93946" lon="5.15866">
        <ele>650.88293457031</ele>
        <time>2016-06-25T12:37:04.000Z</time>
      </trkpt>
      <trkpt lat="44.93946" lon="5.15873">
        <ele>652.47326660156</ele>
        <time>2016-06-25T12:37:06.000Z</time>
      </trkpt>
      <trkpt lat="44.93948" lon="5.1588">
        <ele>653.72882080078</ele>
        <time>2016-06-25T12:37:09.000Z</time>
      </trkpt>
      <trkpt lat="44.93946" lon="5.15884">
        <ele>655.04534912109</ele>
        <time>2016-06-25T12:37:11.000Z</time>
      </trkpt>
      <trkpt lat="44.93946" lon="5.15897">
        <ele>656.1728515625</ele>
        <time>2016-06-25T12:37:14.000Z</time>
      </trkpt>
      <trkpt lat="44.93943" lon="5.15911">
        <ele>657.35876464844</ele>
        <time>2016-06-25T12:37:17.000Z</time>
      </trkpt>
      <trkpt lat="44.93938" lon="5.15926">
        <ele>659.30590820312</ele>
        <time>2016-06-25T12:37:20.000Z</time>
      </trkpt>
      <trkpt lat="44.93936" lon="5.15936">
        <ele>661.67138671875</ele>
        <time>2016-06-25T12:37:22.000Z</time>
      </trkpt>
      <trkpt lat="44.93934" lon="5.15946">
        <ele>664.15856933594</ele>
        <time>2016-06-25T12:37:24.000Z</time>
      </trkpt>
      <trkpt lat="44.93932" lon="5.15955">
        <ele>666.87194824219</ele>
        <time>2016-06-25T12:37:26.000Z</time>
      </trkpt>
      <trkpt lat="44.93933" lon="5.15967">
        <ele>668.92120361328</ele>
        <time>2016-06-25T12:37:29.000Z</time>
      </trkpt>
      <trkpt lat="44.93933" lon="5.15981">
        <ele>670.27557373047</ele>
        <time>2016-06-25T12:37:32.000Z</time>
      </trkpt>
      <trkpt lat="44.93937" lon="5.15991">
        <ele>670.89050292969</ele>
        <time>2016-06-25T12:37:35.000Z</time>
      </trkpt>
      <trkpt lat="44.93944" lon="5.15999">
        <ele>670.38848876953</ele>
        <time>2016-06-25T12:37:38.000Z</time>
      </trkpt>
      <trkpt lat="44.93945" lon="5.16004">
        <ele>669.41101074219</ele>
        <time>2016-06-25T12:37:40.000Z</time>
      </trkpt>
      <trkpt lat="44.93944" lon="5.16014">
        <ele>668.78643798828</ele>
        <time>2016-06-25T12:37:43.000Z</time>
      </trkpt>
      <trkpt lat="44.93942" lon="5.16022">
        <ele>668.35308837891</ele>
        <time>2016-06-25T12:37:45.000Z</time>
      </trkpt>
      <trkpt lat="44.93943" lon="5.16038">
        <ele>668.505859375</ele>
        <time>2016-06-25T12:37:48.000Z</time>
      </trkpt>
      <trkpt lat="44.93948" lon="5.16051">
        <ele>669.03094482422</ele>
        <time>2016-06-25T12:37:51.000Z</time>
      </trkpt>
      <trkpt lat="44.93945" lon="5.16069">
        <ele>670.47479248047</ele>
        <time>2016-06-25T12:37:54.000Z</time>
      </trkpt>
      <trkpt lat="44.93941" lon="5.16078">
        <ele>672.21221923828</ele>
        <time>2016-06-25T12:37:56.000Z</time>
      </trkpt>
      <trkpt lat="44.9394" lon="5.16087">
        <ele>673.82263183594</ele>
        <time>2016-06-25T12:37:58.000Z</time>
      </trkpt>
      <trkpt lat="44.9394" lon="5.161">
        <ele>675.38439941406</ele>
        <time>2016-06-25T12:38:01.000Z</time>
      </trkpt>
      <trkpt lat="44.93943" lon="5.16111">
        <ele>677.14007568359</ele>
        <time>2016-06-25T12:38:04.000Z</time>
      </trkpt>
      <trkpt lat="44.93945" lon="5.16122">
        <ele>677.91650390625</ele>
        <time>2016-06-25T12:38:07.000Z</time>
      </trkpt>
      <trkpt lat="44.93945" lon="5.1613">
        <ele>678.14904785156</ele>
        <time>2016-06-25T12:38:09.000Z</time>
      </trkpt>
      <trkpt lat="44.93946" lon="5.16142">
        <ele>678.09582519531</ele>
        <time>2016-06-25T12:38:12.000Z</time>
      </trkpt>
      <trkpt lat="44.93948" lon="5.16153">
        <ele>677.76422119141</ele>
        <time>2016-06-25T12:38:14.000Z</time>
      </trkpt>
      <trkpt lat="44.9395" lon="5.16164">
        <ele>677.64489746094</ele>
        <time>2016-06-25T12:38:17.000Z</time>
      </trkpt>
      <trkpt lat="44.9395" lon="5.16174">
        <ele>677.53131103516</ele>
        <time>2016-06-25T12:38:20.000Z</time>
      </trkpt>
      <trkpt lat="44.9395" lon="5.16186">
        <ele>677.25476074219</ele>
        <time>2016-06-25T12:38:23.000Z</time>
      </trkpt>
      <trkpt lat="44.9395" lon="5.16199">
        <ele>676.72003173828</ele>
        <time>2016-06-25T12:38:26.000Z</time>
      </trkpt>
      <trkpt lat="44.93948" lon="5.16206">
        <ele>676.45056152344</ele>
        <time>2016-06-25T12:38:28.000Z</time>
      </trkpt>
      <trkpt lat="44.93941" lon="5.16201">
        <ele>676.85870361328</ele>
        <time>2016-06-25T12:38:31.000Z</time>
      </trkpt>
      <trkpt lat="44.93936" lon="5.16182">
        <ele>678.1630859375</ele>
        <time>2016-06-25T12:38:34.000Z</time>
      </trkpt>
      <trkpt lat="44.9393" lon="5.16164">
        <ele>680.44403076172</ele>
        <time>2016-06-25T12:38:37.000Z</time>
      </trkpt>
      <trkpt lat="44.93925" lon="5.16153">
        <ele>683.39367675781</ele>
        <time>2016-06-25T12:38:40.000Z</time>
      </trkpt>
      <trkpt lat="44.93919" lon="5.16142">
        <ele>686.78869628906</ele>
        <time>2016-06-25T12:38:43.000Z</time>
      </trkpt>
      <trkpt lat="44.93916" lon="5.16137">
        <ele>689.71716308594</ele>
        <time>2016-06-25T12:38:45.000Z</time>
      </trkpt>
      <trkpt lat="44.93912" lon="5.16129">
        <ele>692.12316894531</ele>
        <time>2016-06-25T12:38:48.000Z</time>
      </trkpt>
      <trkpt lat="44.93908" lon="5.16123">
        <ele>693.98974609375</ele>
        <time>2016-06-25T12:38:50.000Z</time>
      </trkpt>
      <trkpt lat="44.93902" lon="5.16113">
        <ele>695.82983398438</ele>
        <time>2016-06-25T12:38:53.000Z</time>
      </trkpt>
      <trkpt lat="44.939" lon="5.16102">
        <ele>697.14068603516</ele>
        <time>2016-06-25T12:38:56.000Z</time>
      </trkpt>
      <trkpt lat="44.93898" lon="5.1609">
        <ele>698.23425292969</ele>
        <time>2016-06-25T12:38:59.000Z</time>
      </trkpt>
      <trkpt lat="44.93896" lon="5.16077">
        <ele>699.03363037109</ele>
        <time>2016-06-25T12:39:02.000Z</time>
      </trkpt>
      <trkpt lat="44.93893" lon="5.16063">
        <ele>699.49157714844</ele>
        <time>2016-06-25T12:39:05.000Z</time>
      </trkpt>
      <trkpt lat="44.93886" lon="5.1605">
        <ele>699.85241699219</ele>
        <time>2016-06-25T12:39:08.000Z</time>
      </trkpt>
      <trkpt lat="44.93883" lon="5.16044">
        <ele>700.27166748047</ele>
        <time>2016-06-25T12:39:11.000Z</time>
      </trkpt>
      <trkpt lat="44.93881" lon="5.16033">
        <ele>700.57733154297</ele>
        <time>2016-06-25T12:39:14.000Z</time>
      </trkpt>
      <trkpt lat="44.9388" lon="5.16018">
        <ele>700.64074707031</ele>
        <time>2016-06-25T12:39:17.000Z</time>
      </trkpt>
      <trkpt lat="44.93882" lon="5.16003">
        <ele>700.26843261719</ele>
        <time>2016-06-25T12:39:20.000Z</time>
      </trkpt>
      <trkpt lat="44.9388" lon="5.15986">
        <ele>699.28381347656</ele>
        <time>2016-06-25T12:39:23.000Z</time>
      </trkpt>
      <trkpt lat="44.93881" lon="5.15977">
        <ele>697.89465332031</ele>
        <time>2016-06-25T12:39:25.000Z</time>
      </trkpt>
      <trkpt lat="44.93882" lon="5.1596">
        <ele>696.03485107422</ele>
        <time>2016-06-25T12:39:28.000Z</time>
      </trkpt>
      <trkpt lat="44.93877" lon="5.15945">
        <ele>694.28564453125</ele>
        <time>2016-06-25T12:39:31.000Z</time>
      </trkpt>
      <trkpt lat="44.93874" lon="5.15923">
        <ele>692.46417236328</ele>
        <time>2016-06-25T12:39:34.000Z</time>
      </trkpt>
      <trkpt lat="44.93871" lon="5.15907">
        <ele>690.51745605469</ele>
        <time>2016-06-25T12:39:36.000Z</time>
      </trkpt>
      <trkpt lat="44.93869" lon="5.15887">
        <ele>688.14196777344</ele>
        <time>2016-06-25T12:39:39.000Z</time>
      </trkpt>
      <trkpt lat="44.93903" lon="5.15866">
        <ele>684.58215332031</ele>
        <time>2016-06-25T12:39:43.000Z</time>
      </trkpt>
      <trkpt lat="44.93908" lon="5.15861">
        <ele>680.89703369141</ele>
        <time>2016-06-25T12:39:45.000Z</time>
      </trkpt>
      <trkpt lat="44.93901" lon="5.15854">
        <ele>677.68194580078</ele>
        <time>2016-06-25T12:39:48.000Z</time>
      </trkpt>
      <trkpt lat="44.93895" lon="5.15849">
        <ele>674.86596679688</ele>
        <time>2016-06-25T12:39:50.000Z</time>
      </trkpt>
      <trkpt lat="44.93884" lon="5.15845">
        <ele>672.88891601562</ele>
        <time>2016-06-25T12:39:53.000Z</time>
      </trkpt>
      <trkpt lat="44.93876" lon="5.15848">
        <ele>672.90191650391</ele>
        <time>2016-06-25T12:39:55.000Z</time>
      </trkpt>
      <trkpt lat="44.93866" lon="5.15854">
        <ele>673.66229248047</ele>
        <time>2016-06-25T12:39:58.000Z</time>
      </trkpt>
      <trkpt lat="44.93861" lon="5.15856">
        <ele>674.68151855469</ele>
        <time>2016-06-25T12:40:00.000Z</time>
      </trkpt>
      <trkpt lat="44.93857" lon="5.15858">
        <ele>675.91424560547</ele>
        <time>2016-06-25T12:40:02.000Z</time>
      </trkpt>
      <trkpt lat="44.93849" lon="5.15861">
        <ele>677.35632324219</ele>
        <time>2016-06-25T12:40:04.000Z</time>
      </trkpt>
      <trkpt lat="44.93836" lon="5.15864">
        <ele>678.97467041016</ele>
        <time>2016-06-25T12:40:07.000Z</time>
      </trkpt>
      <trkpt lat="44.93828" lon="5.15864">
        <ele>680.03668212891</ele>
        <time>2016-06-25T12:40:10.000Z</time>
      </trkpt>
      <trkpt lat="44.93822" lon="5.15867">
        <ele>680.81951904297</ele>
        <time>2016-06-25T12:40:12.000Z</time>
      </trkpt>
      <trkpt lat="44.93817" lon="5.1587">
        <ele>681.37823486328</ele>
        <time>2016-06-25T12:40:14.000Z</time>
      </trkpt>
      <trkpt lat="44.93809" lon="5.15874">
        <ele>681.5185546875</ele>
        <time>2016-06-25T12:40:17.000Z</time>
      </trkpt>
      <trkpt lat="44.93805" lon="5.1588">
        <ele>681.37072753906</ele>
        <time>2016-06-25T12:40:19.000Z</time>
      </trkpt>
      <trkpt lat="44.93802" lon="5.15888">
        <ele>681.62109375</ele>
        <time>2016-06-25T12:40:21.000Z</time>
      </trkpt>
      <trkpt lat="44.93812" lon="5.15901">
        <ele>682.95343017578</ele>
        <time>2016-06-25T12:40:24.000Z</time>
      </trkpt>
      <trkpt lat="44.93823" lon="5.15905">
        <ele>684.93426513672</ele>
        <time>2016-06-25T12:40:26.000Z</time>
      </trkpt>
      <trkpt lat="44.93834" lon="5.15905">
        <ele>687.37097167969</ele>
        <time>2016-06-25T12:40:28.000Z</time>
      </trkpt>
      <trkpt lat="44.93847" lon="5.15896">
        <ele>688.74847412109</ele>
        <time>2016-06-25T12:40:31.000Z</time>
      </trkpt>
      <trkpt lat="44.93855" lon="5.15889">
        <ele>689.22253417969</ele>
        <time>2016-06-25T12:40:33.000Z</time>
      </trkpt>
      <trkpt lat="44.93862" lon="5.15883">
        <ele>688.19445800781</ele>
        <time>2016-06-25T12:40:35.000Z</time>
      </trkpt>
      <trkpt lat="44.93873" lon="5.15879">
        <ele>686.10095214844</ele>
        <time>2016-06-25T12:40:38.000Z</time>
      </trkpt>
      <trkpt lat="44.93879" lon="5.1588">
        <ele>683.47705078125</ele>
        <time>2016-06-25T12:40:40.000Z</time>
      </trkpt>
      <trkpt lat="44.93885" lon="5.15883">
        <ele>681.677734375</ele>
        <time>2016-06-25T12:40:42.000Z</time>
      </trkpt>
      <trkpt lat="44.93892" lon="5.15891">
        <ele>680.54339599609</ele>
        <time>2016-06-25T12:40:45.000Z</time>
      </trkpt>
      <trkpt lat="44.93895" lon="5.15898">
        <ele>680.04925537109</ele>
        <time>2016-06-25T12:40:47.000Z</time>
      </trkpt>
      <trkpt lat="44.93896" lon="5.15906">
        <ele>680.18957519531</ele>
        <time>2016-06-25T12:40:49.000Z</time>
      </trkpt>
      <trkpt lat="44.93898" lon="5.15919">
        <ele>680.84704589844</ele>
        <time>2016-06-25T12:40:52.000Z</time>
      </trkpt>
      <trkpt lat="44.93896" lon="5.15933">
        <ele>681.923828125</ele>
        <time>2016-06-25T12:40:55.000Z</time>
      </trkpt>
      <trkpt lat="44.93894" lon="5.15941">
        <ele>683.22479248047</ele>
        <time>2016-06-25T12:40:57.000Z</time>
      </trkpt>
      <trkpt lat="44.93887" lon="5.15953">
        <ele>685.00140380859</ele>
        <time>2016-06-25T12:41:00.000Z</time>
      </trkpt>
      <trkpt lat="44.93881" lon="5.15968">
        <ele>687.39001464844</ele>
        <time>2016-06-25T12:41:03.000Z</time>
      </trkpt>
      <trkpt lat="44.93878" lon="5.15977">
        <ele>689.87329101562</ele>
        <time>2016-06-25T12:41:05.000Z</time>
      </trkpt>
      <trkpt lat="44.93877" lon="5.15992">
        <ele>692.56335449219</ele>
        <time>2016-06-25T12:41:08.000Z</time>
      </trkpt>
      <trkpt lat="44.93877" lon="5.16003">
        <ele>695.25317382812</ele>
        <time>2016-06-25T12:41:11.000Z</time>
      </trkpt>
      <trkpt lat="44.93877" lon="5.16012">
        <ele>697.51586914062</ele>
        <time>2016-06-25T12:41:13.000Z</time>
      </trkpt>
      <trkpt lat="44.93877" lon="5.16023">
        <ele>699.17517089844</ele>
        <time>2016-06-25T12:41:16.000Z</time>
      </trkpt>
      <trkpt lat="44.93877" lon="5.16031">
        <ele>700.55084228516</ele>
        <time>2016-06-25T12:41:18.000Z</time>
      </trkpt>
      <trkpt lat="44.93878" lon="5.16039">
        <ele>701.52355957031</ele>
        <time>2016-06-25T12:41:20.000Z</time>
      </trkpt>
      <trkpt lat="44.9388" lon="5.16051">
        <ele>702.26544189453</ele>
        <time>2016-06-25T12:41:23.000Z</time>
      </trkpt>
      <trkpt lat="44.93883" lon="5.16065">
        <ele>702.86700439453</ele>
        <time>2016-06-25T12:41:26.000Z</time>
      </trkpt>
      <trkpt lat="44.93887" lon="5.16078">
        <ele>703.21032714844</ele>
        <time>2016-06-25T12:41:29.000Z</time>
      </trkpt>
      <trkpt lat="44.93888" lon="5.16091">
        <ele>703.53485107422</ele>
        <time>2016-06-25T12:41:32.000Z</time>
      </trkpt>
      <trkpt lat="44.93888" lon="5.16101">
        <ele>703.83013916016</ele>
        <time>2016-06-25T12:41:34.000Z</time>
      </trkpt>
      <trkpt lat="44.93887" lon="5.1611">
        <ele>704.12683105469</ele>
        <time>2016-06-25T12:41:36.000Z</time>
      </trkpt>
      <trkpt lat="44.93887" lon="5.16117">
        <ele>704.42694091797</ele>
        <time>2016-06-25T12:41:38.000Z</time>
      </trkpt>
      <trkpt lat="44.93888" lon="5.16127">
        <ele>704.82501220703</ele>
        <time>2016-06-25T12:41:41.000Z</time>
      </trkpt>
      <trkpt lat="44.93888" lon="5.1614">
        <ele>705.22302246094</ele>
        <time>2016-06-25T12:41:44.000Z</time>
      </trkpt>
      <trkpt lat="44.93885" lon="5.1615">
        <ele>705.81781005859</ele>
        <time>2016-06-25T12:41:46.000Z</time>
      </trkpt>
      <trkpt lat="44.93881" lon="5.16159">
        <ele>706.76159667969</ele>
        <time>2016-06-25T12:41:48.000Z</time>
      </trkpt>
      <trkpt lat="44.93879" lon="5.16176">
        <ele>707.7568359375</ele>
        <time>2016-06-25T12:41:51.000Z</time>
      </trkpt>
      <trkpt lat="44.93878" lon="5.16191">
        <ele>708.49597167969</ele>
        <time>2016-06-25T12:41:54.000Z</time>
      </trkpt>
      <trkpt lat="44.93877" lon="5.16205">
        <ele>708.94403076172</ele>
        <time>2016-06-25T12:41:57.000Z</time>
      </trkpt>
      <trkpt lat="44.93872" lon="5.16218">
        <ele>709.20935058594</ele>
        <time>2016-06-25T12:42:00.000Z</time>
      </trkpt>
      <trkpt lat="44.93868" lon="5.1623">
        <ele>709.18768310547</ele>
        <time>2016-06-25T12:42:03.000Z</time>
      </trkpt>
      <trkpt lat="44.93863" lon="5.16237">
        <ele>709.30285644531</ele>
        <time>2016-06-25T12:42:05.000Z</time>
      </trkpt>
      <trkpt lat="44.9386" lon="5.16245">
        <ele>709.73602294922</ele>
        <time>2016-06-25T12:42:07.000Z</time>
      </trkpt>
      <trkpt lat="44.93858" lon="5.16253">
        <ele>710.30535888672</ele>
        <time>2016-06-25T12:42:09.000Z</time>
      </trkpt>
      <trkpt lat="44.93855" lon="5.16261">
        <ele>710.61315917969</ele>
        <time>2016-06-25T12:42:11.000Z</time>
      </trkpt>
      <trkpt lat="44.93848" lon="5.16271">
        <ele>710.77728271484</ele>
        <time>2016-06-25T12:42:14.000Z</time>
      </trkpt>
      <trkpt lat="44.93845" lon="5.16278">
        <ele>710.67700195312</ele>
        <time>2016-06-25T12:42:16.000Z</time>
      </trkpt>
      <trkpt lat="44.93838" lon="5.16288">
        <ele>710.48425292969</ele>
        <time>2016-06-25T12:42:19.000Z</time>
      </trkpt>
      <trkpt lat="44.93833" lon="5.16293">
        <ele>710.3994140625</ele>
        <time>2016-06-25T12:42:21.000Z</time>
      </trkpt>
      <trkpt lat="44.93828" lon="5.16298">
        <ele>710.42742919922</ele>
        <time>2016-06-25T12:42:23.000Z</time>
      </trkpt>
      <trkpt lat="44.93822" lon="5.16302">
        <ele>710.55010986328</ele>
        <time>2016-06-25T12:42:25.000Z</time>
      </trkpt>
      <trkpt lat="44.93811" lon="5.16302">
        <ele>711.07348632812</ele>
        <time>2016-06-25T12:42:28.000Z</time>
      </trkpt>
      <trkpt lat="44.93804" lon="5.16299">
        <ele>712.04772949219</ele>
        <time>2016-06-25T12:42:30.000Z</time>
      </trkpt>
      <trkpt lat="44.93797" lon="5.16298">
        <ele>713.30212402344</ele>
        <time>2016-06-25T12:42:32.000Z</time>
      </trkpt>
      <trkpt lat="44.93787" lon="5.16297">
        <ele>715.04968261719</ele>
        <time>2016-06-25T12:42:35.000Z</time>
      </trkpt>
      <trkpt lat="44.93777" lon="5.16295">
        <ele>717.228515625</ele>
        <time>2016-06-25T12:42:38.000Z</time>
      </trkpt>
      <trkpt lat="44.9377" lon="5.16292">
        <ele>719.45544433594</ele>
        <time>2016-06-25T12:42:40.000Z</time>
      </trkpt>
      <trkpt lat="44.93761" lon="5.16287">
        <ele>721.97265625</ele>
        <time>2016-06-25T12:42:43.000Z</time>
      </trkpt>
      <trkpt lat="44.93757" lon="5.16277">
        <ele>724.84704589844</ele>
        <time>2016-06-25T12:42:45.000Z</time>
      </trkpt>
      <trkpt lat="44.9376" lon="5.16261">
        <ele>728.07275390625</ele>
        <time>2016-06-25T12:42:48.000Z</time>
      </trkpt>
      <trkpt lat="44.93773" lon="5.16262">
        <ele>730.15563964844</ele>
        <time>2016-06-25T12:42:51.000Z</time>
      </trkpt>
      <trkpt lat="44.93785" lon="5.16266">
        <ele>730.96472167969</ele>
        <time>2016-06-25T12:42:54.000Z</time>
      </trkpt>
      <trkpt lat="44.93797" lon="5.16268">
        <ele>730.37823486328</ele>
        <time>2016-06-25T12:42:57.000Z</time>
      </trkpt>
      <trkpt lat="44.93814" lon="5.16268">
        <ele>728.31372070312</ele>
        <time>2016-06-25T12:43:00.000Z</time>
      </trkpt>
      <trkpt lat="44.93823" lon="5.16267">
        <ele>725.08142089844</ele>
        <time>2016-06-25T12:43:02.000Z</time>
      </trkpt>
      <trkpt lat="44.93829" lon="5.16259">
        <ele>722.59954833984</ele>
        <time>2016-06-25T12:43:05.000Z</time>
      </trkpt>
      <trkpt lat="44.93831" lon="5.16249">
        <ele>721.31976318359</ele>
        <time>2016-06-25T12:43:08.000Z</time>
      </trkpt>
      <trkpt lat="44.93833" lon="5.16242">
        <ele>720.78387451172</ele>
        <time>2016-06-25T12:43:10.000Z</time>
      </trkpt>
      <trkpt lat="44.93834" lon="5.16233">
        <ele>721.10601806641</ele>
        <time>2016-06-25T12:43:12.000Z</time>
      </trkpt>
      <trkpt lat="44.93835" lon="5.16221">
        <ele>721.96826171875</ele>
        <time>2016-06-25T12:43:15.000Z</time>
      </trkpt>
      <trkpt lat="44.93835" lon="5.16205">
        <ele>723.04699707031</ele>
        <time>2016-06-25T12:43:18.000Z</time>
      </trkpt>
      <trkpt lat="44.93826" lon="5.16182">
        <ele>724.77093505859</ele>
        <time>2016-06-25T12:43:21.000Z</time>
      </trkpt>
      <trkpt lat="44.93821" lon="5.16174">
        <ele>726.83624267578</ele>
        <time>2016-06-25T12:43:23.000Z</time>
      </trkpt>
      <trkpt lat="44.9382" lon="5.16165">
        <ele>729.00146484375</ele>
        <time>2016-06-25T12:43:25.000Z</time>
      </trkpt>
      <trkpt lat="44.93823" lon="5.16157">
        <ele>730.70965576172</ele>
        <time>2016-06-25T12:43:27.000Z</time>
      </trkpt>
      <trkpt lat="44.9383" lon="5.16147">
        <ele>731.63195800781</ele>
        <time>2016-06-25T12:43:30.000Z</time>
      </trkpt>
      <trkpt lat="44.93839" lon="5.16142">
        <ele>730.88507080078</ele>
        <time>2016-06-25T12:43:33.000Z</time>
      </trkpt>
      <trkpt lat="44.9384" lon="5.16134">
        <ele>729.54498291016</ele>
        <time>2016-06-25T12:43:35.000Z</time>
      </trkpt>
      <trkpt lat="44.93837" lon="5.16119">
        <ele>728.08923339844</ele>
        <time>2016-06-25T12:43:38.000Z</time>
      </trkpt>
      <trkpt lat="44.93833" lon="5.16107">
        <ele>727.10638427734</ele>
        <time>2016-06-25T12:43:40.000Z</time>
      </trkpt>
      <trkpt lat="44.93826" lon="5.16093">
        <ele>726.62933349609</ele>
        <time>2016-06-25T12:43:43.000Z</time>
      </trkpt>
      <trkpt lat="44.93824" lon="5.16084">
        <ele>726.77478027344</ele>
        <time>2016-06-25T12:43:46.000Z</time>
      </trkpt>
      <trkpt lat="44.93818" lon="5.16069">
        <ele>726.77941894531</ele>
        <time>2016-06-25T12:43:49.000Z</time>
      </trkpt>
      <trkpt lat="44.93816" lon="5.16064">
        <ele>726.57263183594</ele>
        <time>2016-06-25T12:43:51.000Z</time>
      </trkpt>
      <trkpt lat="44.93816" lon="5.16059">
        <ele>725.97277832031</ele>
        <time>2016-06-25T12:43:53.000Z</time>
      </trkpt>
      <trkpt lat="44.93817" lon="5.16046">
        <ele>724.88488769531</ele>
        <time>2016-06-25T12:43:56.000Z</time>
      </trkpt>
      <trkpt lat="44.93815" lon="5.16038">
        <ele>723.58923339844</ele>
        <time>2016-06-25T12:43:58.000Z</time>
      </trkpt>
      <trkpt lat="44.93813" lon="5.1603">
        <ele>722.34429931641</ele>
        <time>2016-06-25T12:44:00.000Z</time>
      </trkpt>
      <trkpt lat="44.93806" lon="5.16025">
        <ele>721.03009033203</ele>
        <time>2016-06-25T12:44:03.000Z</time>
      </trkpt>
      <trkpt lat="44.93798" lon="5.16023">
        <ele>719.78601074219</ele>
        <time>2016-06-25T12:44:05.000Z</time>
      </trkpt>
      <trkpt lat="44.93787" lon="5.16024">
        <ele>718.95758056641</ele>
        <time>2016-06-25T12:44:08.000Z</time>
      </trkpt>
      <trkpt lat="44.93778" lon="5.16032">
        <ele>718.73083496094</ele>
        <time>2016-06-25T12:44:11.000Z</time>
      </trkpt>
      <trkpt lat="44.93772" lon="5.16043">
        <ele>719.42578125</ele>
        <time>2016-06-25T12:44:14.000Z</time>
      </trkpt>
      <trkpt lat="44.93769" lon="5.16051">
        <ele>720.76837158203</ele>
        <time>2016-06-25T12:44:16.000Z</time>
      </trkpt>
      <trkpt lat="44.93763" lon="5.1606">
        <ele>722.82922363281</ele>
        <time>2016-06-25T12:44:19.000Z</time>
      </trkpt>
      <trkpt lat="44.93761" lon="5.16065">
        <ele>725.23205566406</ele>
        <time>2016-06-25T12:44:22.000Z</time>
      </trkpt>
      <trkpt lat="44.93759" lon="5.16071">
        <ele>727.68420410156</ele>
        <time>2016-06-25T12:44:24.000Z</time>
      </trkpt>
      <trkpt lat="44.93751" lon="5.16079">
        <ele>730.20025634766</ele>
        <time>2016-06-25T12:44:27.000Z</time>
      </trkpt>
      <trkpt lat="44.93743" lon="5.1609">
        <ele>732.53332519531</ele>
        <time>2016-06-25T12:44:30.000Z</time>
      </trkpt>
      <trkpt lat="44.93739" lon="5.16094">
        <ele>734.32928466797</ele>
        <time>2016-06-25T12:44:32.000Z</time>
      </trkpt>
      <trkpt lat="44.93734" lon="5.16099">
        <ele>735.83319091797</ele>
        <time>2016-06-25T12:44:34.000Z</time>
      </trkpt>
      <trkpt lat="44.93726" lon="5.16106">
        <ele>736.98107910156</ele>
        <time>2016-06-25T12:44:37.000Z</time>
      </trkpt>
      <trkpt lat="44.9372" lon="5.16112">
        <ele>737.5263671875</ele>
        <time>2016-06-25T12:44:39.000Z</time>
      </trkpt>
      <trkpt lat="44.93715" lon="5.16116">
        <ele>737.88275146484</ele>
        <time>2016-06-25T12:44:41.000Z</time>
      </trkpt>
      <trkpt lat="44.9371" lon="5.1612">
        <ele>738.26776123047</ele>
        <time>2016-06-25T12:44:43.000Z</time>
      </trkpt>
      <trkpt lat="44.937" lon="5.16127">
        <ele>738.74621582031</ele>
        <time>2016-06-25T12:44:46.000Z</time>
      </trkpt>
      <trkpt lat="44.93695" lon="5.1613">
        <ele>739.27838134766</ele>
        <time>2016-06-25T12:44:48.000Z</time>
      </trkpt>
      <trkpt lat="44.93686" lon="5.16136">
        <ele>739.85858154297</ele>
        <time>2016-06-25T12:44:51.000Z</time>
      </trkpt>
      <trkpt lat="44.93679" lon="5.16139">
        <ele>740.45959472656</ele>
        <time>2016-06-25T12:44:53.000Z</time>
      </trkpt>
      <trkpt lat="44.93668" lon="5.16142">
        <ele>740.96838378906</ele>
        <time>2016-06-25T12:44:56.000Z</time>
      </trkpt>
      <trkpt lat="44.9366" lon="5.16142">
        <ele>741.25073242188</ele>
        <time>2016-06-25T12:44:58.000Z</time>
      </trkpt>
      <trkpt lat="44.93649" lon="5.16146">
        <ele>741.43664550781</ele>
        <time>2016-06-25T12:45:01.000Z</time>
      </trkpt>
      <trkpt lat="44.9364" lon="5.16149">
        <ele>741.50939941406</ele>
        <time>2016-06-25T12:45:04.000Z</time>
      </trkpt>
      <trkpt lat="44.93634" lon="5.16152">
        <ele>741.52032470703</ele>
        <time>2016-06-25T12:45:06.000Z</time>
      </trkpt>
      <trkpt lat="44.93623" lon="5.16155">
        <ele>741.48547363281</ele>
        <time>2016-06-25T12:45:09.000Z</time>
      </trkpt>
      <trkpt lat="44.93615" lon="5.16158">
        <ele>741.55133056641</ele>
        <time>2016-06-25T12:45:12.000Z</time>
      </trkpt>
      <trkpt lat="44.93607" lon="5.16167">
        <ele>742.04650878906</ele>
        <time>2016-06-25T12:45:15.000Z</time>
      </trkpt>
      <trkpt lat="44.93589" lon="5.16175">
        <ele>742.45825195312</ele>
        <time>2016-06-25T12:45:18.000Z</time>
      </trkpt>
      <trkpt lat="44.93577" lon="5.16179">
        <ele>742.70300292969</ele>
        <time>2016-06-25T12:45:21.000Z</time>
      </trkpt>
      <trkpt lat="44.93571" lon="5.16184">
        <ele>743.00915527344</ele>
        <time>2016-06-25T12:45:24.000Z</time>
      </trkpt>
      <trkpt lat="44.93568" lon="5.16192">
        <ele>743.64178466797</ele>
        <time>2016-06-25T12:45:26.000Z</time>
      </trkpt>
      <trkpt lat="44.93565" lon="5.16204">
        <ele>744.35089111328</ele>
        <time>2016-06-25T12:45:29.000Z</time>
      </trkpt>
      <trkpt lat="44.93562" lon="5.16213">
        <ele>745.47528076172</ele>
        <time>2016-06-25T12:45:31.000Z</time>
      </trkpt>
      <trkpt lat="44.93559" lon="5.16223">
        <ele>747.08135986328</ele>
        <time>2016-06-25T12:45:33.000Z</time>
      </trkpt>
      <trkpt lat="44.93555" lon="5.16229">
        <ele>748.82043457031</ele>
        <time>2016-06-25T12:45:36.000Z</time>
      </trkpt>
      <trkpt lat="44.9355" lon="5.16236">
        <ele>750.48120117188</ele>
        <time>2016-06-25T12:45:39.000Z</time>
      </trkpt>
      <trkpt lat="44.93546" lon="5.16244">
        <ele>751.85943603516</ele>
        <time>2016-06-25T12:45:41.000Z</time>
      </trkpt>
      <trkpt lat="44.93539" lon="5.1625">
        <ele>752.92529296875</ele>
        <time>2016-06-25T12:45:43.000Z</time>
      </trkpt>
      <trkpt lat="44.93527" lon="5.16252">
        <ele>753.20971679688</ele>
        <time>2016-06-25T12:45:46.000Z</time>
      </trkpt>
      <trkpt lat="44.93518" lon="5.16252">
        <ele>753.00598144531</ele>
        <time>2016-06-25T12:45:48.000Z</time>
      </trkpt>
      <trkpt lat="44.93505" lon="5.16254">
        <ele>752.04870605469</ele>
        <time>2016-06-25T12:45:51.000Z</time>
      </trkpt>
      <trkpt lat="44.93492" lon="5.16252">
        <ele>750.00061035156</ele>
        <time>2016-06-25T12:45:54.000Z</time>
      </trkpt>
      <trkpt lat="44.93486" lon="5.16259">
        <ele>747.53576660156</ele>
        <time>2016-06-25T12:45:57.000Z</time>
      </trkpt>
      <trkpt lat="44.93485" lon="5.16268">
        <ele>745.54022216797</ele>
        <time>2016-06-25T12:45:59.000Z</time>
      </trkpt>
      <trkpt lat="44.93488" lon="5.16278">
        <ele>744.2802734375</ele>
        <time>2016-06-25T12:46:02.000Z</time>
      </trkpt>
      <trkpt lat="44.93491" lon="5.16287">
        <ele>743.90167236328</ele>
        <time>2016-06-25T12:46:04.000Z</time>
      </trkpt>
      <trkpt lat="44.93496" lon="5.16299">
        <ele>745.03259277344</ele>
        <time>2016-06-25T12:46:07.000Z</time>
      </trkpt>
      <trkpt lat="44.93499" lon="5.16308">
        <ele>746.86724853516</ele>
        <time>2016-06-25T12:46:09.000Z</time>
      </trkpt>
      <trkpt lat="44.93502" lon="5.1632">
        <ele>749.04382324219</ele>
        <time>2016-06-25T12:46:12.000Z</time>
      </trkpt>
      <trkpt lat="44.93503" lon="5.16328">
        <ele>750.98999023438</ele>
        <time>2016-06-25T12:46:14.000Z</time>
      </trkpt>
      <trkpt lat="44.93502" lon="5.16336">
        <ele>752.65148925781</ele>
        <time>2016-06-25T12:46:17.000Z</time>
      </trkpt>
      <trkpt lat="44.93508" lon="5.16347">
        <ele>754.08288574219</ele>
        <time>2016-06-25T12:46:20.000Z</time>
      </trkpt>
      <trkpt lat="44.93515" lon="5.16355">
        <ele>755.60723876953</ele>
        <time>2016-06-25T12:46:22.000Z</time>
      </trkpt>
      <trkpt lat="44.93518" lon="5.16368">
        <ele>757.02764892578</ele>
        <time>2016-06-25T12:46:24.000Z</time>
      </trkpt>
      <trkpt lat="44.93515" lon="5.16375">
        <ele>758.1845703125</ele>
        <time>2016-06-25T12:46:26.000Z</time>
      </trkpt>
      <trkpt lat="44.93516" lon="5.16392">
        <ele>759.44842529297</ele>
        <time>2016-06-25T12:46:29.000Z</time>
      </trkpt>
      <trkpt lat="44.9352" lon="5.16403">
        <ele>760.63635253906</ele>
        <time>2016-06-25T12:46:31.000Z</time>
      </trkpt>
      <trkpt lat="44.93522" lon="5.1641">
        <ele>761.57177734375</ele>
        <time>2016-06-25T12:46:33.000Z</time>
      </trkpt>
      <trkpt lat="44.93523" lon="5.16419">
        <ele>762.42639160156</ele>
        <time>2016-06-25T12:46:36.000Z</time>
      </trkpt>
      <trkpt lat="44.93523" lon="5.16429">
        <ele>763.64715576172</ele>
        <time>2016-06-25T12:46:39.000Z</time>
      </trkpt>
      <trkpt lat="44.93521" lon="5.16444">
        <ele>764.87823486328</ele>
        <time>2016-06-25T12:46:42.000Z</time>
      </trkpt>
      <trkpt lat="44.93519" lon="5.16455">
        <ele>765.93682861328</ele>
        <time>2016-06-25T12:46:44.000Z</time>
      </trkpt>
      <trkpt lat="44.93515" lon="5.16471">
        <ele>766.96643066406</ele>
        <time>2016-06-25T12:46:47.000Z</time>
      </trkpt>
      <trkpt lat="44.9351" lon="5.16486">
        <ele>767.91278076172</ele>
        <time>2016-06-25T12:46:50.000Z</time>
      </trkpt>
      <trkpt lat="44.93504" lon="5.16494">
        <ele>768.54064941406</ele>
        <time>2016-06-25T12:46:52.000Z</time>
      </trkpt>
      <trkpt lat="44.93501" lon="5.16506">
        <ele>769.15216064453</ele>
        <time>2016-06-25T12:46:55.000Z</time>
      </trkpt>
      <trkpt lat="44.93497" lon="5.16519">
        <ele>769.8037109375</ele>
        <time>2016-06-25T12:46:58.000Z</time>
      </trkpt>
      <trkpt lat="44.93493" lon="5.16525">
        <ele>770.20806884766</ele>
        <time>2016-06-25T12:47:00.000Z</time>
      </trkpt>
      <trkpt lat="44.9349" lon="5.16532">
        <ele>770.52258300781</ele>
        <time>2016-06-25T12:47:02.000Z</time>
      </trkpt>
      <trkpt lat="44.93482" lon="5.1654">
        <ele>770.59899902344</ele>
        <time>2016-06-25T12:47:05.000Z</time>
      </trkpt>
      <trkpt lat="44.93476" lon="5.16548">
        <ele>770.29528808594</ele>
        <time>2016-06-25T12:47:08.000Z</time>
      </trkpt>
      <trkpt lat="44.93469" lon="5.16555">
        <ele>769.53308105469</ele>
        <time>2016-06-25T12:47:10.000Z</time>
      </trkpt>
      <trkpt lat="44.93464" lon="5.16559">
        <ele>768.58020019531</ele>
        <time>2016-06-25T12:47:12.000Z</time>
      </trkpt>
      <trkpt lat="44.93459" lon="5.16565">
        <ele>767.48522949219</ele>
        <time>2016-06-25T12:47:14.000Z</time>
      </trkpt>
      <trkpt lat="44.93456" lon="5.16576">
        <ele>766.78723144531</ele>
        <time>2016-06-25T12:47:17.000Z</time>
      </trkpt>
      <trkpt lat="44.93453" lon="5.16585">
        <ele>766.35632324219</ele>
        <time>2016-06-25T12:47:19.000Z</time>
      </trkpt>
      <trkpt lat="44.93444" lon="5.16596">
        <ele>765.60198974609</ele>
        <time>2016-06-25T12:47:22.000Z</time>
      </trkpt>
      <trkpt lat="44.93438" lon="5.16608">
        <ele>764.79382324219</ele>
        <time>2016-06-25T12:47:25.000Z</time>
      </trkpt>
      <trkpt lat="44.93439" lon="5.16622">
        <ele>764.33618164062</ele>
        <time>2016-06-25T12:47:28.000Z</time>
      </trkpt>
      <trkpt lat="44.93441" lon="5.16632">
        <ele>763.9365234375</ele>
        <time>2016-06-25T12:47:31.000Z</time>
      </trkpt>
      <trkpt lat="44.9344" lon="5.16645">
        <ele>763.53601074219</ele>
        <time>2016-06-25T12:47:34.000Z</time>
      </trkpt>
      <trkpt lat="44.93444" lon="5.16662">
        <ele>764.07568359375</ele>
        <time>2016-06-25T12:47:37.000Z</time>
      </trkpt>
      <trkpt lat="44.93448" lon="5.16676">
        <ele>765.20245361328</ele>
        <time>2016-06-25T12:47:40.000Z</time>
      </trkpt>
      <trkpt lat="44.93447" lon="5.16685">
        <ele>766.07489013672</ele>
        <time>2016-06-25T12:47:42.000Z</time>
      </trkpt>
      <trkpt lat="44.93446" lon="5.16694">
        <ele>766.69671630859</ele>
        <time>2016-06-25T12:47:44.000Z</time>
      </trkpt>
      <trkpt lat="44.9344" lon="5.16709">
        <ele>767.08581542969</ele>
        <time>2016-06-25T12:47:47.000Z</time>
      </trkpt>
      <trkpt lat="44.93433" lon="5.16721">
        <ele>766.96594238281</ele>
        <time>2016-06-25T12:47:50.000Z</time>
      </trkpt>
      <trkpt lat="44.93431" lon="5.16729">
        <ele>766.607421875</ele>
        <time>2016-06-25T12:47:52.000Z</time>
      </trkpt>
      <trkpt lat="44.93433" lon="5.16745">
        <ele>766.43371582031</ele>
        <time>2016-06-25T12:47:55.000Z</time>
      </trkpt>
      <trkpt lat="44.93427" lon="5.16759">
        <ele>766.30950927734</ele>
        <time>2016-06-25T12:47:58.000Z</time>
      </trkpt>
      <trkpt lat="44.93416" lon="5.16769">
        <ele>766.22399902344</ele>
        <time>2016-06-25T12:48:01.000Z</time>
      </trkpt>
      <trkpt lat="44.93417" lon="5.16776">
        <ele>766.33624267578</ele>
        <time>2016-06-25T12:48:03.000Z</time>
      </trkpt>
      <trkpt lat="44.93423" lon="5.16785">
        <ele>766.47601318359</ele>
        <time>2016-06-25T12:48:05.000Z</time>
      </trkpt>
      <trkpt lat="44.93431" lon="5.16796">
        <ele>766.49523925781</ele>
        <time>2016-06-25T12:48:08.000Z</time>
      </trkpt>
      <trkpt lat="44.93437" lon="5.16803">
        <ele>766.55584716797</ele>
        <time>2016-06-25T12:48:10.000Z</time>
      </trkpt>
      <trkpt lat="44.93441" lon="5.16811">
        <ele>766.72277832031</ele>
        <time>2016-06-25T12:48:12.000Z</time>
      </trkpt>
      <trkpt lat="44.93441" lon="5.16826">
        <ele>766.81237792969</ele>
        <time>2016-06-25T12:48:15.000Z</time>
      </trkpt>
      <trkpt lat="44.9344" lon="5.1684">
        <ele>766.927734375</ele>
        <time>2016-06-25T12:48:18.000Z</time>
      </trkpt>
      <trkpt lat="44.93438" lon="5.16854">
        <ele>767.20660400391</ele>
        <time>2016-06-25T12:48:21.000Z</time>
      </trkpt>
      <trkpt lat="44.93433" lon="5.16862">
        <ele>767.57818603516</ele>
        <time>2016-06-25T12:48:23.000Z</time>
      </trkpt>
      <trkpt lat="44.93422" lon="5.16872">
        <ele>768.06866455078</ele>
        <time>2016-06-25T12:48:26.000Z</time>
      </trkpt>
      <trkpt lat="44.93417" lon="5.16883">
        <ele>768.71435546875</ele>
        <time>2016-06-25T12:48:29.000Z</time>
      </trkpt>
      <trkpt lat="44.93415" lon="5.16891">
        <ele>769.28149414062</ele>
        <time>2016-06-25T12:48:31.000Z</time>
      </trkpt>
      <trkpt lat="44.93414" lon="5.16899">
        <ele>769.61657714844</ele>
        <time>2016-06-25T12:48:33.000Z</time>
      </trkpt>
      <trkpt lat="44.93412" lon="5.16912">
        <ele>769.8642578125</ele>
        <time>2016-06-25T12:48:36.000Z</time>
      </trkpt>
      <trkpt lat="44.9341" lon="5.16925">
        <ele>770.26824951172</ele>
        <time>2016-06-25T12:48:39.000Z</time>
      </trkpt>
      <trkpt lat="44.93408" lon="5.16933">
        <ele>770.78771972656</ele>
        <time>2016-06-25T12:48:41.000Z</time>
      </trkpt>
      <trkpt lat="44.93408" lon="5.16946">
        <ele>771.89831542969</ele>
        <time>2016-06-25T12:48:44.000Z</time>
      </trkpt>
      <trkpt lat="44.93409" lon="5.16956">
        <ele>773.47222900391</ele>
        <time>2016-06-25T12:48:46.000Z</time>
      </trkpt>
      <trkpt lat="44.93409" lon="5.16964">
        <ele>775.4208984375</ele>
        <time>2016-06-25T12:48:48.000Z</time>
      </trkpt>
      <trkpt lat="44.93405" lon="5.16971">
        <ele>777.14208984375</ele>
        <time>2016-06-25T12:48:51.000Z</time>
      </trkpt>
      <trkpt lat="44.93402" lon="5.1698">
        <ele>778.81170654297</ele>
        <time>2016-06-25T12:48:53.000Z</time>
      </trkpt>
      <trkpt lat="44.93398" lon="5.16994">
        <ele>780.31372070312</ele>
        <time>2016-06-25T12:48:56.000Z</time>
      </trkpt>
      <trkpt lat="44.93396" lon="5.17006">
        <ele>781.73657226562</ele>
        <time>2016-06-25T12:48:59.000Z</time>
      </trkpt>
      <trkpt lat="44.93394" lon="5.17014">
        <ele>783.07629394531</ele>
        <time>2016-06-25T12:49:01.000Z</time>
      </trkpt>
      <trkpt lat="44.93393" lon="5.17022">
        <ele>784.76434326172</ele>
        <time>2016-06-25T12:49:03.000Z</time>
      </trkpt>
      <trkpt lat="44.93391" lon="5.17034">
        <ele>786.796875</ele>
        <time>2016-06-25T12:49:06.000Z</time>
      </trkpt>
      <trkpt lat="44.9339" lon="5.17044">
        <ele>788.82336425781</ele>
        <time>2016-06-25T12:49:08.000Z</time>
      </trkpt>
      <trkpt lat="44.93388" lon="5.17054">
        <ele>790.93145751953</ele>
        <time>2016-06-25T12:49:10.000Z</time>
      </trkpt>
      <trkpt lat="44.93385" lon="5.17068">
        <ele>793.34552001953</ele>
        <time>2016-06-25T12:49:13.000Z</time>
      </trkpt>
      <trkpt lat="44.93383" lon="5.17081">
        <ele>796.03155517578</ele>
        <time>2016-06-25T12:49:16.000Z</time>
      </trkpt>
      <trkpt lat="44.93383" lon="5.17089">
        <ele>798.52185058594</ele>
        <time>2016-06-25T12:49:18.000Z</time>
      </trkpt>
      <trkpt lat="44.9338" lon="5.17097">
        <ele>800.86389160156</ele>
        <time>2016-06-25T12:49:20.000Z</time>
      </trkpt>
      <trkpt lat="44.93372" lon="5.17107">
        <ele>802.93469238281</ele>
        <time>2016-06-25T12:49:23.000Z</time>
      </trkpt>
      <trkpt lat="44.93367" lon="5.17109">
        <ele>804.32006835938</ele>
        <time>2016-06-25T12:49:25.000Z</time>
      </trkpt>
      <trkpt lat="44.93359" lon="5.17113">
        <ele>805.01452636719</ele>
        <time>2016-06-25T12:49:28.000Z</time>
      </trkpt>
      <trkpt lat="44.93353" lon="5.17116">
        <ele>805.34899902344</ele>
        <time>2016-06-25T12:49:30.000Z</time>
      </trkpt>
      <trkpt lat="44.93349" lon="5.17117">
        <ele>805.36456298828</ele>
        <time>2016-06-25T12:49:32.000Z</time>
      </trkpt>
      <trkpt lat="44.93347" lon="5.17116">
        <ele>805.0849609375</ele>
        <time>2016-06-25T12:49:35.000Z</time>
      </trkpt>
      <trkpt lat="44.93329" lon="5.17114">
        <ele>804.09014892578</ele>
        <time>2016-06-25T12:49:39.000Z</time>
      </trkpt>
      <trkpt lat="44.9332" lon="5.17115">
        <ele>802.57684326172</ele>
        <time>2016-06-25T12:49:41.000Z</time>
      </trkpt>
      <trkpt lat="44.93312" lon="5.17115">
        <ele>800.62084960938</ele>
        <time>2016-06-25T12:49:43.000Z</time>
      </trkpt>
      <trkpt lat="44.93301" lon="5.17117">
        <ele>798.2265625</ele>
        <time>2016-06-25T12:49:46.000Z</time>
      </trkpt>
      <trkpt lat="44.93297" lon="5.17125">
        <ele>796.24011230469</ele>
        <time>2016-06-25T12:49:49.000Z</time>
      </trkpt>
      <trkpt lat="44.93295" lon="5.17135">
        <ele>795.60137939453</ele>
        <time>2016-06-25T12:49:52.000Z</time>
      </trkpt>
      <trkpt lat="44.93293" lon="5.17141">
        <ele>795.77551269531</ele>
        <time>2016-06-25T12:49:54.000Z</time>
      </trkpt>
      <trkpt lat="44.93288" lon="5.17151">
        <ele>796.8076171875</ele>
        <time>2016-06-25T12:49:57.000Z</time>
      </trkpt>
      <trkpt lat="44.93285" lon="5.17161">
        <ele>798.81317138672</ele>
        <time>2016-06-25T12:50:00.000Z</time>
      </trkpt>
      <trkpt lat="44.93282" lon="5.17167">
        <ele>800.69030761719</ele>
        <time>2016-06-25T12:50:02.000Z</time>
      </trkpt>
      <trkpt lat="44.93275" lon="5.17174">
        <ele>801.92864990234</ele>
        <time>2016-06-25T12:50:05.000Z</time>
      </trkpt>
      <trkpt lat="44.9327" lon="5.17182">
        <ele>802.94732666016</ele>
        <time>2016-06-25T12:50:08.000Z</time>
      </trkpt>
      <trkpt lat="44.93267" lon="5.17189">
        <ele>803.64691162109</ele>
        <time>2016-06-25T12:50:10.000Z</time>
      </trkpt>
      <trkpt lat="44.93264" lon="5.17199">
        <ele>804.10632324219</ele>
        <time>2016-06-25T12:50:13.000Z</time>
      </trkpt>
      <trkpt lat="44.93262" lon="5.1721">
        <ele>804.75769042969</ele>
        <time>2016-06-25T12:50:16.000Z</time>
      </trkpt>
      <trkpt lat="44.93259" lon="5.17217">
        <ele>805.55841064453</ele>
        <time>2016-06-25T12:50:19.000Z</time>
      </trkpt>
      <trkpt lat="44.9325" lon="5.17224">
        <ele>806.07897949219</ele>
        <time>2016-06-25T12:50:22.000Z</time>
      </trkpt>
      <trkpt lat="44.93238" lon="5.17231">
        <ele>805.78094482422</ele>
        <time>2016-06-25T12:50:25.000Z</time>
      </trkpt>
      <trkpt lat="44.93237" lon="5.17237">
        <ele>805.32550048828</ele>
        <time>2016-06-25T12:50:27.000Z</time>
      </trkpt>
      <trkpt lat="44.93234" lon="5.17247">
        <ele>804.73742675781</ele>
        <time>2016-06-25T12:50:30.000Z</time>
      </trkpt>
      <trkpt lat="44.93235" lon="5.17256">
        <ele>804.45251464844</ele>
        <time>2016-06-25T12:50:32.000Z</time>
      </trkpt>
      <trkpt lat="44.93237" lon="5.17266">
        <ele>804.90704345703</ele>
        <time>2016-06-25T12:50:34.000Z</time>
      </trkpt>
      <trkpt lat="44.93237" lon="5.17275">
        <ele>806.41168212891</ele>
        <time>2016-06-25T12:50:37.000Z</time>
      </trkpt>
      <trkpt lat="44.93237" lon="5.17282">
        <ele>808.07196044922</ele>
        <time>2016-06-25T12:50:39.000Z</time>
      </trkpt>
      <trkpt lat="44.93235" lon="5.17295">
        <ele>809.78137207031</ele>
        <time>2016-06-25T12:50:42.000Z</time>
      </trkpt>
      <trkpt lat="44.9323" lon="5.17305">
        <ele>811.19000244141</ele>
        <time>2016-06-25T12:50:45.000Z</time>
      </trkpt>
      <trkpt lat="44.93229" lon="5.17312">
        <ele>812.23883056641</ele>
        <time>2016-06-25T12:50:47.000Z</time>
      </trkpt>
      <trkpt lat="44.93223" lon="5.17324">
        <ele>813.07922363281</ele>
        <time>2016-06-25T12:50:50.000Z</time>
      </trkpt>
      <trkpt lat="44.93217" lon="5.17337">
        <ele>813.88116455078</ele>
        <time>2016-06-25T12:50:53.000Z</time>
      </trkpt>
      <trkpt lat="44.93215" lon="5.17349">
        <ele>814.73864746094</ele>
        <time>2016-06-25T12:50:56.000Z</time>
      </trkpt>
      <trkpt lat="44.93215" lon="5.17361">
        <ele>815.95196533203</ele>
        <time>2016-06-25T12:50:59.000Z</time>
      </trkpt>
      <trkpt lat="44.93213" lon="5.17368">
        <ele>817.15643310547</ele>
        <time>2016-06-25T12:51:01.000Z</time>
      </trkpt>
      <trkpt lat="44.93208" lon="5.17373">
        <ele>818.28741455078</ele>
        <time>2016-06-25T12:51:03.000Z</time>
      </trkpt>
      <trkpt lat="44.93202" lon="5.17377">
        <ele>819.20526123047</ele>
        <time>2016-06-25T12:51:05.000Z</time>
      </trkpt>
      <trkpt lat="44.93196" lon="5.17383">
        <ele>819.85302734375</ele>
        <time>2016-06-25T12:51:08.000Z</time>
      </trkpt>
      <trkpt lat="44.93191" lon="5.17384">
        <ele>819.95080566406</ele>
        <time>2016-06-25T12:51:11.000Z</time>
      </trkpt>
      <trkpt lat="44.93185" lon="5.17385">
        <ele>819.76336669922</ele>
        <time>2016-06-25T12:51:14.000Z</time>
      </trkpt>
      <trkpt lat="44.9318" lon="5.17387">
        <ele>819.51086425781</ele>
        <time>2016-06-25T12:51:16.000Z</time>
      </trkpt>
      <trkpt lat="44.9317" lon="5.17391">
        <ele>819.19738769531</ele>
        <time>2016-06-25T12:51:19.000Z</time>
      </trkpt>
      <trkpt lat="44.93158" lon="5.17397">
        <ele>818.71765136719</ele>
        <time>2016-06-25T12:51:22.000Z</time>
      </trkpt>
      <trkpt lat="44.9315" lon="5.17403">
        <ele>818.28869628906</ele>
        <time>2016-06-25T12:51:25.000Z</time>
      </trkpt>
      <trkpt lat="44.93143" lon="5.1741">
        <ele>818.02917480469</ele>
        <time>2016-06-25T12:51:28.000Z</time>
      </trkpt>
      <trkpt lat="44.93138" lon="5.17413">
        <ele>817.7978515625</ele>
        <time>2016-06-25T12:51:30.000Z</time>
      </trkpt>
      <trkpt lat="44.93134" lon="5.1742">
        <ele>817.71124267578</ele>
        <time>2016-06-25T12:51:33.000Z</time>
      </trkpt>
      <trkpt lat="44.93129" lon="5.1743">
        <ele>817.82897949219</ele>
        <time>2016-06-25T12:51:36.000Z</time>
      </trkpt>
      <trkpt lat="44.93127" lon="5.17437">
        <ele>818.111328125</ele>
        <time>2016-06-25T12:51:38.000Z</time>
      </trkpt>
      <trkpt lat="44.93125" lon="5.17444">
        <ele>818.53607177734</ele>
        <time>2016-06-25T12:51:40.000Z</time>
      </trkpt>
      <trkpt lat="44.93123" lon="5.17455">
        <ele>819.27001953125</ele>
        <time>2016-06-25T12:51:43.000Z</time>
      </trkpt>
      <trkpt lat="44.93121" lon="5.17463">
        <ele>820.08435058594</ele>
        <time>2016-06-25T12:51:45.000Z</time>
      </trkpt>
      <trkpt lat="44.93117" lon="5.17472">
        <ele>820.95959472656</ele>
        <time>2016-06-25T12:51:48.000Z</time>
      </trkpt>
      <trkpt lat="44.93115" lon="5.17477">
        <ele>821.8369140625</ele>
        <time>2016-06-25T12:51:50.000Z</time>
      </trkpt>
      <trkpt lat="44.9311" lon="5.17486">
        <ele>822.71569824219</ele>
        <time>2016-06-25T12:51:53.000Z</time>
      </trkpt>
      <trkpt lat="44.93108" lon="5.17492">
        <ele>823.41522216797</ele>
        <time>2016-06-25T12:51:55.000Z</time>
      </trkpt>
      <trkpt lat="44.93105" lon="5.17499">
        <ele>824.12023925781</ele>
        <time>2016-06-25T12:51:57.000Z</time>
      </trkpt>
      <trkpt lat="44.93099" lon="5.17508">
        <ele>824.66094970703</ele>
        <time>2016-06-25T12:52:00.000Z</time>
      </trkpt>
      <trkpt lat="44.93096" lon="5.17514">
        <ele>825.09655761719</ele>
        <time>2016-06-25T12:52:02.000Z</time>
      </trkpt>
      <trkpt lat="44.93092" lon="5.17519">
        <ele>825.35412597656</ele>
        <time>2016-06-25T12:52:04.000Z</time>
      </trkpt>
      <trkpt lat="44.93087" lon="5.17523">
        <ele>825.48828125</ele>
        <time>2016-06-25T12:52:06.000Z</time>
      </trkpt>
      <trkpt lat="44.93081" lon="5.17531">
        <ele>825.51013183594</ele>
        <time>2016-06-25T12:52:09.000Z</time>
      </trkpt>
      <trkpt lat="44.93074" lon="5.17541">
        <ele>825.59375</ele>
        <time>2016-06-25T12:52:12.000Z</time>
      </trkpt>
      <trkpt lat="44.93064" lon="5.1755">
        <ele>825.71813964844</ele>
        <time>2016-06-25T12:52:15.000Z</time>
      </trkpt>
      <trkpt lat="44.93059" lon="5.17557">
        <ele>825.93829345703</ele>
        <time>2016-06-25T12:52:17.000Z</time>
      </trkpt>
      <trkpt lat="44.93053" lon="5.17565">
        <ele>826.33544921875</ele>
        <time>2016-06-25T12:52:20.000Z</time>
      </trkpt>
      <trkpt lat="44.93044" lon="5.17571">
        <ele>826.77520751953</ele>
        <time>2016-06-25T12:52:23.000Z</time>
      </trkpt>
      <trkpt lat="44.93039" lon="5.17574">
        <ele>827.23596191406</ele>
        <time>2016-06-25T12:52:25.000Z</time>
      </trkpt>
      <trkpt lat="44.93034" lon="5.17577">
        <ele>827.73614501953</ele>
        <time>2016-06-25T12:52:27.000Z</time>
      </trkpt>
      <trkpt lat="44.93026" lon="5.17581">
        <ele>828.27770996094</ele>
        <time>2016-06-25T12:52:30.000Z</time>
      </trkpt>
      <trkpt lat="44.93018" lon="5.17587">
        <ele>828.82293701172</ele>
        <time>2016-06-25T12:52:33.000Z</time>
      </trkpt>
      <trkpt lat="44.93009" lon="5.17595">
        <ele>829.69763183594</ele>
        <time>2016-06-25T12:52:36.000Z</time>
      </trkpt>
      <trkpt lat="44.93004" lon="5.17598">
        <ele>830.69024658203</ele>
        <time>2016-06-25T12:52:38.000Z</time>
      </trkpt>
      <trkpt lat="44.93" lon="5.17601">
        <ele>831.76385498047</ele>
        <time>2016-06-25T12:52:40.000Z</time>
      </trkpt>
      <trkpt lat="44.92992" lon="5.17604">
        <ele>832.7841796875</ele>
        <time>2016-06-25T12:52:43.000Z</time>
      </trkpt>
      <trkpt lat="44.92989" lon="5.17605">
        <ele>833.59265136719</ele>
        <time>2016-06-25T12:52:45.000Z</time>
      </trkpt>
      <trkpt lat="44.92982" lon="5.17608">
        <ele>834.02655029297</ele>
        <time>2016-06-25T12:52:48.000Z</time>
      </trkpt>
      <trkpt lat="44.92976" lon="5.17611">
        <ele>834.32336425781</ele>
        <time>2016-06-25T12:52:51.000Z</time>
      </trkpt>
      <trkpt lat="44.9297" lon="5.1761">
        <ele>834.30114746094</ele>
        <time>2016-06-25T12:52:53.000Z</time>
      </trkpt>
      <trkpt lat="44.92964" lon="5.17606">
        <ele>833.90313720703</ele>
        <time>2016-06-25T12:52:55.000Z</time>
      </trkpt>
      <trkpt lat="44.92958" lon="5.17603">
        <ele>833.21325683594</ele>
        <time>2016-06-25T12:52:57.000Z</time>
      </trkpt>
      <trkpt lat="44.92952" lon="5.17604">
        <ele>832.41583251953</ele>
        <time>2016-06-25T12:52:59.000Z</time>
      </trkpt>
      <trkpt lat="44.92947" lon="5.17608">
        <ele>831.76544189453</ele>
        <time>2016-06-25T12:53:02.000Z</time>
      </trkpt>
      <trkpt lat="44.92941" lon="5.17615">
        <ele>831.64044189453</ele>
        <time>2016-06-25T12:53:04.000Z</time>
      </trkpt>
      <trkpt lat="44.92936" lon="5.17618">
        <ele>831.91961669922</ele>
        <time>2016-06-25T12:53:06.000Z</time>
      </trkpt>
      <trkpt lat="44.92932" lon="5.17618">
        <ele>832.46008300781</ele>
        <time>2016-06-25T12:53:08.000Z</time>
      </trkpt>
      <trkpt lat="44.92925" lon="5.17621">
        <ele>833.10565185547</ele>
        <time>2016-06-25T12:53:11.000Z</time>
      </trkpt>
      <trkpt lat="44.92921" lon="5.17621">
        <ele>833.53839111328</ele>
        <time>2016-06-25T12:53:13.000Z</time>
      </trkpt>
      <trkpt lat="44.92914" lon="5.17624">
        <ele>833.65997314453</ele>
        <time>2016-06-25T12:53:16.000Z</time>
      </trkpt>
      <trkpt lat="44.92905" lon="5.17633">
        <ele>834.26043701172</ele>
        <time>2016-06-25T12:53:19.000Z</time>
      </trkpt>
      <trkpt lat="44.92898" lon="5.17639">
        <ele>835.26043701172</ele>
        <time>2016-06-25T12:53:21.000Z</time>
      </trkpt>
      <trkpt lat="44.92889" lon="5.17642">
        <ele>836.32531738281</ele>
        <time>2016-06-25T12:53:24.000Z</time>
      </trkpt>
      <trkpt lat="44.92884" lon="5.17645">
        <ele>837.54364013672</ele>
        <time>2016-06-25T12:53:26.000Z</time>
      </trkpt>
      <trkpt lat="44.9288" lon="5.17647">
        <ele>838.80163574219</ele>
        <time>2016-06-25T12:53:28.000Z</time>
      </trkpt>
      <trkpt lat="44.92875" lon="5.17648">
        <ele>839.45916748047</ele>
        <time>2016-06-25T12:53:30.000Z</time>
      </trkpt>
      <trkpt lat="44.92868" lon="5.17651">
        <ele>839.86437988281</ele>
        <time>2016-06-25T12:53:33.000Z</time>
      </trkpt>
      <trkpt lat="44.92862" lon="5.17653">
        <ele>840.25061035156</ele>
        <time>2016-06-25T12:53:35.000Z</time>
      </trkpt>
      <trkpt lat="44.92856" lon="5.17657">
        <ele>840.63165283203</ele>
        <time>2016-06-25T12:53:38.000Z</time>
      </trkpt>
      <trkpt lat="44.92854" lon="5.17661">
        <ele>841.13562011719</ele>
        <time>2016-06-25T12:53:40.000Z</time>
      </trkpt>
      <trkpt lat="44.92852" lon="5.17665">
        <ele>841.91876220703</ele>
        <time>2016-06-25T12:53:42.000Z</time>
      </trkpt>
      <trkpt lat="44.92847" lon="5.17672">
        <ele>842.96697998047</ele>
        <time>2016-06-25T12:53:45.000Z</time>
      </trkpt>
      <trkpt lat="44.92833" lon="5.17679">
        <ele>844.09020996094</ele>
        <time>2016-06-25T12:53:48.000Z</time>
      </trkpt>
      <trkpt lat="44.92828" lon="5.17677">
        <ele>844.64013671875</ele>
        <time>2016-06-25T12:53:50.000Z</time>
      </trkpt>
      <trkpt lat="44.92822" lon="5.17677">
        <ele>844.62255859375</ele>
        <time>2016-06-25T12:53:52.000Z</time>
      </trkpt>
      <trkpt lat="44.92816" lon="5.17681">
        <ele>844.16632080078</ele>
        <time>2016-06-25T12:53:55.000Z</time>
      </trkpt>
      <trkpt lat="44.92809" lon="5.17689">
        <ele>843.29736328125</ele>
        <time>2016-06-25T12:53:58.000Z</time>
      </trkpt>
      <trkpt lat="44.92804" lon="5.17699">
        <ele>842.49041748047</ele>
        <time>2016-06-25T12:54:01.000Z</time>
      </trkpt>
      <trkpt lat="44.92803" lon="5.1771">
        <ele>842.537109375</ele>
        <time>2016-06-25T12:54:03.000Z</time>
      </trkpt>
      <trkpt lat="44.92803" lon="5.17724">
        <ele>843.63592529297</ele>
        <time>2016-06-25T12:54:06.000Z</time>
      </trkpt>
      <trkpt lat="44.92801" lon="5.1773">
        <ele>845.05627441406</ele>
        <time>2016-06-25T12:54:08.000Z</time>
      </trkpt>
      <trkpt lat="44.92795" lon="5.1774">
        <ele>846.49206542969</ele>
        <time>2016-06-25T12:54:11.000Z</time>
      </trkpt>
      <trkpt lat="44.92796" lon="5.17747">
        <ele>848.11462402344</ele>
        <time>2016-06-25T12:54:13.000Z</time>
      </trkpt>
      <trkpt lat="44.92799" lon="5.17752">
        <ele>849.82305908203</ele>
        <time>2016-06-25T12:54:15.000Z</time>
      </trkpt>
      <trkpt lat="44.92805" lon="5.17763">
        <ele>851.85986328125</ele>
        <time>2016-06-25T12:54:18.000Z</time>
      </trkpt>
      <trkpt lat="44.92807" lon="5.17768">
        <ele>854.13543701172</ele>
        <time>2016-06-25T12:54:20.000Z</time>
      </trkpt>
      <trkpt lat="44.9281" lon="5.17782">
        <ele>857.23767089844</ele>
        <time>2016-06-25T12:54:23.000Z</time>
      </trkpt>
      <trkpt lat="44.92809" lon="5.1779">
        <ele>860.21368408203</ele>
        <time>2016-06-25T12:54:25.000Z</time>
      </trkpt>
      <trkpt lat="44.92806" lon="5.17799">
        <ele>862.81298828125</ele>
        <time>2016-06-25T12:54:28.000Z</time>
      </trkpt>
      <trkpt lat="44.92804" lon="5.17804">
        <ele>864.32940673828</ele>
        <time>2016-06-25T12:54:30.000Z</time>
      </trkpt>
      <trkpt lat="44.928" lon="5.17808">
        <ele>865.3232421875</ele>
        <time>2016-06-25T12:54:32.000Z</time>
      </trkpt>
      <trkpt lat="44.92794" lon="5.17816">
        <ele>865.25646972656</ele>
        <time>2016-06-25T12:54:35.000Z</time>
      </trkpt>
      <trkpt lat="44.9279" lon="5.17823">
        <ele>864.78723144531</ele>
        <time>2016-06-25T12:54:37.000Z</time>
      </trkpt>
      <trkpt lat="44.92787" lon="5.17836">
        <ele>864.36212158203</ele>
        <time>2016-06-25T12:54:40.000Z</time>
      </trkpt>
      <trkpt lat="44.92783" lon="5.17851">
        <ele>863.99645996094</ele>
        <time>2016-06-25T12:54:43.000Z</time>
      </trkpt>
      <trkpt lat="44.92781" lon="5.1786">
        <ele>863.84240722656</ele>
        <time>2016-06-25T12:54:45.000Z</time>
      </trkpt>
      <trkpt lat="44.92779" lon="5.17866">
        <ele>863.85314941406</ele>
        <time>2016-06-25T12:54:47.000Z</time>
      </trkpt>
      <trkpt lat="44.92778" lon="5.17878">
        <ele>864.17266845703</ele>
        <time>2016-06-25T12:54:50.000Z</time>
      </trkpt>
      <trkpt lat="44.92778" lon="5.17886">
        <ele>864.55096435547</ele>
        <time>2016-06-25T12:54:53.000Z</time>
      </trkpt>
      <trkpt lat="44.9278" lon="5.17895">
        <ele>865.2919921875</ele>
        <time>2016-06-25T12:54:56.000Z</time>
      </trkpt>
      <trkpt lat="44.92781" lon="5.17904">
        <ele>866.3125</ele>
        <time>2016-06-25T12:54:59.000Z</time>
      </trkpt>
      <trkpt lat="44.92779" lon="5.17914">
        <ele>867.49658203125</ele>
        <time>2016-06-25T12:55:02.000Z</time>
      </trkpt>
      <trkpt lat="44.92778" lon="5.17921">
        <ele>868.6015625</ele>
        <time>2016-06-25T12:55:04.000Z</time>
      </trkpt>
      <trkpt lat="44.92778" lon="5.17929">
        <ele>869.71252441406</ele>
        <time>2016-06-25T12:55:06.000Z</time>
      </trkpt>
      <trkpt lat="44.92776" lon="5.17938">
        <ele>870.58190917969</ele>
        <time>2016-06-25T12:55:09.000Z</time>
      </trkpt>
      <trkpt lat="44.92773" lon="5.17949">
        <ele>871.12518310547</ele>
        <time>2016-06-25T12:55:12.000Z</time>
      </trkpt>
      <trkpt lat="44.9277" lon="5.17956">
        <ele>871.59484863281</ele>
        <time>2016-06-25T12:55:14.000Z</time>
      </trkpt>
      <trkpt lat="44.92767" lon="5.1796">
        <ele>871.8623046875</ele>
        <time>2016-06-25T12:55:16.000Z</time>
      </trkpt>
      <trkpt lat="44.92763" lon="5.17968">
        <ele>871.82177734375</ele>
        <time>2016-06-25T12:55:19.000Z</time>
      </trkpt>
      <trkpt lat="44.92758" lon="5.17978">
        <ele>871.673828125</ele>
        <time>2016-06-25T12:55:22.000Z</time>
      </trkpt>
      <trkpt lat="44.92755" lon="5.17985">
        <ele>871.53887939453</ele>
        <time>2016-06-25T12:55:24.000Z</time>
      </trkpt>
      <trkpt lat="44.92751" lon="5.17993">
        <ele>871.53649902344</ele>
        <time>2016-06-25T12:55:27.000Z</time>
      </trkpt>
      <trkpt lat="44.92749" lon="5.17997">
        <ele>871.67547607422</ele>
        <time>2016-06-25T12:55:29.000Z</time>
      </trkpt>
      <trkpt lat="44.92745" lon="5.18005">
        <ele>871.92333984375</ele>
        <time>2016-06-25T12:55:32.000Z</time>
      </trkpt>
      <trkpt lat="44.92741" lon="5.18016">
        <ele>872.33544921875</ele>
        <time>2016-06-25T12:55:35.000Z</time>
      </trkpt>
      <trkpt lat="44.92737" lon="5.18027">
        <ele>872.92199707031</ele>
        <time>2016-06-25T12:55:38.000Z</time>
      </trkpt>
      <trkpt lat="44.92732" lon="5.18038">
        <ele>873.57745361328</ele>
        <time>2016-06-25T12:55:41.000Z</time>
      </trkpt>
      <trkpt lat="44.92731" lon="5.18046">
        <ele>874.45233154297</ele>
        <time>2016-06-25T12:55:43.000Z</time>
      </trkpt>
      <trkpt lat="44.92731" lon="5.18053">
        <ele>875.52862548828</ele>
        <time>2016-06-25T12:55:45.000Z</time>
      </trkpt>
      <trkpt lat="44.92726" lon="5.18063">
        <ele>876.57781982422</ele>
        <time>2016-06-25T12:55:48.000Z</time>
      </trkpt>
      <trkpt lat="44.92723" lon="5.1807">
        <ele>877.51708984375</ele>
        <time>2016-06-25T12:55:50.000Z</time>
      </trkpt>
      <trkpt lat="44.92717" lon="5.18081">
        <ele>878.44366455078</ele>
        <time>2016-06-25T12:55:53.000Z</time>
      </trkpt>
      <trkpt lat="44.92714" lon="5.18088">
        <ele>879.29766845703</ele>
        <time>2016-06-25T12:55:55.000Z</time>
      </trkpt>
      <trkpt lat="44.92709" lon="5.18098">
        <ele>880.31072998047</ele>
        <time>2016-06-25T12:55:58.000Z</time>
      </trkpt>
      <trkpt lat="44.92704" lon="5.18103">
        <ele>881.26580810547</ele>
        <time>2016-06-25T12:56:00.000Z</time>
      </trkpt>
      <trkpt lat="44.927" lon="5.18108">
        <ele>882.25354003906</ele>
        <time>2016-06-25T12:56:02.000Z</time>
      </trkpt>
      <trkpt lat="44.92688" lon="5.18109">
        <ele>882.67541503906</ele>
        <time>2016-06-25T12:56:05.000Z</time>
      </trkpt>
      <trkpt lat="44.92675" lon="5.18103">
        <ele>881.99688720703</ele>
        <time>2016-06-25T12:56:08.000Z</time>
      </trkpt>
      <trkpt lat="44.92664" lon="5.18096">
        <ele>880.23864746094</ele>
        <time>2016-06-25T12:56:11.000Z</time>
      </trkpt>
      <trkpt lat="44.92658" lon="5.18093">
        <ele>878.3701171875</ele>
        <time>2016-06-25T12:56:13.000Z</time>
      </trkpt>
      <trkpt lat="44.92651" lon="5.18089">
        <ele>876.41259765625</ele>
        <time>2016-06-25T12:56:15.000Z</time>
      </trkpt>
      <trkpt lat="44.9264" lon="5.18084">
        <ele>874.90264892578</ele>
        <time>2016-06-25T12:56:18.000Z</time>
      </trkpt>
      <trkpt lat="44.9263" lon="5.18082">
        <ele>874.53094482422</ele>
        <time>2016-06-25T12:56:21.000Z</time>
      </trkpt>
      <trkpt lat="44.92622" lon="5.18082">
        <ele>875.15069580078</ele>
        <time>2016-06-25T12:56:23.000Z</time>
      </trkpt>
      <trkpt lat="44.92614" lon="5.18081">
        <ele>876.03106689453</ele>
        <time>2016-06-25T12:56:26.000Z</time>
      </trkpt>
      <trkpt lat="44.92608" lon="5.18081">
        <ele>877.091796875</ele>
        <time>2016-06-25T12:56:29.000Z</time>
      </trkpt>
      <trkpt lat="44.92604" lon="5.18082">
        <ele>878.3203125</ele>
        <time>2016-06-25T12:56:31.000Z</time>
      </trkpt>
      <trkpt lat="44.92601" lon="5.18086">
        <ele>879.68444824219</ele>
        <time>2016-06-25T12:56:33.000Z</time>
      </trkpt>
      <trkpt lat="44.92596" lon="5.18086">
        <ele>880.94396972656</ele>
        <time>2016-06-25T12:56:35.000Z</time>
      </trkpt>
      <trkpt lat="44.9259" lon="5.18085">
        <ele>882.14685058594</ele>
        <time>2016-06-25T12:56:38.000Z</time>
      </trkpt>
      <trkpt lat="44.92584" lon="5.18083">
        <ele>883.19641113281</ele>
        <time>2016-06-25T12:56:40.000Z</time>
      </trkpt>
      <trkpt lat="44.92578" lon="5.18079">
        <ele>884.01239013672</ele>
        <time>2016-06-25T12:56:42.000Z</time>
      </trkpt>
      <trkpt lat="44.92572" lon="5.18071">
        <ele>884.13415527344</ele>
        <time>2016-06-25T12:56:45.000Z</time>
      </trkpt>
      <trkpt lat="44.9257" lon="5.18061">
        <ele>883.56506347656</ele>
        <time>2016-06-25T12:56:47.000Z</time>
      </trkpt>
      <trkpt lat="44.92568" lon="5.18051">
        <ele>882.22692871094</ele>
        <time>2016-06-25T12:56:49.000Z</time>
      </trkpt>
      <trkpt lat="44.92565" lon="5.18042">
        <ele>880.39465332031</ele>
        <time>2016-06-25T12:56:51.000Z</time>
      </trkpt>
      <trkpt lat="44.9256" lon="5.18036">
        <ele>878.37969970703</ele>
        <time>2016-06-25T12:56:53.000Z</time>
      </trkpt>
      <trkpt lat="44.92549" lon="5.18034">
        <ele>876.7919921875</ele>
        <time>2016-06-25T12:56:56.000Z</time>
      </trkpt>
      <trkpt lat="44.9254" lon="5.18037">
        <ele>876.15380859375</ele>
        <time>2016-06-25T12:56:58.000Z</time>
      </trkpt>
      <trkpt lat="44.9253" lon="5.18041">
        <ele>876.61358642578</ele>
        <time>2016-06-25T12:57:01.000Z</time>
      </trkpt>
      <trkpt lat="44.92524" lon="5.18043">
        <ele>877.80242919922</ele>
        <time>2016-06-25T12:57:03.000Z</time>
      </trkpt>
      <trkpt lat="44.92517" lon="5.18047">
        <ele>879.69500732422</ele>
        <time>2016-06-25T12:57:06.000Z</time>
      </trkpt>
      <trkpt lat="44.92513" lon="5.18051">
        <ele>881.81524658203</ele>
        <time>2016-06-25T12:57:08.000Z</time>
      </trkpt>
      <trkpt lat="44.92508" lon="5.18058">
        <ele>884.13708496094</ele>
        <time>2016-06-25T12:57:11.000Z</time>
      </trkpt>
      <trkpt lat="44.92505" lon="5.18066">
        <ele>886.56170654297</ele>
        <time>2016-06-25T12:57:14.000Z</time>
      </trkpt>
      <trkpt lat="44.92506" lon="5.18069">
        <ele>888.83123779297</ele>
        <time>2016-06-25T12:57:16.000Z</time>
      </trkpt>
      <trkpt lat="44.92501" lon="5.18068">
        <ele>890.71618652344</ele>
        <time>2016-06-25T12:57:19.000Z</time>
      </trkpt>
      <trkpt lat="44.92499" lon="5.18068">
        <ele>892.27966308594</ele>
        <time>2016-06-25T12:57:21.000Z</time>
      </trkpt>
      <trkpt lat="44.9248" lon="5.1807">
        <ele>893.41857910156</ele>
        <time>2016-06-25T12:57:25.000Z</time>
      </trkpt>
      <trkpt lat="44.92474" lon="5.18071">
        <ele>894.04949951172</ele>
        <time>2016-06-25T12:57:27.000Z</time>
      </trkpt>
      <trkpt lat="44.92466" lon="5.18077">
        <ele>894.95770263672</ele>
        <time>2016-06-25T12:57:29.000Z</time>
      </trkpt>
      <trkpt lat="44.92455" lon="5.18083">
        <ele>896.23321533203</ele>
        <time>2016-06-25T12:57:32.000Z</time>
      </trkpt>
      <trkpt lat="44.92444" lon="5.18086">
        <ele>897.7890625</ele>
        <time>2016-06-25T12:57:35.000Z</time>
      </trkpt>
      <trkpt lat="44.92435" lon="5.18089">
        <ele>899.33709716797</ele>
        <time>2016-06-25T12:57:38.000Z</time>
      </trkpt>
      <trkpt lat="44.92426" lon="5.18092">
        <ele>901.07043457031</ele>
        <time>2016-06-25T12:57:41.000Z</time>
      </trkpt>
      <trkpt lat="44.9242" lon="5.18097">
        <ele>902.78826904297</ele>
        <time>2016-06-25T12:57:44.000Z</time>
      </trkpt>
      <trkpt lat="44.92416" lon="5.18102">
        <ele>904.48718261719</ele>
        <time>2016-06-25T12:57:46.000Z</time>
      </trkpt>
      <trkpt lat="44.9241" lon="5.18104">
        <ele>906.10314941406</ele>
        <time>2016-06-25T12:57:48.000Z</time>
      </trkpt>
      <trkpt lat="44.92402" lon="5.18104">
        <ele>907.52069091797</ele>
        <time>2016-06-25T12:57:51.000Z</time>
      </trkpt>
      <trkpt lat="44.92395" lon="5.181">
        <ele>908.42938232422</ele>
        <time>2016-06-25T12:57:54.000Z</time>
      </trkpt>
      <trkpt lat="44.92389" lon="5.18099">
        <ele>908.92761230469</ele>
        <time>2016-06-25T12:57:56.000Z</time>
      </trkpt>
      <trkpt lat="44.92381" lon="5.18103">
        <ele>909.37908935547</ele>
        <time>2016-06-25T12:57:59.000Z</time>
      </trkpt>
      <trkpt lat="44.92375" lon="5.18106">
        <ele>909.93688964844</ele>
        <time>2016-06-25T12:58:01.000Z</time>
      </trkpt>
      <trkpt lat="44.92368" lon="5.18107">
        <ele>910.58410644531</ele>
        <time>2016-06-25T12:58:03.000Z</time>
      </trkpt>
      <trkpt lat="44.92361" lon="5.18107">
        <ele>911.52331542969</ele>
        <time>2016-06-25T12:58:05.000Z</time>
      </trkpt>
      <trkpt lat="44.92351" lon="5.18109">
        <ele>912.72326660156</ele>
        <time>2016-06-25T12:58:08.000Z</time>
      </trkpt>
      <trkpt lat="44.92343" lon="5.1811">
        <ele>913.68670654297</ele>
        <time>2016-06-25T12:58:11.000Z</time>
      </trkpt>
      <trkpt lat="44.92338" lon="5.18111">
        <ele>914.44299316406</ele>
        <time>2016-06-25T12:58:13.000Z</time>
      </trkpt>
      <trkpt lat="44.92331" lon="5.1811">
        <ele>915.12579345703</ele>
        <time>2016-06-25T12:58:16.000Z</time>
      </trkpt>
      <trkpt lat="44.92326" lon="5.1811">
        <ele>915.78125</ele>
        <time>2016-06-25T12:58:18.000Z</time>
      </trkpt>
      <trkpt lat="44.9232" lon="5.18109">
        <ele>916.16162109375</ele>
        <time>2016-06-25T12:58:21.000Z</time>
      </trkpt>
      <trkpt lat="44.92315" lon="5.18107">
        <ele>916.33380126953</ele>
        <time>2016-06-25T12:58:23.000Z</time>
      </trkpt>
      <trkpt lat="44.92306" lon="5.18105">
        <ele>916.36151123047</ele>
        <time>2016-06-25T12:58:26.000Z</time>
      </trkpt>
      <trkpt lat="44.92301" lon="5.18104">
        <ele>916.37145996094</ele>
        <time>2016-06-25T12:58:28.000Z</time>
      </trkpt>
      <trkpt lat="44.92297" lon="5.18103">
        <ele>916.28582763672</ele>
        <time>2016-06-25T12:58:30.000Z</time>
      </trkpt>
      <trkpt lat="44.92289" lon="5.18101">
        <ele>916.19061279297</ele>
        <time>2016-06-25T12:58:33.000Z</time>
      </trkpt>
      <trkpt lat="44.92283" lon="5.18101">
        <ele>916.23126220703</ele>
        <time>2016-06-25T12:58:35.000Z</time>
      </trkpt>
      <trkpt lat="44.92275" lon="5.18102">
        <ele>916.45001220703</ele>
        <time>2016-06-25T12:58:38.000Z</time>
      </trkpt>
      <trkpt lat="44.92269" lon="5.18103">
        <ele>916.82196044922</ele>
        <time>2016-06-25T12:58:40.000Z</time>
      </trkpt>
      <trkpt lat="44.9226" lon="5.18102">
        <ele>917.3369140625</ele>
        <time>2016-06-25T12:58:43.000Z</time>
      </trkpt>
      <trkpt lat="44.92255" lon="5.18102">
        <ele>917.91845703125</ele>
        <time>2016-06-25T12:58:45.000Z</time>
      </trkpt>
      <trkpt lat="44.92252" lon="5.18101">
        <ele>918.35369873047</ele>
        <time>2016-06-25T12:58:48.000Z</time>
      </trkpt>
      <trkpt lat="44.92254" lon="5.181">
        <ele>918.52795410156</ele>
        <time>2016-06-25T12:58:52.000Z</time>
      </trkpt>
      <trkpt lat="44.92264" lon="5.18095">
        <ele>918.00158691406</ele>
        <time>2016-06-25T12:58:55.000Z</time>
      </trkpt>
      <trkpt lat="44.92274" lon="5.18093">
        <ele>917.080078125</ele>
        <time>2016-06-25T12:58:58.000Z</time>
      </trkpt>
      <trkpt lat="44.92285" lon="5.18091">
        <ele>915.8193359375</ele>
        <time>2016-06-25T12:59:01.000Z</time>
      </trkpt>
      <trkpt lat="44.92293" lon="5.18096">
        <ele>914.82922363281</ele>
        <time>2016-06-25T12:59:04.000Z</time>
      </trkpt>
      <trkpt lat="44.92299" lon="5.18099">
        <ele>914.06512451172</ele>
        <time>2016-06-25T12:59:06.000Z</time>
      </trkpt>
      <trkpt lat="44.92305" lon="5.18099">
        <ele>913.80010986328</ele>
        <time>2016-06-25T12:59:08.000Z</time>
      </trkpt>
      <trkpt lat="44.92312" lon="5.18103">
        <ele>913.93975830078</ele>
        <time>2016-06-25T12:59:11.000Z</time>
      </trkpt>
      <trkpt lat="44.92317" lon="5.18106">
        <ele>914.52551269531</ele>
        <time>2016-06-25T12:59:13.000Z</time>
      </trkpt>
      <trkpt lat="44.92323" lon="5.1811">
        <ele>915.09558105469</ele>
        <time>2016-06-25T12:59:16.000Z</time>
      </trkpt>
      <trkpt lat="44.92327" lon="5.18112">
        <ele>915.63006591797</ele>
        <time>2016-06-25T12:59:18.000Z</time>
      </trkpt>
      <trkpt lat="44.92334" lon="5.18117">
        <ele>916.46649169922</ele>
        <time>2016-06-25T12:59:21.000Z</time>
      </trkpt>
      <trkpt lat="44.92341" lon="5.18124">
        <ele>917.65100097656</ele>
        <time>2016-06-25T12:59:24.000Z</time>
      </trkpt>
      <trkpt lat="44.92348" lon="5.18131">
        <ele>919.13464355469</ele>
        <time>2016-06-25T12:59:27.000Z</time>
      </trkpt>
      <trkpt lat="44.92353" lon="5.18135">
        <ele>920.62225341797</ele>
        <time>2016-06-25T12:59:29.000Z</time>
      </trkpt>
      <trkpt lat="44.92362" lon="5.18138">
        <ele>922.22106933594</ele>
        <time>2016-06-25T12:59:32.000Z</time>
      </trkpt>
      <trkpt lat="44.92369" lon="5.18141">
        <ele>923.66827392578</ele>
        <time>2016-06-25T12:59:35.000Z</time>
      </trkpt>
      <trkpt lat="44.92375" lon="5.18143">
        <ele>924.71325683594</ele>
        <time>2016-06-25T12:59:38.000Z</time>
      </trkpt>
      <trkpt lat="44.92381" lon="5.18142">
        <ele>925.17694091797</ele>
        <time>2016-06-25T12:59:41.000Z</time>
      </trkpt>
      <trkpt lat="44.92386" lon="5.18139">
        <ele>925.15887451172</ele>
        <time>2016-06-25T12:59:44.000Z</time>
      </trkpt>
      <trkpt lat="44.92392" lon="5.18135">
        <ele>924.61309814453</ele>
        <time>2016-06-25T12:59:47.000Z</time>
      </trkpt>
      <trkpt lat="44.92395" lon="5.18134">
        <ele>923.82891845703</ele>
        <time>2016-06-25T12:59:49.000Z</time>
      </trkpt>
      <trkpt lat="44.92401" lon="5.18132">
        <ele>922.75360107422</ele>
        <time>2016-06-25T12:59:52.000Z</time>
      </trkpt>
      <trkpt lat="44.92404" lon="5.1813">
        <ele>921.64709472656</ele>
        <time>2016-06-25T12:59:54.000Z</time>
      </trkpt>
      <trkpt lat="44.92407" lon="5.18129">
        <ele>920.65246582031</ele>
        <time>2016-06-25T12:59:56.000Z</time>
      </trkpt>
      <trkpt lat="44.92411" lon="5.18127">
        <ele>919.82354736328</ele>
        <time>2016-06-25T12:59:59.000Z</time>
      </trkpt>
      <trkpt lat="44.92416" lon="5.18126">
        <ele>918.98358154297</ele>
        <time>2016-06-25T13:00:02.000Z</time>
      </trkpt>
      <trkpt lat="44.9242" lon="5.18125">
        <ele>918.26483154297</ele>
        <time>2016-06-25T13:00:04.000Z</time>
      </trkpt>
      <trkpt lat="44.92428" lon="5.18124">
        <ele>917.53973388672</ele>
        <time>2016-06-25T13:00:07.000Z</time>
      </trkpt>
      <trkpt lat="44.92435" lon="5.18122">
        <ele>916.75915527344</ele>
        <time>2016-06-25T13:00:10.000Z</time>
      </trkpt>
      <trkpt lat="44.92443" lon="5.18121">
        <ele>915.99432373047</ele>
        <time>2016-06-25T13:00:13.000Z</time>
      </trkpt>
      <trkpt lat="44.92451" lon="5.1812">
        <ele>915.24542236328</ele>
        <time>2016-06-25T13:00:16.000Z</time>
      </trkpt>
      <trkpt lat="44.92456" lon="5.18121">
        <ele>914.65576171875</ele>
        <time>2016-06-25T13:00:18.000Z</time>
      </trkpt>
      <trkpt lat="44.9246" lon="5.18124">
        <ele>914.41094970703</ele>
        <time>2016-06-25T13:00:20.000Z</time>
      </trkpt>
      <trkpt lat="44.92467" lon="5.1813">
        <ele>914.76110839844</ele>
        <time>2016-06-25T13:00:23.000Z</time>
      </trkpt>
      <trkpt lat="44.92474" lon="5.18138">
        <ele>915.73278808594</ele>
        <time>2016-06-25T13:00:26.000Z</time>
      </trkpt>
      <trkpt lat="44.92482" lon="5.18149">
        <ele>917.50109863281</ele>
        <time>2016-06-25T13:00:29.000Z</time>
      </trkpt>
      <trkpt lat="44.92488" lon="5.18158">
        <ele>919.80615234375</ele>
        <time>2016-06-25T13:00:31.000Z</time>
      </trkpt>
      <trkpt lat="44.92498" lon="5.18172">
        <ele>922.81024169922</ele>
        <time>2016-06-25T13:00:34.000Z</time>
      </trkpt>
      <trkpt lat="44.92504" lon="5.18178">
        <ele>925.68249511719</ele>
        <time>2016-06-25T13:00:36.000Z</time>
      </trkpt>
      <trkpt lat="44.92511" lon="5.18181">
        <ele>928.08172607422</ele>
        <time>2016-06-25T13:00:38.000Z</time>
      </trkpt>
      <trkpt lat="44.92518" lon="5.18184">
        <ele>929.70458984375</ele>
        <time>2016-06-25T13:00:40.000Z</time>
      </trkpt>
      <trkpt lat="44.92527" lon="5.18193">
        <ele>931.05322265625</ele>
        <time>2016-06-25T13:00:43.000Z</time>
      </trkpt>
      <trkpt lat="44.92532" lon="5.18199">
        <ele>931.71417236328</ele>
        <time>2016-06-25T13:00:45.000Z</time>
      </trkpt>
      <trkpt lat="44.92536" lon="5.18205">
        <ele>932.33947753906</ele>
        <time>2016-06-25T13:00:48.000Z</time>
      </trkpt>
      <trkpt lat="44.92542" lon="5.18211">
        <ele>933.18634033203</ele>
        <time>2016-06-25T13:00:51.000Z</time>
      </trkpt>
      <trkpt lat="44.9255" lon="5.18223">
        <ele>934.54327392578</ele>
        <time>2016-06-25T13:00:54.000Z</time>
      </trkpt>
      <trkpt lat="44.92554" lon="5.18229">
        <ele>935.84729003906</ele>
        <time>2016-06-25T13:00:56.000Z</time>
      </trkpt>
      <trkpt lat="44.9256" lon="5.18238">
        <ele>937.27282714844</ele>
        <time>2016-06-25T13:00:59.000Z</time>
      </trkpt>
      <trkpt lat="44.92571" lon="5.18245">
        <ele>938.462890625</ele>
        <time>2016-06-25T13:01:02.000Z</time>
      </trkpt>
      <trkpt lat="44.92577" lon="5.18249">
        <ele>939.37872314453</ele>
        <time>2016-06-25T13:01:04.000Z</time>
      </trkpt>
      <trkpt lat="44.92583" lon="5.1825">
        <ele>939.70324707031</ele>
        <time>2016-06-25T13:01:06.000Z</time>
      </trkpt>
      <trkpt lat="44.9259" lon="5.18254">
        <ele>939.79797363281</ele>
        <time>2016-06-25T13:01:08.000Z</time>
      </trkpt>
      <trkpt lat="44.92597" lon="5.18258">
        <ele>939.64715576172</ele>
        <time>2016-06-25T13:01:11.000Z</time>
      </trkpt>
      <trkpt lat="44.92601" lon="5.18258">
        <ele>939.41442871094</ele>
        <time>2016-06-25T13:01:13.000Z</time>
      </trkpt>
      <trkpt lat="44.92607" lon="5.18257">
        <ele>939.00134277344</ele>
        <time>2016-06-25T13:01:16.000Z</time>
      </trkpt>
      <trkpt lat="44.92613" lon="5.18257">
        <ele>938.59729003906</ele>
        <time>2016-06-25T13:01:19.000Z</time>
      </trkpt>
      <trkpt lat="44.92617" lon="5.18259">
        <ele>938.18884277344</ele>
        <time>2016-06-25T13:01:21.000Z</time>
      </trkpt>
      <trkpt lat="44.92623" lon="5.18261">
        <ele>937.6982421875</ele>
        <time>2016-06-25T13:01:23.000Z</time>
      </trkpt>
      <trkpt lat="44.92628" lon="5.1826">
        <ele>937.10809326172</ele>
        <time>2016-06-25T13:01:26.000Z</time>
      </trkpt>
      <trkpt lat="44.92634" lon="5.1826">
        <ele>936.58068847656</ele>
        <time>2016-06-25T13:01:29.000Z</time>
      </trkpt>
      <trkpt lat="44.92637" lon="5.1826">
        <ele>936.12536621094</ele>
        <time>2016-06-25T13:01:31.000Z</time>
      </trkpt>
      <trkpt lat="44.92643" lon="5.18263">
        <ele>935.68811035156</ele>
        <time>2016-06-25T13:01:34.000Z</time>
      </trkpt>
      <trkpt lat="44.92653" lon="5.1827">
        <ele>935.40588378906</ele>
        <time>2016-06-25T13:01:37.000Z</time>
      </trkpt>
      <trkpt lat="44.92666" lon="5.18285">
        <ele>935.91296386719</ele>
        <time>2016-06-25T13:01:40.000Z</time>
      </trkpt>
      <trkpt lat="44.92681" lon="5.18303">
        <ele>937.31457519531</ele>
        <time>2016-06-25T13:01:43.000Z</time>
      </trkpt>
      <trkpt lat="44.92693" lon="5.1831">
        <ele>938.9013671875</ele>
        <time>2016-06-25T13:01:46.000Z</time>
      </trkpt>
      <trkpt lat="44.92703" lon="5.18312">
        <ele>940.32141113281</ele>
        <time>2016-06-25T13:01:49.000Z</time>
      </trkpt>
      <trkpt lat="44.9271" lon="5.18314">
        <ele>941.59130859375</ele>
        <time>2016-06-25T13:01:51.000Z</time>
      </trkpt>
      <trkpt lat="44.9272" lon="5.18318">
        <ele>942.20965576172</ele>
        <time>2016-06-25T13:01:54.000Z</time>
      </trkpt>
      <trkpt lat="44.92731" lon="5.18322">
        <ele>942.03924560547</ele>
        <time>2016-06-25T13:01:57.000Z</time>
      </trkpt>
      <trkpt lat="44.9274" lon="5.18323">
        <ele>941.61804199219</ele>
        <time>2016-06-25T13:02:00.000Z</time>
      </trkpt>
      <trkpt lat="44.92748" lon="5.18322">
        <ele>941.08917236328</ele>
        <time>2016-06-25T13:02:03.000Z</time>
      </trkpt>
      <trkpt lat="44.92752" lon="5.18323">
        <ele>940.38854980469</ele>
        <time>2016-06-25T13:02:05.000Z</time>
      </trkpt>
      <trkpt lat="44.92757" lon="5.18332">
        <ele>939.88555908203</ele>
        <time>2016-06-25T13:02:08.000Z</time>
      </trkpt>
      <trkpt lat="44.92746" lon="5.18338">
        <ele>940.33166503906</ele>
        <time>2016-06-25T13:02:11.000Z</time>
      </trkpt>
      <trkpt lat="44.92734" lon="5.18337">
        <ele>941.24133300781</ele>
        <time>2016-06-25T13:02:14.000Z</time>
      </trkpt>
      <trkpt lat="44.92727" lon="5.18338">
        <ele>942.60919189453</ele>
        <time>2016-06-25T13:02:17.000Z</time>
      </trkpt>
      <trkpt lat="44.92718" lon="5.18341">
        <ele>944.61688232422</ele>
        <time>2016-06-25T13:02:20.000Z</time>
      </trkpt>
      <trkpt lat="44.92712" lon="5.18343">
        <ele>946.81091308594</ele>
        <time>2016-06-25T13:02:22.000Z</time>
      </trkpt>
      <trkpt lat="44.92706" lon="5.18345">
        <ele>948.43194580078</ele>
        <time>2016-06-25T13:02:24.000Z</time>
      </trkpt>
      <trkpt lat="44.92696" lon="5.18344">
        <ele>949.99645996094</ele>
        <time>2016-06-25T13:02:27.000Z</time>
      </trkpt>
      <trkpt lat="44.92686" lon="5.18346">
        <ele>951.72332763672</ele>
        <time>2016-06-25T13:02:30.000Z</time>
      </trkpt>
      <trkpt lat="44.92677" lon="5.18348">
        <ele>953.42346191406</ele>
        <time>2016-06-25T13:02:33.000Z</time>
      </trkpt>
      <trkpt lat="44.92669" lon="5.18351">
        <ele>955.28625488281</ele>
        <time>2016-06-25T13:02:36.000Z</time>
      </trkpt>
      <trkpt lat="44.92662" lon="5.18351">
        <ele>957.07507324219</ele>
        <time>2016-06-25T13:02:38.000Z</time>
      </trkpt>
      <trkpt lat="44.92654" lon="5.18352">
        <ele>958.92413330078</ele>
        <time>2016-06-25T13:02:41.000Z</time>
      </trkpt>
      <trkpt lat="44.92646" lon="5.18353">
        <ele>960.70001220703</ele>
        <time>2016-06-25T13:02:43.000Z</time>
      </trkpt>
      <trkpt lat="44.92639" lon="5.18347">
        <ele>961.75030517578</ele>
        <time>2016-06-25T13:02:45.000Z</time>
      </trkpt>
      <trkpt lat="44.9263" lon="5.18337">
        <ele>961.75573730469</ele>
        <time>2016-06-25T13:02:48.000Z</time>
      </trkpt>
      <trkpt lat="44.9262" lon="5.18336">
        <ele>961.705078125</ele>
        <time>2016-06-25T13:02:51.000Z</time>
      </trkpt>
      <trkpt lat="44.92614" lon="5.18337">
        <ele>961.62072753906</ele>
        <time>2016-06-25T13:02:53.000Z</time>
      </trkpt>
      <trkpt lat="44.92606" lon="5.18338">
        <ele>961.43444824219</ele>
        <time>2016-06-25T13:02:56.000Z</time>
      </trkpt>
      <trkpt lat="44.92603" lon="5.18338">
        <ele>961.64404296875</ele>
        <time>2016-06-25T13:02:58.000Z</time>
      </trkpt>
      <trkpt lat="44.92592" lon="5.18341">
        <ele>963.00207519531</ele>
        <time>2016-06-25T13:03:01.000Z</time>
      </trkpt>
      <trkpt lat="44.92587" lon="5.18342">
        <ele>964.38928222656</ele>
        <time>2016-06-25T13:03:03.000Z</time>
      </trkpt>
      <trkpt lat="44.92579" lon="5.18336">
        <ele>965.3173828125</ele>
        <time>2016-06-25T13:03:06.000Z</time>
      </trkpt>
      <trkpt lat="44.92571" lon="5.1833">
        <ele>965.96514892578</ele>
        <time>2016-06-25T13:03:09.000Z</time>
      </trkpt>
      <trkpt lat="44.92562" lon="5.18327">
        <ele>966.78936767578</ele>
        <time>2016-06-25T13:03:11.000Z</time>
      </trkpt>
      <trkpt lat="44.92556" lon="5.18328">
        <ele>967.39306640625</ele>
        <time>2016-06-25T13:03:13.000Z</time>
      </trkpt>
      <trkpt lat="44.9255" lon="5.18325">
        <ele>967.99151611328</ele>
        <time>2016-06-25T13:03:15.000Z</time>
      </trkpt>
      <trkpt lat="44.92545" lon="5.18321">
        <ele>968.69158935547</ele>
        <time>2016-06-25T13:03:17.000Z</time>
      </trkpt>
      <trkpt lat="44.9254" lon="5.1831">
        <ele>969.04473876953</ele>
        <time>2016-06-25T13:03:20.000Z</time>
      </trkpt>
      <trkpt lat="44.92534" lon="5.18301">
        <ele>968.83184814453</ele>
        <time>2016-06-25T13:03:23.000Z</time>
      </trkpt>
      <trkpt lat="44.92528" lon="5.18299">
        <ele>968.43231201172</ele>
        <time>2016-06-25T13:03:26.000Z</time>
      </trkpt>
      <trkpt lat="44.92523" lon="5.18299">
        <ele>968.05157470703</ele>
        <time>2016-06-25T13:03:28.000Z</time>
      </trkpt>
      <trkpt lat="44.92516" lon="5.18294">
        <ele>967.78045654297</ele>
        <time>2016-06-25T13:03:30.000Z</time>
      </trkpt>
      <trkpt lat="44.92509" lon="5.18282">
        <ele>967.38610839844</ele>
        <time>2016-06-25T13:03:33.000Z</time>
      </trkpt>
      <trkpt lat="44.92503" lon="5.1828">
        <ele>967.45227050781</ele>
        <time>2016-06-25T13:03:36.000Z</time>
      </trkpt>
      <trkpt lat="44.92495" lon="5.18281">
        <ele>967.63604736328</ele>
        <time>2016-06-25T13:03:39.000Z</time>
      </trkpt>
      <trkpt lat="44.92484" lon="5.18286">
        <ele>968.1513671875</ele>
        <time>2016-06-25T13:03:42.000Z</time>
      </trkpt>
      <trkpt lat="44.92478" lon="5.18291">
        <ele>969.13653564453</ele>
        <time>2016-06-25T13:03:44.000Z</time>
      </trkpt>
      <trkpt lat="44.92472" lon="5.18294">
        <ele>971.01629638672</ele>
        <time>2016-06-25T13:03:46.000Z</time>
      </trkpt>
      <trkpt lat="44.92463" lon="5.18297">
        <ele>973.08093261719</ele>
        <time>2016-06-25T13:03:49.000Z</time>
      </trkpt>
      <trkpt lat="44.92455" lon="5.18297">
        <ele>975.02606201172</ele>
        <time>2016-06-25T13:03:52.000Z</time>
      </trkpt>
      <trkpt lat="44.92448" lon="5.18296">
        <ele>976.52478027344</ele>
        <time>2016-06-25T13:03:54.000Z</time>
      </trkpt>
      <trkpt lat="44.92443" lon="5.18293">
        <ele>977.40673828125</ele>
        <time>2016-06-25T13:03:56.000Z</time>
      </trkpt>
      <trkpt lat="44.92432" lon="5.18295">
        <ele>978.29309082031</ele>
        <time>2016-06-25T13:03:59.000Z</time>
      </trkpt>
      <trkpt lat="44.92424" lon="5.183">
        <ele>979.32440185547</ele>
        <time>2016-06-25T13:04:01.000Z</time>
      </trkpt>
      <trkpt lat="44.92419" lon="5.183">
        <ele>980.31170654297</ele>
        <time>2016-06-25T13:04:03.000Z</time>
      </trkpt>
      <trkpt lat="44.92413" lon="5.18301">
        <ele>981.3466796875</ele>
        <time>2016-06-25T13:04:05.000Z</time>
      </trkpt>
      <trkpt lat="44.92403" lon="5.18304">
        <ele>982.89001464844</ele>
        <time>2016-06-25T13:04:08.000Z</time>
      </trkpt>
      <trkpt lat="44.92398" lon="5.18306">
        <ele>984.24005126953</ele>
        <time>2016-06-25T13:04:10.000Z</time>
      </trkpt>
      <trkpt lat="44.9239" lon="5.18302">
        <ele>984.93243408203</ele>
        <time>2016-06-25T13:04:13.000Z</time>
      </trkpt>
      <trkpt lat="44.92384" lon="5.18298">
        <ele>985.20849609375</ele>
        <time>2016-06-25T13:04:15.000Z</time>
      </trkpt>
      <trkpt lat="44.92376" lon="5.18296">
        <ele>985.25305175781</ele>
        <time>2016-06-25T13:04:18.000Z</time>
      </trkpt>
      <trkpt lat="44.9237" lon="5.18294">
        <ele>984.81036376953</ele>
        <time>2016-06-25T13:04:20.000Z</time>
      </trkpt>
      <trkpt lat="44.92362" lon="5.18293">
        <ele>984.23321533203</ele>
        <time>2016-06-25T13:04:23.000Z</time>
      </trkpt>
      <trkpt lat="44.92353" lon="5.18296">
        <ele>984.10217285156</ele>
        <time>2016-06-25T13:04:26.000Z</time>
      </trkpt>
      <trkpt lat="44.92344" lon="5.18297">
        <ele>984.48376464844</ele>
        <time>2016-06-25T13:04:29.000Z</time>
      </trkpt>
      <trkpt lat="44.92339" lon="5.18298">
        <ele>985.10968017578</ele>
        <time>2016-06-25T13:04:31.000Z</time>
      </trkpt>
      <trkpt lat="44.92333" lon="5.18301">
        <ele>986.08068847656</ele>
        <time>2016-06-25T13:04:33.000Z</time>
      </trkpt>
      <trkpt lat="44.92328" lon="5.18302">
        <ele>987.3349609375</ele>
        <time>2016-06-25T13:04:35.000Z</time>
      </trkpt>
      <trkpt lat="44.92319" lon="5.18299">
        <ele>988.36022949219</ele>
        <time>2016-06-25T13:04:38.000Z</time>
      </trkpt>
      <trkpt lat="44.92308" lon="5.18295">
        <ele>989.20812988281</ele>
        <time>2016-06-25T13:04:41.000Z</time>
      </trkpt>
      <trkpt lat="44.92298" lon="5.18292">
        <ele>989.99133300781</ele>
        <time>2016-06-25T13:04:44.000Z</time>
      </trkpt>
      <trkpt lat="44.92287" lon="5.18284">
        <ele>990.19219970703</ele>
        <time>2016-06-25T13:04:47.000Z</time>
      </trkpt>
      <trkpt lat="44.92281" lon="5.18283">
        <ele>990.21716308594</ele>
        <time>2016-06-25T13:04:49.000Z</time>
      </trkpt>
      <trkpt lat="44.92273" lon="5.18281">
        <ele>990.35388183594</ele>
        <time>2016-06-25T13:04:52.000Z</time>
      </trkpt>
      <trkpt lat="44.92268" lon="5.18283">
        <ele>990.78356933594</ele>
        <time>2016-06-25T13:04:54.000Z</time>
      </trkpt>
      <trkpt lat="44.92263" lon="5.18286">
        <ele>991.51843261719</ele>
        <time>2016-06-25T13:04:56.000Z</time>
      </trkpt>
      <trkpt lat="44.92257" lon="5.18289">
        <ele>993.06317138672</ele>
        <time>2016-06-25T13:04:59.000Z</time>
      </trkpt>
      <trkpt lat="44.92248" lon="5.18292">
        <ele>995.03173828125</ele>
        <time>2016-06-25T13:05:02.000Z</time>
      </trkpt>
      <trkpt lat="44.92243" lon="5.18292">
        <ele>996.87762451172</ele>
        <time>2016-06-25T13:05:04.000Z</time>
      </trkpt>
      <trkpt lat="44.92234" lon="5.18293">
        <ele>998.58612060547</ele>
        <time>2016-06-25T13:05:07.000Z</time>
      </trkpt>
      <trkpt lat="44.92223" lon="5.18295">
        <ele>1000.2979736328</ele>
        <time>2016-06-25T13:05:10.000Z</time>
      </trkpt>
      <trkpt lat="44.92217" lon="5.18298">
        <ele>1001.850402832</ele>
        <time>2016-06-25T13:05:12.000Z</time>
      </trkpt>
      <trkpt lat="44.92208" lon="5.18298">
        <ele>1003.0427856445</ele>
        <time>2016-06-25T13:05:15.000Z</time>
      </trkpt>
      <trkpt lat="44.92202" lon="5.18297">
        <ele>1004.220703125</ele>
        <time>2016-06-25T13:05:17.000Z</time>
      </trkpt>
      <trkpt lat="44.92193" lon="5.18295">
        <ele>1005.1349487305</ele>
        <time>2016-06-25T13:05:20.000Z</time>
      </trkpt>
      <trkpt lat="44.92184" lon="5.18293">
        <ele>1005.6024169922</ele>
        <time>2016-06-25T13:05:23.000Z</time>
      </trkpt>
      <trkpt lat="44.92176" lon="5.18283">
        <ele>1004.7886962891</ele>
        <time>2016-06-25T13:05:26.000Z</time>
      </trkpt>
      <trkpt lat="44.92172" lon="5.1827">
        <ele>1002.5079956055</ele>
        <time>2016-06-25T13:05:28.000Z</time>
      </trkpt>
      <trkpt lat="44.92168" lon="5.18252">
        <ele>998.30383300781</ele>
        <time>2016-06-25T13:05:31.000Z</time>
      </trkpt>
      <trkpt lat="44.92166" lon="5.18262">
        <ele>995.27624511719</ele>
        <time>2016-06-25T13:05:34.000Z</time>
      </trkpt>
      <trkpt lat="44.92171" lon="5.18275">
        <ele>993.55010986328</ele>
        <time>2016-06-25T13:05:37.000Z</time>
      </trkpt>
      <trkpt lat="44.92178" lon="5.18279">
        <ele>993.10021972656</ele>
        <time>2016-06-25T13:05:39.000Z</time>
      </trkpt>
      <trkpt lat="44.92186" lon="5.1828">
        <ele>993.96911621094</ele>
        <time>2016-06-25T13:05:41.000Z</time>
      </trkpt>
      <trkpt lat="44.92197" lon="5.18285">
        <ele>997.02850341797</ele>
        <time>2016-06-25T13:05:44.000Z</time>
      </trkpt>
      <trkpt lat="44.92203" lon="5.18287">
        <ele>999.11145019531</ele>
        <time>2016-06-25T13:05:46.000Z</time>
      </trkpt>
      <trkpt lat="44.92207" lon="5.18287">
        <ele>999.87109375</ele>
        <time>2016-06-25T13:05:48.000Z</time>
      </trkpt>
      <trkpt lat="44.92213" lon="5.18288">
        <ele>1000.3375244141</ele>
        <time>2016-06-25T13:05:51.000Z</time>
      </trkpt>
      <trkpt lat="44.92222" lon="5.18292">
        <ele>1000.9246826172</ele>
        <time>2016-06-25T13:05:54.000Z</time>
      </trkpt>
      <trkpt lat="44.92227" lon="5.18293">
        <ele>1001.27734375</ele>
        <time>2016-06-25T13:05:56.000Z</time>
      </trkpt>
      <trkpt lat="44.92231" lon="5.18297">
        <ele>1001.7307739258</ele>
        <time>2016-06-25T13:05:58.000Z</time>
      </trkpt>
      <trkpt lat="44.92235" lon="5.18297">
        <ele>1002.1959838867</ele>
        <time>2016-06-25T13:06:00.000Z</time>
      </trkpt>
      <trkpt lat="44.92241" lon="5.18295">
        <ele>1002.3248901367</ele>
        <time>2016-06-25T13:06:03.000Z</time>
      </trkpt>
      <trkpt lat="44.92247" lon="5.18291">
        <ele>1001.8470458984</ele>
        <time>2016-06-25T13:06:06.000Z</time>
      </trkpt>
      <trkpt lat="44.92255" lon="5.18291">
        <ele>1001.1209106445</ele>
        <time>2016-06-25T13:06:09.000Z</time>
      </trkpt>
      <trkpt lat="44.92261" lon="5.18291">
        <ele>999.90661621094</ele>
        <time>2016-06-25T13:06:12.000Z</time>
      </trkpt>
      <trkpt lat="44.92266" lon="5.18295">
        <ele>998.92919921875</ele>
        <time>2016-06-25T13:06:15.000Z</time>
      </trkpt>
      <trkpt lat="44.92271" lon="5.18298">
        <ele>998.27819824219</ele>
        <time>2016-06-25T13:06:18.000Z</time>
      </trkpt>
      <trkpt lat="44.92278" lon="5.18301">
        <ele>998.1279296875</ele>
        <time>2016-06-25T13:06:21.000Z</time>
      </trkpt>
      <trkpt lat="44.92283" lon="5.18305">
        <ele>998.26641845703</ele>
        <time>2016-06-25T13:06:23.000Z</time>
      </trkpt>
      <trkpt lat="44.92288" lon="5.18308">
        <ele>998.75048828125</ele>
        <time>2016-06-25T13:06:25.000Z</time>
      </trkpt>
      <trkpt lat="44.92296" lon="5.18313">
        <ele>999.18688964844</ele>
        <time>2016-06-25T13:06:28.000Z</time>
      </trkpt>
      <trkpt lat="44.92301" lon="5.18316">
        <ele>999.64709472656</ele>
        <time>2016-06-25T13:06:30.000Z</time>
      </trkpt>
      <trkpt lat="44.92306" lon="5.18318">
        <ele>1000.0101318359</ele>
        <time>2016-06-25T13:06:32.000Z</time>
      </trkpt>
      <trkpt lat="44.92311" lon="5.1832">
        <ele>1000.2958984375</ele>
        <time>2016-06-25T13:06:34.000Z</time>
      </trkpt>
      <trkpt lat="44.92316" lon="5.18323">
        <ele>1000.5174560547</ele>
        <time>2016-06-25T13:06:36.000Z</time>
      </trkpt>
      <trkpt lat="44.92322" lon="5.18324">
        <ele>1000.4368896484</ele>
        <time>2016-06-25T13:06:39.000Z</time>
      </trkpt>
      <trkpt lat="44.92329" lon="5.18325">
        <ele>1000.162902832</ele>
        <time>2016-06-25T13:06:41.000Z</time>
      </trkpt>
      <trkpt lat="44.92339" lon="5.18327">
        <ele>999.84851074219</ele>
        <time>2016-06-25T13:06:44.000Z</time>
      </trkpt>
      <trkpt lat="44.92348" lon="5.18331">
        <ele>999.7607421875</ele>
        <time>2016-06-25T13:06:47.000Z</time>
      </trkpt>
      <trkpt lat="44.92358" lon="5.18334">
        <ele>999.75860595703</ele>
        <time>2016-06-25T13:06:50.000Z</time>
      </trkpt>
      <trkpt lat="44.92368" lon="5.18337">
        <ele>1000.0115356445</ele>
        <time>2016-06-25T13:06:53.000Z</time>
      </trkpt>
      <trkpt lat="44.92375" lon="5.18339">
        <ele>1000.5302734375</ele>
        <time>2016-06-25T13:06:55.000Z</time>
      </trkpt>
      <trkpt lat="44.92382" lon="5.18342">
        <ele>1001.214050293</ele>
        <time>2016-06-25T13:06:57.000Z</time>
      </trkpt>
      <trkpt lat="44.92391" lon="5.18346">
        <ele>1001.880859375</ele>
        <time>2016-06-25T13:07:00.000Z</time>
      </trkpt>
      <trkpt lat="44.92397" lon="5.18348">
        <ele>1002.516418457</ele>
        <time>2016-06-25T13:07:02.000Z</time>
      </trkpt>
      <trkpt lat="44.92406" lon="5.18356">
        <ele>1003.7177734375</ele>
        <time>2016-06-25T13:07:05.000Z</time>
      </trkpt>
      <trkpt lat="44.92412" lon="5.18362">
        <ele>1005.202331543</ele>
        <time>2016-06-25T13:07:07.000Z</time>
      </trkpt>
      <trkpt lat="44.92419" lon="5.18365">
        <ele>1006.7756958008</ele>
        <time>2016-06-25T13:07:10.000Z</time>
      </trkpt>
      <trkpt lat="44.92425" lon="5.18369">
        <ele>1008.3162841797</ele>
        <time>2016-06-25T13:07:12.000Z</time>
      </trkpt>
      <trkpt lat="44.9243" lon="5.18373">
        <ele>1009.9904174805</ele>
        <time>2016-06-25T13:07:14.000Z</time>
      </trkpt>
      <trkpt lat="44.92434" lon="5.18374">
        <ele>1010.9826049805</ele>
        <time>2016-06-25T13:07:16.000Z</time>
      </trkpt>
      <trkpt lat="44.92438" lon="5.18373">
        <ele>1011.3689575195</ele>
        <time>2016-06-25T13:07:18.000Z</time>
      </trkpt>
      <trkpt lat="44.92442" lon="5.1837">
        <ele>1011.2569580078</ele>
        <time>2016-06-25T13:07:20.000Z</time>
      </trkpt>
      <trkpt lat="44.92449" lon="5.18368">
        <ele>1010.5240478516</ele>
        <time>2016-06-25T13:07:23.000Z</time>
      </trkpt>
      <trkpt lat="44.92453" lon="5.18369">
        <ele>1009.5561523438</ele>
        <time>2016-06-25T13:07:25.000Z</time>
      </trkpt>
      <trkpt lat="44.92458" lon="5.18372">
        <ele>1008.6773681641</ele>
        <time>2016-06-25T13:07:27.000Z</time>
      </trkpt>
      <trkpt lat="44.92464" lon="5.18375">
        <ele>1008.1029052734</ele>
        <time>2016-06-25T13:07:30.000Z</time>
      </trkpt>
      <trkpt lat="44.92468" lon="5.18376">
        <ele>1007.8751831055</ele>
        <time>2016-06-25T13:07:32.000Z</time>
      </trkpt>
      <trkpt lat="44.92472" lon="5.18378">
        <ele>1008.0887451172</ele>
        <time>2016-06-25T13:07:34.000Z</time>
      </trkpt>
      <trkpt lat="44.92474" lon="5.1838">
        <ele>1008.4010009766</ele>
        <time>2016-06-25T13:07:36.000Z</time>
      </trkpt>
      <trkpt lat="44.92481" lon="5.18385">
        <ele>1008.9158935547</ele>
        <time>2016-06-25T13:07:39.000Z</time>
      </trkpt>
      <trkpt lat="44.92487" lon="5.18388">
        <ele>1009.41796875</ele>
        <time>2016-06-25T13:07:41.000Z</time>
      </trkpt>
      <trkpt lat="44.92498" lon="5.18394">
        <ele>1010.1267700195</ele>
        <time>2016-06-25T13:07:44.000Z</time>
      </trkpt>
      <trkpt lat="44.92505" lon="5.184">
        <ele>1011.029296875</ele>
        <time>2016-06-25T13:07:46.000Z</time>
      </trkpt>
      <trkpt lat="44.92514" lon="5.18407">
        <ele>1012.0145263672</ele>
        <time>2016-06-25T13:07:49.000Z</time>
      </trkpt>
      <trkpt lat="44.92523" lon="5.18415">
        <ele>1013.0504150391</ele>
        <time>2016-06-25T13:07:52.000Z</time>
      </trkpt>
      <trkpt lat="44.92528" lon="5.1842">
        <ele>1014.1815185547</ele>
        <time>2016-06-25T13:07:54.000Z</time>
      </trkpt>
      <trkpt lat="44.92536" lon="5.18429">
        <ele>1015.537109375</ele>
        <time>2016-06-25T13:07:57.000Z</time>
      </trkpt>
      <trkpt lat="44.92545" lon="5.18439">
        <ele>1017.125793457</ele>
        <time>2016-06-25T13:08:00.000Z</time>
      </trkpt>
      <trkpt lat="44.9255" lon="5.18445">
        <ele>1018.8103637695</ele>
        <time>2016-06-25T13:08:02.000Z</time>
      </trkpt>
      <trkpt lat="44.92558" lon="5.18454">
        <ele>1020.6710205078</ele>
        <time>2016-06-25T13:08:05.000Z</time>
      </trkpt>
      <trkpt lat="44.92565" lon="5.18457">
        <ele>1022.3134765625</ele>
        <time>2016-06-25T13:08:07.000Z</time>
      </trkpt>
      <trkpt lat="44.92572" lon="5.18459">
        <ele>1023.303527832</ele>
        <time>2016-06-25T13:08:09.000Z</time>
      </trkpt>
      <trkpt lat="44.92579" lon="5.18461">
        <ele>1023.7454833984</ele>
        <time>2016-06-25T13:08:12.000Z</time>
      </trkpt>
      <trkpt lat="44.92585" lon="5.18467">
        <ele>1024.1431884766</ele>
        <time>2016-06-25T13:08:15.000Z</time>
      </trkpt>
      <trkpt lat="44.92589" lon="5.1847">
        <ele>1024.0892333984</ele>
        <time>2016-06-25T13:08:17.000Z</time>
      </trkpt>
      <trkpt lat="44.92598" lon="5.18473">
        <ele>1023.8873901367</ele>
        <time>2016-06-25T13:08:20.000Z</time>
      </trkpt>
      <trkpt lat="44.92604" lon="5.18475">
        <ele>1023.768737793</ele>
        <time>2016-06-25T13:08:22.000Z</time>
      </trkpt>
      <trkpt lat="44.92612" lon="5.18478">
        <ele>1023.6273193359</ele>
        <time>2016-06-25T13:08:25.000Z</time>
      </trkpt>
      <trkpt lat="44.9262" lon="5.18481">
        <ele>1023.08203125</ele>
        <time>2016-06-25T13:08:28.000Z</time>
      </trkpt>
      <trkpt lat="44.92626" lon="5.18484">
        <ele>1022.467590332</ele>
        <time>2016-06-25T13:08:30.000Z</time>
      </trkpt>
      <trkpt lat="44.92634" lon="5.18489">
        <ele>1021.9967651367</ele>
        <time>2016-06-25T13:08:33.000Z</time>
      </trkpt>
      <trkpt lat="44.92641" lon="5.18493">
        <ele>1021.5655517578</ele>
        <time>2016-06-25T13:08:35.000Z</time>
      </trkpt>
      <trkpt lat="44.9265" lon="5.185">
        <ele>1021.3392333984</ele>
        <time>2016-06-25T13:08:38.000Z</time>
      </trkpt>
      <trkpt lat="44.92654" lon="5.18511">
        <ele>1021.9169921875</ele>
        <time>2016-06-25T13:08:41.000Z</time>
      </trkpt>
      <trkpt lat="44.92641" lon="5.18516">
        <ele>1023.6599731445</ele>
        <time>2016-06-25T13:08:44.000Z</time>
      </trkpt>
      <trkpt lat="44.9263" lon="5.18513">
        <ele>1025.8635253906</ele>
        <time>2016-06-25T13:08:46.000Z</time>
      </trkpt>
      <trkpt lat="44.92619" lon="5.18515">
        <ele>1028.8493652344</ele>
        <time>2016-06-25T13:08:48.000Z</time>
      </trkpt>
      <trkpt lat="44.9261" lon="5.18516">
        <ele>1032.3273925781</ele>
        <time>2016-06-25T13:08:50.000Z</time>
      </trkpt>
      <trkpt lat="44.92596" lon="5.18518">
        <ele>1036.1097412109</ele>
        <time>2016-06-25T13:08:53.000Z</time>
      </trkpt>
      <trkpt lat="44.92587" lon="5.18515">
        <ele>1038.9937744141</ele>
        <time>2016-06-25T13:08:55.000Z</time>
      </trkpt>
      <trkpt lat="44.92573" lon="5.18507">
        <ele>1041.4089355469</ele>
        <time>2016-06-25T13:08:58.000Z</time>
      </trkpt>
      <trkpt lat="44.92565" lon="5.18503">
        <ele>1043.1535644531</ele>
        <time>2016-06-25T13:09:00.000Z</time>
      </trkpt>
      <trkpt lat="44.92556" lon="5.185">
        <ele>1044.4536132812</ele>
        <time>2016-06-25T13:09:02.000Z</time>
      </trkpt>
      <trkpt lat="44.92546" lon="5.18499">
        <ele>1045.1809082031</ele>
        <time>2016-06-25T13:09:05.000Z</time>
      </trkpt>
      <trkpt lat="44.92539" lon="5.18501">
        <ele>1046.1263427734</ele>
        <time>2016-06-25T13:09:07.000Z</time>
      </trkpt>
      <trkpt lat="44.92528" lon="5.18502">
        <ele>1047.7336425781</ele>
        <time>2016-06-25T13:09:10.000Z</time>
      </trkpt>
      <trkpt lat="44.92516" lon="5.18503">
        <ele>1049.9479980469</ele>
        <time>2016-06-25T13:09:13.000Z</time>
      </trkpt>
      <trkpt lat="44.92508" lon="5.18503">
        <ele>1052.3405761719</ele>
        <time>2016-06-25T13:09:15.000Z</time>
      </trkpt>
      <trkpt lat="44.92498" lon="5.18504">
        <ele>1054.8881835938</ele>
        <time>2016-06-25T13:09:18.000Z</time>
      </trkpt>
      <trkpt lat="44.92487" lon="5.18504">
        <ele>1057.3834228516</ele>
        <time>2016-06-25T13:09:21.000Z</time>
      </trkpt>
      <trkpt lat="44.9248" lon="5.18503">
        <ele>1059.5144042969</ele>
        <time>2016-06-25T13:09:23.000Z</time>
      </trkpt>
      <trkpt lat="44.92475" lon="5.18499">
        <ele>1060.8156738281</ele>
        <time>2016-06-25T13:09:25.000Z</time>
      </trkpt>
      <trkpt lat="44.92468" lon="5.18496">
        <ele>1061.7078857422</ele>
        <time>2016-06-25T13:09:27.000Z</time>
      </trkpt>
      <trkpt lat="44.92458" lon="5.18496">
        <ele>1062.4318847656</ele>
        <time>2016-06-25T13:09:30.000Z</time>
      </trkpt>
      <trkpt lat="44.92451" lon="5.18496">
        <ele>1063.0394287109</ele>
        <time>2016-06-25T13:09:32.000Z</time>
      </trkpt>
      <trkpt lat="44.92442" lon="5.18494">
        <ele>1063.5974121094</ele>
        <time>2016-06-25T13:09:35.000Z</time>
      </trkpt>
      <trkpt lat="44.92434" lon="5.18494">
        <ele>1064.5847167969</ele>
        <time>2016-06-25T13:09:38.000Z</time>
      </trkpt>
      <trkpt lat="44.92426" lon="5.18493">
        <ele>1065.8986816406</ele>
        <time>2016-06-25T13:09:41.000Z</time>
      </trkpt>
      <trkpt lat="44.92419" lon="5.18491">
        <ele>1066.8531494141</ele>
        <time>2016-06-25T13:09:43.000Z</time>
      </trkpt>
      <trkpt lat="44.92412" lon="5.18489">
        <ele>1067.5484619141</ele>
        <time>2016-06-25T13:09:45.000Z</time>
      </trkpt>
      <trkpt lat="44.92404" lon="5.18486">
        <ele>1067.8901367188</ele>
        <time>2016-06-25T13:09:48.000Z</time>
      </trkpt>
      <trkpt lat="44.92399" lon="5.18485">
        <ele>1068.0725097656</ele>
        <time>2016-06-25T13:09:50.000Z</time>
      </trkpt>
      <trkpt lat="44.92394" lon="5.18483">
        <ele>1067.8481445312</ele>
        <time>2016-06-25T13:09:53.000Z</time>
      </trkpt>
      <trkpt lat="44.92388" lon="5.18483">
        <ele>1067.7683105469</ele>
        <time>2016-06-25T13:09:55.000Z</time>
      </trkpt>
      <trkpt lat="44.92377" lon="5.18484">
        <ele>1067.9794921875</ele>
        <time>2016-06-25T13:09:58.000Z</time>
      </trkpt>
      <trkpt lat="44.92369" lon="5.18484">
        <ele>1068.5277099609</ele>
        <time>2016-06-25T13:10:01.000Z</time>
      </trkpt>
      <trkpt lat="44.92361" lon="5.18482">
        <ele>1068.9558105469</ele>
        <time>2016-06-25T13:10:04.000Z</time>
      </trkpt>
      <trkpt lat="44.92352" lon="5.18479">
        <ele>1069.4548339844</ele>
        <time>2016-06-25T13:10:07.000Z</time>
      </trkpt>
      <trkpt lat="44.92346" lon="5.18476">
        <ele>1069.6566162109</ele>
        <time>2016-06-25T13:10:09.000Z</time>
      </trkpt>
      <trkpt lat="44.92336" lon="5.18473">
        <ele>1069.4182128906</ele>
        <time>2016-06-25T13:10:12.000Z</time>
      </trkpt>
      <trkpt lat="44.92329" lon="5.18473">
        <ele>1069.17578125</ele>
        <time>2016-06-25T13:10:14.000Z</time>
      </trkpt>
      <trkpt lat="44.92324" lon="5.18473">
        <ele>1069.0892333984</ele>
        <time>2016-06-25T13:10:16.000Z</time>
      </trkpt>
      <trkpt lat="44.92315" lon="5.18473">
        <ele>1069.3260498047</ele>
        <time>2016-06-25T13:10:19.000Z</time>
      </trkpt>
      <trkpt lat="44.92309" lon="5.18473">
        <ele>1069.8726806641</ele>
        <time>2016-06-25T13:10:21.000Z</time>
      </trkpt>
      <trkpt lat="44.923" lon="5.18472">
        <ele>1070.6765136719</ele>
        <time>2016-06-25T13:10:24.000Z</time>
      </trkpt>
      <trkpt lat="44.92291" lon="5.18468">
        <ele>1071.2094726562</ele>
        <time>2016-06-25T13:10:27.000Z</time>
      </trkpt>
      <trkpt lat="44.92286" lon="5.18466">
        <ele>1071.5656738281</ele>
        <time>2016-06-25T13:10:29.000Z</time>
      </trkpt>
      <trkpt lat="44.92278" lon="5.18466">
        <ele>1071.8894042969</ele>
        <time>2016-06-25T13:10:32.000Z</time>
      </trkpt>
      <trkpt lat="44.92271" lon="5.18464">
        <ele>1072.1197509766</ele>
        <time>2016-06-25T13:10:34.000Z</time>
      </trkpt>
      <trkpt lat="44.92265" lon="5.18461">
        <ele>1072.1021728516</ele>
        <time>2016-06-25T13:10:36.000Z</time>
      </trkpt>
      <trkpt lat="44.92256" lon="5.18458">
        <ele>1072.1613769531</ele>
        <time>2016-06-25T13:10:39.000Z</time>
      </trkpt>
      <trkpt lat="44.92248" lon="5.18455">
        <ele>1072.1794433594</ele>
        <time>2016-06-25T13:10:42.000Z</time>
      </trkpt>
      <trkpt lat="44.92239" lon="5.18441">
        <ele>1071.1159667969</ele>
        <time>2016-06-25T13:10:45.000Z</time>
      </trkpt>
      <trkpt lat="44.92234" lon="5.18435">
        <ele>1069.5437011719</ele>
        <time>2016-06-25T13:10:48.000Z</time>
      </trkpt>
      <trkpt lat="44.92231" lon="5.18446">
        <ele>1069.2530517578</ele>
        <time>2016-06-25T13:10:51.000Z</time>
      </trkpt>
      <trkpt lat="44.92233" lon="5.18452">
        <ele>1069.4366455078</ele>
        <time>2016-06-25T13:10:53.000Z</time>
      </trkpt>
      <trkpt lat="44.92243" lon="5.18456">
        <ele>1069.7437744141</ele>
        <time>2016-06-25T13:10:56.000Z</time>
      </trkpt>
      <trkpt lat="44.92249" lon="5.18456">
        <ele>1070.7303466797</ele>
        <time>2016-06-25T13:10:58.000Z</time>
      </trkpt>
      <trkpt lat="44.92256" lon="5.18457">
        <ele>1072.0201416016</ele>
        <time>2016-06-25T13:11:00.000Z</time>
      </trkpt>
      <trkpt lat="44.92264" lon="5.18457">
        <ele>1071.9326171875</ele>
        <time>2016-06-25T13:11:03.000Z</time>
      </trkpt>
      <trkpt lat="44.92271" lon="5.18457">
        <ele>1071.2006835938</ele>
        <time>2016-06-25T13:11:06.000Z</time>
      </trkpt>
      <trkpt lat="44.92276" lon="5.18458">
        <ele>1070.3908691406</ele>
        <time>2016-06-25T13:11:08.000Z</time>
      </trkpt>
      <trkpt lat="44.92284" lon="5.1846">
        <ele>1069.7048339844</ele>
        <time>2016-06-25T13:11:11.000Z</time>
      </trkpt>
      <trkpt lat="44.92293" lon="5.18463">
        <ele>1069.2590332031</ele>
        <time>2016-06-25T13:11:14.000Z</time>
      </trkpt>
      <trkpt lat="44.92298" lon="5.18464">
        <ele>1069.0079345703</ele>
        <time>2016-06-25T13:11:16.000Z</time>
      </trkpt>
      <trkpt lat="44.92303" lon="5.18465">
        <ele>1068.9066162109</ele>
        <time>2016-06-25T13:11:18.000Z</time>
      </trkpt>
      <trkpt lat="44.92311" lon="5.18468">
        <ele>1068.8458251953</ele>
        <time>2016-06-25T13:11:21.000Z</time>
      </trkpt>
      <trkpt lat="44.92319" lon="5.18471">
        <ele>1069.0233154297</ele>
        <time>2016-06-25T13:11:24.000Z</time>
      </trkpt>
      <trkpt lat="44.92328" lon="5.18475">
        <ele>1069.2155761719</ele>
        <time>2016-06-25T13:11:27.000Z</time>
      </trkpt>
      <trkpt lat="44.92338" lon="5.18479">
        <ele>1069.6499023438</ele>
        <time>2016-06-25T13:11:30.000Z</time>
      </trkpt>
      <trkpt lat="44.92348" lon="5.18482">
        <ele>1070.1496582031</ele>
        <time>2016-06-25T13:11:33.000Z</time>
      </trkpt>
      <trkpt lat="44.92354" lon="5.18484">
        <ele>1070.798828125</ele>
        <time>2016-06-25T13:11:35.000Z</time>
      </trkpt>
      <trkpt lat="44.92362" lon="5.1849">
        <ele>1071.7359619141</ele>
        <time>2016-06-25T13:11:37.000Z</time>
      </trkpt>
      <trkpt lat="44.92373" lon="5.18497">
        <ele>1072.9619140625</ele>
        <time>2016-06-25T13:11:40.000Z</time>
      </trkpt>
      <trkpt lat="44.92381" lon="5.18502">
        <ele>1074.2691650391</ele>
        <time>2016-06-25T13:11:43.000Z</time>
      </trkpt>
      <trkpt lat="44.92388" lon="5.18503">
        <ele>1075.4986572266</ele>
        <time>2016-06-25T13:11:46.000Z</time>
      </trkpt>
      <trkpt lat="44.92392" lon="5.18503">
        <ele>1076.5380859375</ele>
        <time>2016-06-25T13:11:48.000Z</time>
      </trkpt>
      <trkpt lat="44.92397" lon="5.18505">
        <ele>1077.1585693359</ele>
        <time>2016-06-25T13:11:50.000Z</time>
      </trkpt>
      <trkpt lat="44.92403" lon="5.18505">
        <ele>1077.2635498047</ele>
        <time>2016-06-25T13:11:53.000Z</time>
      </trkpt>
      <trkpt lat="44.92409" lon="5.18508">
        <ele>1077.2348632812</ele>
        <time>2016-06-25T13:11:55.000Z</time>
      </trkpt>
      <trkpt lat="44.92414" lon="5.18512">
        <ele>1077.4732666016</ele>
        <time>2016-06-25T13:11:57.000Z</time>
      </trkpt>
      <trkpt lat="44.9242" lon="5.18517">
        <ele>1077.9650878906</ele>
        <time>2016-06-25T13:12:00.000Z</time>
      </trkpt>
      <trkpt lat="44.92425" lon="5.18516">
        <ele>1078.2312011719</ele>
        <time>2016-06-25T13:12:02.000Z</time>
      </trkpt>
      <trkpt lat="44.9243" lon="5.18516">
        <ele>1078.4095458984</ele>
        <time>2016-06-25T13:12:05.000Z</time>
      </trkpt>
      <trkpt lat="44.92436" lon="5.18515">
        <ele>1078.1199951172</ele>
        <time>2016-06-25T13:12:08.000Z</time>
      </trkpt>
      <trkpt lat="44.9244" lon="5.18515">
        <ele>1077.4227294922</ele>
        <time>2016-06-25T13:12:10.000Z</time>
      </trkpt>
      <trkpt lat="44.9245" lon="5.18519">
        <ele>1076.5715332031</ele>
        <time>2016-06-25T13:12:13.000Z</time>
      </trkpt>
      <trkpt lat="44.92456" lon="5.18522">
        <ele>1075.900390625</ele>
        <time>2016-06-25T13:12:15.000Z</time>
      </trkpt>
      <trkpt lat="44.92466" lon="5.18526">
        <ele>1075.4436035156</ele>
        <time>2016-06-25T13:12:18.000Z</time>
      </trkpt>
      <trkpt lat="44.92472" lon="5.18527">
        <ele>1075.2258300781</ele>
        <time>2016-06-25T13:12:20.000Z</time>
      </trkpt>
      <trkpt lat="44.92478" lon="5.18531">
        <ele>1075.2922363281</ele>
        <time>2016-06-25T13:12:22.000Z</time>
      </trkpt>
      <trkpt lat="44.92484" lon="5.18537">
        <ele>1075.5582275391</ele>
        <time>2016-06-25T13:12:24.000Z</time>
      </trkpt>
      <trkpt lat="44.92494" lon="5.18544">
        <ele>1076.1536865234</ele>
        <time>2016-06-25T13:12:27.000Z</time>
      </trkpt>
      <trkpt lat="44.925" lon="5.18546">
        <ele>1076.6771240234</ele>
        <time>2016-06-25T13:12:29.000Z</time>
      </trkpt>
      <trkpt lat="44.92508" lon="5.18548">
        <ele>1077.0510253906</ele>
        <time>2016-06-25T13:12:32.000Z</time>
      </trkpt>
      <trkpt lat="44.92514" lon="5.18551">
        <ele>1077.3654785156</ele>
        <time>2016-06-25T13:12:34.000Z</time>
      </trkpt>
      <trkpt lat="44.92521" lon="5.18557">
        <ele>1077.6540527344</ele>
        <time>2016-06-25T13:12:36.000Z</time>
      </trkpt>
      <trkpt lat="44.92526" lon="5.18562">
        <ele>1077.8299560547</ele>
        <time>2016-06-25T13:12:38.000Z</time>
      </trkpt>
      <trkpt lat="44.92535" lon="5.1857">
        <ele>1078.4171142578</ele>
        <time>2016-06-25T13:12:41.000Z</time>
      </trkpt>
      <trkpt lat="44.92543" lon="5.18577">
        <ele>1079.4328613281</ele>
        <time>2016-06-25T13:12:44.000Z</time>
      </trkpt>
      <trkpt lat="44.92549" lon="5.1858">
        <ele>1080.4033203125</ele>
        <time>2016-06-25T13:12:46.000Z</time>
      </trkpt>
      <trkpt lat="44.92558" lon="5.18585">
        <ele>1081.2268066406</ele>
        <time>2016-06-25T13:12:49.000Z</time>
      </trkpt>
      <trkpt lat="44.92564" lon="5.18589">
        <ele>1081.9552001953</ele>
        <time>2016-06-25T13:12:51.000Z</time>
      </trkpt>
      <trkpt lat="44.92573" lon="5.18592">
        <ele>1082.2591552734</ele>
        <time>2016-06-25T13:12:54.000Z</time>
      </trkpt>
      <trkpt lat="44.92579" lon="5.18594">
        <ele>1082.2916259766</ele>
        <time>2016-06-25T13:12:56.000Z</time>
      </trkpt>
      <trkpt lat="44.92587" lon="5.18597">
        <ele>1082.1823730469</ele>
        <time>2016-06-25T13:12:59.000Z</time>
      </trkpt>
      <trkpt lat="44.92591" lon="5.18601">
        <ele>1082.1060791016</ele>
        <time>2016-06-25T13:13:01.000Z</time>
      </trkpt>
      <trkpt lat="44.92593" lon="5.18609">
        <ele>1082.5871582031</ele>
        <time>2016-06-25T13:13:03.000Z</time>
      </trkpt>
      <trkpt lat="44.92582" lon="5.18612">
        <ele>1084.1525878906</ele>
        <time>2016-06-25T13:13:06.000Z</time>
      </trkpt>
      <trkpt lat="44.92573" lon="5.18611">
        <ele>1086.0247802734</ele>
        <time>2016-06-25T13:13:08.000Z</time>
      </trkpt>
      <trkpt lat="44.92562" lon="5.18609">
        <ele>1088.4191894531</ele>
        <time>2016-06-25T13:13:11.000Z</time>
      </trkpt>
      <trkpt lat="44.92554" lon="5.18607">
        <ele>1090.9313964844</ele>
        <time>2016-06-25T13:13:14.000Z</time>
      </trkpt>
      <trkpt lat="44.92545" lon="5.18607">
        <ele>1093.1755371094</ele>
        <time>2016-06-25T13:13:17.000Z</time>
      </trkpt>
      <trkpt lat="44.92537" lon="5.18605">
        <ele>1094.6186523438</ele>
        <time>2016-06-25T13:13:20.000Z</time>
      </trkpt>
      <trkpt lat="44.92527" lon="5.18603">
        <ele>1096.0291748047</ele>
        <time>2016-06-25T13:13:23.000Z</time>
      </trkpt>
      <trkpt lat="44.92519" lon="5.18599">
        <ele>1096.9645996094</ele>
        <time>2016-06-25T13:13:26.000Z</time>
      </trkpt>
      <trkpt lat="44.92511" lon="5.18598">
        <ele>1097.9326171875</ele>
        <time>2016-06-25T13:13:29.000Z</time>
      </trkpt>
      <trkpt lat="44.92499" lon="5.186">
        <ele>1099.3472900391</ele>
        <time>2016-06-25T13:13:32.000Z</time>
      </trkpt>
      <trkpt lat="44.92489" lon="5.18601">
        <ele>1100.9577636719</ele>
        <time>2016-06-25T13:13:35.000Z</time>
      </trkpt>
      <trkpt lat="44.9248" lon="5.18603">
        <ele>1102.9096679688</ele>
        <time>2016-06-25T13:13:38.000Z</time>
      </trkpt>
      <trkpt lat="44.92474" lon="5.18603">
        <ele>1105.1962890625</ele>
        <time>2016-06-25T13:13:40.000Z</time>
      </trkpt>
      <trkpt lat="44.92469" lon="5.18603">
        <ele>1107.2845458984</ele>
        <time>2016-06-25T13:13:42.000Z</time>
      </trkpt>
      <trkpt lat="44.92461" lon="5.18602">
        <ele>1108.8265380859</ele>
        <time>2016-06-25T13:13:45.000Z</time>
      </trkpt>
      <trkpt lat="44.92454" lon="5.18601">
        <ele>1110.0999755859</ele>
        <time>2016-06-25T13:13:48.000Z</time>
      </trkpt>
      <trkpt lat="44.92448" lon="5.18601">
        <ele>1110.9984130859</ele>
        <time>2016-06-25T13:13:50.000Z</time>
      </trkpt>
      <trkpt lat="44.92437" lon="5.18598">
        <ele>1111.7742919922</ele>
        <time>2016-06-25T13:13:53.000Z</time>
      </trkpt>
      <trkpt lat="44.9243" lon="5.18597">
        <ele>1112.6480712891</ele>
        <time>2016-06-25T13:13:55.000Z</time>
      </trkpt>
      <trkpt lat="44.92419" lon="5.18598">
        <ele>1113.7512207031</ele>
        <time>2016-06-25T13:13:58.000Z</time>
      </trkpt>
      <trkpt lat="44.92409" lon="5.186">
        <ele>1115.2381591797</ele>
        <time>2016-06-25T13:14:01.000Z</time>
      </trkpt>
      <trkpt lat="44.92402" lon="5.186">
        <ele>1116.6789550781</ele>
        <time>2016-06-25T13:14:03.000Z</time>
      </trkpt>
      <trkpt lat="44.92393" lon="5.186">
        <ele>1118.2828369141</ele>
        <time>2016-06-25T13:14:06.000Z</time>
      </trkpt>
      <trkpt lat="44.92388" lon="5.18598">
        <ele>1119.6981201172</ele>
        <time>2016-06-25T13:14:08.000Z</time>
      </trkpt>
      <trkpt lat="44.92383" lon="5.18597">
        <ele>1120.5690917969</ele>
        <time>2016-06-25T13:14:10.000Z</time>
      </trkpt>
      <trkpt lat="44.92378" lon="5.18597">
        <ele>1121.1096191406</ele>
        <time>2016-06-25T13:14:12.000Z</time>
      </trkpt>
      <trkpt lat="44.9237" lon="5.18596">
        <ele>1121.6271972656</ele>
        <time>2016-06-25T13:14:15.000Z</time>
      </trkpt>
      <trkpt lat="44.9236" lon="5.18595">
        <ele>1122.0810546875</ele>
        <time>2016-06-25T13:14:18.000Z</time>
      </trkpt>
      <trkpt lat="44.92354" lon="5.18593">
        <ele>1122.4831542969</ele>
        <time>2016-06-25T13:14:20.000Z</time>
      </trkpt>
      <trkpt lat="44.92346" lon="5.18592">
        <ele>1123.0124511719</ele>
        <time>2016-06-25T13:14:23.000Z</time>
      </trkpt>
      <trkpt lat="44.92337" lon="5.18589">
        <ele>1123.2913818359</ele>
        <time>2016-06-25T13:14:26.000Z</time>
      </trkpt>
      <trkpt lat="44.92329" lon="5.18584">
        <ele>1123.1398925781</ele>
        <time>2016-06-25T13:14:29.000Z</time>
      </trkpt>
      <trkpt lat="44.92324" lon="5.18582">
        <ele>1122.7220458984</ele>
        <time>2016-06-25T13:14:31.000Z</time>
      </trkpt>
      <trkpt lat="44.92316" lon="5.18582">
        <ele>1122.5513916016</ele>
        <time>2016-06-25T13:14:34.000Z</time>
      </trkpt>
      <trkpt lat="44.92312" lon="5.18584">
        <ele>1122.5441894531</ele>
        <time>2016-06-25T13:14:36.000Z</time>
      </trkpt>
      <trkpt lat="44.92307" lon="5.18585">
        <ele>1122.8210449219</ele>
        <time>2016-06-25T13:14:38.000Z</time>
      </trkpt>
      <trkpt lat="44.923" lon="5.18586">
        <ele>1123.6181640625</ele>
        <time>2016-06-25T13:14:40.000Z</time>
      </trkpt>
      <trkpt lat="44.92295" lon="5.18587">
        <ele>1124.7205810547</ele>
        <time>2016-06-25T13:14:42.000Z</time>
      </trkpt>
      <trkpt lat="44.92287" lon="5.18585">
        <ele>1125.6862792969</ele>
        <time>2016-06-25T13:14:45.000Z</time>
      </trkpt>
      <trkpt lat="44.92278" lon="5.18582">
        <ele>1126.2768554688</ele>
        <time>2016-06-25T13:14:48.000Z</time>
      </trkpt>
      <trkpt lat="44.92273" lon="5.18583">
        <ele>1126.8425292969</ele>
        <time>2016-06-25T13:14:50.000Z</time>
      </trkpt>
      <trkpt lat="44.92267" lon="5.18584">
        <ele>1127.3839111328</ele>
        <time>2016-06-25T13:14:52.000Z</time>
      </trkpt>
      <trkpt lat="44.92259" lon="5.18585">
        <ele>1127.9638671875</ele>
        <time>2016-06-25T13:14:55.000Z</time>
      </trkpt>
      <trkpt lat="44.92253" lon="5.18586">
        <ele>1128.7257080078</ele>
        <time>2016-06-25T13:14:57.000Z</time>
      </trkpt>
      <trkpt lat="44.9225" lon="5.18586">
        <ele>1129.7409667969</ele>
        <time>2016-06-25T13:14:59.000Z</time>
      </trkpt>
      <trkpt lat="44.92243" lon="5.18584">
        <ele>1130.5794677734</ele>
        <time>2016-06-25T13:15:02.000Z</time>
      </trkpt>
      <trkpt lat="44.92238" lon="5.18585">
        <ele>1131.5705566406</ele>
        <time>2016-06-25T13:15:04.000Z</time>
      </trkpt>
      <trkpt lat="44.92229" lon="5.18588">
        <ele>1133.0793457031</ele>
        <time>2016-06-25T13:15:07.000Z</time>
      </trkpt>
      <trkpt lat="44.92221" lon="5.18587">
        <ele>1134.5257568359</ele>
        <time>2016-06-25T13:15:10.000Z</time>
      </trkpt>
      <trkpt lat="44.92216" lon="5.18583">
        <ele>1135.62890625</ele>
        <time>2016-06-25T13:15:12.000Z</time>
      </trkpt>
      <trkpt lat="44.92207" lon="5.18579">
        <ele>1136.7038574219</ele>
        <time>2016-06-25T13:15:15.000Z</time>
      </trkpt>
      <trkpt lat="44.92199" lon="5.18578">
        <ele>1137.6628417969</ele>
        <time>2016-06-25T13:15:17.000Z</time>
      </trkpt>
      <trkpt lat="44.92192" lon="5.18574">
        <ele>1137.7689208984</ele>
        <time>2016-06-25T13:15:19.000Z</time>
      </trkpt>
      <trkpt lat="44.92184" lon="5.1857">
        <ele>1137.7052001953</ele>
        <time>2016-06-25T13:15:22.000Z</time>
      </trkpt>
      <trkpt lat="44.92178" lon="5.1857">
        <ele>1138.0817871094</ele>
        <time>2016-06-25T13:15:24.000Z</time>
      </trkpt>
      <trkpt lat="44.9217" lon="5.18572">
        <ele>1139.0230712891</ele>
        <time>2016-06-25T13:15:27.000Z</time>
      </trkpt>
      <trkpt lat="44.92163" lon="5.18573">
        <ele>1139.9733886719</ele>
        <time>2016-06-25T13:15:30.000Z</time>
      </trkpt>
      <trkpt lat="44.92156" lon="5.18573">
        <ele>1141.0874023438</ele>
        <time>2016-06-25T13:15:33.000Z</time>
      </trkpt>
      <trkpt lat="44.92151" lon="5.18572">
        <ele>1142.1989746094</ele>
        <time>2016-06-25T13:15:35.000Z</time>
      </trkpt>
      <trkpt lat="44.92144" lon="5.18571">
        <ele>1143.0910644531</ele>
        <time>2016-06-25T13:15:38.000Z</time>
      </trkpt>
      <trkpt lat="44.92139" lon="5.18571">
        <ele>1143.5139160156</ele>
        <time>2016-06-25T13:15:40.000Z</time>
      </trkpt>
      <trkpt lat="44.9213" lon="5.18572">
        <ele>1143.9110107422</ele>
        <time>2016-06-25T13:15:43.000Z</time>
      </trkpt>
      <trkpt lat="44.92121" lon="5.18572">
        <ele>1144.3780517578</ele>
        <time>2016-06-25T13:15:46.000Z</time>
      </trkpt>
      <trkpt lat="44.92114" lon="5.18574">
        <ele>1145.1103515625</ele>
        <time>2016-06-25T13:15:48.000Z</time>
      </trkpt>
      <trkpt lat="44.92109" lon="5.18575">
        <ele>1146.0095214844</ele>
        <time>2016-06-25T13:15:50.000Z</time>
      </trkpt>
      <trkpt lat="44.92104" lon="5.18573">
        <ele>1146.7155761719</ele>
        <time>2016-06-25T13:15:52.000Z</time>
      </trkpt>
      <trkpt lat="44.92097" lon="5.1857">
        <ele>1147.0706787109</ele>
        <time>2016-06-25T13:15:55.000Z</time>
      </trkpt>
      <trkpt lat="44.92093" lon="5.18568">
        <ele>1147.0895996094</ele>
        <time>2016-06-25T13:15:57.000Z</time>
      </trkpt>
      <trkpt lat="44.92086" lon="5.18565">
        <ele>1146.7321777344</ele>
        <time>2016-06-25T13:16:00.000Z</time>
      </trkpt>
      <trkpt lat="44.92079" lon="5.18563">
        <ele>1146.1791992188</ele>
        <time>2016-06-25T13:16:03.000Z</time>
      </trkpt>
      <trkpt lat="44.92069" lon="5.1856">
        <ele>1145.9520263672</ele>
        <time>2016-06-25T13:16:06.000Z</time>
      </trkpt>
      <trkpt lat="44.92061" lon="5.18558">
        <ele>1146.0451660156</ele>
        <time>2016-06-25T13:16:09.000Z</time>
      </trkpt>
      <trkpt lat="44.92056" lon="5.18558">
        <ele>1146.5010986328</ele>
        <time>2016-06-25T13:16:11.000Z</time>
      </trkpt>
      <trkpt lat="44.92047" lon="5.1856">
        <ele>1147.6599121094</ele>
        <time>2016-06-25T13:16:14.000Z</time>
      </trkpt>
      <trkpt lat="44.92035" lon="5.18561">
        <ele>1149.4991455078</ele>
        <time>2016-06-25T13:16:17.000Z</time>
      </trkpt>
      <trkpt lat="44.92029" lon="5.18562">
        <ele>1151.5025634766</ele>
        <time>2016-06-25T13:16:19.000Z</time>
      </trkpt>
      <trkpt lat="44.92018" lon="5.18558">
        <ele>1153.3845214844</ele>
        <time>2016-06-25T13:16:22.000Z</time>
      </trkpt>
      <trkpt lat="44.9201" lon="5.18551">
        <ele>1154.7551269531</ele>
        <time>2016-06-25T13:16:25.000Z</time>
      </trkpt>
      <trkpt lat="44.92007" lon="5.18548">
        <ele>1155.3411865234</ele>
        <time>2016-06-25T13:16:27.000Z</time>
      </trkpt>
      <trkpt lat="44.92002" lon="5.18547">
        <ele>1155.3978271484</ele>
        <time>2016-06-25T13:16:29.000Z</time>
      </trkpt>
      <trkpt lat="44.91993" lon="5.18548">
        <ele>1155.52734375</ele>
        <time>2016-06-25T13:16:32.000Z</time>
      </trkpt>
      <trkpt lat="44.91987" lon="5.18548">
        <ele>1155.7861328125</ele>
        <time>2016-06-25T13:16:34.000Z</time>
      </trkpt>
      <trkpt lat="44.9198" lon="5.18545">
        <ele>1156.3226318359</ele>
        <time>2016-06-25T13:16:37.000Z</time>
      </trkpt>
      <trkpt lat="44.91974" lon="5.18544">
        <ele>1157.1275634766</ele>
        <time>2016-06-25T13:16:39.000Z</time>
      </trkpt>
      <trkpt lat="44.91967" lon="5.18543">
        <ele>1157.9475097656</ele>
        <time>2016-06-25T13:16:42.000Z</time>
      </trkpt>
      <trkpt lat="44.91962" lon="5.18544">
        <ele>1158.5361328125</ele>
        <time>2016-06-25T13:16:44.000Z</time>
      </trkpt>
      <trkpt lat="44.91957" lon="5.18545">
        <ele>1159.2639160156</ele>
        <time>2016-06-25T13:16:47.000Z</time>
      </trkpt>
      <trkpt lat="44.91953" lon="5.18547">
        <ele>1160.2938232422</ele>
        <time>2016-06-25T13:16:49.000Z</time>
      </trkpt>
      <trkpt lat="44.91945" lon="5.18547">
        <ele>1161.5601806641</ele>
        <time>2016-06-25T13:16:52.000Z</time>
      </trkpt>
      <trkpt lat="44.9194" lon="5.18546">
        <ele>1162.7611083984</ele>
        <time>2016-06-25T13:16:54.000Z</time>
      </trkpt>
      <trkpt lat="44.91936" lon="5.18545">
        <ele>1163.7271728516</ele>
        <time>2016-06-25T13:16:56.000Z</time>
      </trkpt>
      <trkpt lat="44.91922" lon="5.18537">
        <ele>1164.0643310547</ele>
        <time>2016-06-25T13:16:59.000Z</time>
      </trkpt>
      <trkpt lat="44.91908" lon="5.18522">
        <ele>1162.8447265625</ele>
        <time>2016-06-25T13:17:02.000Z</time>
      </trkpt>
      <trkpt lat="44.91905" lon="5.18512">
        <ele>1160.4196777344</ele>
        <time>2016-06-25T13:17:04.000Z</time>
      </trkpt>
      <trkpt lat="44.91904" lon="5.18503">
        <ele>1157.1175537109</ele>
        <time>2016-06-25T13:17:07.000Z</time>
      </trkpt>
      <trkpt lat="44.91901" lon="5.18495">
        <ele>1153.3121337891</ele>
        <time>2016-06-25T13:17:09.000Z</time>
      </trkpt>
      <trkpt lat="44.91898" lon="5.18486">
        <ele>1149.43359375</ele>
        <time>2016-06-25T13:17:12.000Z</time>
      </trkpt>
      <trkpt lat="44.9189" lon="5.18483">
        <ele>1146.7565917969</ele>
        <time>2016-06-25T13:17:14.000Z</time>
      </trkpt>
      <trkpt lat="44.91877" lon="5.18473">
        <ele>1144.8101806641</ele>
        <time>2016-06-25T13:17:17.000Z</time>
      </trkpt>
      <trkpt lat="44.91872" lon="5.18469">
        <ele>1143.6369628906</ele>
        <time>2016-06-25T13:17:19.000Z</time>
      </trkpt>
      <trkpt lat="44.91867" lon="5.18467">
        <ele>1143.0164794922</ele>
        <time>2016-06-25T13:17:21.000Z</time>
      </trkpt>
      <trkpt lat="44.9186" lon="5.18463">
        <ele>1142.8471679688</ele>
        <time>2016-06-25T13:17:24.000Z</time>
      </trkpt>
      <trkpt lat="44.91857" lon="5.18461">
        <ele>1142.8039550781</ele>
        <time>2016-06-25T13:17:26.000Z</time>
      </trkpt>
      <trkpt lat="44.91856" lon="5.18459">
        <ele>1142.9240722656</ele>
        <time>2016-06-25T13:17:29.000Z</time>
      </trkpt>
      <trkpt lat="44.91858" lon="5.18453">
        <ele>1142.9248046875</ele>
        <time>2016-06-25T13:17:32.000Z</time>
      </trkpt>
      <trkpt lat="44.91853" lon="5.18431">
        <ele>1142.7380371094</ele>
        <time>2016-06-25T13:18:21.000Z</time>
      </trkpt>
      <trkpt lat="44.91854" lon="5.18451">
        <ele>1142.703125</ele>
        <time>2016-06-25T13:18:24.000Z</time>
      </trkpt>
      <trkpt lat="44.91852" lon="5.18452">
        <ele>1142.6988525391</ele>
        <time>2016-06-25T13:18:26.000Z</time>
      </trkpt>
      <trkpt lat="44.91851" lon="5.18446">
        <ele>1142.6887207031</ele>
        <time>2016-06-25T13:18:28.000Z</time>
      </trkpt>
      <trkpt lat="44.91846" lon="5.18446">
        <ele>1142.9783935547</ele>
        <time>2016-06-25T13:18:31.000Z</time>
      </trkpt>
      <trkpt lat="44.91835" lon="5.18442">
        <ele>1143.7551269531</ele>
        <time>2016-06-25T13:18:34.000Z</time>
      </trkpt>
      <trkpt lat="44.91827" lon="5.18437">
        <ele>1144.1789550781</ele>
        <time>2016-06-25T13:18:36.000Z</time>
      </trkpt>
      <trkpt lat="44.91817" lon="5.18429">
        <ele>1144.2697753906</ele>
        <time>2016-06-25T13:18:38.000Z</time>
      </trkpt>
      <trkpt lat="44.91806" lon="5.18422">
        <ele>1144.1342773438</ele>
        <time>2016-06-25T13:18:40.000Z</time>
      </trkpt>
      <trkpt lat="44.91787" lon="5.18412">
        <ele>1143.6760253906</ele>
        <time>2016-06-25T13:18:43.000Z</time>
      </trkpt>
      <trkpt lat="44.91771" lon="5.18405">
        <ele>1142.9162597656</ele>
        <time>2016-06-25T13:18:45.000Z</time>
      </trkpt>
      <trkpt lat="44.91739" lon="5.18391">
        <ele>1142.2131347656</ele>
        <time>2016-06-25T13:18:48.000Z</time>
      </trkpt>
      <trkpt lat="44.91717" lon="5.18385">
        <ele>1141.0803222656</ele>
        <time>2016-06-25T13:18:50.000Z</time>
      </trkpt>
      <trkpt lat="44.91692" lon="5.18372">
        <ele>1139.892578125</ele>
        <time>2016-06-25T13:18:53.000Z</time>
      </trkpt>
      <trkpt lat="44.91673" lon="5.1836">
        <ele>1138.7023925781</ele>
        <time>2016-06-25T13:18:56.000Z</time>
      </trkpt>
      <trkpt lat="44.91672" lon="5.18369">
        <ele>1136.8747558594</ele>
        <time>2016-06-25T13:18:59.000Z</time>
      </trkpt>
      <trkpt lat="44.91739" lon="5.18394">
        <ele>1136.6960449219</ele>
        <time>2016-06-25T13:19:06.000Z</time>
      </trkpt>
      <trkpt lat="44.91761" lon="5.18415">
        <ele>1136.6684570312</ele>
        <time>2016-06-25T13:19:09.000Z</time>
      </trkpt>
      <trkpt lat="44.91763" lon="5.18434">
        <ele>1136.4763183594</ele>
        <time>2016-06-25T13:19:12.000Z</time>
      </trkpt>
      <trkpt lat="44.91755" lon="5.18431">
        <ele>1136.2874755859</ele>
        <time>2016-06-25T13:19:15.000Z</time>
      </trkpt>
      <trkpt lat="44.91714" lon="5.18423">
        <ele>1135.0798339844</ele>
        <time>2016-06-25T13:19:20.000Z</time>
      </trkpt>
      <trkpt lat="44.91668" lon="5.18395">
        <ele>1131.61328125</ele>
        <time>2016-06-25T13:19:24.000Z</time>
      </trkpt>
      <trkpt lat="44.91643" lon="5.18379">
        <ele>1127.9719238281</ele>
        <time>2016-06-25T13:19:27.000Z</time>
      </trkpt>
      <trkpt lat="44.91614" lon="5.18364">
        <ele>1123.2841796875</ele>
        <time>2016-06-25T13:19:30.000Z</time>
      </trkpt>
      <trkpt lat="44.91608" lon="5.18327">
        <ele>1119.4327392578</ele>
        <time>2016-06-25T13:19:32.000Z</time>
      </trkpt>
      <trkpt lat="44.91586" lon="5.18254">
        <ele>1116.2857666016</ele>
        <time>2016-06-25T13:19:37.000Z</time>
      </trkpt>
      <trkpt lat="44.91594" lon="5.18195">
        <ele>1116.5236816406</ele>
        <time>2016-06-25T13:19:40.000Z</time>
      </trkpt>
      <trkpt lat="44.91579" lon="5.18188">
        <ele>1116.9157714844</ele>
        <time>2016-06-25T13:19:42.000Z</time>
      </trkpt>
      <trkpt lat="44.91566" lon="5.1817">
        <ele>1119.5222167969</ele>
        <time>2016-06-25T13:19:44.000Z</time>
      </trkpt>
      <trkpt lat="44.91543" lon="5.18184">
        <ele>1120.62890625</ele>
        <time>2016-06-25T13:19:47.000Z</time>
      </trkpt>
      <trkpt lat="44.91513" lon="5.18208">
        <ele>1120.9431152344</ele>
        <time>2016-06-25T13:19:50.000Z</time>
      </trkpt>
      <trkpt lat="44.91495" lon="5.18228">
        <ele>1117.0178222656</ele>
        <time>2016-06-25T13:19:52.000Z</time>
      </trkpt>
      <trkpt lat="44.91483" lon="5.18241">
        <ele>1112.7548828125</ele>
        <time>2016-06-25T13:19:54.000Z</time>
      </trkpt>
      <trkpt lat="44.91456" lon="5.18256">
        <ele>1106.7856445312</ele>
        <time>2016-06-25T13:19:57.000Z</time>
      </trkpt>
      <trkpt lat="44.91437" lon="5.18252">
        <ele>1101.7546386719</ele>
        <time>2016-06-25T13:20:00.000Z</time>
      </trkpt>
      <trkpt lat="44.91415" lon="5.18227">
        <ele>1099.8483886719</ele>
        <time>2016-06-25T13:20:03.000Z</time>
      </trkpt>
      <trkpt lat="44.91406" lon="5.18211">
        <ele>1101.0422363281</ele>
        <time>2016-06-25T13:20:05.000Z</time>
      </trkpt>
      <trkpt lat="44.914" lon="5.18256">
        <ele>1101.2780761719</ele>
        <time>2016-06-25T13:20:08.000Z</time>
      </trkpt>
      <trkpt lat="44.91396" lon="5.18276">
        <ele>1101.7463378906</ele>
        <time>2016-06-25T13:20:10.000Z</time>
      </trkpt>
      <trkpt lat="44.91389" lon="5.18312">
        <ele>1100.7928466797</ele>
        <time>2016-06-25T13:20:13.000Z</time>
      </trkpt>
      <trkpt lat="44.91383" lon="5.18334">
        <ele>1097.6710205078</ele>
        <time>2016-06-25T13:20:15.000Z</time>
      </trkpt>
      <trkpt lat="44.91369" lon="5.18389">
        <ele>1091.7236328125</ele>
        <time>2016-06-25T13:20:19.000Z</time>
      </trkpt>
      <trkpt lat="44.91348" lon="5.18409">
        <ele>1088.0906982422</ele>
        <time>2016-06-25T13:20:21.000Z</time>
      </trkpt>
      <trkpt lat="44.9133" lon="5.18429">
        <ele>1085.29296875</ele>
        <time>2016-06-25T13:20:23.000Z</time>
      </trkpt>
      <trkpt lat="44.91319" lon="5.18449">
        <ele>1083.2829589844</ele>
        <time>2016-06-25T13:20:25.000Z</time>
      </trkpt>
      <trkpt lat="44.91281" lon="5.185">
        <ele>1081.2669677734</ele>
        <time>2016-06-25T13:20:29.000Z</time>
      </trkpt>
      <trkpt lat="44.91254" lon="5.18541">
        <ele>1079.4305419922</ele>
        <time>2016-06-25T13:20:32.000Z</time>
      </trkpt>
      <trkpt lat="44.9123" lon="5.1858">
        <ele>1074.7658691406</ele>
        <time>2016-06-25T13:20:35.000Z</time>
      </trkpt>
      <trkpt lat="44.91213" lon="5.1858">
        <ele>1069.7298583984</ele>
        <time>2016-06-25T13:20:38.000Z</time>
      </trkpt>
      <trkpt lat="44.91158" lon="5.1857">
        <ele>1064.4143066406</ele>
        <time>2016-06-25T13:20:43.000Z</time>
      </trkpt>
      <trkpt lat="44.91136" lon="5.18538">
        <ele>1060.2613525391</ele>
        <time>2016-06-25T13:20:46.000Z</time>
      </trkpt>
      <trkpt lat="44.91109" lon="5.18513">
        <ele>1056.5777587891</ele>
        <time>2016-06-25T13:20:49.000Z</time>
      </trkpt>
      <trkpt lat="44.91092" lon="5.18497">
        <ele>1054.703125</ele>
        <time>2016-06-25T13:20:51.000Z</time>
      </trkpt>
      <trkpt lat="44.91072" lon="5.18445">
        <ele>1054.359375</ele>
        <time>2016-06-25T13:20:54.000Z</time>
      </trkpt>
      <trkpt lat="44.91054" lon="5.18421">
        <ele>1054.9343261719</ele>
        <time>2016-06-25T13:20:56.000Z</time>
      </trkpt>
      <trkpt lat="44.91017" lon="5.18395">
        <ele>1054.5999755859</ele>
        <time>2016-06-25T13:20:59.000Z</time>
      </trkpt>
      <trkpt lat="44.90996" lon="5.18386">
        <ele>1054.6350097656</ele>
        <time>2016-06-25T13:21:01.000Z</time>
      </trkpt>
      <trkpt lat="44.90963" lon="5.18384">
        <ele>1055.3067626953</ele>
        <time>2016-06-25T13:21:04.000Z</time>
      </trkpt>
      <trkpt lat="44.90944" lon="5.18405">
        <ele>1054.1232910156</ele>
        <time>2016-06-25T13:21:07.000Z</time>
      </trkpt>
      <trkpt lat="44.90932" lon="5.18416">
        <ele>1052.6441650391</ele>
        <time>2016-06-25T13:21:09.000Z</time>
      </trkpt>
      <trkpt lat="44.90927" lon="5.18444">
        <ele>1052.2557373047</ele>
        <time>2016-06-25T13:21:12.000Z</time>
      </trkpt>
      <trkpt lat="44.90963" lon="5.18479">
        <ele>1051.1258544922</ele>
        <time>2016-06-25T13:21:16.000Z</time>
      </trkpt>
      <trkpt lat="44.90984" lon="5.18501">
        <ele>1048.8479003906</ele>
        <time>2016-06-25T13:21:19.000Z</time>
      </trkpt>
      <trkpt lat="44.90991" lon="5.18518">
        <ele>1047.07421875</ele>
        <time>2016-06-25T13:21:21.000Z</time>
      </trkpt>
      <trkpt lat="44.91011" lon="5.18552">
        <ele>1045.3532714844</ele>
        <time>2016-06-25T13:21:24.000Z</time>
      </trkpt>
      <trkpt lat="44.9103" lon="5.18587">
        <ele>1042.880859375</ele>
        <time>2016-06-25T13:21:27.000Z</time>
      </trkpt>
      <trkpt lat="44.91041" lon="5.18608">
        <ele>1041.1643066406</ele>
        <time>2016-06-25T13:21:29.000Z</time>
      </trkpt>
      <trkpt lat="44.91048" lon="5.18631">
        <ele>1040.2569580078</ele>
        <time>2016-06-25T13:21:31.000Z</time>
      </trkpt>
      <trkpt lat="44.91069" lon="5.18655">
        <ele>1038.2984619141</ele>
        <time>2016-06-25T13:21:34.000Z</time>
      </trkpt>
      <trkpt lat="44.91084" lon="5.18686">
        <ele>1035.5225830078</ele>
        <time>2016-06-25T13:21:37.000Z</time>
      </trkpt>
      <trkpt lat="44.911" lon="5.18712">
        <ele>1032.8984375</ele>
        <time>2016-06-25T13:21:40.000Z</time>
      </trkpt>
      <trkpt lat="44.91109" lon="5.18723">
        <ele>1030.3277587891</ele>
        <time>2016-06-25T13:21:42.000Z</time>
      </trkpt>
      <trkpt lat="44.91122" lon="5.18733">
        <ele>1027.7053222656</ele>
        <time>2016-06-25T13:21:44.000Z</time>
      </trkpt>
      <trkpt lat="44.91128" lon="5.18753">
        <ele>1025.8114013672</ele>
        <time>2016-06-25T13:21:47.000Z</time>
      </trkpt>
      <trkpt lat="44.91129" lon="5.18778">
        <ele>1024.1350097656</ele>
        <time>2016-06-25T13:21:50.000Z</time>
      </trkpt>
      <trkpt lat="44.9109" lon="5.18836">
        <ele>1021.7144775391</ele>
        <time>2016-06-25T13:21:55.000Z</time>
      </trkpt>
      <trkpt lat="44.91061" lon="5.18856">
        <ele>1019.1198120117</ele>
        <time>2016-06-25T13:21:58.000Z</time>
      </trkpt>
      <trkpt lat="44.91022" lon="5.18863">
        <ele>1017.7431640625</ele>
        <time>2016-06-25T13:22:01.000Z</time>
      </trkpt>
      <trkpt lat="44.90997" lon="5.18873">
        <ele>1016.7435302734</ele>
        <time>2016-06-25T13:22:03.000Z</time>
      </trkpt>
      <trkpt lat="44.90959" lon="5.18894">
        <ele>1015.3295898438</ele>
        <time>2016-06-25T13:22:06.000Z</time>
      </trkpt>
      <trkpt lat="44.9094" lon="5.189">
        <ele>1014.66015625</ele>
        <time>2016-06-25T13:22:08.000Z</time>
      </trkpt>
      <trkpt lat="44.90915" lon="5.18927">
        <ele>1012.4769287109</ele>
        <time>2016-06-25T13:22:11.000Z</time>
      </trkpt>
      <trkpt lat="44.90885" lon="5.18937">
        <ele>1008.9866943359</ele>
        <time>2016-06-25T13:22:14.000Z</time>
      </trkpt>
      <trkpt lat="44.90863" lon="5.1894">
        <ele>1005.702331543</ele>
        <time>2016-06-25T13:22:16.000Z</time>
      </trkpt>
      <trkpt lat="44.90844" lon="5.18949">
        <ele>1003.0866088867</ele>
        <time>2016-06-25T13:22:18.000Z</time>
      </trkpt>
      <trkpt lat="44.90796" lon="5.18921">
        <ele>1004.3095703125</ele>
        <time>2016-06-25T13:22:22.000Z</time>
      </trkpt>
      <trkpt lat="44.90757" lon="5.18927">
        <ele>1008.0588989258</ele>
        <time>2016-06-25T13:22:25.000Z</time>
      </trkpt>
      <trkpt lat="44.90736" lon="5.18937">
        <ele>1011.8302612305</ele>
        <time>2016-06-25T13:22:27.000Z</time>
      </trkpt>
      <trkpt lat="44.90711" lon="5.18957">
        <ele>1014.1744384766</ele>
        <time>2016-06-25T13:22:30.000Z</time>
      </trkpt>
      <trkpt lat="44.90691" lon="5.18999">
        <ele>1012.8668212891</ele>
        <time>2016-06-25T13:22:33.000Z</time>
      </trkpt>
      <trkpt lat="44.90664" lon="5.19023">
        <ele>1006.9494018555</ele>
        <time>2016-06-25T13:22:36.000Z</time>
      </trkpt>
      <trkpt lat="44.9064" lon="5.19028">
        <ele>1000.7991333008</ele>
        <time>2016-06-25T13:22:38.000Z</time>
      </trkpt>
      <trkpt lat="44.90623" lon="5.19035">
        <ele>995.07293701172</ele>
        <time>2016-06-25T13:22:40.000Z</time>
      </trkpt>
      <trkpt lat="44.90606" lon="5.19049">
        <ele>990.12658691406</ele>
        <time>2016-06-25T13:22:43.000Z</time>
      </trkpt>
      <trkpt lat="44.90605" lon="5.1905">
        <ele>989.20422363281</ele>
        <time>2016-06-25T13:22:45.000Z</time>
      </trkpt>
      <trkpt lat="44.90606" lon="5.19053">
        <ele>988.83856201172</ele>
        <time>2016-06-25T13:22:47.000Z</time>
      </trkpt>
      <trkpt lat="44.90666" lon="5.1905">
        <ele>986.74841308594</ele>
        <time>2016-06-25T13:22:54.000Z</time>
      </trkpt>
      <trkpt lat="44.90682" lon="5.19046">
        <ele>984.41149902344</ele>
        <time>2016-06-25T13:22:56.000Z</time>
      </trkpt>
      <trkpt lat="44.90717" lon="5.19045">
        <ele>981.82458496094</ele>
        <time>2016-06-25T13:22:59.000Z</time>
      </trkpt>
      <trkpt lat="44.90739" lon="5.19047">
        <ele>978.6494140625</ele>
        <time>2016-06-25T13:23:01.000Z</time>
      </trkpt>
      <trkpt lat="44.9077" lon="5.19044">
        <ele>975.20782470703</ele>
        <time>2016-06-25T13:23:04.000Z</time>
      </trkpt>
      <trkpt lat="44.90792" lon="5.19043">
        <ele>972.69982910156</ele>
        <time>2016-06-25T13:23:06.000Z</time>
      </trkpt>
      <trkpt lat="44.90812" lon="5.19041">
        <ele>970.208984375</ele>
        <time>2016-06-25T13:23:08.000Z</time>
      </trkpt>
      <trkpt lat="44.90839" lon="5.19041">
        <ele>967.94982910156</ele>
        <time>2016-06-25T13:23:11.000Z</time>
      </trkpt>
      <trkpt lat="44.9087" lon="5.19039">
        <ele>965.75</ele>
        <time>2016-06-25T13:23:14.000Z</time>
      </trkpt>
      <trkpt lat="44.90905" lon="5.19041">
        <ele>963.08630371094</ele>
        <time>2016-06-25T13:23:17.000Z</time>
      </trkpt>
      <trkpt lat="44.90928" lon="5.19048">
        <ele>959.83642578125</ele>
        <time>2016-06-25T13:23:19.000Z</time>
      </trkpt>
      <trkpt lat="44.90959" lon="5.19043">
        <ele>956.74395751953</ele>
        <time>2016-06-25T13:23:22.000Z</time>
      </trkpt>
      <trkpt lat="44.90981" lon="5.19045">
        <ele>953.75555419922</ele>
        <time>2016-06-25T13:23:24.000Z</time>
      </trkpt>
      <trkpt lat="44.91003" lon="5.19044">
        <ele>951.16094970703</ele>
        <time>2016-06-25T13:23:26.000Z</time>
      </trkpt>
      <trkpt lat="44.91033" lon="5.19065">
        <ele>947.70684814453</ele>
        <time>2016-06-25T13:23:29.000Z</time>
      </trkpt>
      <trkpt lat="44.91058" lon="5.19061">
        <ele>945.3486328125</ele>
        <time>2016-06-25T13:23:31.000Z</time>
      </trkpt>
      <trkpt lat="44.91091" lon="5.19085">
        <ele>941.24768066406</ele>
        <time>2016-06-25T13:23:34.000Z</time>
      </trkpt>
      <trkpt lat="44.91111" lon="5.19099">
        <ele>937.70153808594</ele>
        <time>2016-06-25T13:23:36.000Z</time>
      </trkpt>
      <trkpt lat="44.91136" lon="5.19121">
        <ele>934.34326171875</ele>
        <time>2016-06-25T13:23:39.000Z</time>
      </trkpt>
      <trkpt lat="44.91154" lon="5.19139">
        <ele>932.62713623047</ele>
        <time>2016-06-25T13:23:41.000Z</time>
      </trkpt>
      <trkpt lat="44.91166" lon="5.19159">
        <ele>930.32891845703</ele>
        <time>2016-06-25T13:23:43.000Z</time>
      </trkpt>
      <trkpt lat="44.91183" lon="5.19192">
        <ele>929.05212402344</ele>
        <time>2016-06-25T13:23:46.000Z</time>
      </trkpt>
      <trkpt lat="44.91204" lon="5.19221">
        <ele>927.04962158203</ele>
        <time>2016-06-25T13:23:49.000Z</time>
      </trkpt>
      <trkpt lat="44.91212" lon="5.19231">
        <ele>924.88458251953</ele>
        <time>2016-06-25T13:23:51.000Z</time>
      </trkpt>
      <trkpt lat="44.91225" lon="5.19244">
        <ele>922.64880371094</ele>
        <time>2016-06-25T13:23:54.000Z</time>
      </trkpt>
      <trkpt lat="44.9123" lon="5.19254">
        <ele>920.69055175781</ele>
        <time>2016-06-25T13:23:56.000Z</time>
      </trkpt>
      <trkpt lat="44.91229" lon="5.19257">
        <ele>919.44128417969</ele>
        <time>2016-06-25T13:23:58.000Z</time>
      </trkpt>
      <trkpt lat="44.91226" lon="5.19262">
        <ele>918.73406982422</ele>
        <time>2016-06-25T13:24:00.000Z</time>
      </trkpt>
      <trkpt lat="44.91214" lon="5.1927">
        <ele>918.12139892578</ele>
        <time>2016-06-25T13:24:03.000Z</time>
      </trkpt>
      <trkpt lat="44.91193" lon="5.1927">
        <ele>917.68859863281</ele>
        <time>2016-06-25T13:24:06.000Z</time>
      </trkpt>
      <trkpt lat="44.9118" lon="5.19271">
        <ele>917.3642578125</ele>
        <time>2016-06-25T13:24:09.000Z</time>
      </trkpt>
      <trkpt lat="44.91151" lon="5.19259">
        <ele>916.95568847656</ele>
        <time>2016-06-25T13:24:13.000Z</time>
      </trkpt>
      <trkpt lat="44.91127" lon="5.19256">
        <ele>916.39404296875</ele>
        <time>2016-06-25T13:24:16.000Z</time>
      </trkpt>
      <trkpt lat="44.91113" lon="5.19252">
        <ele>915.82434082031</ele>
        <time>2016-06-25T13:24:18.000Z</time>
      </trkpt>
      <trkpt lat="44.911" lon="5.19247">
        <ele>915.24481201172</ele>
        <time>2016-06-25T13:24:21.000Z</time>
      </trkpt>
      <trkpt lat="44.91092" lon="5.19246">
        <ele>914.64190673828</ele>
        <time>2016-06-25T13:24:23.000Z</time>
      </trkpt>
      <trkpt lat="44.9108" lon="5.19245">
        <ele>914.076171875</ele>
        <time>2016-06-25T13:24:26.000Z</time>
      </trkpt>
      <trkpt lat="44.91074" lon="5.19241">
        <ele>913.75018310547</ele>
        <time>2016-06-25T13:24:29.000Z</time>
      </trkpt>
      <trkpt lat="44.91069" lon="5.19238">
        <ele>913.560546875</ele>
        <time>2016-06-25T13:24:31.000Z</time>
      </trkpt>
      <trkpt lat="44.91071" lon="5.19237">
        <ele>913.48571777344</ele>
        <time>2016-06-25T13:24:34.000Z</time>
      </trkpt>
      <trkpt lat="44.91071" lon="5.19235">
        <ele>913.50408935547</ele>
        <time>2016-06-25T13:24:36.000Z</time>
      </trkpt>
      <trkpt lat="44.91073" lon="5.19233">
        <ele>913.64569091797</ele>
        <time>2016-06-25T13:24:39.000Z</time>
      </trkpt>
      <trkpt lat="44.91073" lon="5.19232">
        <ele>913.77502441406</ele>
        <time>2016-06-25T13:24:43.000Z</time>
      </trkpt>
      <trkpt lat="44.91073" lon="5.19238">
        <ele>913.80017089844</ele>
        <time>2016-06-25T13:35:33.000Z</time>
      </trkpt>
      <trkpt lat="44.91082" lon="5.1923">
        <ele>913.94696044922</ele>
        <time>2016-06-25T13:35:35.000Z</time>
      </trkpt>
      <trkpt lat="44.9108" lon="5.19234">
        <ele>914.00329589844</ele>
        <time>2016-06-25T13:35:41.000Z</time>
      </trkpt>
      <trkpt lat="44.91062" lon="5.19231">
        <ele>913.97247314453</ele>
        <time>2016-06-25T13:35:45.000Z</time>
      </trkpt>
      <trkpt lat="44.91043" lon="5.19226">
        <ele>913.8896484375</ele>
        <time>2016-06-25T13:35:48.000Z</time>
      </trkpt>
      <trkpt lat="44.91022" lon="5.19221">
        <ele>913.83905029297</ele>
        <time>2016-06-25T13:35:51.000Z</time>
      </trkpt>
      <trkpt lat="44.91005" lon="5.19217">
        <ele>913.58984375</ele>
        <time>2016-06-25T13:35:53.000Z</time>
      </trkpt>
      <trkpt lat="44.90983" lon="5.19212">
        <ele>913.55059814453</ele>
        <time>2016-06-25T13:35:56.000Z</time>
      </trkpt>
      <trkpt lat="44.90969" lon="5.19211">
        <ele>913.67578125</ele>
        <time>2016-06-25T13:35:58.000Z</time>
      </trkpt>
      <trkpt lat="44.90949" lon="5.19216">
        <ele>913.87805175781</ele>
        <time>2016-06-25T13:36:01.000Z</time>
      </trkpt>
      <trkpt lat="44.90934" lon="5.1922">
        <ele>914.15246582031</ele>
        <time>2016-06-25T13:36:03.000Z</time>
      </trkpt>
      <trkpt lat="44.90911" lon="5.19225">
        <ele>914.54248046875</ele>
        <time>2016-06-25T13:36:06.000Z</time>
      </trkpt>
      <trkpt lat="44.90897" lon="5.19226">
        <ele>914.93884277344</ele>
        <time>2016-06-25T13:36:08.000Z</time>
      </trkpt>
      <trkpt lat="44.90876" lon="5.1923">
        <ele>915.39532470703</ele>
        <time>2016-06-25T13:36:11.000Z</time>
      </trkpt>
      <trkpt lat="44.90857" lon="5.19232">
        <ele>916.00817871094</ele>
        <time>2016-06-25T13:36:14.000Z</time>
      </trkpt>
      <trkpt lat="44.90841" lon="5.1924">
        <ele>916.62219238281</ele>
        <time>2016-06-25T13:36:17.000Z</time>
      </trkpt>
      <trkpt lat="44.90829" lon="5.1924">
        <ele>917.29553222656</ele>
        <time>2016-06-25T13:36:19.000Z</time>
      </trkpt>
      <trkpt lat="44.90812" lon="5.19244">
        <ele>917.84698486328</ele>
        <time>2016-06-25T13:36:22.000Z</time>
      </trkpt>
      <trkpt lat="44.90799" lon="5.19246">
        <ele>918.27697753906</ele>
        <time>2016-06-25T13:36:24.000Z</time>
      </trkpt>
      <trkpt lat="44.90786" lon="5.19249">
        <ele>918.48748779297</ele>
        <time>2016-06-25T13:36:26.000Z</time>
      </trkpt>
      <trkpt lat="44.90766" lon="5.19249">
        <ele>918.83221435547</ele>
        <time>2016-06-25T13:36:29.000Z</time>
      </trkpt>
      <trkpt lat="44.90748" lon="5.19253">
        <ele>919.11950683594</ele>
        <time>2016-06-25T13:36:32.000Z</time>
      </trkpt>
      <trkpt lat="44.90734" lon="5.19259">
        <ele>919.41564941406</ele>
        <time>2016-06-25T13:36:34.000Z</time>
      </trkpt>
      <trkpt lat="44.90721" lon="5.19261">
        <ele>919.75207519531</ele>
        <time>2016-06-25T13:36:36.000Z</time>
      </trkpt>
      <trkpt lat="44.907" lon="5.19264">
        <ele>920.23046875</ele>
        <time>2016-06-25T13:36:39.000Z</time>
      </trkpt>
      <trkpt lat="44.9068" lon="5.19267">
        <ele>920.69323730469</ele>
        <time>2016-06-25T13:36:42.000Z</time>
      </trkpt>
      <trkpt lat="44.9066" lon="5.19273">
        <ele>921.181640625</ele>
        <time>2016-06-25T13:36:45.000Z</time>
      </trkpt>
      <trkpt lat="44.90644" lon="5.19279">
        <ele>921.75</ele>
        <time>2016-06-25T13:36:47.000Z</time>
      </trkpt>
      <trkpt lat="44.90624" lon="5.19288">
        <ele>922.30529785156</ele>
        <time>2016-06-25T13:36:50.000Z</time>
      </trkpt>
      <trkpt lat="44.90608" lon="5.19293">
        <ele>922.82110595703</ele>
        <time>2016-06-25T13:36:52.000Z</time>
      </trkpt>
      <trkpt lat="44.90592" lon="5.19292">
        <ele>923.42590332031</ele>
        <time>2016-06-25T13:36:54.000Z</time>
      </trkpt>
      <trkpt lat="44.9057" lon="5.19298">
        <ele>924.00451660156</ele>
        <time>2016-06-25T13:36:57.000Z</time>
      </trkpt>
      <trkpt lat="44.90551" lon="5.19316">
        <ele>924.03747558594</ele>
        <time>2016-06-25T13:37:00.000Z</time>
      </trkpt>
      <trkpt lat="44.90526" lon="5.19313">
        <ele>924.3359375</ele>
        <time>2016-06-25T13:37:03.000Z</time>
      </trkpt>
      <trkpt lat="44.90512" lon="5.19319">
        <ele>924.43347167969</ele>
        <time>2016-06-25T13:37:05.000Z</time>
      </trkpt>
      <trkpt lat="44.90498" lon="5.19329">
        <ele>924.06854248047</ele>
        <time>2016-06-25T13:37:07.000Z</time>
      </trkpt>
      <trkpt lat="44.90476" lon="5.19336">
        <ele>923.77978515625</ele>
        <time>2016-06-25T13:37:10.000Z</time>
      </trkpt>
      <trkpt lat="44.90456" lon="5.19345">
        <ele>924.02947998047</ele>
        <time>2016-06-25T13:37:13.000Z</time>
      </trkpt>
      <trkpt lat="44.90434" lon="5.19347">
        <ele>924.22283935547</ele>
        <time>2016-06-25T13:37:16.000Z</time>
      </trkpt>
      <trkpt lat="44.90419" lon="5.1935">
        <ele>924.6552734375</ele>
        <time>2016-06-25T13:37:18.000Z</time>
      </trkpt>
      <trkpt lat="44.90399" lon="5.19349">
        <ele>925.56774902344</ele>
        <time>2016-06-25T13:37:21.000Z</time>
      </trkpt>
      <trkpt lat="44.90387" lon="5.19354">
        <ele>926.30859375</ele>
        <time>2016-06-25T13:37:23.000Z</time>
      </trkpt>
      <trkpt lat="44.90364" lon="5.19355">
        <ele>927.10510253906</ele>
        <time>2016-06-25T13:37:26.000Z</time>
      </trkpt>
      <trkpt lat="44.90344" lon="5.19355">
        <ele>927.81799316406</ele>
        <time>2016-06-25T13:37:29.000Z</time>
      </trkpt>
      <trkpt lat="44.90319" lon="5.19356">
        <ele>928.46746826172</ele>
        <time>2016-06-25T13:37:32.000Z</time>
      </trkpt>
      <trkpt lat="44.90293" lon="5.1936">
        <ele>928.75421142578</ele>
        <time>2016-06-25T13:37:35.000Z</time>
      </trkpt>
      <trkpt lat="44.90277" lon="5.19361">
        <ele>929.052734375</ele>
        <time>2016-06-25T13:37:37.000Z</time>
      </trkpt>
      <trkpt lat="44.90251" lon="5.19364">
        <ele>929.08410644531</ele>
        <time>2016-06-25T13:37:40.000Z</time>
      </trkpt>
      <trkpt lat="44.90233" lon="5.19364">
        <ele>928.91540527344</ele>
        <time>2016-06-25T13:37:42.000Z</time>
      </trkpt>
      <trkpt lat="44.90214" lon="5.1936">
        <ele>928.81622314453</ele>
        <time>2016-06-25T13:37:44.000Z</time>
      </trkpt>
      <trkpt lat="44.90191" lon="5.19367">
        <ele>928.66131591797</ele>
        <time>2016-06-25T13:37:47.000Z</time>
      </trkpt>
      <trkpt lat="44.90167" lon="5.19375">
        <ele>928.35900878906</ele>
        <time>2016-06-25T13:37:50.000Z</time>
      </trkpt>
      <trkpt lat="44.90143" lon="5.19383">
        <ele>927.96807861328</ele>
        <time>2016-06-25T13:37:53.000Z</time>
      </trkpt>
      <trkpt lat="44.90127" lon="5.19385">
        <ele>927.52673339844</ele>
        <time>2016-06-25T13:37:55.000Z</time>
      </trkpt>
      <trkpt lat="44.90102" lon="5.19385">
        <ele>926.93298339844</ele>
        <time>2016-06-25T13:37:58.000Z</time>
      </trkpt>
      <trkpt lat="44.90084" lon="5.19382">
        <ele>926.54315185547</ele>
        <time>2016-06-25T13:38:00.000Z</time>
      </trkpt>
      <trkpt lat="44.90059" lon="5.19376">
        <ele>926.34490966797</ele>
        <time>2016-06-25T13:38:03.000Z</time>
      </trkpt>
      <trkpt lat="44.90042" lon="5.19374">
        <ele>926.31640625</ele>
        <time>2016-06-25T13:38:05.000Z</time>
      </trkpt>
      <trkpt lat="44.90017" lon="5.19366">
        <ele>926.40020751953</ele>
        <time>2016-06-25T13:38:08.000Z</time>
      </trkpt>
      <trkpt lat="44.89992" lon="5.19363">
        <ele>926.50372314453</ele>
        <time>2016-06-25T13:38:11.000Z</time>
      </trkpt>
      <trkpt lat="44.89968" lon="5.19361">
        <ele>926.51348876953</ele>
        <time>2016-06-25T13:38:14.000Z</time>
      </trkpt>
      <trkpt lat="44.89939" lon="5.19345">
        <ele>926.61163330078</ele>
        <time>2016-06-25T13:38:17.000Z</time>
      </trkpt>
      <trkpt lat="44.89923" lon="5.1934">
        <ele>926.69207763672</ele>
        <time>2016-06-25T13:38:19.000Z</time>
      </trkpt>
      <trkpt lat="44.89897" lon="5.19331">
        <ele>926.75</ele>
        <time>2016-06-25T13:38:22.000Z</time>
      </trkpt>
      <trkpt lat="44.89878" lon="5.19317">
        <ele>927.14923095703</ele>
        <time>2016-06-25T13:38:24.000Z</time>
      </trkpt>
      <trkpt lat="44.89862" lon="5.19311">
        <ele>927.66876220703</ele>
        <time>2016-06-25T13:38:26.000Z</time>
      </trkpt>
      <trkpt lat="44.89844" lon="5.19301">
        <ele>928.16357421875</ele>
        <time>2016-06-25T13:38:28.000Z</time>
      </trkpt>
      <trkpt lat="44.89818" lon="5.19289">
        <ele>928.71203613281</ele>
        <time>2016-06-25T13:38:31.000Z</time>
      </trkpt>
      <trkpt lat="44.89801" lon="5.19283">
        <ele>929.142578125</ele>
        <time>2016-06-25T13:38:33.000Z</time>
      </trkpt>
      <trkpt lat="44.89776" lon="5.19273">
        <ele>929.05841064453</ele>
        <time>2016-06-25T13:38:36.000Z</time>
      </trkpt>
      <trkpt lat="44.8976" lon="5.19259">
        <ele>928.80157470703</ele>
        <time>2016-06-25T13:38:38.000Z</time>
      </trkpt>
      <trkpt lat="44.89733" lon="5.19241">
        <ele>928.50958251953</ele>
        <time>2016-06-25T13:38:41.000Z</time>
      </trkpt>
      <trkpt lat="44.89714" lon="5.1923">
        <ele>928.28497314453</ele>
        <time>2016-06-25T13:38:43.000Z</time>
      </trkpt>
      <trkpt lat="44.89688" lon="5.19218">
        <ele>927.96179199219</ele>
        <time>2016-06-25T13:38:46.000Z</time>
      </trkpt>
      <trkpt lat="44.89662" lon="5.19205">
        <ele>927.51739501953</ele>
        <time>2016-06-25T13:38:49.000Z</time>
      </trkpt>
      <trkpt lat="44.89644" lon="5.1919">
        <ele>927.21130371094</ele>
        <time>2016-06-25T13:38:51.000Z</time>
      </trkpt>
      <trkpt lat="44.89626" lon="5.19173">
        <ele>926.81237792969</ele>
        <time>2016-06-25T13:38:53.000Z</time>
      </trkpt>
      <trkpt lat="44.89602" lon="5.1916">
        <ele>926.28485107422</ele>
        <time>2016-06-25T13:38:56.000Z</time>
      </trkpt>
      <trkpt lat="44.89584" lon="5.19149">
        <ele>925.86785888672</ele>
        <time>2016-06-25T13:38:58.000Z</time>
      </trkpt>
      <trkpt lat="44.89556" lon="5.1913">
        <ele>925.845703125</ele>
        <time>2016-06-25T13:39:01.000Z</time>
      </trkpt>
      <trkpt lat="44.89528" lon="5.19109">
        <ele>925.84521484375</ele>
        <time>2016-06-25T13:39:04.000Z</time>
      </trkpt>
      <trkpt lat="44.8951" lon="5.19101">
        <ele>925.86535644531</ele>
        <time>2016-06-25T13:39:06.000Z</time>
      </trkpt>
      <trkpt lat="44.89495" lon="5.19093">
        <ele>925.93884277344</ele>
        <time>2016-06-25T13:39:08.000Z</time>
      </trkpt>
      <trkpt lat="44.89479" lon="5.19085">
        <ele>926.15075683594</ele>
        <time>2016-06-25T13:39:10.000Z</time>
      </trkpt>
      <trkpt lat="44.89452" lon="5.19071">
        <ele>926.40295410156</ele>
        <time>2016-06-25T13:39:13.000Z</time>
      </trkpt>
      <trkpt lat="44.89434" lon="5.19063">
        <ele>926.67541503906</ele>
        <time>2016-06-25T13:39:15.000Z</time>
      </trkpt>
      <trkpt lat="44.89408" lon="5.19049">
        <ele>927.02313232422</ele>
        <time>2016-06-25T13:39:18.000Z</time>
      </trkpt>
      <trkpt lat="44.89391" lon="5.1904">
        <ele>927.45129394531</ele>
        <time>2016-06-25T13:39:20.000Z</time>
      </trkpt>
      <trkpt lat="44.89366" lon="5.19027">
        <ele>927.98553466797</ele>
        <time>2016-06-25T13:39:23.000Z</time>
      </trkpt>
      <trkpt lat="44.89348" lon="5.19017">
        <ele>928.54718017578</ele>
        <time>2016-06-25T13:39:25.000Z</time>
      </trkpt>
      <trkpt lat="44.89324" lon="5.19">
        <ele>929.20391845703</ele>
        <time>2016-06-25T13:39:28.000Z</time>
      </trkpt>
      <trkpt lat="44.89301" lon="5.18986">
        <ele>929.71203613281</ele>
        <time>2016-06-25T13:39:31.000Z</time>
      </trkpt>
      <trkpt lat="44.89279" lon="5.18966">
        <ele>930.1064453125</ele>
        <time>2016-06-25T13:39:34.000Z</time>
      </trkpt>
      <trkpt lat="44.8926" lon="5.18951">
        <ele>930.32580566406</ele>
        <time>2016-06-25T13:39:37.000Z</time>
      </trkpt>
      <trkpt lat="44.89235" lon="5.18939">
        <ele>930.39093017578</ele>
        <time>2016-06-25T13:39:40.000Z</time>
      </trkpt>
      <trkpt lat="44.89221" lon="5.18928">
        <ele>930.32067871094</ele>
        <time>2016-06-25T13:39:42.000Z</time>
      </trkpt>
      <trkpt lat="44.89206" lon="5.18918">
        <ele>930.33752441406</ele>
        <time>2016-06-25T13:39:44.000Z</time>
      </trkpt>
      <trkpt lat="44.8919" lon="5.18911">
        <ele>930.38098144531</ele>
        <time>2016-06-25T13:39:46.000Z</time>
      </trkpt>
      <trkpt lat="44.89168" lon="5.18889">
        <ele>930.52410888672</ele>
        <time>2016-06-25T13:39:49.000Z</time>
      </trkpt>
      <trkpt lat="44.89154" lon="5.18878">
        <ele>930.74334716797</ele>
        <time>2016-06-25T13:39:51.000Z</time>
      </trkpt>
      <trkpt lat="44.89133" lon="5.18856">
        <ele>931.06134033203</ele>
        <time>2016-06-25T13:39:54.000Z</time>
      </trkpt>
      <trkpt lat="44.8912" lon="5.1884">
        <ele>931.43084716797</ele>
        <time>2016-06-25T13:39:56.000Z</time>
      </trkpt>
      <trkpt lat="44.89101" lon="5.18824">
        <ele>931.80603027344</ele>
        <time>2016-06-25T13:39:59.000Z</time>
      </trkpt>
      <trkpt lat="44.89081" lon="5.18802">
        <ele>932.07354736328</ele>
        <time>2016-06-25T13:40:02.000Z</time>
      </trkpt>
      <trkpt lat="44.89067" lon="5.18789">
        <ele>932.23571777344</ele>
        <time>2016-06-25T13:40:04.000Z</time>
      </trkpt>
      <trkpt lat="44.89055" lon="5.18779">
        <ele>932.25177001953</ele>
        <time>2016-06-25T13:40:06.000Z</time>
      </trkpt>
      <trkpt lat="44.89034" lon="5.18762">
        <ele>932.14776611328</ele>
        <time>2016-06-25T13:40:09.000Z</time>
      </trkpt>
      <trkpt lat="44.8902" lon="5.18753">
        <ele>931.97784423828</ele>
        <time>2016-06-25T13:40:11.000Z</time>
      </trkpt>
      <trkpt lat="44.89004" lon="5.1874">
        <ele>931.82049560547</ele>
        <time>2016-06-25T13:40:13.000Z</time>
      </trkpt>
      <trkpt lat="44.8899" lon="5.18729">
        <ele>931.76989746094</ele>
        <time>2016-06-25T13:40:15.000Z</time>
      </trkpt>
      <trkpt lat="44.88976" lon="5.18712">
        <ele>931.84631347656</ele>
        <time>2016-06-25T13:40:17.000Z</time>
      </trkpt>
      <trkpt lat="44.88955" lon="5.18685">
        <ele>932.00323486328</ele>
        <time>2016-06-25T13:40:20.000Z</time>
      </trkpt>
      <trkpt lat="44.8894" lon="5.18667">
        <ele>932.1279296875</ele>
        <time>2016-06-25T13:40:22.000Z</time>
      </trkpt>
      <trkpt lat="44.88925" lon="5.18655">
        <ele>932.12774658203</ele>
        <time>2016-06-25T13:40:24.000Z</time>
      </trkpt>
      <trkpt lat="44.88904" lon="5.18635">
        <ele>932.02032470703</ele>
        <time>2016-06-25T13:40:27.000Z</time>
      </trkpt>
      <trkpt lat="44.8889" lon="5.18626">
        <ele>931.85607910156</ele>
        <time>2016-06-25T13:40:29.000Z</time>
      </trkpt>
      <trkpt lat="44.88874" lon="5.18614">
        <ele>931.736328125</ele>
        <time>2016-06-25T13:40:31.000Z</time>
      </trkpt>
      <trkpt lat="44.88858" lon="5.186">
        <ele>931.78869628906</ele>
        <time>2016-06-25T13:40:33.000Z</time>
      </trkpt>
      <trkpt lat="44.88842" lon="5.18589">
        <ele>932.03338623047</ele>
        <time>2016-06-25T13:40:35.000Z</time>
      </trkpt>
      <trkpt lat="44.88805" lon="5.18552">
        <ele>932.58068847656</ele>
        <time>2016-06-25T13:40:40.000Z</time>
      </trkpt>
      <trkpt lat="44.88791" lon="5.18541">
        <ele>933.15380859375</ele>
        <time>2016-06-25T13:40:42.000Z</time>
      </trkpt>
      <trkpt lat="44.88771" lon="5.18529">
        <ele>933.72882080078</ele>
        <time>2016-06-25T13:40:45.000Z</time>
      </trkpt>
      <trkpt lat="44.88751" lon="5.18517">
        <ele>934.25549316406</ele>
        <time>2016-06-25T13:40:48.000Z</time>
      </trkpt>
      <trkpt lat="44.8873" lon="5.18497">
        <ele>934.69659423828</ele>
        <time>2016-06-25T13:40:51.000Z</time>
      </trkpt>
      <trkpt lat="44.88718" lon="5.18488">
        <ele>934.82995605469</ele>
        <time>2016-06-25T13:40:53.000Z</time>
      </trkpt>
      <trkpt lat="44.88712" lon="5.18472">
        <ele>934.83337402344</ele>
        <time>2016-06-25T13:40:55.000Z</time>
      </trkpt>
      <trkpt lat="44.88713" lon="5.18454">
        <ele>934.72137451172</ele>
        <time>2016-06-25T13:40:57.000Z</time>
      </trkpt>
      <trkpt lat="44.88722" lon="5.18425">
        <ele>934.54357910156</ele>
        <time>2016-06-25T13:41:00.000Z</time>
      </trkpt>
      <trkpt lat="44.88729" lon="5.18405">
        <ele>934.47375488281</ele>
        <time>2016-06-25T13:41:02.000Z</time>
      </trkpt>
      <trkpt lat="44.88735" lon="5.18378">
        <ele>934.61975097656</ele>
        <time>2016-06-25T13:41:05.000Z</time>
      </trkpt>
      <trkpt lat="44.88736" lon="5.18351">
        <ele>934.98229980469</ele>
        <time>2016-06-25T13:41:08.000Z</time>
      </trkpt>
      <trkpt lat="44.88737" lon="5.18331">
        <ele>935.50354003906</ele>
        <time>2016-06-25T13:41:11.000Z</time>
      </trkpt>
      <trkpt lat="44.88734" lon="5.18311">
        <ele>936.11877441406</ele>
        <time>2016-06-25T13:41:14.000Z</time>
      </trkpt>
      <trkpt lat="44.88733" lon="5.18297">
        <ele>936.67736816406</ele>
        <time>2016-06-25T13:41:16.000Z</time>
      </trkpt>
      <trkpt lat="44.88721" lon="5.1829">
        <ele>937.07147216797</ele>
        <time>2016-06-25T13:41:18.000Z</time>
      </trkpt>
      <trkpt lat="44.88711" lon="5.18277">
        <ele>937.37225341797</ele>
        <time>2016-06-25T13:41:21.000Z</time>
      </trkpt>
      <trkpt lat="44.88705" lon="5.18267">
        <ele>937.62225341797</ele>
        <time>2016-06-25T13:41:23.000Z</time>
      </trkpt>
      <trkpt lat="44.88691" lon="5.1825">
        <ele>937.92810058594</ele>
        <time>2016-06-25T13:41:26.000Z</time>
      </trkpt>
      <trkpt lat="44.88683" lon="5.18241">
        <ele>938.18786621094</ele>
        <time>2016-06-25T13:41:28.000Z</time>
      </trkpt>
      <trkpt lat="44.8867" lon="5.18223">
        <ele>938.40832519531</ele>
        <time>2016-06-25T13:41:31.000Z</time>
      </trkpt>
      <trkpt lat="44.8866" lon="5.18211">
        <ele>938.49578857422</ele>
        <time>2016-06-25T13:41:33.000Z</time>
      </trkpt>
      <trkpt lat="44.88649" lon="5.18173">
        <ele>938.39709472656</ele>
        <time>2016-06-25T13:41:36.000Z</time>
      </trkpt>
      <trkpt lat="44.88634" lon="5.18143">
        <ele>938.59313964844</ele>
        <time>2016-06-25T13:41:39.000Z</time>
      </trkpt>
      <trkpt lat="44.88625" lon="5.18132">
        <ele>938.98944091797</ele>
        <time>2016-06-25T13:41:41.000Z</time>
      </trkpt>
      <trkpt lat="44.88609" lon="5.18118">
        <ele>939.72448730469</ele>
        <time>2016-06-25T13:41:44.000Z</time>
      </trkpt>
      <trkpt lat="44.88601" lon="5.18112">
        <ele>940.68664550781</ele>
        <time>2016-06-25T13:41:46.000Z</time>
      </trkpt>
      <trkpt lat="44.88592" lon="5.18106">
        <ele>941.95233154297</ele>
        <time>2016-06-25T13:41:48.000Z</time>
      </trkpt>
      <trkpt lat="44.88582" lon="5.18096">
        <ele>943.07147216797</ele>
        <time>2016-06-25T13:41:50.000Z</time>
      </trkpt>
      <trkpt lat="44.88565" lon="5.18079">
        <ele>944.34094238281</ele>
        <time>2016-06-25T13:41:53.000Z</time>
      </trkpt>
      <trkpt lat="44.88555" lon="5.18071">
        <ele>945.51696777344</ele>
        <time>2016-06-25T13:41:55.000Z</time>
      </trkpt>
      <trkpt lat="44.88541" lon="5.18063">
        <ele>946.71337890625</ele>
        <time>2016-06-25T13:41:58.000Z</time>
      </trkpt>
      <trkpt lat="44.88531" lon="5.18062">
        <ele>947.71563720703</ele>
        <time>2016-06-25T13:42:00.000Z</time>
      </trkpt>
      <trkpt lat="44.88522" lon="5.18058">
        <ele>948.56872558594</ele>
        <time>2016-06-25T13:42:02.000Z</time>
      </trkpt>
      <trkpt lat="44.88508" lon="5.18053">
        <ele>949.15509033203</ele>
        <time>2016-06-25T13:42:05.000Z</time>
      </trkpt>
      <trkpt lat="44.88499" lon="5.18051">
        <ele>949.53955078125</ele>
        <time>2016-06-25T13:42:07.000Z</time>
      </trkpt>
      <trkpt lat="44.88485" lon="5.18047">
        <ele>949.90393066406</ele>
        <time>2016-06-25T13:42:10.000Z</time>
      </trkpt>
      <trkpt lat="44.88475" lon="5.18046">
        <ele>950.35693359375</ele>
        <time>2016-06-25T13:42:12.000Z</time>
      </trkpt>
      <trkpt lat="44.88466" lon="5.18048">
        <ele>950.61541748047</ele>
        <time>2016-06-25T13:42:14.000Z</time>
      </trkpt>
      <trkpt lat="44.88458" lon="5.18045">
        <ele>950.875</ele>
        <time>2016-06-25T13:42:16.000Z</time>
      </trkpt>
      <trkpt lat="44.88443" lon="5.18047">
        <ele>951.048828125</ele>
        <time>2016-06-25T13:42:19.000Z</time>
      </trkpt>
      <trkpt lat="44.88429" lon="5.18049">
        <ele>950.998046875</ele>
        <time>2016-06-25T13:42:22.000Z</time>
      </trkpt>
      <trkpt lat="44.88419" lon="5.18048">
        <ele>950.9140625</ele>
        <time>2016-06-25T13:42:24.000Z</time>
      </trkpt>
      <trkpt lat="44.88404" lon="5.18046">
        <ele>951.052734375</ele>
        <time>2016-06-25T13:42:27.000Z</time>
      </trkpt>
      <trkpt lat="44.88395" lon="5.18045">
        <ele>951.18896484375</ele>
        <time>2016-06-25T13:42:29.000Z</time>
      </trkpt>
      <trkpt lat="44.88379" lon="5.18045">
        <ele>951.50860595703</ele>
        <time>2016-06-25T13:42:32.000Z</time>
      </trkpt>
      <trkpt lat="44.88368" lon="5.18044">
        <ele>951.98162841797</ele>
        <time>2016-06-25T13:42:34.000Z</time>
      </trkpt>
      <trkpt lat="44.88358" lon="5.18044">
        <ele>952.4931640625</ele>
        <time>2016-06-25T13:42:36.000Z</time>
      </trkpt>
      <trkpt lat="44.88342" lon="5.18044">
        <ele>952.94445800781</ele>
        <time>2016-06-25T13:42:39.000Z</time>
      </trkpt>
      <trkpt lat="44.88328" lon="5.18046">
        <ele>953.2900390625</ele>
        <time>2016-06-25T13:42:42.000Z</time>
      </trkpt>
      <trkpt lat="44.8832" lon="5.18043">
        <ele>953.65759277344</ele>
        <time>2016-06-25T13:42:44.000Z</time>
      </trkpt>
      <trkpt lat="44.88321" lon="5.18028">
        <ele>954.47918701172</ele>
        <time>2016-06-25T13:42:47.000Z</time>
      </trkpt>
      <trkpt lat="44.88332" lon="5.18023">
        <ele>955.36651611328</ele>
        <time>2016-06-25T13:42:49.000Z</time>
      </trkpt>
      <trkpt lat="44.88343" lon="5.18022">
        <ele>956.1455078125</ele>
        <time>2016-06-25T13:42:51.000Z</time>
      </trkpt>
      <trkpt lat="44.88359" lon="5.18021">
        <ele>956.92999267578</ele>
        <time>2016-06-25T13:42:54.000Z</time>
      </trkpt>
      <trkpt lat="44.88374" lon="5.18018">
        <ele>957.5654296875</ele>
        <time>2016-06-25T13:42:57.000Z</time>
      </trkpt>
      <trkpt lat="44.88386" lon="5.18017">
        <ele>957.65246582031</ele>
        <time>2016-06-25T13:43:00.000Z</time>
      </trkpt>
      <trkpt lat="44.88398" lon="5.18012">
        <ele>957.72088623047</ele>
        <time>2016-06-25T13:43:03.000Z</time>
      </trkpt>
      <trkpt lat="44.88408" lon="5.18006">
        <ele>958.00323486328</ele>
        <time>2016-06-25T13:43:06.000Z</time>
      </trkpt>
      <trkpt lat="44.88417" lon="5.18001">
        <ele>958.46356201172</ele>
        <time>2016-06-25T13:43:09.000Z</time>
      </trkpt>
      <trkpt lat="44.88428" lon="5.17996">
        <ele>959.1533203125</ele>
        <time>2016-06-25T13:43:12.000Z</time>
      </trkpt>
      <trkpt lat="44.88435" lon="5.17993">
        <ele>959.98468017578</ele>
        <time>2016-06-25T13:43:14.000Z</time>
      </trkpt>
      <trkpt lat="44.88441" lon="5.1799">
        <ele>960.81280517578</ele>
        <time>2016-06-25T13:43:16.000Z</time>
      </trkpt>
      <trkpt lat="44.8845" lon="5.17986">
        <ele>961.65478515625</ele>
        <time>2016-06-25T13:43:19.000Z</time>
      </trkpt>
      <trkpt lat="44.88459" lon="5.17981">
        <ele>962.52899169922</ele>
        <time>2016-06-25T13:43:22.000Z</time>
      </trkpt>
      <trkpt lat="44.88468" lon="5.17978">
        <ele>963.31872558594</ele>
        <time>2016-06-25T13:43:25.000Z</time>
      </trkpt>
      <trkpt lat="44.88476" lon="5.17974">
        <ele>964.13562011719</ele>
        <time>2016-06-25T13:43:28.000Z</time>
      </trkpt>
      <trkpt lat="44.88482" lon="5.1797">
        <ele>965.00750732422</ele>
        <time>2016-06-25T13:43:30.000Z</time>
      </trkpt>
      <trkpt lat="44.88488" lon="5.17966">
        <ele>965.83093261719</ele>
        <time>2016-06-25T13:43:32.000Z</time>
      </trkpt>
      <trkpt lat="44.88493" lon="5.17962">
        <ele>966.62579345703</ele>
        <time>2016-06-25T13:43:34.000Z</time>
      </trkpt>
      <trkpt lat="44.88502" lon="5.17956">
        <ele>967.50567626953</ele>
        <time>2016-06-25T13:43:37.000Z</time>
      </trkpt>
      <trkpt lat="44.88511" lon="5.17949">
        <ele>968.44177246094</ele>
        <time>2016-06-25T13:43:40.000Z</time>
      </trkpt>
      <trkpt lat="44.88517" lon="5.17945">
        <ele>969.31085205078</ele>
        <time>2016-06-25T13:43:42.000Z</time>
      </trkpt>
      <trkpt lat="44.88526" lon="5.1794">
        <ele>970.12878417969</ele>
        <time>2016-06-25T13:43:45.000Z</time>
      </trkpt>
      <trkpt lat="44.88532" lon="5.17937">
        <ele>970.81915283203</ele>
        <time>2016-06-25T13:43:47.000Z</time>
      </trkpt>
      <trkpt lat="44.88538" lon="5.17934">
        <ele>971.3154296875</ele>
        <time>2016-06-25T13:43:49.000Z</time>
      </trkpt>
      <trkpt lat="44.88549" lon="5.1793">
        <ele>971.5869140625</ele>
        <time>2016-06-25T13:43:52.000Z</time>
      </trkpt>
      <trkpt lat="44.88558" lon="5.17924">
        <ele>971.78497314453</ele>
        <time>2016-06-25T13:43:55.000Z</time>
      </trkpt>
      <trkpt lat="44.88567" lon="5.1792">
        <ele>971.87188720703</ele>
        <time>2016-06-25T13:43:58.000Z</time>
      </trkpt>
      <trkpt lat="44.88573" lon="5.17916">
        <ele>971.90350341797</ele>
        <time>2016-06-25T13:44:00.000Z</time>
      </trkpt>
      <trkpt lat="44.8858" lon="5.17913">
        <ele>971.80633544922</ele>
        <time>2016-06-25T13:44:02.000Z</time>
      </trkpt>
      <trkpt lat="44.88587" lon="5.17907">
        <ele>971.6474609375</ele>
        <time>2016-06-25T13:44:05.000Z</time>
      </trkpt>
      <trkpt lat="44.88593" lon="5.17898">
        <ele>971.43371582031</ele>
        <time>2016-06-25T13:44:08.000Z</time>
      </trkpt>
      <trkpt lat="44.88595" lon="5.17888">
        <ele>971.24688720703</ele>
        <time>2016-06-25T13:44:10.000Z</time>
      </trkpt>
      <trkpt lat="44.88591" lon="5.17871">
        <ele>971.20031738281</ele>
        <time>2016-06-25T13:44:13.000Z</time>
      </trkpt>
      <trkpt lat="44.88584" lon="5.17864">
        <ele>971.36682128906</ele>
        <time>2016-06-25T13:44:15.000Z</time>
      </trkpt>
      <trkpt lat="44.88573" lon="5.17855">
        <ele>971.94403076172</ele>
        <time>2016-06-25T13:44:18.000Z</time>
      </trkpt>
      <trkpt lat="44.88564" lon="5.17849">
        <ele>972.87536621094</ele>
        <time>2016-06-25T13:44:21.000Z</time>
      </trkpt>
      <trkpt lat="44.88556" lon="5.17843">
        <ele>974.095703125</ele>
        <time>2016-06-25T13:44:24.000Z</time>
      </trkpt>
      <trkpt lat="44.8855" lon="5.17842">
        <ele>975.3857421875</ele>
        <time>2016-06-25T13:44:26.000Z</time>
      </trkpt>
      <trkpt lat="44.88544" lon="5.17841">
        <ele>976.74200439453</ele>
        <time>2016-06-25T13:44:28.000Z</time>
      </trkpt>
      <trkpt lat="44.88539" lon="5.17841">
        <ele>977.93670654297</ele>
        <time>2016-06-25T13:44:30.000Z</time>
      </trkpt>
      <trkpt lat="44.8853" lon="5.17839">
        <ele>979.11291503906</ele>
        <time>2016-06-25T13:44:33.000Z</time>
      </trkpt>
      <trkpt lat="44.88521" lon="5.17837">
        <ele>980.31945800781</ele>
        <time>2016-06-25T13:44:36.000Z</time>
      </trkpt>
      <trkpt lat="44.88512" lon="5.17833">
        <ele>981.70184326172</ele>
        <time>2016-06-25T13:44:39.000Z</time>
      </trkpt>
      <trkpt lat="44.88506" lon="5.17831">
        <ele>983.130859375</ele>
        <time>2016-06-25T13:44:41.000Z</time>
      </trkpt>
      <trkpt lat="44.88499" lon="5.17827">
        <ele>984.60852050781</ele>
        <time>2016-06-25T13:44:43.000Z</time>
      </trkpt>
      <trkpt lat="44.88491" lon="5.17819">
        <ele>986.01580810547</ele>
        <time>2016-06-25T13:44:46.000Z</time>
      </trkpt>
      <trkpt lat="44.88486" lon="5.17811">
        <ele>987.2431640625</ele>
        <time>2016-06-25T13:44:48.000Z</time>
      </trkpt>
      <trkpt lat="44.8848" lon="5.17799">
        <ele>988.31134033203</ele>
        <time>2016-06-25T13:44:51.000Z</time>
      </trkpt>
      <trkpt lat="44.88477" lon="5.17793">
        <ele>989.26696777344</ele>
        <time>2016-06-25T13:44:53.000Z</time>
      </trkpt>
      <trkpt lat="44.88471" lon="5.17781">
        <ele>990.17657470703</ele>
        <time>2016-06-25T13:44:56.000Z</time>
      </trkpt>
      <trkpt lat="44.88469" lon="5.17771">
        <ele>990.94256591797</ele>
        <time>2016-06-25T13:44:58.000Z</time>
      </trkpt>
      <trkpt lat="44.88469" lon="5.17756">
        <ele>991.62030029297</ele>
        <time>2016-06-25T13:45:01.000Z</time>
      </trkpt>
      <trkpt lat="44.88473" lon="5.1774">
        <ele>992.29705810547</ele>
        <time>2016-06-25T13:45:04.000Z</time>
      </trkpt>
      <trkpt lat="44.88478" lon="5.17731">
        <ele>993.0087890625</ele>
        <time>2016-06-25T13:45:06.000Z</time>
      </trkpt>
      <trkpt lat="44.88483" lon="5.17724">
        <ele>993.63983154297</ele>
        <time>2016-06-25T13:45:08.000Z</time>
      </trkpt>
      <trkpt lat="44.88494" lon="5.17717">
        <ele>994.15100097656</ele>
        <time>2016-06-25T13:45:11.000Z</time>
      </trkpt>
      <trkpt lat="44.88503" lon="5.17712">
        <ele>994.53192138672</ele>
        <time>2016-06-25T13:45:14.000Z</time>
      </trkpt>
      <trkpt lat="44.88512" lon="5.17708">
        <ele>994.66973876953</ele>
        <time>2016-06-25T13:45:17.000Z</time>
      </trkpt>
      <trkpt lat="44.88517" lon="5.17706">
        <ele>994.61462402344</ele>
        <time>2016-06-25T13:45:19.000Z</time>
      </trkpt>
      <trkpt lat="44.88525" lon="5.17702">
        <ele>994.41864013672</ele>
        <time>2016-06-25T13:45:22.000Z</time>
      </trkpt>
      <trkpt lat="44.88532" lon="5.17696">
        <ele>994.26788330078</ele>
        <time>2016-06-25T13:45:25.000Z</time>
      </trkpt>
      <trkpt lat="44.88538" lon="5.17688">
        <ele>994.26794433594</ele>
        <time>2016-06-25T13:45:28.000Z</time>
      </trkpt>
      <trkpt lat="44.88541" lon="5.17678">
        <ele>994.50469970703</ele>
        <time>2016-06-25T13:45:31.000Z</time>
      </trkpt>
      <trkpt lat="44.88543" lon="5.17666">
        <ele>995.06481933594</ele>
        <time>2016-06-25T13:45:34.000Z</time>
      </trkpt>
      <trkpt lat="44.88543" lon="5.17658">
        <ele>995.84020996094</ele>
        <time>2016-06-25T13:45:36.000Z</time>
      </trkpt>
      <trkpt lat="44.88546" lon="5.17646">
        <ele>996.83703613281</ele>
        <time>2016-06-25T13:45:39.000Z</time>
      </trkpt>
      <trkpt lat="44.8855" lon="5.17633">
        <ele>997.94354248047</ele>
        <time>2016-06-25T13:45:42.000Z</time>
      </trkpt>
      <trkpt lat="44.88552" lon="5.17625">
        <ele>998.95184326172</ele>
        <time>2016-06-25T13:45:44.000Z</time>
      </trkpt>
      <trkpt lat="44.88555" lon="5.17617">
        <ele>999.79864501953</ele>
        <time>2016-06-25T13:45:46.000Z</time>
      </trkpt>
      <trkpt lat="44.88557" lon="5.17604">
        <ele>1000.6650390625</ele>
        <time>2016-06-25T13:45:49.000Z</time>
      </trkpt>
      <trkpt lat="44.88559" lon="5.17596">
        <ele>1001.4361572266</ele>
        <time>2016-06-25T13:45:51.000Z</time>
      </trkpt>
      <trkpt lat="44.8856" lon="5.17588">
        <ele>1002.139831543</ele>
        <time>2016-06-25T13:45:53.000Z</time>
      </trkpt>
      <trkpt lat="44.88562" lon="5.17579">
        <ele>1002.8626098633</ele>
        <time>2016-06-25T13:45:55.000Z</time>
      </trkpt>
      <trkpt lat="44.88564" lon="5.17571">
        <ele>1003.559753418</ele>
        <time>2016-06-25T13:45:57.000Z</time>
      </trkpt>
      <trkpt lat="44.88568" lon="5.17561">
        <ele>1004.1585693359</ele>
        <time>2016-06-25T13:46:00.000Z</time>
      </trkpt>
      <trkpt lat="44.88572" lon="5.17554">
        <ele>1004.6657104492</ele>
        <time>2016-06-25T13:46:02.000Z</time>
      </trkpt>
      <trkpt lat="44.88576" lon="5.17548">
        <ele>1005.0511474609</ele>
        <time>2016-06-25T13:46:04.000Z</time>
      </trkpt>
      <trkpt lat="44.88583" lon="5.17541">
        <ele>1005.3438720703</ele>
        <time>2016-06-25T13:46:07.000Z</time>
      </trkpt>
      <trkpt lat="44.88586" lon="5.17535">
        <ele>1005.6541748047</ele>
        <time>2016-06-25T13:46:09.000Z</time>
      </trkpt>
      <trkpt lat="44.88592" lon="5.17528">
        <ele>1006.0076904297</ele>
        <time>2016-06-25T13:46:12.000Z</time>
      </trkpt>
      <trkpt lat="44.88596" lon="5.17522">
        <ele>1006.4319458008</ele>
        <time>2016-06-25T13:46:14.000Z</time>
      </trkpt>
      <trkpt lat="44.88601" lon="5.17515">
        <ele>1007.026550293</ele>
        <time>2016-06-25T13:46:16.000Z</time>
      </trkpt>
      <trkpt lat="44.88602" lon="5.17501">
        <ele>1007.9775390625</ele>
        <time>2016-06-25T13:46:19.000Z</time>
      </trkpt>
      <trkpt lat="44.88599" lon="5.17492">
        <ele>1008.9719848633</ele>
        <time>2016-06-25T13:46:21.000Z</time>
      </trkpt>
      <trkpt lat="44.8859" lon="5.17481">
        <ele>1010.0533447266</ele>
        <time>2016-06-25T13:46:24.000Z</time>
      </trkpt>
      <trkpt lat="44.88584" lon="5.17478">
        <ele>1011.1031494141</ele>
        <time>2016-06-25T13:46:26.000Z</time>
      </trkpt>
      <trkpt lat="44.88574" lon="5.17474">
        <ele>1012.1184692383</ele>
        <time>2016-06-25T13:46:29.000Z</time>
      </trkpt>
      <trkpt lat="44.88565" lon="5.17471">
        <ele>1012.8656005859</ele>
        <time>2016-06-25T13:46:32.000Z</time>
      </trkpt>
      <trkpt lat="44.8856" lon="5.17469">
        <ele>1013.5237426758</ele>
        <time>2016-06-25T13:46:34.000Z</time>
      </trkpt>
      <trkpt lat="44.88553" lon="5.17465">
        <ele>1014.0521240234</ele>
        <time>2016-06-25T13:46:37.000Z</time>
      </trkpt>
      <trkpt lat="44.88546" lon="5.17458">
        <ele>1014.6072387695</ele>
        <time>2016-06-25T13:46:40.000Z</time>
      </trkpt>
      <trkpt lat="44.8854" lon="5.17448">
        <ele>1015.1285400391</ele>
        <time>2016-06-25T13:46:43.000Z</time>
      </trkpt>
      <trkpt lat="44.88536" lon="5.1744">
        <ele>1015.6087646484</ele>
        <time>2016-06-25T13:46:45.000Z</time>
      </trkpt>
      <trkpt lat="44.88533" lon="5.17425">
        <ele>1016.1245117188</ele>
        <time>2016-06-25T13:46:48.000Z</time>
      </trkpt>
      <trkpt lat="44.88532" lon="5.17414">
        <ele>1016.5867919922</ele>
        <time>2016-06-25T13:46:50.000Z</time>
      </trkpt>
      <trkpt lat="44.88531" lon="5.174">
        <ele>1016.8765869141</ele>
        <time>2016-06-25T13:46:53.000Z</time>
      </trkpt>
      <trkpt lat="44.8853" lon="5.17385">
        <ele>1016.9998168945</ele>
        <time>2016-06-25T13:46:56.000Z</time>
      </trkpt>
      <trkpt lat="44.8853" lon="5.17374">
        <ele>1017.010925293</ele>
        <time>2016-06-25T13:46:58.000Z</time>
      </trkpt>
      <trkpt lat="44.88531" lon="5.17362">
        <ele>1016.8782348633</ele>
        <time>2016-06-25T13:47:00.000Z</time>
      </trkpt>
      <trkpt lat="44.88532" lon="5.17343">
        <ele>1016.6409301758</ele>
        <time>2016-06-25T13:47:03.000Z</time>
      </trkpt>
      <trkpt lat="44.88532" lon="5.17323">
        <ele>1016.4423828125</ele>
        <time>2016-06-25T13:47:06.000Z</time>
      </trkpt>
      <trkpt lat="44.88536" lon="5.17301">
        <ele>1016.3411865234</ele>
        <time>2016-06-25T13:47:09.000Z</time>
      </trkpt>
      <trkpt lat="44.8854" lon="5.17279">
        <ele>1016.3356323242</ele>
        <time>2016-06-25T13:47:12.000Z</time>
      </trkpt>
      <trkpt lat="44.88543" lon="5.17256">
        <ele>1016.4329833984</ele>
        <time>2016-06-25T13:47:15.000Z</time>
      </trkpt>
      <trkpt lat="44.88547" lon="5.17233">
        <ele>1016.5745849609</ele>
        <time>2016-06-25T13:47:18.000Z</time>
      </trkpt>
      <trkpt lat="44.8855" lon="5.17219">
        <ele>1016.690612793</ele>
        <time>2016-06-25T13:47:20.000Z</time>
      </trkpt>
      <trkpt lat="44.88554" lon="5.17206">
        <ele>1016.714050293</ele>
        <time>2016-06-25T13:47:22.000Z</time>
      </trkpt>
      <trkpt lat="44.88558" lon="5.17193">
        <ele>1016.6223754883</ele>
        <time>2016-06-25T13:47:24.000Z</time>
      </trkpt>
      <trkpt lat="44.88563" lon="5.17175">
        <ele>1016.3702392578</ele>
        <time>2016-06-25T13:47:27.000Z</time>
      </trkpt>
      <trkpt lat="44.88567" lon="5.17163">
        <ele>1016.091003418</ele>
        <time>2016-06-25T13:47:29.000Z</time>
      </trkpt>
      <trkpt lat="44.88574" lon="5.17147">
        <ele>1015.8888549805</ele>
        <time>2016-06-25T13:47:32.000Z</time>
      </trkpt>
      <trkpt lat="44.8858" lon="5.17132">
        <ele>1015.7815551758</ele>
        <time>2016-06-25T13:47:35.000Z</time>
      </trkpt>
      <trkpt lat="44.88585" lon="5.17116">
        <ele>1015.789855957</ele>
        <time>2016-06-25T13:47:38.000Z</time>
      </trkpt>
      <trkpt lat="44.88588" lon="5.17099">
        <ele>1015.9698486328</ele>
        <time>2016-06-25T13:47:41.000Z</time>
      </trkpt>
      <trkpt lat="44.88591" lon="5.17089">
        <ele>1016.2483520508</ele>
        <time>2016-06-25T13:47:43.000Z</time>
      </trkpt>
      <trkpt lat="44.88597" lon="5.17073">
        <ele>1016.637878418</ele>
        <time>2016-06-25T13:47:46.000Z</time>
      </trkpt>
      <trkpt lat="44.886" lon="5.17063">
        <ele>1017.102722168</ele>
        <time>2016-06-25T13:47:48.000Z</time>
      </trkpt>
      <trkpt lat="44.88604" lon="5.17053">
        <ele>1017.629699707</ele>
        <time>2016-06-25T13:47:50.000Z</time>
      </trkpt>
      <trkpt lat="44.88608" lon="5.17038">
        <ele>1018.2607421875</ele>
        <time>2016-06-25T13:47:53.000Z</time>
      </trkpt>
      <trkpt lat="44.8861" lon="5.17022">
        <ele>1019.0190429688</ele>
        <time>2016-06-25T13:47:56.000Z</time>
      </trkpt>
      <trkpt lat="44.88612" lon="5.17007">
        <ele>1019.8106689453</ele>
        <time>2016-06-25T13:47:59.000Z</time>
      </trkpt>
      <trkpt lat="44.88615" lon="5.16991">
        <ele>1020.6647338867</ele>
        <time>2016-06-25T13:48:02.000Z</time>
      </trkpt>
      <trkpt lat="44.88617" lon="5.1698">
        <ele>1021.5115356445</ele>
        <time>2016-06-25T13:48:04.000Z</time>
      </trkpt>
      <trkpt lat="44.88617" lon="5.1697">
        <ele>1022.2906494141</ele>
        <time>2016-06-25T13:48:06.000Z</time>
      </trkpt>
      <trkpt lat="44.88616" lon="5.16955">
        <ele>1023.053527832</ele>
        <time>2016-06-25T13:48:09.000Z</time>
      </trkpt>
      <trkpt lat="44.88617" lon="5.16941">
        <ele>1023.7893676758</ele>
        <time>2016-06-25T13:48:12.000Z</time>
      </trkpt>
      <trkpt lat="44.88616" lon="5.16931">
        <ele>1024.4465332031</ele>
        <time>2016-06-25T13:48:14.000Z</time>
      </trkpt>
      <trkpt lat="44.88616" lon="5.16918">
        <ele>1025.1361083984</ele>
        <time>2016-06-25T13:48:17.000Z</time>
      </trkpt>
      <trkpt lat="44.88615" lon="5.16909">
        <ele>1025.8635253906</ele>
        <time>2016-06-25T13:48:19.000Z</time>
      </trkpt>
      <trkpt lat="44.88614" lon="5.169">
        <ele>1026.5911865234</ele>
        <time>2016-06-25T13:48:21.000Z</time>
      </trkpt>
      <trkpt lat="44.88614" lon="5.16886">
        <ele>1027.4134521484</ele>
        <time>2016-06-25T13:48:24.000Z</time>
      </trkpt>
      <trkpt lat="44.88614" lon="5.16877">
        <ele>1028.2976074219</ele>
        <time>2016-06-25T13:48:26.000Z</time>
      </trkpt>
      <trkpt lat="44.88615" lon="5.16863">
        <ele>1029.2863769531</ele>
        <time>2016-06-25T13:48:29.000Z</time>
      </trkpt>
      <trkpt lat="44.88614" lon="5.16853">
        <ele>1030.2912597656</ele>
        <time>2016-06-25T13:48:31.000Z</time>
      </trkpt>
      <trkpt lat="44.88613" lon="5.1684">
        <ele>1031.361328125</ele>
        <time>2016-06-25T13:48:34.000Z</time>
      </trkpt>
      <trkpt lat="44.88609" lon="5.16828">
        <ele>1032.3594970703</ele>
        <time>2016-06-25T13:48:37.000Z</time>
      </trkpt>
      <trkpt lat="44.88605" lon="5.16816">
        <ele>1033.3861083984</ele>
        <time>2016-06-25T13:48:40.000Z</time>
      </trkpt>
      <trkpt lat="44.88599" lon="5.16804">
        <ele>1034.3267822266</ele>
        <time>2016-06-25T13:48:43.000Z</time>
      </trkpt>
      <trkpt lat="44.88595" lon="5.16796">
        <ele>1035.1977539062</ele>
        <time>2016-06-25T13:48:45.000Z</time>
      </trkpt>
      <trkpt lat="44.88588" lon="5.16785">
        <ele>1035.9763183594</ele>
        <time>2016-06-25T13:48:48.000Z</time>
      </trkpt>
      <trkpt lat="44.88581" lon="5.16772">
        <ele>1036.7160644531</ele>
        <time>2016-06-25T13:48:51.000Z</time>
      </trkpt>
      <trkpt lat="44.88577" lon="5.16764">
        <ele>1037.3483886719</ele>
        <time>2016-06-25T13:48:53.000Z</time>
      </trkpt>
      <trkpt lat="44.88572" lon="5.16757">
        <ele>1037.8892822266</ele>
        <time>2016-06-25T13:48:55.000Z</time>
      </trkpt>
      <trkpt lat="44.88567" lon="5.1675">
        <ele>1038.4063720703</ele>
        <time>2016-06-25T13:48:57.000Z</time>
      </trkpt>
      <trkpt lat="44.8856" lon="5.16739">
        <ele>1038.9610595703</ele>
        <time>2016-06-25T13:49:00.000Z</time>
      </trkpt>
      <trkpt lat="44.88556" lon="5.16731">
        <ele>1039.4943847656</ele>
        <time>2016-06-25T13:49:02.000Z</time>
      </trkpt>
      <trkpt lat="44.8855" lon="5.16719">
        <ele>1040.1209716797</ele>
        <time>2016-06-25T13:49:05.000Z</time>
      </trkpt>
      <trkpt lat="44.88543" lon="5.16709">
        <ele>1040.8094482422</ele>
        <time>2016-06-25T13:49:08.000Z</time>
      </trkpt>
      <trkpt lat="44.8854" lon="5.167">
        <ele>1041.5700683594</ele>
        <time>2016-06-25T13:49:10.000Z</time>
      </trkpt>
      <trkpt lat="44.88539" lon="5.16689">
        <ele>1042.34375</ele>
        <time>2016-06-25T13:49:12.000Z</time>
      </trkpt>
      <trkpt lat="44.88538" lon="5.16674">
        <ele>1043.2857666016</ele>
        <time>2016-06-25T13:49:15.000Z</time>
      </trkpt>
      <trkpt lat="44.88538" lon="5.16665">
        <ele>1044.201171875</ele>
        <time>2016-06-25T13:49:17.000Z</time>
      </trkpt>
      <trkpt lat="44.88537" lon="5.16653">
        <ele>1045.0667724609</ele>
        <time>2016-06-25T13:49:20.000Z</time>
      </trkpt>
      <trkpt lat="44.88538" lon="5.1664">
        <ele>1045.8979492188</ele>
        <time>2016-06-25T13:49:23.000Z</time>
      </trkpt>
      <trkpt lat="44.8854" lon="5.16632">
        <ele>1046.6218261719</ele>
        <time>2016-06-25T13:49:25.000Z</time>
      </trkpt>
      <trkpt lat="44.88541" lon="5.16619">
        <ele>1047.1743164062</ele>
        <time>2016-06-25T13:49:28.000Z</time>
      </trkpt>
      <trkpt lat="44.88544" lon="5.16607">
        <ele>1047.6960449219</ele>
        <time>2016-06-25T13:49:31.000Z</time>
      </trkpt>
      <trkpt lat="44.88547" lon="5.16599">
        <ele>1048.2163085938</ele>
        <time>2016-06-25T13:49:33.000Z</time>
      </trkpt>
      <trkpt lat="44.88551" lon="5.16589">
        <ele>1048.7567138672</ele>
        <time>2016-06-25T13:49:36.000Z</time>
      </trkpt>
      <trkpt lat="44.88554" lon="5.16582">
        <ele>1049.2924804688</ele>
        <time>2016-06-25T13:49:38.000Z</time>
      </trkpt>
      <trkpt lat="44.88558" lon="5.16575">
        <ele>1049.7801513672</ele>
        <time>2016-06-25T13:49:40.000Z</time>
      </trkpt>
      <trkpt lat="44.88564" lon="5.16567">
        <ele>1050.2425537109</ele>
        <time>2016-06-25T13:49:43.000Z</time>
      </trkpt>
      <trkpt lat="44.8857" lon="5.16559">
        <ele>1050.716796875</ele>
        <time>2016-06-25T13:49:46.000Z</time>
      </trkpt>
      <trkpt lat="44.88577" lon="5.16551">
        <ele>1051.1481933594</ele>
        <time>2016-06-25T13:49:49.000Z</time>
      </trkpt>
      <trkpt lat="44.88583" lon="5.16543">
        <ele>1051.5861816406</ele>
        <time>2016-06-25T13:49:52.000Z</time>
      </trkpt>
      <trkpt lat="44.88589" lon="5.16533">
        <ele>1052.1022949219</ele>
        <time>2016-06-25T13:49:55.000Z</time>
      </trkpt>
      <trkpt lat="44.88592" lon="5.16527">
        <ele>1052.6086425781</ele>
        <time>2016-06-25T13:49:57.000Z</time>
      </trkpt>
      <trkpt lat="44.88596" lon="5.16521">
        <ele>1053.1286621094</ele>
        <time>2016-06-25T13:49:59.000Z</time>
      </trkpt>
      <trkpt lat="44.886" lon="5.16514">
        <ele>1053.6657714844</ele>
        <time>2016-06-25T13:50:01.000Z</time>
      </trkpt>
      <trkpt lat="44.88603" lon="5.16507">
        <ele>1054.2093505859</ele>
        <time>2016-06-25T13:50:03.000Z</time>
      </trkpt>
      <trkpt lat="44.88608" lon="5.16498">
        <ele>1054.7740478516</ele>
        <time>2016-06-25T13:50:06.000Z</time>
      </trkpt>
      <trkpt lat="44.88614" lon="5.16489">
        <ele>1055.4544677734</ele>
        <time>2016-06-25T13:50:09.000Z</time>
      </trkpt>
      <trkpt lat="44.8862" lon="5.16479">
        <ele>1056.251953125</ele>
        <time>2016-06-25T13:50:12.000Z</time>
      </trkpt>
      <trkpt lat="44.88622" lon="5.16472">
        <ele>1057.0537109375</ele>
        <time>2016-06-25T13:50:14.000Z</time>
      </trkpt>
      <trkpt lat="44.88626" lon="5.1646">
        <ele>1057.9720458984</ele>
        <time>2016-06-25T13:50:17.000Z</time>
      </trkpt>
      <trkpt lat="44.88628" lon="5.16452">
        <ele>1058.8360595703</ele>
        <time>2016-06-25T13:50:19.000Z</time>
      </trkpt>
      <trkpt lat="44.88629" lon="5.16445">
        <ele>1059.595703125</ele>
        <time>2016-06-25T13:50:21.000Z</time>
      </trkpt>
      <trkpt lat="44.8863" lon="5.16433">
        <ele>1060.2683105469</ele>
        <time>2016-06-25T13:50:24.000Z</time>
      </trkpt>
      <trkpt lat="44.8863" lon="5.16424">
        <ele>1060.9213867188</ele>
        <time>2016-06-25T13:50:26.000Z</time>
      </trkpt>
      <trkpt lat="44.88631" lon="5.16415">
        <ele>1061.4564208984</ele>
        <time>2016-06-25T13:50:28.000Z</time>
      </trkpt>
      <trkpt lat="44.88631" lon="5.16406">
        <ele>1061.9289550781</ele>
        <time>2016-06-25T13:50:30.000Z</time>
      </trkpt>
      <trkpt lat="44.8863" lon="5.16393">
        <ele>1062.3665771484</ele>
        <time>2016-06-25T13:50:33.000Z</time>
      </trkpt>
      <trkpt lat="44.8863" lon="5.16385">
        <ele>1062.7130126953</ele>
        <time>2016-06-25T13:50:35.000Z</time>
      </trkpt>
      <trkpt lat="44.8863" lon="5.16376">
        <ele>1063.0241699219</ele>
        <time>2016-06-25T13:50:37.000Z</time>
      </trkpt>
      <trkpt lat="44.8863" lon="5.16363">
        <ele>1063.3168945312</ele>
        <time>2016-06-25T13:50:40.000Z</time>
      </trkpt>
      <trkpt lat="44.88629" lon="5.16354">
        <ele>1063.5856933594</ele>
        <time>2016-06-25T13:50:42.000Z</time>
      </trkpt>
      <trkpt lat="44.88628" lon="5.16341">
        <ele>1063.8122558594</ele>
        <time>2016-06-25T13:50:45.000Z</time>
      </trkpt>
      <trkpt lat="44.88627" lon="5.16328">
        <ele>1064.0892333984</ele>
        <time>2016-06-25T13:50:48.000Z</time>
      </trkpt>
      <trkpt lat="44.88628" lon="5.16321">
        <ele>1064.4171142578</ele>
        <time>2016-06-25T13:50:50.000Z</time>
      </trkpt>
      <trkpt lat="44.88631" lon="5.16308">
        <ele>1064.9565429688</ele>
        <time>2016-06-25T13:50:53.000Z</time>
      </trkpt>
      <trkpt lat="44.88633" lon="5.163">
        <ele>1065.6315917969</ele>
        <time>2016-06-25T13:50:55.000Z</time>
      </trkpt>
      <trkpt lat="44.88636" lon="5.16286">
        <ele>1066.5587158203</ele>
        <time>2016-06-25T13:50:58.000Z</time>
      </trkpt>
      <trkpt lat="44.88637" lon="5.16278">
        <ele>1067.5439453125</ele>
        <time>2016-06-25T13:51:00.000Z</time>
      </trkpt>
      <trkpt lat="44.88639" lon="5.16267">
        <ele>1068.6296386719</ele>
        <time>2016-06-25T13:51:03.000Z</time>
      </trkpt>
      <trkpt lat="44.88641" lon="5.16259">
        <ele>1069.6041259766</ele>
        <time>2016-06-25T13:51:05.000Z</time>
      </trkpt>
      <trkpt lat="44.88644" lon="5.16245">
        <ele>1070.7071533203</ele>
        <time>2016-06-25T13:51:08.000Z</time>
      </trkpt>
      <trkpt lat="44.88646" lon="5.16236">
        <ele>1071.734375</ele>
        <time>2016-06-25T13:51:10.000Z</time>
      </trkpt>
      <trkpt lat="44.88646" lon="5.16223">
        <ele>1072.8776855469</ele>
        <time>2016-06-25T13:51:13.000Z</time>
      </trkpt>
      <trkpt lat="44.88646" lon="5.16214">
        <ele>1073.9641113281</ele>
        <time>2016-06-25T13:51:15.000Z</time>
      </trkpt>
      <trkpt lat="44.88644" lon="5.16206">
        <ele>1074.9963378906</ele>
        <time>2016-06-25T13:51:17.000Z</time>
      </trkpt>
      <trkpt lat="44.88642" lon="5.16197">
        <ele>1075.8273925781</ele>
        <time>2016-06-25T13:51:19.000Z</time>
      </trkpt>
      <trkpt lat="44.88637" lon="5.16186">
        <ele>1076.5433349609</ele>
        <time>2016-06-25T13:51:22.000Z</time>
      </trkpt>
      <trkpt lat="44.88633" lon="5.1618">
        <ele>1077.0075683594</ele>
        <time>2016-06-25T13:51:24.000Z</time>
      </trkpt>
      <trkpt lat="44.88629" lon="5.16172">
        <ele>1077.3786621094</ele>
        <time>2016-06-25T13:51:26.000Z</time>
      </trkpt>
      <trkpt lat="44.88626" lon="5.16165">
        <ele>1077.7180175781</ele>
        <time>2016-06-25T13:51:28.000Z</time>
      </trkpt>
      <trkpt lat="44.88622" lon="5.16157">
        <ele>1078.0662841797</ele>
        <time>2016-06-25T13:51:30.000Z</time>
      </trkpt>
      <trkpt lat="44.88616" lon="5.16146">
        <ele>1078.4993896484</ele>
        <time>2016-06-25T13:51:33.000Z</time>
      </trkpt>
      <trkpt lat="44.88612" lon="5.16139">
        <ele>1078.9987792969</ele>
        <time>2016-06-25T13:51:35.000Z</time>
      </trkpt>
      <trkpt lat="44.88608" lon="5.16133">
        <ele>1079.5344238281</ele>
        <time>2016-06-25T13:51:37.000Z</time>
      </trkpt>
      <trkpt lat="44.88602" lon="5.16122">
        <ele>1080.1911621094</ele>
        <time>2016-06-25T13:51:40.000Z</time>
      </trkpt>
      <trkpt lat="44.88599" lon="5.16114">
        <ele>1080.9188232422</ele>
        <time>2016-06-25T13:51:42.000Z</time>
      </trkpt>
      <trkpt lat="44.88594" lon="5.16103">
        <ele>1081.7181396484</ele>
        <time>2016-06-25T13:51:45.000Z</time>
      </trkpt>
      <trkpt lat="44.8859" lon="5.16096">
        <ele>1082.5845947266</ele>
        <time>2016-06-25T13:51:47.000Z</time>
      </trkpt>
      <trkpt lat="44.88585" lon="5.16084">
        <ele>1083.6527099609</ele>
        <time>2016-06-25T13:51:50.000Z</time>
      </trkpt>
      <trkpt lat="44.88581" lon="5.16071">
        <ele>1084.3657226562</ele>
        <time>2016-06-25T13:51:53.000Z</time>
      </trkpt>
      <trkpt lat="44.88579" lon="5.16058">
        <ele>1084.7061767578</ele>
        <time>2016-06-25T13:51:56.000Z</time>
      </trkpt>
      <trkpt lat="44.88581" lon="5.16048">
        <ele>1084.8431396484</ele>
        <time>2016-06-25T13:51:58.000Z</time>
      </trkpt>
      <trkpt lat="44.88587" lon="5.16038">
        <ele>1084.8887939453</ele>
        <time>2016-06-25T13:52:00.000Z</time>
      </trkpt>
      <trkpt lat="44.88597" lon="5.16025">
        <ele>1084.728515625</ele>
        <time>2016-06-25T13:52:03.000Z</time>
      </trkpt>
      <trkpt lat="44.88605" lon="5.16013">
        <ele>1084.8181152344</ele>
        <time>2016-06-25T13:52:06.000Z</time>
      </trkpt>
      <trkpt lat="44.88612" lon="5.16003">
        <ele>1085.203125</ele>
        <time>2016-06-25T13:52:08.000Z</time>
      </trkpt>
      <trkpt lat="44.8862" lon="5.15988">
        <ele>1085.5849609375</ele>
        <time>2016-06-25T13:52:11.000Z</time>
      </trkpt>
      <trkpt lat="44.88628" lon="5.15974">
        <ele>1085.9157714844</ele>
        <time>2016-06-25T13:52:14.000Z</time>
      </trkpt>
      <trkpt lat="44.88633" lon="5.15962">
        <ele>1086.1407470703</ele>
        <time>2016-06-25T13:52:17.000Z</time>
      </trkpt>
      <trkpt lat="44.88636" lon="5.15949">
        <ele>1086.224609375</ele>
        <time>2016-06-25T13:52:20.000Z</time>
      </trkpt>
      <trkpt lat="44.88638" lon="5.1594">
        <ele>1086.1633300781</ele>
        <time>2016-06-25T13:52:22.000Z</time>
      </trkpt>
      <trkpt lat="44.88642" lon="5.15925">
        <ele>1085.9947509766</ele>
        <time>2016-06-25T13:52:25.000Z</time>
      </trkpt>
      <trkpt lat="44.88646" lon="5.15915">
        <ele>1085.8293457031</ele>
        <time>2016-06-25T13:52:27.000Z</time>
      </trkpt>
      <trkpt lat="44.88651" lon="5.15903">
        <ele>1085.8356933594</ele>
        <time>2016-06-25T13:52:29.000Z</time>
      </trkpt>
      <trkpt lat="44.88655" lon="5.15894">
        <ele>1086.0067138672</ele>
        <time>2016-06-25T13:52:31.000Z</time>
      </trkpt>
      <trkpt lat="44.88661" lon="5.15878">
        <ele>1086.4221191406</ele>
        <time>2016-06-25T13:52:34.000Z</time>
      </trkpt>
      <trkpt lat="44.88665" lon="5.15867">
        <ele>1087.0139160156</ele>
        <time>2016-06-25T13:52:36.000Z</time>
      </trkpt>
      <trkpt lat="44.88668" lon="5.15855">
        <ele>1087.6595458984</ele>
        <time>2016-06-25T13:52:39.000Z</time>
      </trkpt>
      <trkpt lat="44.88671" lon="5.15846">
        <ele>1088.1787109375</ele>
        <time>2016-06-25T13:52:42.000Z</time>
      </trkpt>
      <trkpt lat="44.88672" lon="5.15843">
        <ele>1088.5864257812</ele>
        <time>2016-06-25T13:52:44.000Z</time>
      </trkpt>
      <trkpt lat="44.88673" lon="5.15843">
        <ele>1088.8060302734</ele>
        <time>2016-06-25T13:52:47.000Z</time>
      </trkpt>
      <trkpt lat="44.88673" lon="5.15842">
        <ele>1088.9215087891</ele>
        <time>2016-06-25T13:52:56.000Z</time>
      </trkpt>
      <trkpt lat="44.88673" lon="5.15844">
        <ele>1088.9641113281</ele>
        <time>2016-06-25T13:52:59.000Z</time>
      </trkpt>
      <trkpt lat="44.88674" lon="5.15846">
        <ele>1088.9752197266</ele>
        <time>2016-06-25T13:53:01.000Z</time>
      </trkpt>
      <trkpt lat="44.88673" lon="5.1585">
        <ele>1088.9650878906</ele>
        <time>2016-06-25T13:53:04.000Z</time>
      </trkpt>
      <trkpt lat="44.88673" lon="5.15852">
        <ele>1088.9450683594</ele>
        <time>2016-06-25T13:53:06.000Z</time>
      </trkpt>
      <trkpt lat="44.88674" lon="5.1585">
        <ele>1088.9327392578</ele>
        <time>2016-06-25T13:53:10.000Z</time>
      </trkpt>
      <trkpt lat="44.88675" lon="5.15846">
        <ele>1088.9326171875</ele>
        <time>2016-06-25T13:53:13.000Z</time>
      </trkpt>
      <trkpt lat="44.88675" lon="5.15846">
        <ele>1088.9326171875</ele>
        <time>2016-06-25T13:53:23.000Z</time>
      </trkpt>
      <trkpt lat="44.88676" lon="5.1585">
        <ele>1088.9320068359</ele>
        <time>2016-06-25T13:53:27.000Z</time>
      </trkpt>
      <trkpt lat="44.88676" lon="5.15852">
        <ele>1088.9388427734</ele>
        <time>2016-06-25T13:53:32.000Z</time>
      </trkpt>
      <trkpt lat="44.88677" lon="5.1585">
        <ele>1088.9554443359</ele>
        <time>2016-06-25T13:53:35.000Z</time>
      </trkpt>
      <trkpt lat="44.88677" lon="5.1585">
        <ele>1088.9554443359</ele>
        <time>2016-06-25T13:53:45.000Z</time>
      </trkpt>
      <trkpt lat="44.88678" lon="5.15852">
        <ele>1088.9635009766</ele>
        <time>2016-06-25T13:53:55.000Z</time>
      </trkpt>
      <trkpt lat="44.88679" lon="5.15851">
        <ele>1088.966796875</ele>
        <time>2016-06-25T13:54:00.000Z</time>
      </trkpt>
      <trkpt lat="44.88682" lon="5.15848">
        <ele>1088.9880371094</ele>
        <time>2016-06-25T13:54:03.000Z</time>
      </trkpt>
      <trkpt lat="44.88684" lon="5.15845">
        <ele>1089.0251464844</ele>
        <time>2016-06-25T13:54:05.000Z</time>
      </trkpt>
      <trkpt lat="44.88686" lon="5.15843">
        <ele>1089.0657958984</ele>
        <time>2016-06-25T13:54:07.000Z</time>
      </trkpt>
      <trkpt lat="44.88686" lon="5.15842">
        <ele>1089.1066894531</ele>
        <time>2016-06-25T13:54:10.000Z</time>
      </trkpt>
      <trkpt lat="44.88686" lon="5.15841">
        <ele>1089.1466064453</ele>
        <time>2016-06-25T13:54:18.000Z</time>
      </trkpt>
      <trkpt lat="44.88688" lon="5.15835">
        <ele>1089.1834716797</ele>
        <time>2016-06-25T13:54:21.000Z</time>
      </trkpt>
      <trkpt lat="44.88691" lon="5.15827">
        <ele>1089.2490234375</ele>
        <time>2016-06-25T13:54:23.000Z</time>
      </trkpt>
      <trkpt lat="44.88699" lon="5.15812">
        <ele>1089.3845214844</ele>
        <time>2016-06-25T13:54:26.000Z</time>
      </trkpt>
      <trkpt lat="44.88709" lon="5.15795">
        <ele>1089.5866699219</ele>
        <time>2016-06-25T13:54:29.000Z</time>
      </trkpt>
      <trkpt lat="44.88716" lon="5.15781">
        <ele>1089.8208007812</ele>
        <time>2016-06-25T13:54:31.000Z</time>
      </trkpt>
      <trkpt lat="44.88724" lon="5.15762">
        <ele>1090.0677490234</ele>
        <time>2016-06-25T13:54:33.000Z</time>
      </trkpt>
      <trkpt lat="44.88734" lon="5.15722">
        <ele>1089.8618164062</ele>
        <time>2016-06-25T13:54:36.000Z</time>
      </trkpt>
      <trkpt lat="44.88739" lon="5.15685">
        <ele>1089.0222167969</ele>
        <time>2016-06-25T13:54:39.000Z</time>
      </trkpt>
      <trkpt lat="44.88741" lon="5.15661">
        <ele>1087.6907958984</ele>
        <time>2016-06-25T13:54:41.000Z</time>
      </trkpt>
      <trkpt lat="44.88768" lon="5.15628">
        <ele>1085.7821044922</ele>
        <time>2016-06-25T13:54:44.000Z</time>
      </trkpt>
      <trkpt lat="44.88781" lon="5.15609">
        <ele>1083.7727050781</ele>
        <time>2016-06-25T13:54:46.000Z</time>
      </trkpt>
      <trkpt lat="44.88794" lon="5.15563">
        <ele>1081.5610351562</ele>
        <time>2016-06-25T13:54:49.000Z</time>
      </trkpt>
      <trkpt lat="44.88804" lon="5.15518">
        <ele>1079.2370605469</ele>
        <time>2016-06-25T13:54:52.000Z</time>
      </trkpt>
      <trkpt lat="44.88815" lon="5.1548">
        <ele>1076.9722900391</ele>
        <time>2016-06-25T13:54:55.000Z</time>
      </trkpt>
      <trkpt lat="44.88825" lon="5.15456">
        <ele>1074.9677734375</ele>
        <time>2016-06-25T13:54:57.000Z</time>
      </trkpt>
      <trkpt lat="44.88852" lon="5.1543">
        <ele>1073.1809082031</ele>
        <time>2016-06-25T13:55:00.000Z</time>
      </trkpt>
      <trkpt lat="44.88863" lon="5.15413">
        <ele>1072.0476074219</ele>
        <time>2016-06-25T13:55:02.000Z</time>
      </trkpt>
      <trkpt lat="44.8886" lon="5.1534">
        <ele>1069.8728027344</ele>
        <time>2016-06-25T13:55:06.000Z</time>
      </trkpt>
      <trkpt lat="44.88889" lon="5.15265">
        <ele>1066.5212402344</ele>
        <time>2016-06-25T13:55:10.000Z</time>
      </trkpt>
      <trkpt lat="44.88902" lon="5.15208">
        <ele>1062.1564941406</ele>
        <time>2016-06-25T13:55:13.000Z</time>
      </trkpt>
      <trkpt lat="44.88907" lon="5.1517">
        <ele>1056.8596191406</ele>
        <time>2016-06-25T13:55:15.000Z</time>
      </trkpt>
      <trkpt lat="44.88909" lon="5.15135">
        <ele>1051.2999267578</ele>
        <time>2016-06-25T13:55:17.000Z</time>
      </trkpt>
      <trkpt lat="44.88915" lon="5.15101">
        <ele>1047.337890625</ele>
        <time>2016-06-25T13:55:19.000Z</time>
      </trkpt>
      <trkpt lat="44.88918" lon="5.15049">
        <ele>1044.7434082031</ele>
        <time>2016-06-25T13:55:22.000Z</time>
      </trkpt>
      <trkpt lat="44.88927" lon="5.14999">
        <ele>1043.2578125</ele>
        <time>2016-06-25T13:55:25.000Z</time>
      </trkpt>
      <trkpt lat="44.88934" lon="5.14951">
        <ele>1042.7517089844</ele>
        <time>2016-06-25T13:55:28.000Z</time>
      </trkpt>
      <trkpt lat="44.88938" lon="5.14906">
        <ele>1042.8077392578</ele>
        <time>2016-06-25T13:55:31.000Z</time>
      </trkpt>
      <trkpt lat="44.88957" lon="5.14868">
        <ele>1043.3616943359</ele>
        <time>2016-06-25T13:55:34.000Z</time>
      </trkpt>
      <trkpt lat="44.88975" lon="5.1484">
        <ele>1044.1335449219</ele>
        <time>2016-06-25T13:55:37.000Z</time>
      </trkpt>
      <trkpt lat="44.88982" lon="5.14821">
        <ele>1044.9625244141</ele>
        <time>2016-06-25T13:55:39.000Z</time>
      </trkpt>
      <trkpt lat="44.88987" lon="5.14803">
        <ele>1045.3461914062</ele>
        <time>2016-06-25T13:55:41.000Z</time>
      </trkpt>
      <trkpt lat="44.89001" lon="5.1477">
        <ele>1044.5261230469</ele>
        <time>2016-06-25T13:55:44.000Z</time>
      </trkpt>
      <trkpt lat="44.89005" lon="5.14752">
        <ele>1043.0479736328</ele>
        <time>2016-06-25T13:55:46.000Z</time>
      </trkpt>
      <trkpt lat="44.8901" lon="5.14723">
        <ele>1041.5600585938</ele>
        <time>2016-06-25T13:55:49.000Z</time>
      </trkpt>
      <trkpt lat="44.89013" lon="5.14702">
        <ele>1040.2337646484</ele>
        <time>2016-06-25T13:55:51.000Z</time>
      </trkpt>
      <trkpt lat="44.89016" lon="5.14682">
        <ele>1039.1234130859</ele>
        <time>2016-06-25T13:55:53.000Z</time>
      </trkpt>
      <trkpt lat="44.89023" lon="5.14658">
        <ele>1038.6236572266</ele>
        <time>2016-06-25T13:55:55.000Z</time>
      </trkpt>
      <trkpt lat="44.89023" lon="5.14622">
        <ele>1038.3958740234</ele>
        <time>2016-06-25T13:55:58.000Z</time>
      </trkpt>
      <trkpt lat="44.89024" lon="5.14584">
        <ele>1038.1302490234</ele>
        <time>2016-06-25T13:56:01.000Z</time>
      </trkpt>
      <trkpt lat="44.89029" lon="5.14544">
        <ele>1037.8601074219</ele>
        <time>2016-06-25T13:56:04.000Z</time>
      </trkpt>
      <trkpt lat="44.89038" lon="5.14519">
        <ele>1037.7135009766</ele>
        <time>2016-06-25T13:56:06.000Z</time>
      </trkpt>
      <trkpt lat="44.89034" lon="5.14495">
        <ele>1037.9027099609</ele>
        <time>2016-06-25T13:56:08.000Z</time>
      </trkpt>
      <trkpt lat="44.89014" lon="5.1446">
        <ele>1037.4262695312</ele>
        <time>2016-06-25T13:56:11.000Z</time>
      </trkpt>
      <trkpt lat="44.89003" lon="5.14447">
        <ele>1036.5341796875</ele>
        <time>2016-06-25T13:56:13.000Z</time>
      </trkpt>
      <trkpt lat="44.88984" lon="5.14421">
        <ele>1034.9046630859</ele>
        <time>2016-06-25T13:56:16.000Z</time>
      </trkpt>
      <trkpt lat="44.88952" lon="5.14403">
        <ele>1032.2132568359</ele>
        <time>2016-06-25T13:56:19.000Z</time>
      </trkpt>
      <trkpt lat="44.88913" lon="5.14387">
        <ele>1028.2518310547</ele>
        <time>2016-06-25T13:56:22.000Z</time>
      </trkpt>
      <trkpt lat="44.88866" lon="5.14393">
        <ele>1024.6701660156</ele>
        <time>2016-06-25T13:56:25.000Z</time>
      </trkpt>
      <trkpt lat="44.88844" lon="5.14394">
        <ele>1021.3419799805</ele>
        <time>2016-06-25T13:56:27.000Z</time>
      </trkpt>
      <trkpt lat="44.88823" lon="5.14397">
        <ele>1018.8556518555</ele>
        <time>2016-06-25T13:56:29.000Z</time>
      </trkpt>
      <trkpt lat="44.88767" lon="5.14399">
        <ele>1018.0375976562</ele>
        <time>2016-06-25T13:56:33.000Z</time>
      </trkpt>
      <trkpt lat="44.88737" lon="5.14372">
        <ele>1017.5452880859</ele>
        <time>2016-06-25T13:56:36.000Z</time>
      </trkpt>
      <trkpt lat="44.88722" lon="5.14359">
        <ele>1016.9998168945</ele>
        <time>2016-06-25T13:56:38.000Z</time>
      </trkpt>
      <trkpt lat="44.88699" lon="5.14352">
        <ele>1016.7647705078</ele>
        <time>2016-06-25T13:56:41.000Z</time>
      </trkpt>
      <trkpt lat="44.88706" lon="5.14327">
        <ele>1015.0247192383</ele>
        <time>2016-06-25T13:56:44.000Z</time>
      </trkpt>
      <trkpt lat="44.8872" lon="5.14312">
        <ele>1011.7658081055</ele>
        <time>2016-06-25T13:56:46.000Z</time>
      </trkpt>
      <trkpt lat="44.88751" lon="5.14319">
        <ele>1009.033996582</ele>
        <time>2016-06-25T13:56:49.000Z</time>
      </trkpt>
      <trkpt lat="44.88772" lon="5.1432">
        <ele>1006.5134887695</ele>
        <time>2016-06-25T13:56:51.000Z</time>
      </trkpt>
      <trkpt lat="44.88804" lon="5.1432">
        <ele>1003.616394043</ele>
        <time>2016-06-25T13:56:54.000Z</time>
      </trkpt>
      <trkpt lat="44.88837" lon="5.14324">
        <ele>1002.0665283203</ele>
        <time>2016-06-25T13:56:57.000Z</time>
      </trkpt>
      <trkpt lat="44.88854" lon="5.14312">
        <ele>1001.2111206055</ele>
        <time>2016-06-25T13:56:59.000Z</time>
      </trkpt>
      <trkpt lat="44.88882" lon="5.14287">
        <ele>1000.2994384766</ele>
        <time>2016-06-25T13:57:02.000Z</time>
      </trkpt>
      <trkpt lat="44.8891" lon="5.14268">
        <ele>999.36291503906</ele>
        <time>2016-06-25T13:57:05.000Z</time>
      </trkpt>
      <trkpt lat="44.88927" lon="5.14245">
        <ele>998.2578125</ele>
        <time>2016-06-25T13:57:07.000Z</time>
      </trkpt>
      <trkpt lat="44.88942" lon="5.14204">
        <ele>996.34777832031</ele>
        <time>2016-06-25T13:57:10.000Z</time>
      </trkpt>
      <trkpt lat="44.88945" lon="5.14172">
        <ele>993.76104736328</ele>
        <time>2016-06-25T13:57:12.000Z</time>
      </trkpt>
      <trkpt lat="44.88927" lon="5.14128">
        <ele>990.98278808594</ele>
        <time>2016-06-25T13:57:15.000Z</time>
      </trkpt>
      <trkpt lat="44.88917" lon="5.14095">
        <ele>988.18212890625</ele>
        <time>2016-06-25T13:57:17.000Z</time>
      </trkpt>
      <trkpt lat="44.8891" lon="5.14074">
        <ele>985.65344238281</ele>
        <time>2016-06-25T13:57:19.000Z</time>
      </trkpt>
      <trkpt lat="44.8891" lon="5.14008">
        <ele>982.76092529297</ele>
        <time>2016-06-25T13:57:23.000Z</time>
      </trkpt>
      <trkpt lat="44.88912" lon="5.13961">
        <ele>979.69842529297</ele>
        <time>2016-06-25T13:57:26.000Z</time>
      </trkpt>
      <trkpt lat="44.88881" lon="5.13928">
        <ele>977.20739746094</ele>
        <time>2016-06-25T13:57:29.000Z</time>
      </trkpt>
      <trkpt lat="44.88867" lon="5.13902">
        <ele>974.48669433594</ele>
        <time>2016-06-25T13:57:31.000Z</time>
      </trkpt>
      <trkpt lat="44.88832" lon="5.13879">
        <ele>971.63214111328</ele>
        <time>2016-06-25T13:57:34.000Z</time>
      </trkpt>
      <trkpt lat="44.8881" lon="5.13841">
        <ele>968.76428222656</ele>
        <time>2016-06-25T13:57:37.000Z</time>
      </trkpt>
      <trkpt lat="44.88791" lon="5.13818">
        <ele>966.19140625</ele>
        <time>2016-06-25T13:57:39.000Z</time>
      </trkpt>
      <trkpt lat="44.88763" lon="5.13784">
        <ele>962.6904296875</ele>
        <time>2016-06-25T13:57:42.000Z</time>
      </trkpt>
      <trkpt lat="44.88676" lon="5.13787">
        <ele>958.7529296875</ele>
        <time>2016-06-25T13:57:47.000Z</time>
      </trkpt>
      <trkpt lat="44.88657" lon="5.13794">
        <ele>955.0595703125</ele>
        <time>2016-06-25T13:57:49.000Z</time>
      </trkpt>
      <trkpt lat="44.88638" lon="5.13796">
        <ele>952.43005371094</ele>
        <time>2016-06-25T13:57:51.000Z</time>
      </trkpt>
      <trkpt lat="44.88628" lon="5.13788">
        <ele>950.12176513672</ele>
        <time>2016-06-25T13:57:53.000Z</time>
      </trkpt>
      <trkpt lat="44.88651" lon="5.13776">
        <ele>948.5986328125</ele>
        <time>2016-06-25T13:57:56.000Z</time>
      </trkpt>
      <trkpt lat="44.88666" lon="5.13769">
        <ele>947.83563232422</ele>
        <time>2016-06-25T13:57:58.000Z</time>
      </trkpt>
      <trkpt lat="44.8869" lon="5.13754">
        <ele>946.91583251953</ele>
        <time>2016-06-25T13:58:01.000Z</time>
      </trkpt>
      <trkpt lat="44.88706" lon="5.13743">
        <ele>946.06066894531</ele>
        <time>2016-06-25T13:58:03.000Z</time>
      </trkpt>
      <trkpt lat="44.88724" lon="5.13716">
        <ele>945.14685058594</ele>
        <time>2016-06-25T13:58:06.000Z</time>
      </trkpt>
      <trkpt lat="44.88762" lon="5.13671">
        <ele>943.48809814453</ele>
        <time>2016-06-25T13:58:10.000Z</time>
      </trkpt>
      <trkpt lat="44.88782" lon="5.1365">
        <ele>941.76611328125</ele>
        <time>2016-06-25T13:58:12.000Z</time>
      </trkpt>
      <trkpt lat="44.88797" lon="5.13631">
        <ele>940.13214111328</ele>
        <time>2016-06-25T13:58:14.000Z</time>
      </trkpt>
      <trkpt lat="44.88816" lon="5.13609">
        <ele>938.33807373047</ele>
        <time>2016-06-25T13:58:16.000Z</time>
      </trkpt>
      <trkpt lat="44.88842" lon="5.13574">
        <ele>936.67010498047</ele>
        <time>2016-06-25T13:58:19.000Z</time>
      </trkpt>
      <trkpt lat="44.8886" lon="5.13542">
        <ele>936.02014160156</ele>
        <time>2016-06-25T13:58:22.000Z</time>
      </trkpt>
      <trkpt lat="44.88885" lon="5.13509">
        <ele>935.25323486328</ele>
        <time>2016-06-25T13:58:25.000Z</time>
      </trkpt>
      <trkpt lat="44.88904" lon="5.13489">
        <ele>934.30407714844</ele>
        <time>2016-06-25T13:58:27.000Z</time>
      </trkpt>
      <trkpt lat="44.88919" lon="5.13459">
        <ele>933.48522949219</ele>
        <time>2016-06-25T13:58:29.000Z</time>
      </trkpt>
      <trkpt lat="44.88949" lon="5.13427">
        <ele>932.34777832031</ele>
        <time>2016-06-25T13:58:32.000Z</time>
      </trkpt>
      <trkpt lat="44.8898" lon="5.13401">
        <ele>929.61199951172</ele>
        <time>2016-06-25T13:58:35.000Z</time>
      </trkpt>
      <trkpt lat="44.88997" lon="5.13384">
        <ele>925.88006591797</ele>
        <time>2016-06-25T13:58:37.000Z</time>
      </trkpt>
      <trkpt lat="44.88998" lon="5.13341">
        <ele>920.61328125</ele>
        <time>2016-06-25T13:58:40.000Z</time>
      </trkpt>
      <trkpt lat="44.8898" lon="5.13296">
        <ele>915.12878417969</ele>
        <time>2016-06-25T13:58:43.000Z</time>
      </trkpt>
      <trkpt lat="44.88965" lon="5.13267">
        <ele>910.44055175781</ele>
        <time>2016-06-25T13:58:46.000Z</time>
      </trkpt>
      <trkpt lat="44.88945" lon="5.13239">
        <ele>908.03143310547</ele>
        <time>2016-06-25T13:58:49.000Z</time>
      </trkpt>
      <trkpt lat="44.88941" lon="5.13192">
        <ele>905.80383300781</ele>
        <time>2016-06-25T13:58:52.000Z</time>
      </trkpt>
      <trkpt lat="44.88923" lon="5.13148">
        <ele>904.99450683594</ele>
        <time>2016-06-25T13:58:55.000Z</time>
      </trkpt>
      <trkpt lat="44.889" lon="5.13116">
        <ele>903.65850830078</ele>
        <time>2016-06-25T13:58:58.000Z</time>
      </trkpt>
      <trkpt lat="44.88882" lon="5.131">
        <ele>901.64733886719</ele>
        <time>2016-06-25T13:59:00.000Z</time>
      </trkpt>
      <trkpt lat="44.88863" lon="5.13077">
        <ele>898.25158691406</ele>
        <time>2016-06-25T13:59:02.000Z</time>
      </trkpt>
      <trkpt lat="44.88846" lon="5.1308">
        <ele>896.22180175781</ele>
        <time>2016-06-25T13:59:05.000Z</time>
      </trkpt>
      <trkpt lat="44.88832" lon="5.13072">
        <ele>894.55773925781</ele>
        <time>2016-06-25T13:59:08.000Z</time>
      </trkpt>
      <trkpt lat="44.8885" lon="5.13056">
        <ele>893.24768066406</ele>
        <time>2016-06-25T13:59:11.000Z</time>
      </trkpt>
      <trkpt lat="44.88866" lon="5.13062">
        <ele>892.3720703125</ele>
        <time>2016-06-25T13:59:13.000Z</time>
      </trkpt>
      <trkpt lat="44.88892" lon="5.13077">
        <ele>891.97344970703</ele>
        <time>2016-06-25T13:59:16.000Z</time>
      </trkpt>
      <trkpt lat="44.88911" lon="5.1308">
        <ele>891.07214355469</ele>
        <time>2016-06-25T13:59:18.000Z</time>
      </trkpt>
      <trkpt lat="44.88926" lon="5.13078">
        <ele>889.67401123047</ele>
        <time>2016-06-25T13:59:20.000Z</time>
      </trkpt>
      <trkpt lat="44.88955" lon="5.13089">
        <ele>887.78857421875</ele>
        <time>2016-06-25T13:59:23.000Z</time>
      </trkpt>
      <trkpt lat="44.8897" lon="5.13113">
        <ele>886.07696533203</ele>
        <time>2016-06-25T13:59:25.000Z</time>
      </trkpt>
      <trkpt lat="44.88979" lon="5.13146">
        <ele>885.04479980469</ele>
        <time>2016-06-25T13:59:27.000Z</time>
      </trkpt>
      <trkpt lat="44.88993" lon="5.13187">
        <ele>884.40710449219</ele>
        <time>2016-06-25T13:59:30.000Z</time>
      </trkpt>
      <trkpt lat="44.88998" lon="5.13215">
        <ele>884.40216064453</ele>
        <time>2016-06-25T13:59:32.000Z</time>
      </trkpt>
      <trkpt lat="44.89008" lon="5.13251">
        <ele>885.83068847656</ele>
        <time>2016-06-25T13:59:35.000Z</time>
      </trkpt>
      <trkpt lat="44.89027" lon="5.13263">
        <ele>887.45703125</ele>
        <time>2016-06-25T13:59:37.000Z</time>
      </trkpt>
      <trkpt lat="44.89049" lon="5.13254">
        <ele>888.11669921875</ele>
        <time>2016-06-25T13:59:39.000Z</time>
      </trkpt>
      <trkpt lat="44.89065" lon="5.13231">
        <ele>887.76922607422</ele>
        <time>2016-06-25T13:59:41.000Z</time>
      </trkpt>
      <trkpt lat="44.89079" lon="5.13206">
        <ele>886.3212890625</ele>
        <time>2016-06-25T13:59:43.000Z</time>
      </trkpt>
      <trkpt lat="44.8908" lon="5.13159">
        <ele>882.50164794922</ele>
        <time>2016-06-25T13:59:46.000Z</time>
      </trkpt>
      <trkpt lat="44.89049" lon="5.1312">
        <ele>877.28381347656</ele>
        <time>2016-06-25T13:59:49.000Z</time>
      </trkpt>
      <trkpt lat="44.89038" lon="5.13083">
        <ele>871.322265625</ele>
        <time>2016-06-25T13:59:51.000Z</time>
      </trkpt>
      <trkpt lat="44.89026" lon="5.13058">
        <ele>866.21875</ele>
        <time>2016-06-25T13:59:53.000Z</time>
      </trkpt>
      <trkpt lat="44.89003" lon="5.13019">
        <ele>863.11975097656</ele>
        <time>2016-06-25T13:59:56.000Z</time>
      </trkpt>
      <trkpt lat="44.89006" lon="5.12987">
        <ele>861.22766113281</ele>
        <time>2016-06-25T13:59:58.000Z</time>
      </trkpt>
      <trkpt lat="44.8901" lon="5.12942">
        <ele>859.67889404297</ele>
        <time>2016-06-25T14:00:01.000Z</time>
      </trkpt>
      <trkpt lat="44.89018" lon="5.12897">
        <ele>858.28106689453</ele>
        <time>2016-06-25T14:00:04.000Z</time>
      </trkpt>
      <trkpt lat="44.89024" lon="5.12865">
        <ele>856.29772949219</ele>
        <time>2016-06-25T14:00:06.000Z</time>
      </trkpt>
      <trkpt lat="44.89027" lon="5.12821">
        <ele>852.81964111328</ele>
        <time>2016-06-25T14:00:09.000Z</time>
      </trkpt>
      <trkpt lat="44.89021" lon="5.12743">
        <ele>849.0068359375</ele>
        <time>2016-06-25T14:00:13.000Z</time>
      </trkpt>
      <trkpt lat="44.89019" lon="5.12708">
        <ele>844.31573486328</ele>
        <time>2016-06-25T14:00:15.000Z</time>
      </trkpt>
      <trkpt lat="44.89007" lon="5.12676">
        <ele>839.92578125</ele>
        <time>2016-06-25T14:00:17.000Z</time>
      </trkpt>
      <trkpt lat="44.88981" lon="5.12649">
        <ele>836.25177001953</ele>
        <time>2016-06-25T14:00:20.000Z</time>
      </trkpt>
      <trkpt lat="44.8896" lon="5.12613">
        <ele>832.09118652344</ele>
        <time>2016-06-25T14:00:23.000Z</time>
      </trkpt>
      <trkpt lat="44.88932" lon="5.12592">
        <ele>829.36102294922</ele>
        <time>2016-06-25T14:00:26.000Z</time>
      </trkpt>
      <trkpt lat="44.88903" lon="5.12572">
        <ele>829.01446533203</ele>
        <time>2016-06-25T14:00:29.000Z</time>
      </trkpt>
      <trkpt lat="44.88884" lon="5.12523">
        <ele>827.921875</ele>
        <time>2016-06-25T14:00:32.000Z</time>
      </trkpt>
      <trkpt lat="44.88875" lon="5.12476">
        <ele>825.1884765625</ele>
        <time>2016-06-25T14:00:35.000Z</time>
      </trkpt>
      <trkpt lat="44.88865" lon="5.12443">
        <ele>823.24011230469</ele>
        <time>2016-06-25T14:00:37.000Z</time>
      </trkpt>
      <trkpt lat="44.88856" lon="5.12398">
        <ele>820.568359375</ele>
        <time>2016-06-25T14:00:40.000Z</time>
      </trkpt>
      <trkpt lat="44.88846" lon="5.12361">
        <ele>817.77563476562</ele>
        <time>2016-06-25T14:00:43.000Z</time>
      </trkpt>
      <trkpt lat="44.8884" lon="5.12318">
        <ele>816.30096435547</ele>
        <time>2016-06-25T14:00:46.000Z</time>
      </trkpt>
      <trkpt lat="44.8884" lon="5.12293">
        <ele>815.65936279297</ele>
        <time>2016-06-25T14:00:49.000Z</time>
      </trkpt>
      <trkpt lat="44.88851" lon="5.12283">
        <ele>813.40362548828</ele>
        <time>2016-06-25T14:00:52.000Z</time>
      </trkpt>
      <trkpt lat="44.88855" lon="5.12329">
        <ele>812.05041503906</ele>
        <time>2016-06-25T14:00:56.000Z</time>
      </trkpt>
      <trkpt lat="44.88853" lon="5.12352">
        <ele>810.85528564453</ele>
        <time>2016-06-25T14:00:58.000Z</time>
      </trkpt>
      <trkpt lat="44.88856" lon="5.12396">
        <ele>810.27435302734</ele>
        <time>2016-06-25T14:01:01.000Z</time>
      </trkpt>
      <trkpt lat="44.88859" lon="5.12425">
        <ele>810.75421142578</ele>
        <time>2016-06-25T14:01:03.000Z</time>
      </trkpt>
      <trkpt lat="44.88876" lon="5.12466">
        <ele>812.66394042969</ele>
        <time>2016-06-25T14:01:06.000Z</time>
      </trkpt>
      <trkpt lat="44.88902" lon="5.12499">
        <ele>812.65393066406</ele>
        <time>2016-06-25T14:01:09.000Z</time>
      </trkpt>
      <trkpt lat="44.88916" lon="5.1254">
        <ele>813.23065185547</ele>
        <time>2016-06-25T14:01:12.000Z</time>
      </trkpt>
      <trkpt lat="44.88952" lon="5.12571">
        <ele>813.13415527344</ele>
        <time>2016-06-25T14:01:15.000Z</time>
      </trkpt>
      <trkpt lat="44.88975" lon="5.12564">
        <ele>810.44219970703</ele>
        <time>2016-06-25T14:01:17.000Z</time>
      </trkpt>
      <trkpt lat="44.8901" lon="5.12563">
        <ele>805.69390869141</ele>
        <time>2016-06-25T14:01:20.000Z</time>
      </trkpt>
      <trkpt lat="44.89032" lon="5.12576">
        <ele>802.01452636719</ele>
        <time>2016-06-25T14:01:22.000Z</time>
      </trkpt>
      <trkpt lat="44.89066" lon="5.12602">
        <ele>796.51580810547</ele>
        <time>2016-06-25T14:01:25.000Z</time>
      </trkpt>
      <trkpt lat="44.89083" lon="5.12615">
        <ele>790.80285644531</ele>
        <time>2016-06-25T14:01:27.000Z</time>
      </trkpt>
      <trkpt lat="44.89098" lon="5.12625">
        <ele>786.74963378906</ele>
        <time>2016-06-25T14:01:29.000Z</time>
      </trkpt>
      <trkpt lat="44.89136" lon="5.12701">
        <ele>784.89581298828</ele>
        <time>2016-06-25T14:01:34.000Z</time>
      </trkpt>
      <trkpt lat="44.89146" lon="5.12751">
        <ele>782.91650390625</ele>
        <time>2016-06-25T14:01:37.000Z</time>
      </trkpt>
      <trkpt lat="44.89153" lon="5.12785">
        <ele>780.01574707031</ele>
        <time>2016-06-25T14:01:39.000Z</time>
      </trkpt>
      <trkpt lat="44.89151" lon="5.1283">
        <ele>777.11047363281</ele>
        <time>2016-06-25T14:01:42.000Z</time>
      </trkpt>
      <trkpt lat="44.8915" lon="5.1286">
        <ele>775.16467285156</ele>
        <time>2016-06-25T14:01:44.000Z</time>
      </trkpt>
      <trkpt lat="44.89144" lon="5.12909">
        <ele>774.69305419922</ele>
        <time>2016-06-25T14:01:47.000Z</time>
      </trkpt>
      <trkpt lat="44.89156" lon="5.12953">
        <ele>775.05999755859</ele>
        <time>2016-06-25T14:01:50.000Z</time>
      </trkpt>
      <trkpt lat="44.8918" lon="5.12983">
        <ele>776.12939453125</ele>
        <time>2016-06-25T14:01:53.000Z</time>
      </trkpt>
      <trkpt lat="44.89201" lon="5.12987">
        <ele>776.19219970703</ele>
        <time>2016-06-25T14:01:55.000Z</time>
      </trkpt>
      <trkpt lat="44.89227" lon="5.12991">
        <ele>774.11309814453</ele>
        <time>2016-06-25T14:01:58.000Z</time>
      </trkpt>
      <trkpt lat="44.89257" lon="5.13017">
        <ele>769.72235107422</ele>
        <time>2016-06-25T14:02:01.000Z</time>
      </trkpt>
      <trkpt lat="44.89267" lon="5.13053">
        <ele>765.31799316406</ele>
        <time>2016-06-25T14:02:03.000Z</time>
      </trkpt>
      <trkpt lat="44.89272" lon="5.13081">
        <ele>762.25805664062</ele>
        <time>2016-06-25T14:02:05.000Z</time>
      </trkpt>
      <trkpt lat="44.8928" lon="5.13124">
        <ele>761.21374511719</ele>
        <time>2016-06-25T14:02:08.000Z</time>
      </trkpt>
      <trkpt lat="44.89293" lon="5.13154">
        <ele>761.41046142578</ele>
        <time>2016-06-25T14:02:10.000Z</time>
      </trkpt>
      <trkpt lat="44.89304" lon="5.13185">
        <ele>762.28796386719</ele>
        <time>2016-06-25T14:02:12.000Z</time>
      </trkpt>
      <trkpt lat="44.89318" lon="5.1323">
        <ele>762.43255615234</ele>
        <time>2016-06-25T14:02:15.000Z</time>
      </trkpt>
      <trkpt lat="44.89321" lon="5.13255">
        <ele>762.46063232422</ele>
        <time>2016-06-25T14:02:17.000Z</time>
      </trkpt>
      <trkpt lat="44.89338" lon="5.13297">
        <ele>760.87451171875</ele>
        <time>2016-06-25T14:02:20.000Z</time>
      </trkpt>
      <trkpt lat="44.89354" lon="5.13323">
        <ele>758.58563232422</ele>
        <time>2016-06-25T14:02:22.000Z</time>
      </trkpt>
      <trkpt lat="44.89367" lon="5.13367">
        <ele>756.07214355469</ele>
        <time>2016-06-25T14:02:25.000Z</time>
      </trkpt>
      <trkpt lat="44.89376" lon="5.134">
        <ele>753.49432373047</ele>
        <time>2016-06-25T14:02:27.000Z</time>
      </trkpt>
      <trkpt lat="44.8938" lon="5.13433">
        <ele>750.50921630859</ele>
        <time>2016-06-25T14:02:29.000Z</time>
      </trkpt>
      <trkpt lat="44.89395" lon="5.13481">
        <ele>747.56988525391</ele>
        <time>2016-06-25T14:02:32.000Z</time>
      </trkpt>
      <trkpt lat="44.89406" lon="5.13538">
        <ele>745.513671875</ele>
        <time>2016-06-25T14:02:35.000Z</time>
      </trkpt>
      <trkpt lat="44.89416" lon="5.13588">
        <ele>743.55505371094</ele>
        <time>2016-06-25T14:02:38.000Z</time>
      </trkpt>
      <trkpt lat="44.89425" lon="5.1362">
        <ele>741.18475341797</ele>
        <time>2016-06-25T14:02:40.000Z</time>
      </trkpt>
      <trkpt lat="44.89429" lon="5.13673">
        <ele>738.81359863281</ele>
        <time>2016-06-25T14:02:43.000Z</time>
      </trkpt>
      <trkpt lat="44.89452" lon="5.13723">
        <ele>735.29943847656</ele>
        <time>2016-06-25T14:02:46.000Z</time>
      </trkpt>
      <trkpt lat="44.89457" lon="5.13767">
        <ele>731.68280029297</ele>
        <time>2016-06-25T14:02:49.000Z</time>
      </trkpt>
      <trkpt lat="44.89459" lon="5.13811">
        <ele>728.10906982422</ele>
        <time>2016-06-25T14:02:52.000Z</time>
      </trkpt>
      <trkpt lat="44.89462" lon="5.13889">
        <ele>724.21716308594</ele>
        <time>2016-06-25T14:02:56.000Z</time>
      </trkpt>
      <trkpt lat="44.89464" lon="5.13914">
        <ele>719.63018798828</ele>
        <time>2016-06-25T14:02:58.000Z</time>
      </trkpt>
      <trkpt lat="44.89455" lon="5.13938">
        <ele>718.23846435547</ele>
        <time>2016-06-25T14:03:01.000Z</time>
      </trkpt>
      <trkpt lat="44.89459" lon="5.13932">
        <ele>716.81213378906</ele>
        <time>2016-06-25T14:03:04.000Z</time>
      </trkpt>
      <trkpt lat="44.89481" lon="5.13815">
        <ele>714.15142822266</ele>
        <time>2016-06-25T14:03:12.000Z</time>
      </trkpt>
      <trkpt lat="44.89486" lon="5.13765">
        <ele>712.11260986328</ele>
        <time>2016-06-25T14:03:15.000Z</time>
      </trkpt>
      <trkpt lat="44.89486" lon="5.13733">
        <ele>710.51336669922</ele>
        <time>2016-06-25T14:03:17.000Z</time>
      </trkpt>
      <trkpt lat="44.89489" lon="5.13684">
        <ele>707.12548828125</ele>
        <time>2016-06-25T14:03:20.000Z</time>
      </trkpt>
      <trkpt lat="44.89486" lon="5.13648">
        <ele>704.04229736328</ele>
        <time>2016-06-25T14:03:22.000Z</time>
      </trkpt>
      <trkpt lat="44.89476" lon="5.13589">
        <ele>703.00335693359</ele>
        <time>2016-06-25T14:03:25.000Z</time>
      </trkpt>
      <trkpt lat="44.89468" lon="5.13555">
        <ele>702.974609375</ele>
        <time>2016-06-25T14:03:27.000Z</time>
      </trkpt>
      <trkpt lat="44.8946" lon="5.13523">
        <ele>703.50402832031</ele>
        <time>2016-06-25T14:03:29.000Z</time>
      </trkpt>
      <trkpt lat="44.89453" lon="5.13474">
        <ele>704.60943603516</ele>
        <time>2016-06-25T14:03:32.000Z</time>
      </trkpt>
      <trkpt lat="44.89443" lon="5.13428">
        <ele>705.92639160156</ele>
        <time>2016-06-25T14:03:35.000Z</time>
      </trkpt>
      <trkpt lat="44.89434" lon="5.13398">
        <ele>707.12756347656</ele>
        <time>2016-06-25T14:03:37.000Z</time>
      </trkpt>
      <trkpt lat="44.89433" lon="5.13339">
        <ele>706.35144042969</ele>
        <time>2016-06-25T14:03:40.000Z</time>
      </trkpt>
      <trkpt lat="44.89429" lon="5.13301">
        <ele>704.76794433594</ele>
        <time>2016-06-25T14:03:42.000Z</time>
      </trkpt>
      <trkpt lat="44.89427" lon="5.13268">
        <ele>703.03192138672</ele>
        <time>2016-06-25T14:03:44.000Z</time>
      </trkpt>
      <trkpt lat="44.89419" lon="5.1322">
        <ele>701.28009033203</ele>
        <time>2016-06-25T14:03:47.000Z</time>
      </trkpt>
      <trkpt lat="44.89463" lon="5.13123">
        <ele>693.63018798828</ele>
        <time>2016-06-25T14:03:52.000Z</time>
      </trkpt>
      <trkpt lat="44.89465" lon="5.13079">
        <ele>686.11260986328</ele>
        <time>2016-06-25T14:03:55.000Z</time>
      </trkpt>
      <trkpt lat="44.89473" lon="5.13053">
        <ele>677.19317626953</ele>
        <time>2016-06-25T14:03:57.000Z</time>
      </trkpt>
      <trkpt lat="44.89463" lon="5.13045">
        <ele>668.8916015625</ele>
        <time>2016-06-25T14:03:59.000Z</time>
      </trkpt>
      <trkpt lat="44.89423" lon="5.13033">
        <ele>662.92065429688</ele>
        <time>2016-06-25T14:04:03.000Z</time>
      </trkpt>
      <trkpt lat="44.89407" lon="5.12993">
        <ele>662.44702148438</ele>
        <time>2016-06-25T14:04:06.000Z</time>
      </trkpt>
      <trkpt lat="44.89433" lon="5.12917">
        <ele>659.71844482422</ele>
        <time>2016-06-25T14:04:10.000Z</time>
      </trkpt>
      <trkpt lat="44.89447" lon="5.12877">
        <ele>656.90826416016</ele>
        <time>2016-06-25T14:04:13.000Z</time>
      </trkpt>
      <trkpt lat="44.89445" lon="5.12856">
        <ele>653.49475097656</ele>
        <time>2016-06-25T14:04:15.000Z</time>
      </trkpt>
      <trkpt lat="44.89442" lon="5.1282">
        <ele>647.04412841797</ele>
        <time>2016-06-25T14:04:18.000Z</time>
      </trkpt>
      <trkpt lat="44.89406" lon="5.12767">
        <ele>642.0107421875</ele>
        <time>2016-06-25T14:04:22.000Z</time>
      </trkpt>
      <trkpt lat="44.89407" lon="5.12737">
        <ele>640.16418457031</ele>
        <time>2016-06-25T14:04:24.000Z</time>
      </trkpt>
      <trkpt lat="44.89407" lon="5.12709">
        <ele>640.14880371094</ele>
        <time>2016-06-25T14:04:26.000Z</time>
      </trkpt>
      <trkpt lat="44.89409" lon="5.12671">
        <ele>640.31335449219</ele>
        <time>2016-06-25T14:04:29.000Z</time>
      </trkpt>
      <trkpt lat="44.89438" lon="5.12638">
        <ele>638.89752197266</ele>
        <time>2016-06-25T14:04:32.000Z</time>
      </trkpt>
      <trkpt lat="44.89453" lon="5.12618">
        <ele>635.15423583984</ele>
        <time>2016-06-25T14:04:34.000Z</time>
      </trkpt>
      <trkpt lat="44.89472" lon="5.12575">
        <ele>630.30505371094</ele>
        <time>2016-06-25T14:04:37.000Z</time>
      </trkpt>
      <trkpt lat="44.89476" lon="5.12547">
        <ele>624.62786865234</ele>
        <time>2016-06-25T14:04:39.000Z</time>
      </trkpt>
      <trkpt lat="44.89473" lon="5.12506">
        <ele>618.45233154297</ele>
        <time>2016-06-25T14:04:42.000Z</time>
      </trkpt>
      <trkpt lat="44.89443" lon="5.12445">
        <ele>613.45349121094</ele>
        <time>2016-06-25T14:04:46.000Z</time>
      </trkpt>
      <trkpt lat="44.89421" lon="5.12415">
        <ele>609.34796142578</ele>
        <time>2016-06-25T14:04:48.000Z</time>
      </trkpt>
      <trkpt lat="44.89385" lon="5.12401">
        <ele>609.12756347656</ele>
        <time>2016-06-25T14:04:51.000Z</time>
      </trkpt>
      <trkpt lat="44.89369" lon="5.12381">
        <ele>610.25994873047</ele>
        <time>2016-06-25T14:04:53.000Z</time>
      </trkpt>
      <trkpt lat="44.89363" lon="5.12345">
        <ele>610.93884277344</ele>
        <time>2016-06-25T14:04:55.000Z</time>
      </trkpt>
      <trkpt lat="44.8936" lon="5.12296">
        <ele>611.06323242188</ele>
        <time>2016-06-25T14:04:58.000Z</time>
      </trkpt>
      <trkpt lat="44.89354" lon="5.12266">
        <ele>610.62115478516</ele>
        <time>2016-06-25T14:05:00.000Z</time>
      </trkpt>
      <trkpt lat="44.89343" lon="5.12239">
        <ele>607.37384033203</ele>
        <time>2016-06-25T14:05:02.000Z</time>
      </trkpt>
      <trkpt lat="44.89326" lon="5.12219">
        <ele>603.57653808594</ele>
        <time>2016-06-25T14:05:04.000Z</time>
      </trkpt>
      <trkpt lat="44.89296" lon="5.12179">
        <ele>600.24578857422</ele>
        <time>2016-06-25T14:05:07.000Z</time>
      </trkpt>
      <trkpt lat="44.89265" lon="5.12141">
        <ele>597.65209960938</ele>
        <time>2016-06-25T14:05:10.000Z</time>
      </trkpt>
      <trkpt lat="44.89236" lon="5.12137">
        <ele>596.64538574219</ele>
        <time>2016-06-25T14:05:12.000Z</time>
      </trkpt>
      <trkpt lat="44.89198" lon="5.12126">
        <ele>596.67120361328</ele>
        <time>2016-06-25T14:05:15.000Z</time>
      </trkpt>
      <trkpt lat="44.89174" lon="5.12105">
        <ele>596.27801513672</ele>
        <time>2016-06-25T14:05:18.000Z</time>
      </trkpt>
      <trkpt lat="44.8917" lon="5.12086">
        <ele>595.41912841797</ele>
        <time>2016-06-25T14:05:20.000Z</time>
      </trkpt>
      <trkpt lat="44.89182" lon="5.12063">
        <ele>594.01342773438</ele>
        <time>2016-06-25T14:05:23.000Z</time>
      </trkpt>
      <trkpt lat="44.89236" lon="5.1209">
        <ele>590.93786621094</ele>
        <time>2016-06-25T14:05:28.000Z</time>
      </trkpt>
      <trkpt lat="44.89269" lon="5.12091">
        <ele>586.29797363281</ele>
        <time>2016-06-25T14:05:31.000Z</time>
      </trkpt>
      <trkpt lat="44.89292" lon="5.12105">
        <ele>582.24914550781</ele>
        <time>2016-06-25T14:05:33.000Z</time>
      </trkpt>
      <trkpt lat="44.89311" lon="5.12104">
        <ele>578.58770751953</ele>
        <time>2016-06-25T14:05:35.000Z</time>
      </trkpt>
      <trkpt lat="44.89331" lon="5.12114">
        <ele>576.19567871094</ele>
        <time>2016-06-25T14:05:37.000Z</time>
      </trkpt>
      <trkpt lat="44.89358" lon="5.1212">
        <ele>573.84295654297</ele>
        <time>2016-06-25T14:05:40.000Z</time>
      </trkpt>
      <trkpt lat="44.89383" lon="5.12108">
        <ele>571.00842285156</ele>
        <time>2016-06-25T14:05:43.000Z</time>
      </trkpt>
      <trkpt lat="44.89448" lon="5.12189">
        <ele>568.00720214844</ele>
        <time>2016-06-25T14:05:49.000Z</time>
      </trkpt>
      <trkpt lat="44.89465" lon="5.12213">
        <ele>565.45581054688</ele>
        <time>2016-06-25T14:05:52.000Z</time>
      </trkpt>
      <trkpt lat="44.89478" lon="5.12217">
        <ele>562.50134277344</ele>
        <time>2016-06-25T14:05:54.000Z</time>
      </trkpt>
      <trkpt lat="44.89476" lon="5.12193">
        <ele>559.97473144531</ele>
        <time>2016-06-25T14:05:56.000Z</time>
      </trkpt>
      <trkpt lat="44.8947" lon="5.12154">
        <ele>558.25720214844</ele>
        <time>2016-06-25T14:05:59.000Z</time>
      </trkpt>
      <trkpt lat="44.8946" lon="5.12128">
        <ele>556.03894042969</ele>
        <time>2016-06-25T14:06:01.000Z</time>
      </trkpt>
      <trkpt lat="44.89441" lon="5.12087">
        <ele>553.34271240234</ele>
        <time>2016-06-25T14:06:04.000Z</time>
      </trkpt>
      <trkpt lat="44.89423" lon="5.1205">
        <ele>550.34136962891</ele>
        <time>2016-06-25T14:06:07.000Z</time>
      </trkpt>
      <trkpt lat="44.89394" lon="5.12024">
        <ele>547.69482421875</ele>
        <time>2016-06-25T14:06:10.000Z</time>
      </trkpt>
      <trkpt lat="44.89367" lon="5.12">
        <ele>545.62048339844</ele>
        <time>2016-06-25T14:06:13.000Z</time>
      </trkpt>
      <trkpt lat="44.89354" lon="5.1197">
        <ele>543.61859130859</ele>
        <time>2016-06-25T14:06:16.000Z</time>
      </trkpt>
      <trkpt lat="44.89341" lon="5.11941">
        <ele>541.80694580078</ele>
        <time>2016-06-25T14:06:19.000Z</time>
      </trkpt>
      <trkpt lat="44.89308" lon="5.11908">
        <ele>540.96215820312</ele>
        <time>2016-06-25T14:06:23.000Z</time>
      </trkpt>
      <trkpt lat="44.893" lon="5.11874">
        <ele>540.00653076172</ele>
        <time>2016-06-25T14:06:26.000Z</time>
      </trkpt>
      <trkpt lat="44.89313" lon="5.11808">
        <ele>538.27392578125</ele>
        <time>2016-06-25T14:06:30.000Z</time>
      </trkpt>
      <trkpt lat="44.89329" lon="5.11772">
        <ele>536.47521972656</ele>
        <time>2016-06-25T14:06:33.000Z</time>
      </trkpt>
      <trkpt lat="44.89392" lon="5.1172">
        <ele>534.74676513672</ele>
        <time>2016-06-25T14:06:38.000Z</time>
      </trkpt>
      <trkpt lat="44.89421" lon="5.11731">
        <ele>532.86560058594</ele>
        <time>2016-06-25T14:06:40.000Z</time>
      </trkpt>
      <trkpt lat="44.89457" lon="5.11788">
        <ele>531.56182861328</ele>
        <time>2016-06-25T14:06:43.000Z</time>
      </trkpt>
      <trkpt lat="44.89476" lon="5.11827">
        <ele>530.26580810547</ele>
        <time>2016-06-25T14:06:45.000Z</time>
      </trkpt>
      <trkpt lat="44.89492" lon="5.11853">
        <ele>528.53381347656</ele>
        <time>2016-06-25T14:06:47.000Z</time>
      </trkpt>
      <trkpt lat="44.89527" lon="5.11851">
        <ele>527.16973876953</ele>
        <time>2016-06-25T14:06:50.000Z</time>
      </trkpt>
      <trkpt lat="44.8956" lon="5.11852">
        <ele>525.68054199219</ele>
        <time>2016-06-25T14:06:53.000Z</time>
      </trkpt>
      <trkpt lat="44.89578" lon="5.11853">
        <ele>523.64001464844</ele>
        <time>2016-06-25T14:06:55.000Z</time>
      </trkpt>
      <trkpt lat="44.89606" lon="5.11832">
        <ele>522.29547119141</ele>
        <time>2016-06-25T14:06:58.000Z</time>
      </trkpt>
      <trkpt lat="44.89627" lon="5.11811">
        <ele>521.53045654297</ele>
        <time>2016-06-25T14:07:00.000Z</time>
      </trkpt>
      <trkpt lat="44.89637" lon="5.11778">
        <ele>521.8447265625</ele>
        <time>2016-06-25T14:07:03.000Z</time>
      </trkpt>
      <trkpt lat="44.8966" lon="5.11761">
        <ele>521.94006347656</ele>
        <time>2016-06-25T14:07:06.000Z</time>
      </trkpt>
      <trkpt lat="44.89748" lon="5.11742">
        <ele>517.96978759766</ele>
        <time>2016-06-25T14:07:12.000Z</time>
      </trkpt>
      <trkpt lat="44.89762" lon="5.11723">
        <ele>513.49719238281</ele>
        <time>2016-06-25T14:07:14.000Z</time>
      </trkpt>
      <trkpt lat="44.89799" lon="5.117">
        <ele>507.16250610352</ele>
        <time>2016-06-25T14:07:17.000Z</time>
      </trkpt>
      <trkpt lat="44.89803" lon="5.11644">
        <ele>499.85458374023</ele>
        <time>2016-06-25T14:07:20.000Z</time>
      </trkpt>
      <trkpt lat="44.898" lon="5.11589">
        <ele>493.08404541016</ele>
        <time>2016-06-25T14:07:23.000Z</time>
      </trkpt>
      <trkpt lat="44.8979" lon="5.11564">
        <ele>491.22479248047</ele>
        <time>2016-06-25T14:07:25.000Z</time>
      </trkpt>
      <trkpt lat="44.89788" lon="5.11536">
        <ele>490.16082763672</ele>
        <time>2016-06-25T14:07:27.000Z</time>
      </trkpt>
      <trkpt lat="44.89783" lon="5.11498">
        <ele>491.64443969727</ele>
        <time>2016-06-25T14:07:30.000Z</time>
      </trkpt>
      <trkpt lat="44.89799" lon="5.11466">
        <ele>492.74600219727</ele>
        <time>2016-06-25T14:07:33.000Z</time>
      </trkpt>
      <trkpt lat="44.89798" lon="5.11451">
        <ele>493.97030639648</ele>
        <time>2016-06-25T14:07:35.000Z</time>
      </trkpt>
      <trkpt lat="44.8983" lon="5.11423">
        <ele>493.95629882812</ele>
        <time>2016-06-25T14:07:39.000Z</time>
      </trkpt>
      <trkpt lat="44.8986" lon="5.11408">
        <ele>493.05532836914</ele>
        <time>2016-06-25T14:07:42.000Z</time>
      </trkpt>
      <trkpt lat="44.89883" lon="5.11398">
        <ele>491.38076782227</ele>
        <time>2016-06-25T14:07:44.000Z</time>
      </trkpt>
      <trkpt lat="44.89909" lon="5.1138">
        <ele>489.93426513672</ele>
        <time>2016-06-25T14:07:47.000Z</time>
      </trkpt>
      <trkpt lat="44.89938" lon="5.11357">
        <ele>487.93927001953</ele>
        <time>2016-06-25T14:07:50.000Z</time>
      </trkpt>
      <trkpt lat="44.89965" lon="5.1133">
        <ele>486.27520751953</ele>
        <time>2016-06-25T14:07:53.000Z</time>
      </trkpt>
      <trkpt lat="44.89997" lon="5.11303">
        <ele>485.05966186523</ele>
        <time>2016-06-25T14:07:56.000Z</time>
      </trkpt>
      <trkpt lat="44.90018" lon="5.1129">
        <ele>484.00131225586</ele>
        <time>2016-06-25T14:07:58.000Z</time>
      </trkpt>
      <trkpt lat="44.90054" lon="5.11274">
        <ele>482.25396728516</ele>
        <time>2016-06-25T14:08:01.000Z</time>
      </trkpt>
      <trkpt lat="44.90086" lon="5.1125">
        <ele>480.720703125</ele>
        <time>2016-06-25T14:08:04.000Z</time>
      </trkpt>
      <trkpt lat="44.90104" lon="5.11236">
        <ele>479.13897705078</ele>
        <time>2016-06-25T14:08:06.000Z</time>
      </trkpt>
      <trkpt lat="44.90124" lon="5.11224">
        <ele>477.50228881836</ele>
        <time>2016-06-25T14:08:08.000Z</time>
      </trkpt>
      <trkpt lat="44.90201" lon="5.11182">
        <ele>474.98422241211</ele>
        <time>2016-06-25T14:08:15.000Z</time>
      </trkpt>
      <trkpt lat="44.90223" lon="5.11171">
        <ele>473.04843139648</ele>
        <time>2016-06-25T14:08:17.000Z</time>
      </trkpt>
      <trkpt lat="44.9026" lon="5.1118">
        <ele>469.51528930664</ele>
        <time>2016-06-25T14:08:20.000Z</time>
      </trkpt>
      <trkpt lat="44.90295" lon="5.11172">
        <ele>466.52020263672</ele>
        <time>2016-06-25T14:08:23.000Z</time>
      </trkpt>
      <trkpt lat="44.90319" lon="5.11171">
        <ele>463.76922607422</ele>
        <time>2016-06-25T14:08:25.000Z</time>
      </trkpt>
      <trkpt lat="44.90358" lon="5.11186">
        <ele>461.65338134766</ele>
        <time>2016-06-25T14:08:28.000Z</time>
      </trkpt>
      <trkpt lat="44.90373" lon="5.11199">
        <ele>459.0146484375</ele>
        <time>2016-06-25T14:08:30.000Z</time>
      </trkpt>
      <trkpt lat="44.90421" lon="5.11207">
        <ele>457.78546142578</ele>
        <time>2016-06-25T14:08:34.000Z</time>
      </trkpt>
      <trkpt lat="44.9044" lon="5.11219">
        <ele>455.29760742188</ele>
        <time>2016-06-25T14:08:36.000Z</time>
      </trkpt>
      <trkpt lat="44.90461" lon="5.11221">
        <ele>452.76922607422</ele>
        <time>2016-06-25T14:08:38.000Z</time>
      </trkpt>
      <trkpt lat="44.90479" lon="5.11226">
        <ele>450.47305297852</ele>
        <time>2016-06-25T14:08:40.000Z</time>
      </trkpt>
      <trkpt lat="44.90499" lon="5.11244">
        <ele>447.71347045898</ele>
        <time>2016-06-25T14:08:43.000Z</time>
      </trkpt>
      <trkpt lat="44.90531" lon="5.11256">
        <ele>444.38494873047</ele>
        <time>2016-06-25T14:08:46.000Z</time>
      </trkpt>
      <trkpt lat="44.90556" lon="5.11262">
        <ele>441.60342407227</ele>
        <time>2016-06-25T14:08:48.000Z</time>
      </trkpt>
      <trkpt lat="44.90586" lon="5.11255">
        <ele>438.94653320312</ele>
        <time>2016-06-25T14:08:51.000Z</time>
      </trkpt>
      <trkpt lat="44.90607" lon="5.11255">
        <ele>436.49520874023</ele>
        <time>2016-06-25T14:08:53.000Z</time>
      </trkpt>
      <trkpt lat="44.9063" lon="5.11264">
        <ele>434.740234375</ele>
        <time>2016-06-25T14:08:55.000Z</time>
      </trkpt>
      <trkpt lat="44.90663" lon="5.11285">
        <ele>432.65347290039</ele>
        <time>2016-06-25T14:08:58.000Z</time>
      </trkpt>
      <trkpt lat="44.907" lon="5.11285">
        <ele>430.51058959961</ele>
        <time>2016-06-25T14:09:01.000Z</time>
      </trkpt>
      <trkpt lat="44.90722" lon="5.11286">
        <ele>428.10482788086</ele>
        <time>2016-06-25T14:09:03.000Z</time>
      </trkpt>
      <trkpt lat="44.90755" lon="5.1129">
        <ele>425.25463867188</ele>
        <time>2016-06-25T14:09:06.000Z</time>
      </trkpt>
      <trkpt lat="44.90779" lon="5.113">
        <ele>422.27719116211</ele>
        <time>2016-06-25T14:09:08.000Z</time>
      </trkpt>
      <trkpt lat="44.90812" lon="5.11313">
        <ele>419.67269897461</ele>
        <time>2016-06-25T14:09:11.000Z</time>
      </trkpt>
      <trkpt lat="44.90836" lon="5.11317">
        <ele>417.09674072266</ele>
        <time>2016-06-25T14:09:13.000Z</time>
      </trkpt>
      <trkpt lat="44.90867" lon="5.11324">
        <ele>414.33407592773</ele>
        <time>2016-06-25T14:09:16.000Z</time>
      </trkpt>
      <trkpt lat="44.90887" lon="5.11332">
        <ele>411.78875732422</ele>
        <time>2016-06-25T14:09:18.000Z</time>
      </trkpt>
      <trkpt lat="44.9092" lon="5.11333">
        <ele>409.53866577148</ele>
        <time>2016-06-25T14:09:21.000Z</time>
      </trkpt>
      <trkpt lat="44.90951" lon="5.1135">
        <ele>408.11080932617</ele>
        <time>2016-06-25T14:09:24.000Z</time>
      </trkpt>
      <trkpt lat="44.90977" lon="5.11344">
        <ele>407.07830810547</ele>
        <time>2016-06-25T14:09:27.000Z</time>
      </trkpt>
      <trkpt lat="44.9101" lon="5.11322">
        <ele>406.40484619141</ele>
        <time>2016-06-25T14:09:30.000Z</time>
      </trkpt>
      <trkpt lat="44.91038" lon="5.11308">
        <ele>405.94915771484</ele>
        <time>2016-06-25T14:09:33.000Z</time>
      </trkpt>
      <trkpt lat="44.91063" lon="5.11291">
        <ele>405.61898803711</ele>
        <time>2016-06-25T14:09:36.000Z</time>
      </trkpt>
      <trkpt lat="44.91078" lon="5.11279">
        <ele>405.05102539062</ele>
        <time>2016-06-25T14:09:38.000Z</time>
      </trkpt>
      <trkpt lat="44.91095" lon="5.11268">
        <ele>404.46240234375</ele>
        <time>2016-06-25T14:09:40.000Z</time>
      </trkpt>
      <trkpt lat="44.91123" lon="5.11251">
        <ele>403.82290649414</ele>
        <time>2016-06-25T14:09:43.000Z</time>
      </trkpt>
      <trkpt lat="44.91138" lon="5.11242">
        <ele>403.24737548828</ele>
        <time>2016-06-25T14:09:45.000Z</time>
      </trkpt>
      <trkpt lat="44.91156" lon="5.11237">
        <ele>402.84234619141</ele>
        <time>2016-06-25T14:09:47.000Z</time>
      </trkpt>
      <trkpt lat="44.91177" lon="5.11219">
        <ele>402.59161376953</ele>
        <time>2016-06-25T14:09:50.000Z</time>
      </trkpt>
      <trkpt lat="44.91197" lon="5.11201">
        <ele>402.35931396484</ele>
        <time>2016-06-25T14:09:53.000Z</time>
      </trkpt>
      <trkpt lat="44.91213" lon="5.11187">
        <ele>402.14932250977</ele>
        <time>2016-06-25T14:09:55.000Z</time>
      </trkpt>
      <trkpt lat="44.91238" lon="5.1117">
        <ele>401.73358154297</ele>
        <time>2016-06-25T14:09:58.000Z</time>
      </trkpt>
      <trkpt lat="44.91261" lon="5.11154">
        <ele>401.37191772461</ele>
        <time>2016-06-25T14:10:01.000Z</time>
      </trkpt>
      <trkpt lat="44.91285" lon="5.11141">
        <ele>401.27880859375</ele>
        <time>2016-06-25T14:10:04.000Z</time>
      </trkpt>
      <trkpt lat="44.91308" lon="5.11122">
        <ele>401.1328125</ele>
        <time>2016-06-25T14:10:07.000Z</time>
      </trkpt>
      <trkpt lat="44.91315" lon="5.11108">
        <ele>400.82455444336</ele>
        <time>2016-06-25T14:10:09.000Z</time>
      </trkpt>
      <trkpt lat="44.91338" lon="5.11085">
        <ele>400.35845947266</ele>
        <time>2016-06-25T14:10:12.000Z</time>
      </trkpt>
      <trkpt lat="44.91352" lon="5.11075">
        <ele>400.23913574219</ele>
        <time>2016-06-25T14:10:14.000Z</time>
      </trkpt>
      <trkpt lat="44.91367" lon="5.11041">
        <ele>399.7795715332</ele>
        <time>2016-06-25T14:10:17.000Z</time>
      </trkpt>
      <trkpt lat="44.91376" lon="5.1101">
        <ele>398.99868774414</ele>
        <time>2016-06-25T14:10:20.000Z</time>
      </trkpt>
      <trkpt lat="44.91386" lon="5.10975">
        <ele>398.19134521484</ele>
        <time>2016-06-25T14:10:23.000Z</time>
      </trkpt>
      <trkpt lat="44.91388" lon="5.10949">
        <ele>397.56463623047</ele>
        <time>2016-06-25T14:10:25.000Z</time>
      </trkpt>
      <trkpt lat="44.91396" lon="5.10909">
        <ele>396.20346069336</ele>
        <time>2016-06-25T14:10:28.000Z</time>
      </trkpt>
      <trkpt lat="44.91396" lon="5.10868">
        <ele>394.53182983398</ele>
        <time>2016-06-25T14:10:31.000Z</time>
      </trkpt>
      <trkpt lat="44.91397" lon="5.10835">
        <ele>392.92999267578</ele>
        <time>2016-06-25T14:10:33.000Z</time>
      </trkpt>
      <trkpt lat="44.91399" lon="5.10793">
        <ele>391.52142333984</ele>
        <time>2016-06-25T14:10:36.000Z</time>
      </trkpt>
      <trkpt lat="44.91401" lon="5.10762">
        <ele>390.2529296875</ele>
        <time>2016-06-25T14:10:38.000Z</time>
      </trkpt>
      <trkpt lat="44.91402" lon="5.10732">
        <ele>389.27288818359</ele>
        <time>2016-06-25T14:10:40.000Z</time>
      </trkpt>
      <trkpt lat="44.91408" lon="5.10689">
        <ele>388.57730102539</ele>
        <time>2016-06-25T14:10:43.000Z</time>
      </trkpt>
      <trkpt lat="44.91413" lon="5.1065">
        <ele>388.1633605957</ele>
        <time>2016-06-25T14:10:46.000Z</time>
      </trkpt>
      <trkpt lat="44.91413" lon="5.10624">
        <ele>387.92459106445</ele>
        <time>2016-06-25T14:10:48.000Z</time>
      </trkpt>
      <trkpt lat="44.91411" lon="5.10594">
        <ele>387.87634277344</ele>
        <time>2016-06-25T14:10:51.000Z</time>
      </trkpt>
      <trkpt lat="44.91413" lon="5.1056">
        <ele>387.65579223633</ele>
        <time>2016-06-25T14:10:54.000Z</time>
      </trkpt>
      <trkpt lat="44.91412" lon="5.1054">
        <ele>387.373046875</ele>
        <time>2016-06-25T14:10:56.000Z</time>
      </trkpt>
      <trkpt lat="44.91413" lon="5.10505">
        <ele>386.77575683594</ele>
        <time>2016-06-25T14:10:59.000Z</time>
      </trkpt>
      <trkpt lat="44.91404" lon="5.10478">
        <ele>385.99346923828</ele>
        <time>2016-06-25T14:11:02.000Z</time>
      </trkpt>
      <trkpt lat="44.91398" lon="5.10435">
        <ele>384.74722290039</ele>
        <time>2016-06-25T14:11:05.000Z</time>
      </trkpt>
      <trkpt lat="44.91396" lon="5.10412">
        <ele>383.5100402832</ele>
        <time>2016-06-25T14:11:07.000Z</time>
      </trkpt>
      <trkpt lat="44.91394" lon="5.10383">
        <ele>382.02883911133</ele>
        <time>2016-06-25T14:11:09.000Z</time>
      </trkpt>
      <trkpt lat="44.91395" lon="5.10337">
        <ele>380.19085693359</ele>
        <time>2016-06-25T14:11:12.000Z</time>
      </trkpt>
      <trkpt lat="44.91395" lon="5.10301">
        <ele>378.09609985352</ele>
        <time>2016-06-25T14:11:14.000Z</time>
      </trkpt>
      <trkpt lat="44.91395" lon="5.10274">
        <ele>376.09552001953</ele>
        <time>2016-06-25T14:11:16.000Z</time>
      </trkpt>
      <trkpt lat="44.91394" lon="5.10231">
        <ele>373.97198486328</ele>
        <time>2016-06-25T14:11:19.000Z</time>
      </trkpt>
      <trkpt lat="44.91404" lon="5.10188">
        <ele>371.97467041016</ele>
        <time>2016-06-25T14:11:22.000Z</time>
      </trkpt>
      <trkpt lat="44.91405" lon="5.1016">
        <ele>370.5641784668</ele>
        <time>2016-06-25T14:11:24.000Z</time>
      </trkpt>
      <trkpt lat="44.91419" lon="5.10116">
        <ele>369.48574829102</ele>
        <time>2016-06-25T14:11:27.000Z</time>
      </trkpt>
      <trkpt lat="44.91427" lon="5.10088">
        <ele>368.65612792969</ele>
        <time>2016-06-25T14:11:29.000Z</time>
      </trkpt>
      <trkpt lat="44.9143" lon="5.10045">
        <ele>368.07147216797</ele>
        <time>2016-06-25T14:11:32.000Z</time>
      </trkpt>
      <trkpt lat="44.91438" lon="5.10015">
        <ele>367.68365478516</ele>
        <time>2016-06-25T14:11:34.000Z</time>
      </trkpt>
      <trkpt lat="44.91447" lon="5.09986">
        <ele>367.28207397461</ele>
        <time>2016-06-25T14:11:36.000Z</time>
      </trkpt>
      <trkpt lat="44.91456" lon="5.09943">
        <ele>366.65444946289</ele>
        <time>2016-06-25T14:11:39.000Z</time>
      </trkpt>
      <trkpt lat="44.91457" lon="5.09915">
        <ele>365.87738037109</ele>
        <time>2016-06-25T14:11:41.000Z</time>
      </trkpt>
      <trkpt lat="44.91465" lon="5.09871">
        <ele>364.8923034668</ele>
        <time>2016-06-25T14:11:44.000Z</time>
      </trkpt>
      <trkpt lat="44.91469" lon="5.0983">
        <ele>363.71762084961</ele>
        <time>2016-06-25T14:11:47.000Z</time>
      </trkpt>
      <trkpt lat="44.91462" lon="5.09784">
        <ele>362.51593017578</ele>
        <time>2016-06-25T14:11:50.000Z</time>
      </trkpt>
      <trkpt lat="44.91457" lon="5.09757">
        <ele>361.48370361328</ele>
        <time>2016-06-25T14:11:52.000Z</time>
      </trkpt>
      <trkpt lat="44.91449" lon="5.09726">
        <ele>360.37387084961</ele>
        <time>2016-06-25T14:11:54.000Z</time>
      </trkpt>
      <trkpt lat="44.91429" lon="5.09691">
        <ele>359.28289794922</ele>
        <time>2016-06-25T14:11:57.000Z</time>
      </trkpt>
      <trkpt lat="44.91419" lon="5.09666">
        <ele>358.26358032227</ele>
        <time>2016-06-25T14:11:59.000Z</time>
      </trkpt>
      <trkpt lat="44.91405" lon="5.09646">
        <ele>357.31658935547</ele>
        <time>2016-06-25T14:12:01.000Z</time>
      </trkpt>
      <trkpt lat="44.91396" lon="5.09604">
        <ele>356.28109741211</ele>
        <time>2016-06-25T14:12:04.000Z</time>
      </trkpt>
      <trkpt lat="44.91392" lon="5.09571">
        <ele>355.31796264648</ele>
        <time>2016-06-25T14:12:06.000Z</time>
      </trkpt>
      <trkpt lat="44.91388" lon="5.0954">
        <ele>354.47595214844</ele>
        <time>2016-06-25T14:12:08.000Z</time>
      </trkpt>
      <trkpt lat="44.91382" lon="5.09508">
        <ele>353.69183349609</ele>
        <time>2016-06-25T14:12:10.000Z</time>
      </trkpt>
      <trkpt lat="44.91378" lon="5.09478">
        <ele>352.81753540039</ele>
        <time>2016-06-25T14:12:12.000Z</time>
      </trkpt>
      <trkpt lat="44.91367" lon="5.09436">
        <ele>351.89849853516</ele>
        <time>2016-06-25T14:12:15.000Z</time>
      </trkpt>
      <trkpt lat="44.9136" lon="5.09408">
        <ele>350.98962402344</ele>
        <time>2016-06-25T14:12:17.000Z</time>
      </trkpt>
      <trkpt lat="44.91352" lon="5.09381">
        <ele>350.10046386719</ele>
        <time>2016-06-25T14:12:19.000Z</time>
      </trkpt>
      <trkpt lat="44.91344" lon="5.09336">
        <ele>349.09014892578</ele>
        <time>2016-06-25T14:12:22.000Z</time>
      </trkpt>
      <trkpt lat="44.91333" lon="5.09293">
        <ele>347.87677001953</ele>
        <time>2016-06-25T14:12:25.000Z</time>
      </trkpt>
      <trkpt lat="44.9132" lon="5.09253">
        <ele>346.61911010742</ele>
        <time>2016-06-25T14:12:28.000Z</time>
      </trkpt>
      <trkpt lat="44.91304" lon="5.09213">
        <ele>345.31597900391</ele>
        <time>2016-06-25T14:12:31.000Z</time>
      </trkpt>
      <trkpt lat="44.91292" lon="5.09173">
        <ele>343.89373779297</ele>
        <time>2016-06-25T14:12:34.000Z</time>
      </trkpt>
      <trkpt lat="44.91282" lon="5.09146">
        <ele>342.5517578125</ele>
        <time>2016-06-25T14:12:36.000Z</time>
      </trkpt>
      <trkpt lat="44.91271" lon="5.09124">
        <ele>341.42596435547</ele>
        <time>2016-06-25T14:12:38.000Z</time>
      </trkpt>
      <trkpt lat="44.91258" lon="5.09082">
        <ele>340.25527954102</ele>
        <time>2016-06-25T14:12:41.000Z</time>
      </trkpt>
      <trkpt lat="44.91247" lon="5.09055">
        <ele>339.14031982422</ele>
        <time>2016-06-25T14:12:43.000Z</time>
      </trkpt>
      <trkpt lat="44.91229" lon="5.09015">
        <ele>338.00399780273</ele>
        <time>2016-06-25T14:12:46.000Z</time>
      </trkpt>
      <trkpt lat="44.91215" lon="5.08975">
        <ele>336.76400756836</ele>
        <time>2016-06-25T14:12:49.000Z</time>
      </trkpt>
      <trkpt lat="44.91204" lon="5.0895">
        <ele>335.52920532227</ele>
        <time>2016-06-25T14:12:51.000Z</time>
      </trkpt>
      <trkpt lat="44.91194" lon="5.08907">
        <ele>334.39639282227</ele>
        <time>2016-06-25T14:12:54.000Z</time>
      </trkpt>
      <trkpt lat="44.91185" lon="5.08865">
        <ele>333.21752929688</ele>
        <time>2016-06-25T14:12:57.000Z</time>
      </trkpt>
      <trkpt lat="44.91181" lon="5.08836">
        <ele>332.15631103516</ele>
        <time>2016-06-25T14:12:59.000Z</time>
      </trkpt>
      <trkpt lat="44.91172" lon="5.08795">
        <ele>331.25836181641</ele>
        <time>2016-06-25T14:13:02.000Z</time>
      </trkpt>
      <trkpt lat="44.91167" lon="5.08768">
        <ele>330.44912719727</ele>
        <time>2016-06-25T14:13:04.000Z</time>
      </trkpt>
      <trkpt lat="44.91161" lon="5.08741">
        <ele>329.81860351562</ele>
        <time>2016-06-25T14:13:06.000Z</time>
      </trkpt>
      <trkpt lat="44.9115" lon="5.08703">
        <ele>329.3232421875</ele>
        <time>2016-06-25T14:13:09.000Z</time>
      </trkpt>
      <trkpt lat="44.91146" lon="5.08659">
        <ele>328.88632202148</ele>
        <time>2016-06-25T14:13:12.000Z</time>
      </trkpt>
      <trkpt lat="44.91136" lon="5.08619">
        <ele>328.41619873047</ele>
        <time>2016-06-25T14:13:15.000Z</time>
      </trkpt>
      <trkpt lat="44.91131" lon="5.0859">
        <ele>327.89053344727</ele>
        <time>2016-06-25T14:13:17.000Z</time>
      </trkpt>
      <trkpt lat="44.91131" lon="5.08547">
        <ele>327.26263427734</ele>
        <time>2016-06-25T14:13:20.000Z</time>
      </trkpt>
      <trkpt lat="44.91134" lon="5.08503">
        <ele>326.54605102539</ele>
        <time>2016-06-25T14:13:23.000Z</time>
      </trkpt>
      <trkpt lat="44.91135" lon="5.08473">
        <ele>325.8037109375</ele>
        <time>2016-06-25T14:13:25.000Z</time>
      </trkpt>
      <trkpt lat="44.91146" lon="5.08427">
        <ele>325.00863647461</ele>
        <time>2016-06-25T14:13:28.000Z</time>
      </trkpt>
      <trkpt lat="44.91144" lon="5.08391">
        <ele>324.16912841797</ele>
        <time>2016-06-25T14:13:30.000Z</time>
      </trkpt>
      <trkpt lat="44.91142" lon="5.08369">
        <ele>323.37823486328</ele>
        <time>2016-06-25T14:13:32.000Z</time>
      </trkpt>
      <trkpt lat="44.91142" lon="5.08325">
        <ele>322.54400634766</ele>
        <time>2016-06-25T14:13:35.000Z</time>
      </trkpt>
      <trkpt lat="44.91144" lon="5.08281">
        <ele>321.71350097656</ele>
        <time>2016-06-25T14:13:38.000Z</time>
      </trkpt>
      <trkpt lat="44.91144" lon="5.0824">
        <ele>320.96832275391</ele>
        <time>2016-06-25T14:13:41.000Z</time>
      </trkpt>
      <trkpt lat="44.91145" lon="5.08211">
        <ele>320.27694702148</ele>
        <time>2016-06-25T14:13:43.000Z</time>
      </trkpt>
      <trkpt lat="44.91145" lon="5.08169">
        <ele>319.51336669922</ele>
        <time>2016-06-25T14:13:46.000Z</time>
      </trkpt>
      <trkpt lat="44.91144" lon="5.0814">
        <ele>318.73016357422</ele>
        <time>2016-06-25T14:13:48.000Z</time>
      </trkpt>
      <trkpt lat="44.91145" lon="5.08096">
        <ele>317.73590087891</ele>
        <time>2016-06-25T14:13:51.000Z</time>
      </trkpt>
      <trkpt lat="44.91145" lon="5.08066">
        <ele>316.65374755859</ele>
        <time>2016-06-25T14:13:53.000Z</time>
      </trkpt>
      <trkpt lat="44.91143" lon="5.08021">
        <ele>315.35800170898</ele>
        <time>2016-06-25T14:13:56.000Z</time>
      </trkpt>
      <trkpt lat="44.91148" lon="5.07976">
        <ele>314.09307861328</ele>
        <time>2016-06-25T14:13:59.000Z</time>
      </trkpt>
      <trkpt lat="44.91148" lon="5.07948">
        <ele>313.02679443359</ele>
        <time>2016-06-25T14:14:01.000Z</time>
      </trkpt>
      <trkpt lat="44.91147" lon="5.07904">
        <ele>312.26397705078</ele>
        <time>2016-06-25T14:14:04.000Z</time>
      </trkpt>
      <trkpt lat="44.91144" lon="5.07861">
        <ele>311.63616943359</ele>
        <time>2016-06-25T14:14:07.000Z</time>
      </trkpt>
      <trkpt lat="44.91141" lon="5.07833">
        <ele>311.28311157227</ele>
        <time>2016-06-25T14:14:09.000Z</time>
      </trkpt>
      <trkpt lat="44.91136" lon="5.07792">
        <ele>310.86865234375</ele>
        <time>2016-06-25T14:14:12.000Z</time>
      </trkpt>
      <trkpt lat="44.91138" lon="5.07763">
        <ele>310.33984375</ele>
        <time>2016-06-25T14:14:14.000Z</time>
      </trkpt>
      <trkpt lat="44.9113" lon="5.07738">
        <ele>309.69342041016</ele>
        <time>2016-06-25T14:14:16.000Z</time>
      </trkpt>
      <trkpt lat="44.91122" lon="5.07697">
        <ele>308.88909912109</ele>
        <time>2016-06-25T14:14:19.000Z</time>
      </trkpt>
      <trkpt lat="44.91117" lon="5.07669">
        <ele>308.00262451172</ele>
        <time>2016-06-25T14:14:21.000Z</time>
      </trkpt>
      <trkpt lat="44.91109" lon="5.0763">
        <ele>307.26165771484</ele>
        <time>2016-06-25T14:14:24.000Z</time>
      </trkpt>
      <trkpt lat="44.91103" lon="5.07605">
        <ele>306.62014770508</ele>
        <time>2016-06-25T14:14:26.000Z</time>
      </trkpt>
      <trkpt lat="44.91095" lon="5.07564">
        <ele>306.03549194336</ele>
        <time>2016-06-25T14:14:29.000Z</time>
      </trkpt>
      <trkpt lat="44.91089" lon="5.0752">
        <ele>305.51284790039</ele>
        <time>2016-06-25T14:14:32.000Z</time>
      </trkpt>
      <trkpt lat="44.91082" lon="5.0748">
        <ele>305.05609130859</ele>
        <time>2016-06-25T14:14:35.000Z</time>
      </trkpt>
      <trkpt lat="44.91076" lon="5.07439">
        <ele>304.63757324219</ele>
        <time>2016-06-25T14:14:38.000Z</time>
      </trkpt>
      <trkpt lat="44.91069" lon="5.07399">
        <ele>304.15878295898</ele>
        <time>2016-06-25T14:14:41.000Z</time>
      </trkpt>
      <trkpt lat="44.91065" lon="5.07372">
        <ele>303.66302490234</ele>
        <time>2016-06-25T14:14:43.000Z</time>
      </trkpt>
      <trkpt lat="44.91056" lon="5.07329">
        <ele>303.10586547852</ele>
        <time>2016-06-25T14:14:46.000Z</time>
      </trkpt>
      <trkpt lat="44.9105" lon="5.07303">
        <ele>302.43173217773</ele>
        <time>2016-06-25T14:14:48.000Z</time>
      </trkpt>
      <trkpt lat="44.91047" lon="5.07262">
        <ele>301.5475769043</ele>
        <time>2016-06-25T14:14:51.000Z</time>
      </trkpt>
      <trkpt lat="44.91047" lon="5.07234">
        <ele>300.55844116211</ele>
        <time>2016-06-25T14:14:53.000Z</time>
      </trkpt>
      <trkpt lat="44.91057" lon="5.07192">
        <ele>299.31326293945</ele>
        <time>2016-06-25T14:14:56.000Z</time>
      </trkpt>
      <trkpt lat="44.91071" lon="5.07153">
        <ele>297.96759033203</ele>
        <time>2016-06-25T14:14:59.000Z</time>
      </trkpt>
      <trkpt lat="44.91077" lon="5.07127">
        <ele>296.67404174805</ele>
        <time>2016-06-25T14:15:01.000Z</time>
      </trkpt>
      <trkpt lat="44.91084" lon="5.07102">
        <ele>295.48052978516</ele>
        <time>2016-06-25T14:15:03.000Z</time>
      </trkpt>
      <trkpt lat="44.91093" lon="5.07061">
        <ele>294.29418945312</ele>
        <time>2016-06-25T14:15:06.000Z</time>
      </trkpt>
      <trkpt lat="44.91096" lon="5.0702">
        <ele>293.30380249023</ele>
        <time>2016-06-25T14:15:09.000Z</time>
      </trkpt>
      <trkpt lat="44.91095" lon="5.06992">
        <ele>292.52911376953</ele>
        <time>2016-06-25T14:15:11.000Z</time>
      </trkpt>
      <trkpt lat="44.91093" lon="5.06949">
        <ele>291.681640625</ele>
        <time>2016-06-25T14:15:14.000Z</time>
      </trkpt>
      <trkpt lat="44.91089" lon="5.06907">
        <ele>290.7809753418</ele>
        <time>2016-06-25T14:15:17.000Z</time>
      </trkpt>
      <trkpt lat="44.91084" lon="5.06866">
        <ele>289.96081542969</ele>
        <time>2016-06-25T14:15:20.000Z</time>
      </trkpt>
      <trkpt lat="44.91076" lon="5.06823">
        <ele>289.16946411133</ele>
        <time>2016-06-25T14:15:23.000Z</time>
      </trkpt>
      <trkpt lat="44.91079" lon="5.06789">
        <ele>288.26037597656</ele>
        <time>2016-06-25T14:15:25.000Z</time>
      </trkpt>
      <trkpt lat="44.91078" lon="5.06747">
        <ele>287.27200317383</ele>
        <time>2016-06-25T14:15:28.000Z</time>
      </trkpt>
      <trkpt lat="44.91075" lon="5.06709">
        <ele>286.37359619141</ele>
        <time>2016-06-25T14:15:31.000Z</time>
      </trkpt>
      <trkpt lat="44.91074" lon="5.06681">
        <ele>285.51000976562</ele>
        <time>2016-06-25T14:15:33.000Z</time>
      </trkpt>
      <trkpt lat="44.91074" lon="5.06641">
        <ele>284.68731689453</ele>
        <time>2016-06-25T14:15:36.000Z</time>
      </trkpt>
      <trkpt lat="44.91071" lon="5.06614">
        <ele>284.03427124023</ele>
        <time>2016-06-25T14:15:38.000Z</time>
      </trkpt>
      <trkpt lat="44.9107" lon="5.06588">
        <ele>283.5915222168</ele>
        <time>2016-06-25T14:15:40.000Z</time>
      </trkpt>
      <trkpt lat="44.91067" lon="5.06546">
        <ele>283.23803710938</ele>
        <time>2016-06-25T14:15:43.000Z</time>
      </trkpt>
      <trkpt lat="44.91065" lon="5.06506">
        <ele>282.97515869141</ele>
        <time>2016-06-25T14:15:46.000Z</time>
      </trkpt>
      <trkpt lat="44.91063" lon="5.06481">
        <ele>282.77432250977</ele>
        <time>2016-06-25T14:15:48.000Z</time>
      </trkpt>
      <trkpt lat="44.91059" lon="5.06443">
        <ele>282.55209350586</ele>
        <time>2016-06-25T14:15:51.000Z</time>
      </trkpt>
      <trkpt lat="44.91058" lon="5.06415">
        <ele>282.33587646484</ele>
        <time>2016-06-25T14:15:53.000Z</time>
      </trkpt>
      <trkpt lat="44.91056" lon="5.06376">
        <ele>281.87002563477</ele>
        <time>2016-06-25T14:15:56.000Z</time>
      </trkpt>
      <trkpt lat="44.91054" lon="5.06349">
        <ele>281.21908569336</ele>
        <time>2016-06-25T14:15:58.000Z</time>
      </trkpt>
      <trkpt lat="44.91052" lon="5.06307">
        <ele>280.38754272461</ele>
        <time>2016-06-25T14:16:01.000Z</time>
      </trkpt>
      <trkpt lat="44.91051" lon="5.06265">
        <ele>279.45590209961</ele>
        <time>2016-06-25T14:16:04.000Z</time>
      </trkpt>
      <trkpt lat="44.91051" lon="5.06225">
        <ele>278.46377563477</ele>
        <time>2016-06-25T14:16:07.000Z</time>
      </trkpt>
      <trkpt lat="44.91048" lon="5.06185">
        <ele>277.63525390625</ele>
        <time>2016-06-25T14:16:10.000Z</time>
      </trkpt>
      <trkpt lat="44.91046" lon="5.06158">
        <ele>276.89166259766</ele>
        <time>2016-06-25T14:16:12.000Z</time>
      </trkpt>
      <trkpt lat="44.91043" lon="5.06115">
        <ele>276.17535400391</ele>
        <time>2016-06-25T14:16:15.000Z</time>
      </trkpt>
      <trkpt lat="44.91042" lon="5.06075">
        <ele>275.44952392578</ele>
        <time>2016-06-25T14:16:18.000Z</time>
      </trkpt>
      <trkpt lat="44.91039" lon="5.06048">
        <ele>274.68804931641</ele>
        <time>2016-06-25T14:16:20.000Z</time>
      </trkpt>
      <trkpt lat="44.91037" lon="5.06007">
        <ele>273.77203369141</ele>
        <time>2016-06-25T14:16:23.000Z</time>
      </trkpt>
      <trkpt lat="44.91034" lon="5.05968">
        <ele>272.73931884766</ele>
        <time>2016-06-25T14:16:26.000Z</time>
      </trkpt>
      <trkpt lat="44.91031" lon="5.05925">
        <ele>271.69818115234</ele>
        <time>2016-06-25T14:16:29.000Z</time>
      </trkpt>
      <trkpt lat="44.91029" lon="5.05885">
        <ele>270.61785888672</ele>
        <time>2016-06-25T14:16:32.000Z</time>
      </trkpt>
      <trkpt lat="44.91031" lon="5.05858">
        <ele>269.54330444336</ele>
        <time>2016-06-25T14:16:34.000Z</time>
      </trkpt>
      <trkpt lat="44.9103" lon="5.05827">
        <ele>268.53579711914</ele>
        <time>2016-06-25T14:16:36.000Z</time>
      </trkpt>
      <trkpt lat="44.91032" lon="5.05786">
        <ele>267.57763671875</ele>
        <time>2016-06-25T14:16:39.000Z</time>
      </trkpt>
      <trkpt lat="44.91034" lon="5.05761">
        <ele>266.75131225586</ele>
        <time>2016-06-25T14:16:41.000Z</time>
      </trkpt>
      <trkpt lat="44.91038" lon="5.05723">
        <ele>266.19155883789</ele>
        <time>2016-06-25T14:16:44.000Z</time>
      </trkpt>
      <trkpt lat="44.91041" lon="5.05699">
        <ele>265.84350585938</ele>
        <time>2016-06-25T14:16:46.000Z</time>
      </trkpt>
      <trkpt lat="44.91043" lon="5.05659">
        <ele>265.71246337891</ele>
        <time>2016-06-25T14:16:49.000Z</time>
      </trkpt>
      <trkpt lat="44.91044" lon="5.0562">
        <ele>265.6442565918</ele>
        <time>2016-06-25T14:16:52.000Z</time>
      </trkpt>
      <trkpt lat="44.91046" lon="5.05594">
        <ele>265.60025024414</ele>
        <time>2016-06-25T14:16:54.000Z</time>
      </trkpt>
      <trkpt lat="44.9105" lon="5.05555">
        <ele>265.40399169922</ele>
        <time>2016-06-25T14:16:57.000Z</time>
      </trkpt>
      <trkpt lat="44.91051" lon="5.0553">
        <ele>265.06649780273</ele>
        <time>2016-06-25T14:16:59.000Z</time>
      </trkpt>
      <trkpt lat="44.91052" lon="5.05489">
        <ele>264.55194091797</ele>
        <time>2016-06-25T14:17:02.000Z</time>
      </trkpt>
      <trkpt lat="44.91055" lon="5.05451">
        <ele>264.05920410156</ele>
        <time>2016-06-25T14:17:05.000Z</time>
      </trkpt>
      <trkpt lat="44.91056" lon="5.05425">
        <ele>263.56695556641</ele>
        <time>2016-06-25T14:17:07.000Z</time>
      </trkpt>
      <trkpt lat="44.91057" lon="5.05386">
        <ele>263.05767822266</ele>
        <time>2016-06-25T14:17:10.000Z</time>
      </trkpt>
      <trkpt lat="44.91056" lon="5.0536">
        <ele>262.509765625</ele>
        <time>2016-06-25T14:17:12.000Z</time>
      </trkpt>
      <trkpt lat="44.91054" lon="5.05321">
        <ele>261.90478515625</ele>
        <time>2016-06-25T14:17:15.000Z</time>
      </trkpt>
      <trkpt lat="44.91065" lon="5.05295">
        <ele>261.35623168945</ele>
        <time>2016-06-25T14:17:17.000Z</time>
      </trkpt>
      <trkpt lat="44.91076" lon="5.05263">
        <ele>260.81011962891</ele>
        <time>2016-06-25T14:17:20.000Z</time>
      </trkpt>
      <trkpt lat="44.91081" lon="5.05224">
        <ele>260.26705932617</ele>
        <time>2016-06-25T14:17:23.000Z</time>
      </trkpt>
      <trkpt lat="44.9108" lon="5.05189">
        <ele>259.68032836914</ele>
        <time>2016-06-25T14:17:26.000Z</time>
      </trkpt>
      <trkpt lat="44.91077" lon="5.05167">
        <ele>259.16604614258</ele>
        <time>2016-06-25T14:17:28.000Z</time>
      </trkpt>
      <trkpt lat="44.91078" lon="5.05143">
        <ele>258.66424560547</ele>
        <time>2016-06-25T14:17:30.000Z</time>
      </trkpt>
      <trkpt lat="44.91079" lon="5.05109">
        <ele>258.21539306641</ele>
        <time>2016-06-25T14:17:33.000Z</time>
      </trkpt>
      <trkpt lat="44.9108" lon="5.05084">
        <ele>257.92303466797</ele>
        <time>2016-06-25T14:17:35.000Z</time>
      </trkpt>
      <trkpt lat="44.91086" lon="5.05049">
        <ele>257.75350952148</ele>
        <time>2016-06-25T14:17:38.000Z</time>
      </trkpt>
      <trkpt lat="44.91092" lon="5.05011">
        <ele>257.62231445312</ele>
        <time>2016-06-25T14:17:41.000Z</time>
      </trkpt>
      <trkpt lat="44.91096" lon="5.04987">
        <ele>257.43939208984</ele>
        <time>2016-06-25T14:17:43.000Z</time>
      </trkpt>
      <trkpt lat="44.91104" lon="5.04949">
        <ele>257.18881225586</ele>
        <time>2016-06-25T14:17:46.000Z</time>
      </trkpt>
      <trkpt lat="44.9111" lon="5.04913">
        <ele>256.87310791016</ele>
        <time>2016-06-25T14:17:49.000Z</time>
      </trkpt>
      <trkpt lat="44.91113" lon="5.04889">
        <ele>256.53979492188</ele>
        <time>2016-06-25T14:17:51.000Z</time>
      </trkpt>
      <trkpt lat="44.91117" lon="5.04853">
        <ele>256.1826171875</ele>
        <time>2016-06-25T14:17:54.000Z</time>
      </trkpt>
      <trkpt lat="44.91123" lon="5.04828">
        <ele>255.79574584961</ele>
        <time>2016-06-25T14:17:56.000Z</time>
      </trkpt>
      <trkpt lat="44.91133" lon="5.04793">
        <ele>255.39091491699</ele>
        <time>2016-06-25T14:17:59.000Z</time>
      </trkpt>
      <trkpt lat="44.91135" lon="5.04768">
        <ele>254.98246765137</ele>
        <time>2016-06-25T14:18:01.000Z</time>
      </trkpt>
      <trkpt lat="44.91141" lon="5.04732">
        <ele>254.48811340332</ele>
        <time>2016-06-25T14:18:04.000Z</time>
      </trkpt>
      <trkpt lat="44.91144" lon="5.04695">
        <ele>253.8871307373</ele>
        <time>2016-06-25T14:18:07.000Z</time>
      </trkpt>
      <trkpt lat="44.91147" lon="5.04671">
        <ele>253.23364257812</ele>
        <time>2016-06-25T14:18:09.000Z</time>
      </trkpt>
      <trkpt lat="44.91152" lon="5.04634">
        <ele>252.57075500488</ele>
        <time>2016-06-25T14:18:12.000Z</time>
      </trkpt>
      <trkpt lat="44.91154" lon="5.04611">
        <ele>251.91535949707</ele>
        <time>2016-06-25T14:18:14.000Z</time>
      </trkpt>
      <trkpt lat="44.91158" lon="5.04573">
        <ele>251.32035827637</ele>
        <time>2016-06-25T14:18:17.000Z</time>
      </trkpt>
      <trkpt lat="44.91159" lon="5.04537">
        <ele>250.79960632324</ele>
        <time>2016-06-25T14:18:20.000Z</time>
      </trkpt>
      <trkpt lat="44.91162" lon="5.04512">
        <ele>250.31127929688</ele>
        <time>2016-06-25T14:18:22.000Z</time>
      </trkpt>
      <trkpt lat="44.91163" lon="5.04474">
        <ele>249.798828125</ele>
        <time>2016-06-25T14:18:25.000Z</time>
      </trkpt>
      <trkpt lat="44.91164" lon="5.04447">
        <ele>249.27705383301</ele>
        <time>2016-06-25T14:18:27.000Z</time>
      </trkpt>
      <trkpt lat="44.91167" lon="5.0441">
        <ele>248.76872253418</ele>
        <time>2016-06-25T14:18:30.000Z</time>
      </trkpt>
      <trkpt lat="44.91169" lon="5.04374">
        <ele>248.31478881836</ele>
        <time>2016-06-25T14:18:33.000Z</time>
      </trkpt>
      <trkpt lat="44.91169" lon="5.04335">
        <ele>247.86747741699</ele>
        <time>2016-06-25T14:18:36.000Z</time>
      </trkpt>
      <trkpt lat="44.9117" lon="5.04312">
        <ele>247.42892456055</ele>
        <time>2016-06-25T14:18:38.000Z</time>
      </trkpt>
      <trkpt lat="44.91168" lon="5.04276">
        <ele>246.88516235352</ele>
        <time>2016-06-25T14:18:41.000Z</time>
      </trkpt>
      <trkpt lat="44.91167" lon="5.04238">
        <ele>246.271484375</ele>
        <time>2016-06-25T14:18:44.000Z</time>
      </trkpt>
      <trkpt lat="44.91167" lon="5.04213">
        <ele>245.69107055664</ele>
        <time>2016-06-25T14:18:46.000Z</time>
      </trkpt>
      <trkpt lat="44.91167" lon="5.04188">
        <ele>245.14315795898</ele>
        <time>2016-06-25T14:18:48.000Z</time>
      </trkpt>
      <trkpt lat="44.91167" lon="5.04151">
        <ele>244.61450195312</ele>
        <time>2016-06-25T14:18:51.000Z</time>
      </trkpt>
      <trkpt lat="44.91165" lon="5.04125">
        <ele>244.19355773926</ele>
        <time>2016-06-25T14:18:53.000Z</time>
      </trkpt>
      <trkpt lat="44.91164" lon="5.04099">
        <ele>243.86592102051</ele>
        <time>2016-06-25T14:18:55.000Z</time>
      </trkpt>
      <trkpt lat="44.91165" lon="5.04076">
        <ele>243.52359008789</ele>
        <time>2016-06-25T14:18:57.000Z</time>
      </trkpt>
      <trkpt lat="44.91162" lon="5.04037">
        <ele>243.05659484863</ele>
        <time>2016-06-25T14:19:00.000Z</time>
      </trkpt>
      <trkpt lat="44.91161" lon="5.04">
        <ele>242.49594116211</ele>
        <time>2016-06-25T14:19:03.000Z</time>
      </trkpt>
      <trkpt lat="44.91159" lon="5.03963">
        <ele>242.07608032227</ele>
        <time>2016-06-25T14:19:06.000Z</time>
      </trkpt>
      <trkpt lat="44.91158" lon="5.03938">
        <ele>241.76794433594</ele>
        <time>2016-06-25T14:19:08.000Z</time>
      </trkpt>
      <trkpt lat="44.91156" lon="5.03914">
        <ele>241.5611114502</ele>
        <time>2016-06-25T14:19:10.000Z</time>
      </trkpt>
      <trkpt lat="44.91156" lon="5.03876">
        <ele>241.38261413574</ele>
        <time>2016-06-25T14:19:13.000Z</time>
      </trkpt>
      <trkpt lat="44.91153" lon="5.03839">
        <ele>241.23791503906</ele>
        <time>2016-06-25T14:19:16.000Z</time>
      </trkpt>
      <trkpt lat="44.91153" lon="5.03814">
        <ele>240.94343566895</ele>
        <time>2016-06-25T14:19:18.000Z</time>
      </trkpt>
      <trkpt lat="44.91152" lon="5.03777">
        <ele>240.5094909668</ele>
        <time>2016-06-25T14:19:21.000Z</time>
      </trkpt>
      <trkpt lat="44.9115" lon="5.0374">
        <ele>239.97782897949</ele>
        <time>2016-06-25T14:19:24.000Z</time>
      </trkpt>
      <trkpt lat="44.91148" lon="5.03716">
        <ele>239.58200073242</ele>
        <time>2016-06-25T14:19:26.000Z</time>
      </trkpt>
      <trkpt lat="44.91147" lon="5.03677">
        <ele>239.2907409668</ele>
        <time>2016-06-25T14:19:29.000Z</time>
      </trkpt>
      <trkpt lat="44.91148" lon="5.03652">
        <ele>239.05781555176</ele>
        <time>2016-06-25T14:19:31.000Z</time>
      </trkpt>
      <trkpt lat="44.91145" lon="5.03613">
        <ele>238.90592956543</ele>
        <time>2016-06-25T14:19:34.000Z</time>
      </trkpt>
      <trkpt lat="44.91144" lon="5.03589">
        <ele>238.82136535645</ele>
        <time>2016-06-25T14:19:36.000Z</time>
      </trkpt>
      <trkpt lat="44.91143" lon="5.03551">
        <ele>238.65744018555</ele>
        <time>2016-06-25T14:19:39.000Z</time>
      </trkpt>
      <trkpt lat="44.91144" lon="5.03526">
        <ele>238.46382141113</ele>
        <time>2016-06-25T14:19:41.000Z</time>
      </trkpt>
      <trkpt lat="44.91142" lon="5.03492">
        <ele>238.15742492676</ele>
        <time>2016-06-25T14:19:44.000Z</time>
      </trkpt>
      <trkpt lat="44.91144" lon="5.03466">
        <ele>237.7619934082</ele>
        <time>2016-06-25T14:19:46.000Z</time>
      </trkpt>
      <trkpt lat="44.91135" lon="5.03431">
        <ele>237.19454956055</ele>
        <time>2016-06-25T14:19:49.000Z</time>
      </trkpt>
      <trkpt lat="44.9113" lon="5.03404">
        <ele>236.59634399414</ele>
        <time>2016-06-25T14:19:51.000Z</time>
      </trkpt>
      <trkpt lat="44.91124" lon="5.03367">
        <ele>235.88528442383</ele>
        <time>2016-06-25T14:19:54.000Z</time>
      </trkpt>
      <trkpt lat="44.91122" lon="5.03341">
        <ele>235.18124389648</ele>
        <time>2016-06-25T14:19:56.000Z</time>
      </trkpt>
      <trkpt lat="44.91125" lon="5.03301">
        <ele>234.45190429688</ele>
        <time>2016-06-25T14:19:59.000Z</time>
      </trkpt>
      <trkpt lat="44.91128" lon="5.03276">
        <ele>233.82852172852</ele>
        <time>2016-06-25T14:20:01.000Z</time>
      </trkpt>
      <trkpt lat="44.91133" lon="5.03251">
        <ele>233.26498413086</ele>
        <time>2016-06-25T14:20:03.000Z</time>
      </trkpt>
      <trkpt lat="44.91137" lon="5.03228">
        <ele>232.82197570801</ele>
        <time>2016-06-25T14:20:05.000Z</time>
      </trkpt>
      <trkpt lat="44.91142" lon="5.03203">
        <ele>232.42663574219</ele>
        <time>2016-06-25T14:20:07.000Z</time>
      </trkpt>
      <trkpt lat="44.91153" lon="5.0317">
        <ele>232.04418945312</ele>
        <time>2016-06-25T14:20:10.000Z</time>
      </trkpt>
      <trkpt lat="44.91162" lon="5.03135">
        <ele>231.62390136719</ele>
        <time>2016-06-25T14:20:13.000Z</time>
      </trkpt>
      <trkpt lat="44.91169" lon="5.031">
        <ele>231.16804504395</ele>
        <time>2016-06-25T14:20:16.000Z</time>
      </trkpt>
      <trkpt lat="44.9118" lon="5.03066">
        <ele>230.64358520508</ele>
        <time>2016-06-25T14:20:19.000Z</time>
      </trkpt>
      <trkpt lat="44.91185" lon="5.03043">
        <ele>230.1100769043</ele>
        <time>2016-06-25T14:20:21.000Z</time>
      </trkpt>
      <trkpt lat="44.9119" lon="5.03017">
        <ele>229.59831237793</ele>
        <time>2016-06-25T14:20:23.000Z</time>
      </trkpt>
      <trkpt lat="44.91198" lon="5.02982">
        <ele>229.02607727051</ele>
        <time>2016-06-25T14:20:26.000Z</time>
      </trkpt>
      <trkpt lat="44.91206" lon="5.02947">
        <ele>228.35415649414</ele>
        <time>2016-06-25T14:20:29.000Z</time>
      </trkpt>
      <trkpt lat="44.91212" lon="5.02922">
        <ele>227.6725769043</ele>
        <time>2016-06-25T14:20:31.000Z</time>
      </trkpt>
      <trkpt lat="44.9122" lon="5.02885">
        <ele>226.97541809082</ele>
        <time>2016-06-25T14:20:34.000Z</time>
      </trkpt>
      <trkpt lat="44.91223" lon="5.0286">
        <ele>226.3324432373</ele>
        <time>2016-06-25T14:20:36.000Z</time>
      </trkpt>
      <trkpt lat="44.91227" lon="5.02834">
        <ele>225.82661437988</ele>
        <time>2016-06-25T14:20:39.000Z</time>
      </trkpt>
      <trkpt lat="44.91237" lon="5.02761">
        <ele>225.35383605957</ele>
        <time>2016-06-25T14:20:44.000Z</time>
      </trkpt>
      <trkpt lat="44.91243" lon="5.02724">
        <ele>225.02319335938</ele>
        <time>2016-06-25T14:20:47.000Z</time>
      </trkpt>
      <trkpt lat="44.91245" lon="5.02699">
        <ele>224.83015441895</ele>
        <time>2016-06-25T14:20:49.000Z</time>
      </trkpt>
      <trkpt lat="44.91246" lon="5.02673">
        <ele>224.72177124023</ele>
        <time>2016-06-25T14:20:51.000Z</time>
      </trkpt>
      <trkpt lat="44.91247" lon="5.02634">
        <ele>224.50617980957</ele>
        <time>2016-06-25T14:20:54.000Z</time>
      </trkpt>
      <trkpt lat="44.91249" lon="5.02595">
        <ele>224.27795410156</ele>
        <time>2016-06-25T14:20:57.000Z</time>
      </trkpt>
      <trkpt lat="44.91251" lon="5.02571">
        <ele>223.9369354248</ele>
        <time>2016-06-25T14:20:59.000Z</time>
      </trkpt>
      <trkpt lat="44.91257" lon="5.02537">
        <ele>223.38520812988</ele>
        <time>2016-06-25T14:21:02.000Z</time>
      </trkpt>
      <trkpt lat="44.91258" lon="5.02515">
        <ele>222.67617797852</ele>
        <time>2016-06-25T14:21:04.000Z</time>
      </trkpt>
      <trkpt lat="44.91262" lon="5.02483">
        <ele>221.95747375488</ele>
        <time>2016-06-25T14:21:07.000Z</time>
      </trkpt>
      <trkpt lat="44.91268" lon="5.02451">
        <ele>221.29248046875</ele>
        <time>2016-06-25T14:21:10.000Z</time>
      </trkpt>
      <trkpt lat="44.91276" lon="5.02419">
        <ele>220.62426757812</ele>
        <time>2016-06-25T14:21:13.000Z</time>
      </trkpt>
      <trkpt lat="44.91281" lon="5.02397">
        <ele>220.10832214355</ele>
        <time>2016-06-25T14:21:15.000Z</time>
      </trkpt>
      <trkpt lat="44.91287" lon="5.02377">
        <ele>219.68627929688</ele>
        <time>2016-06-25T14:21:17.000Z</time>
      </trkpt>
      <trkpt lat="44.91293" lon="5.02346">
        <ele>219.37915039062</ele>
        <time>2016-06-25T14:21:20.000Z</time>
      </trkpt>
      <trkpt lat="44.91301" lon="5.02313">
        <ele>219.18965148926</ele>
        <time>2016-06-25T14:21:23.000Z</time>
      </trkpt>
      <trkpt lat="44.91308" lon="5.02281">
        <ele>219.11882019043</ele>
        <time>2016-06-25T14:21:26.000Z</time>
      </trkpt>
      <trkpt lat="44.91315" lon="5.02249">
        <ele>219.05709838867</ele>
        <time>2016-06-25T14:21:29.000Z</time>
      </trkpt>
      <trkpt lat="44.91322" lon="5.0223">
        <ele>218.8713684082</ele>
        <time>2016-06-25T14:21:31.000Z</time>
      </trkpt>
      <trkpt lat="44.91325" lon="5.02206">
        <ele>218.54760742188</ele>
        <time>2016-06-25T14:21:33.000Z</time>
      </trkpt>
      <trkpt lat="44.91328" lon="5.0217">
        <ele>217.98483276367</ele>
        <time>2016-06-25T14:21:36.000Z</time>
      </trkpt>
      <trkpt lat="44.9133" lon="5.02136">
        <ele>217.39022827148</ele>
        <time>2016-06-25T14:21:39.000Z</time>
      </trkpt>
      <trkpt lat="44.91335" lon="5.02103">
        <ele>216.79936218262</ele>
        <time>2016-06-25T14:21:42.000Z</time>
      </trkpt>
      <trkpt lat="44.91338" lon="5.02068">
        <ele>216.34533691406</ele>
        <time>2016-06-25T14:21:45.000Z</time>
      </trkpt>
      <trkpt lat="44.91344" lon="5.0204">
        <ele>216.05290222168</ele>
        <time>2016-06-25T14:21:48.000Z</time>
      </trkpt>
      <trkpt lat="44.91354" lon="5.02008">
        <ele>215.97566223145</ele>
        <time>2016-06-25T14:21:51.000Z</time>
      </trkpt>
      <trkpt lat="44.91362" lon="5.01992">
        <ele>215.88879394531</ele>
        <time>2016-06-25T14:21:53.000Z</time>
      </trkpt>
      <trkpt lat="44.91368" lon="5.01974">
        <ele>215.76557922363</ele>
        <time>2016-06-25T14:21:55.000Z</time>
      </trkpt>
      <trkpt lat="44.91365" lon="5.01941">
        <ele>215.59480285645</ele>
        <time>2016-06-25T14:21:58.000Z</time>
      </trkpt>
      <trkpt lat="44.91346" lon="5.01931">
        <ele>215.42512512207</ele>
        <time>2016-06-25T14:22:00.000Z</time>
      </trkpt>
      <trkpt lat="44.91325" lon="5.01953">
        <ele>215.31828308105</ele>
        <time>2016-06-25T14:22:03.000Z</time>
      </trkpt>
      <trkpt lat="44.91318" lon="5.01986">
        <ele>215.32308959961</ele>
        <time>2016-06-25T14:22:06.000Z</time>
      </trkpt>
      <trkpt lat="44.91305" lon="5.02015">
        <ele>215.38720703125</ele>
        <time>2016-06-25T14:22:09.000Z</time>
      </trkpt>
      <trkpt lat="44.91292" lon="5.02025">
        <ele>215.48229980469</ele>
        <time>2016-06-25T14:22:11.000Z</time>
      </trkpt>
      <trkpt lat="44.91261" lon="5.01982">
        <ele>215.39978027344</ele>
        <time>2016-06-25T14:22:15.000Z</time>
      </trkpt>
      <trkpt lat="44.91238" lon="5.01977">
        <ele>215.2720489502</ele>
        <time>2016-06-25T14:22:18.000Z</time>
      </trkpt>
      <trkpt lat="44.91214" lon="5.01975">
        <ele>215.14335632324</ele>
        <time>2016-06-25T14:22:21.000Z</time>
      </trkpt>
      <trkpt lat="44.91188" lon="5.01975">
        <ele>215.07284545898</ele>
        <time>2016-06-25T14:22:24.000Z</time>
      </trkpt>
      <trkpt lat="44.91164" lon="5.01976">
        <ele>215.08364868164</ele>
        <time>2016-06-25T14:22:27.000Z</time>
      </trkpt>
      <trkpt lat="44.91139" lon="5.01976">
        <ele>215.27799987793</ele>
        <time>2016-06-25T14:22:30.000Z</time>
      </trkpt>
      <trkpt lat="44.91122" lon="5.01976">
        <ele>215.49600219727</ele>
        <time>2016-06-25T14:22:32.000Z</time>
      </trkpt>
      <trkpt lat="44.91098" lon="5.01978">
        <ele>215.64762878418</ele>
        <time>2016-06-25T14:22:35.000Z</time>
      </trkpt>
      <trkpt lat="44.91076" lon="5.01976">
        <ele>215.72158813477</ele>
        <time>2016-06-25T14:22:38.000Z</time>
      </trkpt>
      <trkpt lat="44.91053" lon="5.01979">
        <ele>215.74819946289</ele>
        <time>2016-06-25T14:22:41.000Z</time>
      </trkpt>
      <trkpt lat="44.91039" lon="5.01977">
        <ele>215.78144836426</ele>
        <time>2016-06-25T14:22:43.000Z</time>
      </trkpt>
      <trkpt lat="44.91014" lon="5.01979">
        <ele>215.82929992676</ele>
        <time>2016-06-25T14:22:46.000Z</time>
      </trkpt>
      <trkpt lat="44.90999" lon="5.01981">
        <ele>215.88882446289</ele>
        <time>2016-06-25T14:22:48.000Z</time>
      </trkpt>
      <trkpt lat="44.90981" lon="5.01984">
        <ele>216.04792785645</ele>
        <time>2016-06-25T14:22:50.000Z</time>
      </trkpt>
      <trkpt lat="44.90956" lon="5.0198">
        <ele>216.31796264648</ele>
        <time>2016-06-25T14:22:53.000Z</time>
      </trkpt>
      <trkpt lat="44.90939" lon="5.0198">
        <ele>216.67813110352</ele>
        <time>2016-06-25T14:22:55.000Z</time>
      </trkpt>
      <trkpt lat="44.90922" lon="5.01981">
        <ele>217.1197052002</ele>
        <time>2016-06-25T14:22:57.000Z</time>
      </trkpt>
      <trkpt lat="44.90895" lon="5.01983">
        <ele>217.55928039551</ele>
        <time>2016-06-25T14:23:00.000Z</time>
      </trkpt>
      <trkpt lat="44.90876" lon="5.01985">
        <ele>217.88204956055</ele>
        <time>2016-06-25T14:23:02.000Z</time>
      </trkpt>
      <trkpt lat="44.90849" lon="5.01982">
        <ele>218.02005004883</ele>
        <time>2016-06-25T14:23:05.000Z</time>
      </trkpt>
      <trkpt lat="44.90831" lon="5.01984">
        <ele>218.04739379883</ele>
        <time>2016-06-25T14:23:07.000Z</time>
      </trkpt>
      <trkpt lat="44.90812" lon="5.01985">
        <ele>217.97737121582</ele>
        <time>2016-06-25T14:23:09.000Z</time>
      </trkpt>
      <trkpt lat="44.90783" lon="5.01987">
        <ele>217.89961242676</ele>
        <time>2016-06-25T14:23:12.000Z</time>
      </trkpt>
      <trkpt lat="44.90766" lon="5.01988">
        <ele>217.84140014648</ele>
        <time>2016-06-25T14:23:14.000Z</time>
      </trkpt>
      <trkpt lat="44.90747" lon="5.01989">
        <ele>217.83219909668</ele>
        <time>2016-06-25T14:23:16.000Z</time>
      </trkpt>
      <trkpt lat="44.90718" lon="5.0199">
        <ele>217.76901245117</ele>
        <time>2016-06-25T14:23:19.000Z</time>
      </trkpt>
      <trkpt lat="44.90699" lon="5.01985">
        <ele>217.64761352539</ele>
        <time>2016-06-25T14:23:21.000Z</time>
      </trkpt>
      <trkpt lat="44.9068" lon="5.01985">
        <ele>217.47431945801</ele>
        <time>2016-06-25T14:23:23.000Z</time>
      </trkpt>
      <trkpt lat="44.90652" lon="5.01983">
        <ele>217.29508972168</ele>
        <time>2016-06-25T14:23:26.000Z</time>
      </trkpt>
      <trkpt lat="44.90633" lon="5.01986">
        <ele>217.17367553711</ele>
        <time>2016-06-25T14:23:28.000Z</time>
      </trkpt>
      <trkpt lat="44.90604" lon="5.01983">
        <ele>217.18460083008</ele>
        <time>2016-06-25T14:23:31.000Z</time>
      </trkpt>
      <trkpt lat="44.90577" lon="5.01983">
        <ele>217.29948425293</ele>
        <time>2016-06-25T14:23:34.000Z</time>
      </trkpt>
      <trkpt lat="44.9056" lon="5.01982">
        <ele>217.44900512695</ele>
        <time>2016-06-25T14:23:36.000Z</time>
      </trkpt>
      <trkpt lat="44.90541" lon="5.01981">
        <ele>217.58801269531</ele>
        <time>2016-06-25T14:23:38.000Z</time>
      </trkpt>
      <trkpt lat="44.90516" lon="5.0198">
        <ele>217.65336608887</ele>
        <time>2016-06-25T14:23:41.000Z</time>
      </trkpt>
      <trkpt lat="44.90498" lon="5.0198">
        <ele>217.64596557617</ele>
        <time>2016-06-25T14:23:43.000Z</time>
      </trkpt>
      <trkpt lat="44.90473" lon="5.0198">
        <ele>217.54341125488</ele>
        <time>2016-06-25T14:23:46.000Z</time>
      </trkpt>
      <trkpt lat="44.90456" lon="5.01977">
        <ele>217.41244506836</ele>
        <time>2016-06-25T14:23:48.000Z</time>
      </trkpt>
      <trkpt lat="44.9043" lon="5.01971">
        <ele>217.23141479492</ele>
        <time>2016-06-25T14:23:51.000Z</time>
      </trkpt>
      <trkpt lat="44.90414" lon="5.01967">
        <ele>217.03677368164</ele>
        <time>2016-06-25T14:23:53.000Z</time>
      </trkpt>
      <trkpt lat="44.904" lon="5.01955">
        <ele>216.80776977539</ele>
        <time>2016-06-25T14:23:55.000Z</time>
      </trkpt>
      <trkpt lat="44.90377" lon="5.01944">
        <ele>216.58871459961</ele>
        <time>2016-06-25T14:23:58.000Z</time>
      </trkpt>
      <trkpt lat="44.90358" lon="5.01937">
        <ele>216.39022827148</ele>
        <time>2016-06-25T14:24:00.000Z</time>
      </trkpt>
      <trkpt lat="44.90342" lon="5.01928">
        <ele>216.24235534668</ele>
        <time>2016-06-25T14:24:02.000Z</time>
      </trkpt>
      <trkpt lat="44.90316" lon="5.01919">
        <ele>216.08349609375</ele>
        <time>2016-06-25T14:24:05.000Z</time>
      </trkpt>
      <trkpt lat="44.90298" lon="5.01913">
        <ele>215.92167663574</ele>
        <time>2016-06-25T14:24:07.000Z</time>
      </trkpt>
      <trkpt lat="44.90274" lon="5.01907">
        <ele>215.73762512207</ele>
        <time>2016-06-25T14:24:10.000Z</time>
      </trkpt>
      <trkpt lat="44.9026" lon="5.01897">
        <ele>215.54077148438</ele>
        <time>2016-06-25T14:24:12.000Z</time>
      </trkpt>
      <trkpt lat="44.90241" lon="5.01885">
        <ele>215.32992553711</ele>
        <time>2016-06-25T14:24:15.000Z</time>
      </trkpt>
      <trkpt lat="44.90231" lon="5.0189">
        <ele>215.15788269043</ele>
        <time>2016-06-25T14:24:17.000Z</time>
      </trkpt>
      <trkpt lat="44.90221" lon="5.0189">
        <ele>215.02383422852</ele>
        <time>2016-06-25T14:24:19.000Z</time>
      </trkpt>
      <trkpt lat="44.90211" lon="5.01886">
        <ele>214.93916320801</ele>
        <time>2016-06-25T14:24:21.000Z</time>
      </trkpt>
      <trkpt lat="44.90192" lon="5.01878">
        <ele>214.8567199707</ele>
        <time>2016-06-25T14:24:24.000Z</time>
      </trkpt>
      <trkpt lat="44.90174" lon="5.01873">
        <ele>214.76789855957</ele>
        <time>2016-06-25T14:24:27.000Z</time>
      </trkpt>
      <trkpt lat="44.90158" lon="5.01868">
        <ele>214.65725708008</ele>
        <time>2016-06-25T14:24:29.000Z</time>
      </trkpt>
      <trkpt lat="44.9014" lon="5.01861">
        <ele>214.52523803711</ele>
        <time>2016-06-25T14:24:32.000Z</time>
      </trkpt>
      <trkpt lat="44.90127" lon="5.01861">
        <ele>214.3935546875</ele>
        <time>2016-06-25T14:24:34.000Z</time>
      </trkpt>
      <trkpt lat="44.90108" lon="5.0186">
        <ele>214.27738952637</ele>
        <time>2016-06-25T14:24:37.000Z</time>
      </trkpt>
      <trkpt lat="44.90097" lon="5.01868">
        <ele>214.18774414062</ele>
        <time>2016-06-25T14:24:39.000Z</time>
      </trkpt>
      <trkpt lat="44.90068" lon="5.01837">
        <ele>214.07841491699</ele>
        <time>2016-06-25T14:24:43.000Z</time>
      </trkpt>
      <trkpt lat="44.90053" lon="5.01829">
        <ele>213.94180297852</ele>
        <time>2016-06-25T14:24:46.000Z</time>
      </trkpt>
      <trkpt lat="44.90038" lon="5.01818">
        <ele>213.71926879883</ele>
        <time>2016-06-25T14:24:49.000Z</time>
      </trkpt>
      <trkpt lat="44.90029" lon="5.01814">
        <ele>213.46353149414</ele>
        <time>2016-06-25T14:24:51.000Z</time>
      </trkpt>
      <trkpt lat="44.90015" lon="5.01821">
        <ele>213.20874023438</ele>
        <time>2016-06-25T14:24:54.000Z</time>
      </trkpt>
      <trkpt lat="44.90009" lon="5.01834">
        <ele>213.06672668457</ele>
        <time>2016-06-25T14:24:56.000Z</time>
      </trkpt>
      <trkpt lat="44.90002" lon="5.01858">
        <ele>213.02163696289</ele>
        <time>2016-06-25T14:24:59.000Z</time>
      </trkpt>
      <trkpt lat="44.90003" lon="5.01878">
        <ele>213.11991882324</ele>
        <time>2016-06-25T14:25:01.000Z</time>
      </trkpt>
      <trkpt lat="44.89999" lon="5.01904">
        <ele>213.32498168945</ele>
        <time>2016-06-25T14:25:04.000Z</time>
      </trkpt>
      <trkpt lat="44.89994" lon="5.01924">
        <ele>213.58447265625</ele>
        <time>2016-06-25T14:25:07.000Z</time>
      </trkpt>
      <trkpt lat="44.9" lon="5.01938">
        <ele>213.81118774414</ele>
        <time>2016-06-25T14:25:10.000Z</time>
      </trkpt>
      <trkpt lat="44.90008" lon="5.01943">
        <ele>214.01081848145</ele>
        <time>2016-06-25T14:25:12.000Z</time>
      </trkpt>
      <trkpt lat="44.90019" lon="5.01947">
        <ele>214.17338562012</ele>
        <time>2016-06-25T14:25:15.000Z</time>
      </trkpt>
      <trkpt lat="44.90026" lon="5.01952">
        <ele>214.28869628906</ele>
        <time>2016-06-25T14:25:17.000Z</time>
      </trkpt>
      <trkpt lat="44.90033" lon="5.01961">
        <ele>214.37622070312</ele>
        <time>2016-06-25T14:25:19.000Z</time>
      </trkpt>
      <trkpt lat="44.90039" lon="5.01963">
        <ele>214.43579101562</ele>
        <time>2016-06-25T14:25:21.000Z</time>
      </trkpt>
      <trkpt lat="44.90042" lon="5.01962">
        <ele>214.48010253906</ele>
        <time>2016-06-25T14:25:24.000Z</time>
      </trkpt>
      <trkpt lat="44.90042" lon="5.01959">
        <ele>214.50939941406</ele>
        <time>2016-06-25T14:25:26.000Z</time>
      </trkpt>
      <trkpt lat="44.90041" lon="5.01959">
        <ele>214.52746582031</ele>
        <time>2016-06-25T14:25:28.000Z</time>
      </trkpt>
      <trkpt lat="44.90039" lon="5.0196">
        <ele>214.52612304688</ele>
        <time>2016-06-25T14:25:31.000Z</time>
      </trkpt>
      <trkpt lat="44.9004" lon="5.01961">
        <ele>214.52355957031</ele>
        <time>2016-06-25T14:25:33.000Z</time>
      </trkpt>
      <trkpt lat="44.9004" lon="5.01961">
        <ele>214.52355957031</ele>
        <time>2016-06-25T14:25:42.000Z</time>
      </trkpt>
    </trkseg>
  </trk>
</gpx>